<?xml version="1.0" encoding="UTF-8" standalone="no" ?>
<gpx xmlns="http://www.topografix.com/GPX/1/1" xmlns:xsi="http://www.w3.org/2001/XMLSchema-instance" xsi:schemaLocation="http://www.topografix.com/GPX/1/1 http://www.topografix.com/GPX/1/1/gpx.xsd" version="1.1" creator="VisuGPX - https://www.visugpx.com">
  <metadata>
    <name>Trilogie de la bourgeat noire</name>
    <desc><![CDATA[Superbe !
Première descente déjà bien sympathique et au final c'est la moins bien des 3 !
Seul la remontée au roc du Leat est un peu penible (beaucoup de poussage). La descente derrière est exceptionnelle : variée, qq passages techniques, roulante. le top !
Remontée au chalet du bout par une piste confirtable et une descente rapide très ludique pour terminer !]]></desc>
  </metadata>
  <trk>
    <name><![CDATA[2016-09-25-01]]></name>
    <trkseg>
      <trkpt lat="45.35918" lon="6.10048">
        <ele>761.4</ele>
        <time>2016-09-25T09:41:47Z</time>
      </trkpt>
      <trkpt lat="45.35917" lon="6.10047">
        <ele>761</ele>
        <time>2016-09-25T09:41:47Z</time>
      </trkpt>
      <trkpt lat="45.35917" lon="6.10047">
        <ele>761</ele>
        <time>2016-09-25T09:41:47Z</time>
      </trkpt>
      <trkpt lat="45.35921" lon="6.10058">
        <ele>768.2</ele>
        <time>2016-09-25T09:41:52Z</time>
      </trkpt>
      <trkpt lat="45.35931" lon="6.10062">
        <ele>775.4</ele>
        <time>2016-09-25T09:42:00Z</time>
      </trkpt>
      <trkpt lat="45.3594" lon="6.10056">
        <ele>778.4</ele>
        <time>2016-09-25T09:42:05Z</time>
      </trkpt>
      <trkpt lat="45.35949" lon="6.10057">
        <ele>780.3</ele>
        <time>2016-09-25T09:42:09Z</time>
      </trkpt>
      <trkpt lat="45.35958" lon="6.10056">
        <ele>781.8</ele>
        <time>2016-09-25T09:42:13Z</time>
      </trkpt>
      <trkpt lat="45.35968" lon="6.10056">
        <ele>783.2</ele>
        <time>2016-09-25T09:42:17Z</time>
      </trkpt>
      <trkpt lat="45.35977" lon="6.10058">
        <ele>784</ele>
        <time>2016-09-25T09:42:20Z</time>
      </trkpt>
      <trkpt lat="45.35989" lon="6.1006">
        <ele>785</ele>
        <time>2016-09-25T09:42:24Z</time>
      </trkpt>
      <trkpt lat="45.36" lon="6.1006">
        <ele>785.8</ele>
        <time>2016-09-25T09:42:28Z</time>
      </trkpt>
      <trkpt lat="45.3601" lon="6.10063">
        <ele>786.4</ele>
        <time>2016-09-25T09:42:31Z</time>
      </trkpt>
      <trkpt lat="45.3602" lon="6.1006">
        <ele>787.2</ele>
        <time>2016-09-25T09:42:35Z</time>
      </trkpt>
      <trkpt lat="45.3602" lon="6.10035">
        <ele>787.8</ele>
        <time>2016-09-25T09:42:39Z</time>
      </trkpt>
      <trkpt lat="45.36019" lon="6.10019">
        <ele>788.1</ele>
        <time>2016-09-25T09:42:41Z</time>
      </trkpt>
      <trkpt lat="45.36024" lon="6.10005">
        <ele>788.9</ele>
        <time>2016-09-25T09:42:45Z</time>
      </trkpt>
      <trkpt lat="45.3603" lon="6.09993">
        <ele>789.6</ele>
        <time>2016-09-25T09:42:49Z</time>
      </trkpt>
      <trkpt lat="45.36039" lon="6.09987">
        <ele>790.3</ele>
        <time>2016-09-25T09:42:53Z</time>
      </trkpt>
      <trkpt lat="45.36041" lon="6.09971">
        <ele>790.8</ele>
        <time>2016-09-25T09:42:56Z</time>
      </trkpt>
      <trkpt lat="45.3605" lon="6.09965">
        <ele>791.6</ele>
        <time>2016-09-25T09:43:00Z</time>
      </trkpt>
      <trkpt lat="45.36059" lon="6.09968">
        <ele>792.1</ele>
        <time>2016-09-25T09:43:03Z</time>
      </trkpt>
      <trkpt lat="45.36068" lon="6.09962">
        <ele>792.9</ele>
        <time>2016-09-25T09:43:07Z</time>
      </trkpt>
      <trkpt lat="45.36077" lon="6.09957">
        <ele>793.6</ele>
        <time>2016-09-25T09:43:11Z</time>
      </trkpt>
      <trkpt lat="45.36085" lon="6.09952">
        <ele>794.2</ele>
        <time>2016-09-25T09:43:15Z</time>
      </trkpt>
      <trkpt lat="45.36094" lon="6.09947">
        <ele>795</ele>
        <time>2016-09-25T09:43:19Z</time>
      </trkpt>
      <trkpt lat="45.36104" lon="6.09939">
        <ele>796</ele>
        <time>2016-09-25T09:43:24Z</time>
      </trkpt>
      <trkpt lat="45.36112" lon="6.09934">
        <ele>796.7</ele>
        <time>2016-09-25T09:43:28Z</time>
      </trkpt>
      <trkpt lat="45.36121" lon="6.09931">
        <ele>797.4</ele>
        <time>2016-09-25T09:43:32Z</time>
      </trkpt>
      <trkpt lat="45.36132" lon="6.09926">
        <ele>798.4</ele>
        <time>2016-09-25T09:43:37Z</time>
      </trkpt>
      <trkpt lat="45.3614" lon="6.09922">
        <ele>799.4</ele>
        <time>2016-09-25T09:43:42Z</time>
      </trkpt>
      <trkpt lat="45.36149" lon="6.09913">
        <ele>800.7</ele>
        <time>2016-09-25T09:43:48Z</time>
      </trkpt>
      <trkpt lat="45.36159" lon="6.09908">
        <ele>801.9</ele>
        <time>2016-09-25T09:43:53Z</time>
      </trkpt>
      <trkpt lat="45.36168" lon="6.09904">
        <ele>802.9</ele>
        <time>2016-09-25T09:43:57Z</time>
      </trkpt>
      <trkpt lat="45.36178" lon="6.09901">
        <ele>803.9</ele>
        <time>2016-09-25T09:44:01Z</time>
      </trkpt>
      <trkpt lat="45.36186" lon="6.09892">
        <ele>805.1</ele>
        <time>2016-09-25T09:44:06Z</time>
      </trkpt>
      <trkpt lat="45.36195" lon="6.09885">
        <ele>806.2</ele>
        <time>2016-09-25T09:44:11Z</time>
      </trkpt>
      <trkpt lat="45.36203" lon="6.09879">
        <ele>807.4</ele>
        <time>2016-09-25T09:44:16Z</time>
      </trkpt>
      <trkpt lat="45.36212" lon="6.09872">
        <ele>808.8</ele>
        <time>2016-09-25T09:44:22Z</time>
      </trkpt>
      <trkpt lat="45.36222" lon="6.09869">
        <ele>810</ele>
        <time>2016-09-25T09:44:27Z</time>
      </trkpt>
      <trkpt lat="45.36231" lon="6.09865">
        <ele>811.1</ele>
        <time>2016-09-25T09:44:32Z</time>
      </trkpt>
      <trkpt lat="45.36241" lon="6.09862">
        <ele>812.3</ele>
        <time>2016-09-25T09:44:37Z</time>
      </trkpt>
      <trkpt lat="45.36251" lon="6.09861">
        <ele>813.5</ele>
        <time>2016-09-25T09:44:42Z</time>
      </trkpt>
      <trkpt lat="45.3626" lon="6.09862">
        <ele>814.7</ele>
        <time>2016-09-25T09:44:47Z</time>
      </trkpt>
      <trkpt lat="45.36269" lon="6.09868">
        <ele>815.6</ele>
        <time>2016-09-25T09:44:51Z</time>
      </trkpt>
      <trkpt lat="45.36279" lon="6.09871">
        <ele>816.8</ele>
        <time>2016-09-25T09:44:56Z</time>
      </trkpt>
      <trkpt lat="45.36289" lon="6.09876">
        <ele>817.9</ele>
        <time>2016-09-25T09:45:01Z</time>
      </trkpt>
      <trkpt lat="45.36298" lon="6.09879">
        <ele>819.1</ele>
        <time>2016-09-25T09:45:06Z</time>
      </trkpt>
      <trkpt lat="45.36308" lon="6.09883">
        <ele>820.5</ele>
        <time>2016-09-25T09:45:12Z</time>
      </trkpt>
      <trkpt lat="45.36317" lon="6.09888">
        <ele>821.6</ele>
        <time>2016-09-25T09:45:17Z</time>
      </trkpt>
      <trkpt lat="45.36325" lon="6.09894">
        <ele>822.8</ele>
        <time>2016-09-25T09:45:22Z</time>
      </trkpt>
      <trkpt lat="45.36335" lon="6.09899">
        <ele>824.1</ele>
        <time>2016-09-25T09:45:27Z</time>
      </trkpt>
      <trkpt lat="45.36349" lon="6.09904">
        <ele>825.3</ele>
        <time>2016-09-25T09:45:32Z</time>
      </trkpt>
      <trkpt lat="45.36359" lon="6.09913">
        <ele>826.4</ele>
        <time>2016-09-25T09:45:37Z</time>
      </trkpt>
      <trkpt lat="45.36368" lon="6.09919">
        <ele>827.4</ele>
        <time>2016-09-25T09:45:43Z</time>
      </trkpt>
      <trkpt lat="45.36375" lon="6.09929">
        <ele>828.6</ele>
        <time>2016-09-25T09:45:49Z</time>
      </trkpt>
      <trkpt lat="45.36383" lon="6.09936">
        <ele>829.9</ele>
        <time>2016-09-25T09:45:56Z</time>
      </trkpt>
      <trkpt lat="45.36391" lon="6.09943">
        <ele>830.9</ele>
        <time>2016-09-25T09:46:01Z</time>
      </trkpt>
      <trkpt lat="45.36401" lon="6.09948">
        <ele>832.1</ele>
        <time>2016-09-25T09:46:06Z</time>
      </trkpt>
      <trkpt lat="45.3641" lon="6.09954">
        <ele>833.4</ele>
        <time>2016-09-25T09:46:12Z</time>
      </trkpt>
      <trkpt lat="45.36419" lon="6.09961">
        <ele>834.7</ele>
        <time>2016-09-25T09:46:17Z</time>
      </trkpt>
      <trkpt lat="45.36427" lon="6.09967">
        <ele>836</ele>
        <time>2016-09-25T09:46:22Z</time>
      </trkpt>
      <trkpt lat="45.36434" lon="6.09975">
        <ele>836.9</ele>
        <time>2016-09-25T09:46:26Z</time>
      </trkpt>
      <trkpt lat="45.36443" lon="6.09983">
        <ele>838</ele>
        <time>2016-09-25T09:46:31Z</time>
      </trkpt>
      <trkpt lat="45.36452" lon="6.0999">
        <ele>839.1</ele>
        <time>2016-09-25T09:46:36Z</time>
      </trkpt>
      <trkpt lat="45.3646" lon="6.09998">
        <ele>840.3</ele>
        <time>2016-09-25T09:46:41Z</time>
      </trkpt>
      <trkpt lat="45.3647" lon="6.10005">
        <ele>841.6</ele>
        <time>2016-09-25T09:46:46Z</time>
      </trkpt>
      <trkpt lat="45.36478" lon="6.10013">
        <ele>842.6</ele>
        <time>2016-09-25T09:46:50Z</time>
      </trkpt>
      <trkpt lat="45.36486" lon="6.10022">
        <ele>843.7</ele>
        <time>2016-09-25T09:46:55Z</time>
      </trkpt>
      <trkpt lat="45.36493" lon="6.10029">
        <ele>844.9</ele>
        <time>2016-09-25T09:47:00Z</time>
      </trkpt>
      <trkpt lat="45.36502" lon="6.10038">
        <ele>846</ele>
        <time>2016-09-25T09:47:05Z</time>
      </trkpt>
      <trkpt lat="45.3651" lon="6.1005">
        <ele>846.9</ele>
        <time>2016-09-25T09:47:09Z</time>
      </trkpt>
      <trkpt lat="45.36518" lon="6.10058">
        <ele>847.8</ele>
        <time>2016-09-25T09:47:13Z</time>
      </trkpt>
      <trkpt lat="45.36529" lon="6.10062">
        <ele>848.9</ele>
        <time>2016-09-25T09:47:18Z</time>
      </trkpt>
      <trkpt lat="45.36538" lon="6.10066">
        <ele>850</ele>
        <time>2016-09-25T09:47:23Z</time>
      </trkpt>
      <trkpt lat="45.36545" lon="6.10075">
        <ele>851.3</ele>
        <time>2016-09-25T09:47:29Z</time>
      </trkpt>
      <trkpt lat="45.36536" lon="6.10078">
        <ele>852.5</ele>
        <time>2016-09-25T09:47:34Z</time>
      </trkpt>
      <trkpt lat="45.36526" lon="6.10074">
        <ele>853.3</ele>
        <time>2016-09-25T09:47:38Z</time>
      </trkpt>
      <trkpt lat="45.36516" lon="6.10066">
        <ele>854.1</ele>
        <time>2016-09-25T09:47:42Z</time>
      </trkpt>
      <trkpt lat="45.36506" lon="6.10064">
        <ele>855.1</ele>
        <time>2016-09-25T09:47:47Z</time>
      </trkpt>
      <trkpt lat="45.36495" lon="6.10063">
        <ele>856.3</ele>
        <time>2016-09-25T09:47:53Z</time>
      </trkpt>
      <trkpt lat="45.36485" lon="6.10062">
        <ele>857.6</ele>
        <time>2016-09-25T09:47:59Z</time>
      </trkpt>
      <trkpt lat="45.36475" lon="6.1006">
        <ele>859</ele>
        <time>2016-09-25T09:48:05Z</time>
      </trkpt>
      <trkpt lat="45.36465" lon="6.10057">
        <ele>860.2</ele>
        <time>2016-09-25T09:48:10Z</time>
      </trkpt>
      <trkpt lat="45.36456" lon="6.10056">
        <ele>861.1</ele>
        <time>2016-09-25T09:48:14Z</time>
      </trkpt>
      <trkpt lat="45.36447" lon="6.10052">
        <ele>862.1</ele>
        <time>2016-09-25T09:48:18Z</time>
      </trkpt>
      <trkpt lat="45.36437" lon="6.10054">
        <ele>863.2</ele>
        <time>2016-09-25T09:48:23Z</time>
      </trkpt>
      <trkpt lat="45.36428" lon="6.10051">
        <ele>863.9</ele>
        <time>2016-09-25T09:48:27Z</time>
      </trkpt>
      <trkpt lat="45.36417" lon="6.10049">
        <ele>865.1</ele>
        <time>2016-09-25T09:48:32Z</time>
      </trkpt>
      <trkpt lat="45.36409" lon="6.10046">
        <ele>866.1</ele>
        <time>2016-09-25T09:48:36Z</time>
      </trkpt>
      <trkpt lat="45.36399" lon="6.10043">
        <ele>866.8</ele>
        <time>2016-09-25T09:48:39Z</time>
      </trkpt>
      <trkpt lat="45.36388" lon="6.10042">
        <ele>867.6</ele>
        <time>2016-09-25T09:48:43Z</time>
      </trkpt>
      <trkpt lat="45.36378" lon="6.10039">
        <ele>868.4</ele>
        <time>2016-09-25T09:48:47Z</time>
      </trkpt>
      <trkpt lat="45.36368" lon="6.10036">
        <ele>869.4</ele>
        <time>2016-09-25T09:48:51Z</time>
      </trkpt>
      <trkpt lat="45.36358" lon="6.10035">
        <ele>870.2</ele>
        <time>2016-09-25T09:48:55Z</time>
      </trkpt>
      <trkpt lat="45.36349" lon="6.10035">
        <ele>871</ele>
        <time>2016-09-25T09:48:59Z</time>
      </trkpt>
      <trkpt lat="45.36338" lon="6.10035">
        <ele>871.8</ele>
        <time>2016-09-25T09:49:03Z</time>
      </trkpt>
      <trkpt lat="45.36327" lon="6.10037">
        <ele>872.9</ele>
        <time>2016-09-25T09:49:08Z</time>
      </trkpt>
      <trkpt lat="45.36319" lon="6.10043">
        <ele>873.8</ele>
        <time>2016-09-25T09:49:12Z</time>
      </trkpt>
      <trkpt lat="45.3631" lon="6.10048">
        <ele>874.8</ele>
        <time>2016-09-25T09:49:16Z</time>
      </trkpt>
      <trkpt lat="45.36301" lon="6.10052">
        <ele>876</ele>
        <time>2016-09-25T09:49:21Z</time>
      </trkpt>
      <trkpt lat="45.36293" lon="6.1006">
        <ele>877.1</ele>
        <time>2016-09-25T09:49:26Z</time>
      </trkpt>
      <trkpt lat="45.36286" lon="6.10069">
        <ele>878.1</ele>
        <time>2016-09-25T09:49:30Z</time>
      </trkpt>
      <trkpt lat="45.36277" lon="6.10074">
        <ele>879</ele>
        <time>2016-09-25T09:49:34Z</time>
      </trkpt>
      <trkpt lat="45.36268" lon="6.10082">
        <ele>880.2</ele>
        <time>2016-09-25T09:49:39Z</time>
      </trkpt>
      <trkpt lat="45.3626" lon="6.10088">
        <ele>881.1</ele>
        <time>2016-09-25T09:49:43Z</time>
      </trkpt>
      <trkpt lat="45.36251" lon="6.10097">
        <ele>882.3</ele>
        <time>2016-09-25T09:49:48Z</time>
      </trkpt>
      <trkpt lat="45.36242" lon="6.10105">
        <ele>883.4</ele>
        <time>2016-09-25T09:49:53Z</time>
      </trkpt>
      <trkpt lat="45.36232" lon="6.1011">
        <ele>884.6</ele>
        <time>2016-09-25T09:49:58Z</time>
      </trkpt>
      <trkpt lat="45.36223" lon="6.10116">
        <ele>885.5</ele>
        <time>2016-09-25T09:50:02Z</time>
      </trkpt>
      <trkpt lat="45.36214" lon="6.10123">
        <ele>886.7</ele>
        <time>2016-09-25T09:50:07Z</time>
      </trkpt>
      <trkpt lat="45.36204" lon="6.1013">
        <ele>887.9</ele>
        <time>2016-09-25T09:50:12Z</time>
      </trkpt>
      <trkpt lat="45.36195" lon="6.10137">
        <ele>888.8</ele>
        <time>2016-09-25T09:50:16Z</time>
      </trkpt>
      <trkpt lat="45.36185" lon="6.1014">
        <ele>890</ele>
        <time>2016-09-25T09:50:21Z</time>
      </trkpt>
      <trkpt lat="45.36177" lon="6.10146">
        <ele>891.1</ele>
        <time>2016-09-25T09:50:26Z</time>
      </trkpt>
      <trkpt lat="45.36166" lon="6.10147">
        <ele>892.2</ele>
        <time>2016-09-25T09:50:31Z</time>
      </trkpt>
      <trkpt lat="45.36157" lon="6.10149">
        <ele>892.9</ele>
        <time>2016-09-25T09:50:35Z</time>
      </trkpt>
      <trkpt lat="45.36147" lon="6.10153">
        <ele>893.7</ele>
        <time>2016-09-25T09:50:39Z</time>
      </trkpt>
      <trkpt lat="45.36138" lon="6.10158">
        <ele>894.5</ele>
        <time>2016-09-25T09:50:43Z</time>
      </trkpt>
      <trkpt lat="45.3613" lon="6.10163">
        <ele>895.3</ele>
        <time>2016-09-25T09:50:47Z</time>
      </trkpt>
      <trkpt lat="45.36121" lon="6.10169">
        <ele>896.1</ele>
        <time>2016-09-25T09:50:51Z</time>
      </trkpt>
      <trkpt lat="45.36112" lon="6.10176">
        <ele>897</ele>
        <time>2016-09-25T09:50:56Z</time>
      </trkpt>
      <trkpt lat="45.36104" lon="6.10182">
        <ele>897.6</ele>
        <time>2016-09-25T09:51:00Z</time>
      </trkpt>
      <trkpt lat="45.36095" lon="6.1019">
        <ele>898.4</ele>
        <time>2016-09-25T09:51:04Z</time>
      </trkpt>
      <trkpt lat="45.36085" lon="6.10198">
        <ele>899.1</ele>
        <time>2016-09-25T09:51:08Z</time>
      </trkpt>
      <trkpt lat="45.36076" lon="6.10204">
        <ele>899.8</ele>
        <time>2016-09-25T09:51:12Z</time>
      </trkpt>
      <trkpt lat="45.36067" lon="6.10213">
        <ele>900.4</ele>
        <time>2016-09-25T09:51:16Z</time>
      </trkpt>
      <trkpt lat="45.36059" lon="6.10222">
        <ele>901.1</ele>
        <time>2016-09-25T09:51:20Z</time>
      </trkpt>
      <trkpt lat="45.36051" lon="6.1023">
        <ele>901.8</ele>
        <time>2016-09-25T09:51:24Z</time>
      </trkpt>
      <trkpt lat="45.36043" lon="6.10236">
        <ele>902.6</ele>
        <time>2016-09-25T09:51:28Z</time>
      </trkpt>
      <trkpt lat="45.36034" lon="6.10247">
        <ele>903.3</ele>
        <time>2016-09-25T09:51:32Z</time>
      </trkpt>
      <trkpt lat="45.36026" lon="6.10258">
        <ele>903.8</ele>
        <time>2016-09-25T09:51:36Z</time>
      </trkpt>
      <trkpt lat="45.36019" lon="6.10271">
        <ele>904.4</ele>
        <time>2016-09-25T09:51:40Z</time>
      </trkpt>
      <trkpt lat="45.36012" lon="6.10282">
        <ele>905.1</ele>
        <time>2016-09-25T09:51:44Z</time>
      </trkpt>
      <trkpt lat="45.36008" lon="6.10295">
        <ele>905.5</ele>
        <time>2016-09-25T09:51:47Z</time>
      </trkpt>
      <trkpt lat="45.36015" lon="6.10305">
        <ele>906.4</ele>
        <time>2016-09-25T09:51:52Z</time>
      </trkpt>
      <trkpt lat="45.36023" lon="6.10299">
        <ele>907.1</ele>
        <time>2016-09-25T09:51:56Z</time>
      </trkpt>
      <trkpt lat="45.3603" lon="6.1029">
        <ele>908.1</ele>
        <time>2016-09-25T09:52:01Z</time>
      </trkpt>
      <trkpt lat="45.36038" lon="6.1028">
        <ele>909</ele>
        <time>2016-09-25T09:52:06Z</time>
      </trkpt>
      <trkpt lat="45.36048" lon="6.10279">
        <ele>909.8</ele>
        <time>2016-09-25T09:52:10Z</time>
      </trkpt>
      <trkpt lat="45.36058" lon="6.10275">
        <ele>910.8</ele>
        <time>2016-09-25T09:52:15Z</time>
      </trkpt>
      <trkpt lat="45.36067" lon="6.10266">
        <ele>911.5</ele>
        <time>2016-09-25T09:52:19Z</time>
      </trkpt>
      <trkpt lat="45.36077" lon="6.10266">
        <ele>912.3</ele>
        <time>2016-09-25T09:52:23Z</time>
      </trkpt>
      <trkpt lat="45.36086" lon="6.10265">
        <ele>913.1</ele>
        <time>2016-09-25T09:52:27Z</time>
      </trkpt>
      <trkpt lat="45.36096" lon="6.10258">
        <ele>914.1</ele>
        <time>2016-09-25T09:52:32Z</time>
      </trkpt>
      <trkpt lat="45.36104" lon="6.10251">
        <ele>914.9</ele>
        <time>2016-09-25T09:52:36Z</time>
      </trkpt>
      <trkpt lat="45.36113" lon="6.10244">
        <ele>916</ele>
        <time>2016-09-25T09:52:41Z</time>
      </trkpt>
      <trkpt lat="45.36123" lon="6.10241">
        <ele>916.9</ele>
        <time>2016-09-25T09:52:45Z</time>
      </trkpt>
      <trkpt lat="45.36134" lon="6.10241">
        <ele>917.6</ele>
        <time>2016-09-25T09:52:49Z</time>
      </trkpt>
      <trkpt lat="45.36145" lon="6.10238">
        <ele>918.5</ele>
        <time>2016-09-25T09:52:53Z</time>
      </trkpt>
      <trkpt lat="45.36155" lon="6.10237">
        <ele>919.2</ele>
        <time>2016-09-25T09:52:57Z</time>
      </trkpt>
      <trkpt lat="45.36166" lon="6.10235">
        <ele>920</ele>
        <time>2016-09-25T09:53:01Z</time>
      </trkpt>
      <trkpt lat="45.36176" lon="6.10233">
        <ele>920.7</ele>
        <time>2016-09-25T09:53:05Z</time>
      </trkpt>
      <trkpt lat="45.36186" lon="6.10231">
        <ele>921.5</ele>
        <time>2016-09-25T09:53:09Z</time>
      </trkpt>
      <trkpt lat="45.36197" lon="6.10231">
        <ele>922.3</ele>
        <time>2016-09-25T09:53:13Z</time>
      </trkpt>
      <trkpt lat="45.36208" lon="6.10232">
        <ele>922.9</ele>
        <time>2016-09-25T09:53:17Z</time>
      </trkpt>
      <trkpt lat="45.36217" lon="6.10236">
        <ele>923.4</ele>
        <time>2016-09-25T09:53:20Z</time>
      </trkpt>
      <trkpt lat="45.36227" lon="6.10241">
        <ele>923.9</ele>
        <time>2016-09-25T09:53:23Z</time>
      </trkpt>
      <trkpt lat="45.36238" lon="6.10241">
        <ele>924.5</ele>
        <time>2016-09-25T09:53:27Z</time>
      </trkpt>
      <trkpt lat="45.36248" lon="6.10241">
        <ele>925.1</ele>
        <time>2016-09-25T09:53:31Z</time>
      </trkpt>
      <trkpt lat="45.36258" lon="6.10241">
        <ele>925.6</ele>
        <time>2016-09-25T09:53:35Z</time>
      </trkpt>
      <trkpt lat="45.36269" lon="6.10244">
        <ele>926.2</ele>
        <time>2016-09-25T09:53:39Z</time>
      </trkpt>
      <trkpt lat="45.36279" lon="6.10248">
        <ele>926.7</ele>
        <time>2016-09-25T09:53:43Z</time>
      </trkpt>
      <trkpt lat="45.36291" lon="6.10249">
        <ele>927.3</ele>
        <time>2016-09-25T09:53:47Z</time>
      </trkpt>
      <trkpt lat="45.363" lon="6.10249">
        <ele>927.8</ele>
        <time>2016-09-25T09:53:50Z</time>
      </trkpt>
      <trkpt lat="45.3631" lon="6.10253">
        <ele>928.5</ele>
        <time>2016-09-25T09:53:54Z</time>
      </trkpt>
      <trkpt lat="45.36321" lon="6.10254">
        <ele>929.6</ele>
        <time>2016-09-25T09:53:59Z</time>
      </trkpt>
      <trkpt lat="45.36331" lon="6.10253">
        <ele>930.6</ele>
        <time>2016-09-25T09:54:04Z</time>
      </trkpt>
      <trkpt lat="45.36342" lon="6.10255">
        <ele>931.7</ele>
        <time>2016-09-25T09:54:09Z</time>
      </trkpt>
      <trkpt lat="45.3635" lon="6.10259">
        <ele>932.7</ele>
        <time>2016-09-25T09:54:13Z</time>
      </trkpt>
      <trkpt lat="45.36361" lon="6.10261">
        <ele>933.9</ele>
        <time>2016-09-25T09:54:18Z</time>
      </trkpt>
      <trkpt lat="45.36371" lon="6.10263">
        <ele>935.4</ele>
        <time>2016-09-25T09:54:24Z</time>
      </trkpt>
      <trkpt lat="45.36381" lon="6.1027">
        <ele>936.5</ele>
        <time>2016-09-25T09:54:28Z</time>
      </trkpt>
      <trkpt lat="45.36391" lon="6.10265">
        <ele>938.3</ele>
        <time>2016-09-25T09:54:34Z</time>
      </trkpt>
      <trkpt lat="45.36402" lon="6.10261">
        <ele>939.8</ele>
        <time>2016-09-25T09:54:39Z</time>
      </trkpt>
      <trkpt lat="45.36411" lon="6.10257">
        <ele>941.2</ele>
        <time>2016-09-25T09:54:44Z</time>
      </trkpt>
      <trkpt lat="45.3642" lon="6.10252">
        <ele>942.6</ele>
        <time>2016-09-25T09:54:49Z</time>
      </trkpt>
      <trkpt lat="45.36429" lon="6.1025">
        <ele>943.7</ele>
        <time>2016-09-25T09:54:53Z</time>
      </trkpt>
      <trkpt lat="45.36439" lon="6.10252">
        <ele>945.1</ele>
        <time>2016-09-25T09:54:58Z</time>
      </trkpt>
      <trkpt lat="45.36439" lon="6.10265">
        <ele>946.7</ele>
        <time>2016-09-25T09:55:04Z</time>
      </trkpt>
      <trkpt lat="45.3643" lon="6.10269">
        <ele>948.3</ele>
        <time>2016-09-25T09:55:10Z</time>
      </trkpt>
      <trkpt lat="45.36421" lon="6.10273">
        <ele>949.8</ele>
        <time>2016-09-25T09:55:16Z</time>
      </trkpt>
      <trkpt lat="45.36412" lon="6.10281">
        <ele>951.2</ele>
        <time>2016-09-25T09:55:22Z</time>
      </trkpt>
      <trkpt lat="45.36403" lon="6.10289">
        <ele>952.5</ele>
        <time>2016-09-25T09:55:28Z</time>
      </trkpt>
      <trkpt lat="45.36395" lon="6.10296">
        <ele>953.9</ele>
        <time>2016-09-25T09:55:34Z</time>
      </trkpt>
      <trkpt lat="45.36386" lon="6.103">
        <ele>955.1</ele>
        <time>2016-09-25T09:55:39Z</time>
      </trkpt>
      <trkpt lat="45.36377" lon="6.10304">
        <ele>956.1</ele>
        <time>2016-09-25T09:55:44Z</time>
      </trkpt>
      <trkpt lat="45.36367" lon="6.1031">
        <ele>957.5</ele>
        <time>2016-09-25T09:55:50Z</time>
      </trkpt>
      <trkpt lat="45.36358" lon="6.10316">
        <ele>958.6</ele>
        <time>2016-09-25T09:55:55Z</time>
      </trkpt>
      <trkpt lat="45.36349" lon="6.1032">
        <ele>959.6</ele>
        <time>2016-09-25T09:56:00Z</time>
      </trkpt>
      <trkpt lat="45.36339" lon="6.10321">
        <ele>960.8</ele>
        <time>2016-09-25T09:56:05Z</time>
      </trkpt>
      <trkpt lat="45.36331" lon="6.10328">
        <ele>962.2</ele>
        <time>2016-09-25T09:56:11Z</time>
      </trkpt>
      <trkpt lat="45.36324" lon="6.10336">
        <ele>963.3</ele>
        <time>2016-09-25T09:56:16Z</time>
      </trkpt>
      <trkpt lat="45.36315" lon="6.10338">
        <ele>964.4</ele>
        <time>2016-09-25T09:56:21Z</time>
      </trkpt>
      <trkpt lat="45.36304" lon="6.10339">
        <ele>965.6</ele>
        <time>2016-09-25T09:56:26Z</time>
      </trkpt>
      <trkpt lat="45.36293" lon="6.1034">
        <ele>966.6</ele>
        <time>2016-09-25T09:56:31Z</time>
      </trkpt>
      <trkpt lat="45.36283" lon="6.1034">
        <ele>967.7</ele>
        <time>2016-09-25T09:56:36Z</time>
      </trkpt>
      <trkpt lat="45.36272" lon="6.10341">
        <ele>968.8</ele>
        <time>2016-09-25T09:56:41Z</time>
      </trkpt>
      <trkpt lat="45.36263" lon="6.10344">
        <ele>969.7</ele>
        <time>2016-09-25T09:56:46Z</time>
      </trkpt>
      <trkpt lat="45.36253" lon="6.10347">
        <ele>970.6</ele>
        <time>2016-09-25T09:56:51Z</time>
      </trkpt>
      <trkpt lat="45.36244" lon="6.1035">
        <ele>971.3</ele>
        <time>2016-09-25T09:56:55Z</time>
      </trkpt>
      <trkpt lat="45.36234" lon="6.10356">
        <ele>972.5</ele>
        <time>2016-09-25T09:57:00Z</time>
      </trkpt>
      <trkpt lat="45.36224" lon="6.1036">
        <ele>974</ele>
        <time>2016-09-25T09:57:06Z</time>
      </trkpt>
      <trkpt lat="45.36215" lon="6.10368">
        <ele>975.7</ele>
        <time>2016-09-25T09:57:12Z</time>
      </trkpt>
      <trkpt lat="45.3621" lon="6.1038">
        <ele>976.9</ele>
        <time>2016-09-25T09:57:17Z</time>
      </trkpt>
      <trkpt lat="45.36213" lon="6.10393">
        <ele>978</ele>
        <time>2016-09-25T09:57:22Z</time>
      </trkpt>
      <trkpt lat="45.36221" lon="6.10402">
        <ele>979.1</ele>
        <time>2016-09-25T09:57:27Z</time>
      </trkpt>
      <trkpt lat="45.3623" lon="6.10404">
        <ele>980.2</ele>
        <time>2016-09-25T09:57:32Z</time>
      </trkpt>
      <trkpt lat="45.36239" lon="6.10403">
        <ele>981.4</ele>
        <time>2016-09-25T09:57:38Z</time>
      </trkpt>
      <trkpt lat="45.36249" lon="6.10404">
        <ele>982.5</ele>
        <time>2016-09-25T09:57:44Z</time>
      </trkpt>
      <trkpt lat="45.3626" lon="6.10403">
        <ele>983.5</ele>
        <time>2016-09-25T09:57:50Z</time>
      </trkpt>
      <trkpt lat="45.36269" lon="6.10403">
        <ele>984.3</ele>
        <time>2016-09-25T09:57:55Z</time>
      </trkpt>
      <trkpt lat="45.36279" lon="6.10408">
        <ele>985.4</ele>
        <time>2016-09-25T09:58:00Z</time>
      </trkpt>
      <trkpt lat="45.36287" lon="6.10414">
        <ele>986.1</ele>
        <time>2016-09-25T09:58:04Z</time>
      </trkpt>
      <trkpt lat="45.36297" lon="6.10419">
        <ele>987.2</ele>
        <time>2016-09-25T09:58:09Z</time>
      </trkpt>
      <trkpt lat="45.36307" lon="6.10419">
        <ele>988.5</ele>
        <time>2016-09-25T09:58:16Z</time>
      </trkpt>
      <trkpt lat="45.36316" lon="6.10417">
        <ele>989.6</ele>
        <time>2016-09-25T09:58:22Z</time>
      </trkpt>
      <trkpt lat="45.36325" lon="6.10415">
        <ele>990.8</ele>
        <time>2016-09-25T09:58:28Z</time>
      </trkpt>
      <trkpt lat="45.36334" lon="6.1041">
        <ele>991.7</ele>
        <time>2016-09-25T09:58:33Z</time>
      </trkpt>
      <trkpt lat="45.36343" lon="6.10402">
        <ele>993.2</ele>
        <time>2016-09-25T09:58:40Z</time>
      </trkpt>
      <trkpt lat="45.36353" lon="6.10397">
        <ele>994.5</ele>
        <time>2016-09-25T09:58:46Z</time>
      </trkpt>
      <trkpt lat="45.36362" lon="6.10393">
        <ele>995.9</ele>
        <time>2016-09-25T09:58:52Z</time>
      </trkpt>
      <trkpt lat="45.36372" lon="6.10391">
        <ele>997.1</ele>
        <time>2016-09-25T09:58:58Z</time>
      </trkpt>
      <trkpt lat="45.36383" lon="6.10394">
        <ele>998.3</ele>
        <time>2016-09-25T09:59:04Z</time>
      </trkpt>
      <trkpt lat="45.36392" lon="6.10396">
        <ele>999.2</ele>
        <time>2016-09-25T09:59:09Z</time>
      </trkpt>
      <trkpt lat="45.36402" lon="6.10396">
        <ele>1000.2</ele>
        <time>2016-09-25T09:59:15Z</time>
      </trkpt>
      <trkpt lat="45.36413" lon="6.10397">
        <ele>1001</ele>
        <time>2016-09-25T09:59:20Z</time>
      </trkpt>
      <trkpt lat="45.36422" lon="6.10393">
        <ele>1001.6</ele>
        <time>2016-09-25T09:59:25Z</time>
      </trkpt>
      <trkpt lat="45.36432" lon="6.10391">
        <ele>1002.2</ele>
        <time>2016-09-25T09:59:30Z</time>
      </trkpt>
      <trkpt lat="45.36442" lon="6.10395">
        <ele>1003.1</ele>
        <time>2016-09-25T09:59:36Z</time>
      </trkpt>
      <trkpt lat="45.36452" lon="6.10401">
        <ele>1003.9</ele>
        <time>2016-09-25T09:59:41Z</time>
      </trkpt>
      <trkpt lat="45.3646" lon="6.10408">
        <ele>1004.6</ele>
        <time>2016-09-25T09:59:46Z</time>
      </trkpt>
      <trkpt lat="45.3647" lon="6.10413">
        <ele>1005.5</ele>
        <time>2016-09-25T09:59:51Z</time>
      </trkpt>
      <trkpt lat="45.36479" lon="6.10419">
        <ele>1006.9</ele>
        <time>2016-09-25T09:59:58Z</time>
      </trkpt>
      <trkpt lat="45.3648" lon="6.10432">
        <ele>1008.1</ele>
        <time>2016-09-25T10:00:05Z</time>
      </trkpt>
      <trkpt lat="45.3647" lon="6.10431">
        <ele>1009.4</ele>
        <time>2016-09-25T10:00:12Z</time>
      </trkpt>
      <trkpt lat="45.36461" lon="6.10427">
        <ele>1010.6</ele>
        <time>2016-09-25T10:00:18Z</time>
      </trkpt>
      <trkpt lat="45.36453" lon="6.10422">
        <ele>1011.9</ele>
        <time>2016-09-25T10:00:24Z</time>
      </trkpt>
      <trkpt lat="45.36442" lon="6.10419">
        <ele>1013</ele>
        <time>2016-09-25T10:00:30Z</time>
      </trkpt>
      <trkpt lat="45.36431" lon="6.1042">
        <ele>1013.8</ele>
        <time>2016-09-25T10:00:35Z</time>
      </trkpt>
      <trkpt lat="45.36422" lon="6.10427">
        <ele>1014.7</ele>
        <time>2016-09-25T10:00:41Z</time>
      </trkpt>
      <trkpt lat="45.36415" lon="6.10434">
        <ele>1015.6</ele>
        <time>2016-09-25T10:00:46Z</time>
      </trkpt>
      <trkpt lat="45.36405" lon="6.10441">
        <ele>1016.7</ele>
        <time>2016-09-25T10:00:52Z</time>
      </trkpt>
      <trkpt lat="45.36396" lon="6.10448">
        <ele>1017.7</ele>
        <time>2016-09-25T10:00:57Z</time>
      </trkpt>
      <trkpt lat="45.36387" lon="6.10452">
        <ele>1018.6</ele>
        <time>2016-09-25T10:01:02Z</time>
      </trkpt>
      <trkpt lat="45.36376" lon="6.10454">
        <ele>1019.7</ele>
        <time>2016-09-25T10:01:08Z</time>
      </trkpt>
      <trkpt lat="45.36367" lon="6.10459">
        <ele>1020.6</ele>
        <time>2016-09-25T10:01:13Z</time>
      </trkpt>
      <trkpt lat="45.36358" lon="6.10461">
        <ele>1021.4</ele>
        <time>2016-09-25T10:01:18Z</time>
      </trkpt>
      <trkpt lat="45.36349" lon="6.10464">
        <ele>1022.2</ele>
        <time>2016-09-25T10:01:23Z</time>
      </trkpt>
      <trkpt lat="45.36341" lon="6.10472">
        <ele>1023.3</ele>
        <time>2016-09-25T10:01:29Z</time>
      </trkpt>
      <trkpt lat="45.36333" lon="6.1048">
        <ele>1024.3</ele>
        <time>2016-09-25T10:01:34Z</time>
      </trkpt>
      <trkpt lat="45.36326" lon="6.10491">
        <ele>1025.1</ele>
        <time>2016-09-25T10:01:39Z</time>
      </trkpt>
      <trkpt lat="45.36319" lon="6.10501">
        <ele>1026</ele>
        <time>2016-09-25T10:01:44Z</time>
      </trkpt>
      <trkpt lat="45.3631" lon="6.10508">
        <ele>1027.2</ele>
        <time>2016-09-25T10:01:50Z</time>
      </trkpt>
      <trkpt lat="45.36301" lon="6.10517">
        <ele>1028.3</ele>
        <time>2016-09-25T10:01:55Z</time>
      </trkpt>
      <trkpt lat="45.36294" lon="6.10526">
        <ele>1029.3</ele>
        <time>2016-09-25T10:02:00Z</time>
      </trkpt>
      <trkpt lat="45.36287" lon="6.10537">
        <ele>1030.2</ele>
        <time>2016-09-25T10:02:05Z</time>
      </trkpt>
      <trkpt lat="45.36279" lon="6.10548">
        <ele>1031</ele>
        <time>2016-09-25T10:02:10Z</time>
      </trkpt>
      <trkpt lat="45.36271" lon="6.10557">
        <ele>1031.6</ele>
        <time>2016-09-25T10:02:15Z</time>
      </trkpt>
      <trkpt lat="45.36262" lon="6.10568">
        <ele>1032.3</ele>
        <time>2016-09-25T10:02:20Z</time>
      </trkpt>
      <trkpt lat="45.36255" lon="6.10577">
        <ele>1032.8</ele>
        <time>2016-09-25T10:02:24Z</time>
      </trkpt>
      <trkpt lat="45.36248" lon="6.10586">
        <ele>1033.3</ele>
        <time>2016-09-25T10:02:28Z</time>
      </trkpt>
      <trkpt lat="45.36239" lon="6.10594">
        <ele>1034</ele>
        <time>2016-09-25T10:02:33Z</time>
      </trkpt>
      <trkpt lat="45.36231" lon="6.10604">
        <ele>1034.6</ele>
        <time>2016-09-25T10:02:38Z</time>
      </trkpt>
      <trkpt lat="45.36224" lon="6.10613">
        <ele>1035.4</ele>
        <time>2016-09-25T10:02:43Z</time>
      </trkpt>
      <trkpt lat="45.36216" lon="6.10624">
        <ele>1036.6</ele>
        <time>2016-09-25T10:02:49Z</time>
      </trkpt>
      <trkpt lat="45.36209" lon="6.10634">
        <ele>1037.5</ele>
        <time>2016-09-25T10:02:54Z</time>
      </trkpt>
      <trkpt lat="45.36201" lon="6.10643">
        <ele>1038.5</ele>
        <time>2016-09-25T10:03:00Z</time>
      </trkpt>
      <trkpt lat="45.36193" lon="6.10651">
        <ele>1039.5</ele>
        <time>2016-09-25T10:03:06Z</time>
      </trkpt>
      <trkpt lat="45.36183" lon="6.10655">
        <ele>1040.7</ele>
        <time>2016-09-25T10:03:12Z</time>
      </trkpt>
      <trkpt lat="45.36173" lon="6.10654">
        <ele>1041.9</ele>
        <time>2016-09-25T10:03:18Z</time>
      </trkpt>
      <trkpt lat="45.36163" lon="6.1065">
        <ele>1043</ele>
        <time>2016-09-25T10:03:24Z</time>
      </trkpt>
      <trkpt lat="45.36152" lon="6.10648">
        <ele>1044</ele>
        <time>2016-09-25T10:03:30Z</time>
      </trkpt>
      <trkpt lat="45.36144" lon="6.10644">
        <ele>1045</ele>
        <time>2016-09-25T10:03:36Z</time>
      </trkpt>
      <trkpt lat="45.36133" lon="6.10639">
        <ele>1046.1</ele>
        <time>2016-09-25T10:03:41Z</time>
      </trkpt>
      <trkpt lat="45.36125" lon="6.10633">
        <ele>1047.8</ele>
        <time>2016-09-25T10:03:50Z</time>
      </trkpt>
      <trkpt lat="45.36118" lon="6.10625">
        <ele>1049.4</ele>
        <time>2016-09-25T10:03:58Z</time>
      </trkpt>
      <trkpt lat="45.36112" lon="6.10612">
        <ele>1051.1</ele>
        <time>2016-09-25T10:04:06Z</time>
      </trkpt>
      <trkpt lat="45.36102" lon="6.10612">
        <ele>1052.5</ele>
        <time>2016-09-25T10:04:13Z</time>
      </trkpt>
      <trkpt lat="45.36093" lon="6.10616">
        <ele>1053.6</ele>
        <time>2016-09-25T10:04:19Z</time>
      </trkpt>
      <trkpt lat="45.36084" lon="6.10622">
        <ele>1054.7</ele>
        <time>2016-09-25T10:04:25Z</time>
      </trkpt>
      <trkpt lat="45.36075" lon="6.10625">
        <ele>1055.8</ele>
        <time>2016-09-25T10:04:31Z</time>
      </trkpt>
      <trkpt lat="45.36067" lon="6.10633">
        <ele>1056.8</ele>
        <time>2016-09-25T10:04:37Z</time>
      </trkpt>
      <trkpt lat="45.36058" lon="6.10641">
        <ele>1057.7</ele>
        <time>2016-09-25T10:04:42Z</time>
      </trkpt>
      <trkpt lat="45.3605" lon="6.10647">
        <ele>1058.6</ele>
        <time>2016-09-25T10:04:47Z</time>
      </trkpt>
      <trkpt lat="45.36041" lon="6.10657">
        <ele>1059.5</ele>
        <time>2016-09-25T10:04:53Z</time>
      </trkpt>
      <trkpt lat="45.36033" lon="6.10664">
        <ele>1060.7</ele>
        <time>2016-09-25T10:04:59Z</time>
      </trkpt>
      <trkpt lat="45.36024" lon="6.10672">
        <ele>1061.7</ele>
        <time>2016-09-25T10:05:05Z</time>
      </trkpt>
      <trkpt lat="45.36017" lon="6.10684">
        <ele>1062.9</ele>
        <time>2016-09-25T10:05:11Z</time>
      </trkpt>
      <trkpt lat="45.36016" lon="6.10699">
        <ele>1064</ele>
        <time>2016-09-25T10:05:16Z</time>
      </trkpt>
      <trkpt lat="45.36016" lon="6.10714">
        <ele>1065</ele>
        <time>2016-09-25T10:05:21Z</time>
      </trkpt>
      <trkpt lat="45.36017" lon="6.10729">
        <ele>1065.9</ele>
        <time>2016-09-25T10:05:27Z</time>
      </trkpt>
      <trkpt lat="45.36016" lon="6.10742">
        <ele>1067.4</ele>
        <time>2016-09-25T10:05:35Z</time>
      </trkpt>
      <trkpt lat="45.36008" lon="6.1075">
        <ele>1068.3</ele>
        <time>2016-09-25T10:05:41Z</time>
      </trkpt>
      <trkpt lat="45.36003" lon="6.10761">
        <ele>1068.8</ele>
        <time>2016-09-25T10:05:44Z</time>
      </trkpt>
      <trkpt lat="45.35996" lon="6.10769">
        <ele>1069.7</ele>
        <time>2016-09-25T10:05:49Z</time>
      </trkpt>
      <trkpt lat="45.35987" lon="6.10775">
        <ele>1070.8</ele>
        <time>2016-09-25T10:05:56Z</time>
      </trkpt>
      <trkpt lat="45.3598" lon="6.10785">
        <ele>1071.8</ele>
        <time>2016-09-25T10:06:02Z</time>
      </trkpt>
      <trkpt lat="45.35976" lon="6.10796">
        <ele>1072.4</ele>
        <time>2016-09-25T10:06:07Z</time>
      </trkpt>
      <trkpt lat="45.35971" lon="6.10809">
        <ele>1073.3</ele>
        <time>2016-09-25T10:06:13Z</time>
      </trkpt>
      <trkpt lat="45.35966" lon="6.1082">
        <ele>1074</ele>
        <time>2016-09-25T10:06:18Z</time>
      </trkpt>
      <trkpt lat="45.35964" lon="6.10835">
        <ele>1074.7</ele>
        <time>2016-09-25T10:06:23Z</time>
      </trkpt>
      <trkpt lat="45.35958" lon="6.10846">
        <ele>1075.7</ele>
        <time>2016-09-25T10:06:30Z</time>
      </trkpt>
      <trkpt lat="45.35948" lon="6.10848">
        <ele>1076.8</ele>
        <time>2016-09-25T10:06:37Z</time>
      </trkpt>
      <trkpt lat="45.3594" lon="6.10843">
        <ele>1078</ele>
        <time>2016-09-25T10:06:43Z</time>
      </trkpt>
      <trkpt lat="45.3593" lon="6.10842">
        <ele>1079.3</ele>
        <time>2016-09-25T10:06:50Z</time>
      </trkpt>
      <trkpt lat="45.35923" lon="6.10852">
        <ele>1080.3</ele>
        <time>2016-09-25T10:06:56Z</time>
      </trkpt>
      <trkpt lat="45.35918" lon="6.10864">
        <ele>1081.2</ele>
        <time>2016-09-25T10:07:01Z</time>
      </trkpt>
      <trkpt lat="45.3591" lon="6.10871">
        <ele>1082.2</ele>
        <time>2016-09-25T10:07:07Z</time>
      </trkpt>
      <trkpt lat="45.35901" lon="6.10872">
        <ele>1083.5</ele>
        <time>2016-09-25T10:07:15Z</time>
      </trkpt>
      <trkpt lat="45.35892" lon="6.10871">
        <ele>1084.6</ele>
        <time>2016-09-25T10:07:21Z</time>
      </trkpt>
      <trkpt lat="45.35883" lon="6.10869">
        <ele>1085.4</ele>
        <time>2016-09-25T10:07:26Z</time>
      </trkpt>
      <trkpt lat="45.35874" lon="6.10873">
        <ele>1086.2</ele>
        <time>2016-09-25T10:07:32Z</time>
      </trkpt>
      <trkpt lat="45.35863" lon="6.10876">
        <ele>1086.9</ele>
        <time>2016-09-25T10:07:38Z</time>
      </trkpt>
      <trkpt lat="45.35853" lon="6.10879">
        <ele>1087.5</ele>
        <time>2016-09-25T10:07:43Z</time>
      </trkpt>
      <trkpt lat="45.35843" lon="6.10882">
        <ele>1088.1</ele>
        <time>2016-09-25T10:07:48Z</time>
      </trkpt>
      <trkpt lat="45.35835" lon="6.1089">
        <ele>1089.1</ele>
        <time>2016-09-25T10:07:54Z</time>
      </trkpt>
      <trkpt lat="45.35827" lon="6.10895">
        <ele>1090.1</ele>
        <time>2016-09-25T10:08:00Z</time>
      </trkpt>
      <trkpt lat="45.35818" lon="6.10901">
        <ele>1091.2</ele>
        <time>2016-09-25T10:08:06Z</time>
      </trkpt>
      <trkpt lat="45.35812" lon="6.10912">
        <ele>1092.3</ele>
        <time>2016-09-25T10:08:12Z</time>
      </trkpt>
      <trkpt lat="45.35807" lon="6.10924">
        <ele>1093.3</ele>
        <time>2016-09-25T10:08:18Z</time>
      </trkpt>
      <trkpt lat="45.35803" lon="6.10936">
        <ele>1094.4</ele>
        <time>2016-09-25T10:08:24Z</time>
      </trkpt>
      <trkpt lat="45.358" lon="6.1095">
        <ele>1095.6</ele>
        <time>2016-09-25T10:08:31Z</time>
      </trkpt>
      <trkpt lat="45.35796" lon="6.10962">
        <ele>1096.8</ele>
        <time>2016-09-25T10:08:38Z</time>
      </trkpt>
      <trkpt lat="45.35788" lon="6.10972">
        <ele>1098.3</ele>
        <time>2016-09-25T10:08:46Z</time>
      </trkpt>
      <trkpt lat="45.35779" lon="6.10977">
        <ele>1099.1</ele>
        <time>2016-09-25T10:08:51Z</time>
      </trkpt>
      <trkpt lat="45.35776" lon="6.10965">
        <ele>1100.6</ele>
        <time>2016-09-25T10:08:59Z</time>
      </trkpt>
      <trkpt lat="45.35773" lon="6.10953">
        <ele>1101.7</ele>
        <time>2016-09-25T10:09:05Z</time>
      </trkpt>
      <trkpt lat="45.35768" lon="6.1094">
        <ele>1103</ele>
        <time>2016-09-25T10:09:11Z</time>
      </trkpt>
      <trkpt lat="45.35766" lon="6.10926">
        <ele>1104.4</ele>
        <time>2016-09-25T10:09:19Z</time>
      </trkpt>
      <trkpt lat="45.35761" lon="6.10915">
        <ele>1105.4</ele>
        <time>2016-09-25T10:09:24Z</time>
      </trkpt>
      <trkpt lat="45.35756" lon="6.10903">
        <ele>1106.4</ele>
        <time>2016-09-25T10:09:29Z</time>
      </trkpt>
      <trkpt lat="45.35752" lon="6.10891">
        <ele>1107.7</ele>
        <time>2016-09-25T10:09:35Z</time>
      </trkpt>
      <trkpt lat="45.35749" lon="6.10878">
        <ele>1108.8</ele>
        <time>2016-09-25T10:09:40Z</time>
      </trkpt>
      <trkpt lat="45.35744" lon="6.10864">
        <ele>1109.9</ele>
        <time>2016-09-25T10:09:46Z</time>
      </trkpt>
      <trkpt lat="45.35738" lon="6.10853">
        <ele>1110.9</ele>
        <time>2016-09-25T10:09:52Z</time>
      </trkpt>
      <trkpt lat="45.35727" lon="6.10851">
        <ele>1111.9</ele>
        <time>2016-09-25T10:09:58Z</time>
      </trkpt>
      <trkpt lat="45.35717" lon="6.10851">
        <ele>1112.7</ele>
        <time>2016-09-25T10:10:03Z</time>
      </trkpt>
      <trkpt lat="45.35708" lon="6.10851">
        <ele>1113.6</ele>
        <time>2016-09-25T10:10:08Z</time>
      </trkpt>
      <trkpt lat="45.35698" lon="6.10848">
        <ele>1114.7</ele>
        <time>2016-09-25T10:10:14Z</time>
      </trkpt>
      <trkpt lat="45.35688" lon="6.10847">
        <ele>1115.7</ele>
        <time>2016-09-25T10:10:19Z</time>
      </trkpt>
      <trkpt lat="45.35678" lon="6.10849">
        <ele>1116.6</ele>
        <time>2016-09-25T10:10:24Z</time>
      </trkpt>
      <trkpt lat="45.35669" lon="6.10855">
        <ele>1117.4</ele>
        <time>2016-09-25T10:10:29Z</time>
      </trkpt>
      <trkpt lat="45.35661" lon="6.1086">
        <ele>1118.3</ele>
        <time>2016-09-25T10:10:34Z</time>
      </trkpt>
      <trkpt lat="45.35651" lon="6.1086">
        <ele>1119.4</ele>
        <time>2016-09-25T10:10:40Z</time>
      </trkpt>
      <trkpt lat="45.35641" lon="6.1086">
        <ele>1120.4</ele>
        <time>2016-09-25T10:10:46Z</time>
      </trkpt>
      <trkpt lat="45.35631" lon="6.10861">
        <ele>1121.5</ele>
        <time>2016-09-25T10:10:52Z</time>
      </trkpt>
      <trkpt lat="45.35621" lon="6.10861">
        <ele>1122.7</ele>
        <time>2016-09-25T10:10:58Z</time>
      </trkpt>
      <trkpt lat="45.35612" lon="6.10863">
        <ele>1123.7</ele>
        <time>2016-09-25T10:11:04Z</time>
      </trkpt>
      <trkpt lat="45.35603" lon="6.10863">
        <ele>1124.8</ele>
        <time>2016-09-25T10:11:10Z</time>
      </trkpt>
      <trkpt lat="45.35594" lon="6.10868">
        <ele>1126</ele>
        <time>2016-09-25T10:11:17Z</time>
      </trkpt>
      <trkpt lat="45.35586" lon="6.10878">
        <ele>1127.2</ele>
        <time>2016-09-25T10:11:23Z</time>
      </trkpt>
      <trkpt lat="45.35578" lon="6.10886">
        <ele>1128.4</ele>
        <time>2016-09-25T10:11:29Z</time>
      </trkpt>
      <trkpt lat="45.35569" lon="6.10893">
        <ele>1129.8</ele>
        <time>2016-09-25T10:11:36Z</time>
      </trkpt>
      <trkpt lat="45.35561" lon="6.10899">
        <ele>1131.1</ele>
        <time>2016-09-25T10:11:43Z</time>
      </trkpt>
      <trkpt lat="45.35553" lon="6.10907">
        <ele>1132.5</ele>
        <time>2016-09-25T10:11:51Z</time>
      </trkpt>
      <trkpt lat="45.35544" lon="6.10913">
        <ele>1133.7</ele>
        <time>2016-09-25T10:11:58Z</time>
      </trkpt>
      <trkpt lat="45.35536" lon="6.10922">
        <ele>1134.7</ele>
        <time>2016-09-25T10:12:04Z</time>
      </trkpt>
      <trkpt lat="45.35529" lon="6.1093">
        <ele>1135.7</ele>
        <time>2016-09-25T10:12:10Z</time>
      </trkpt>
      <trkpt lat="45.35522" lon="6.10939">
        <ele>1137.1</ele>
        <time>2016-09-25T10:12:17Z</time>
      </trkpt>
      <trkpt lat="45.35514" lon="6.10947">
        <ele>1138.1</ele>
        <time>2016-09-25T10:12:23Z</time>
      </trkpt>
      <trkpt lat="45.35507" lon="6.10955">
        <ele>1139.1</ele>
        <time>2016-09-25T10:12:29Z</time>
      </trkpt>
      <trkpt lat="45.35499" lon="6.10963">
        <ele>1140.2</ele>
        <time>2016-09-25T10:12:36Z</time>
      </trkpt>
      <trkpt lat="45.35491" lon="6.1097">
        <ele>1141</ele>
        <time>2016-09-25T10:12:42Z</time>
      </trkpt>
      <trkpt lat="45.35483" lon="6.10978">
        <ele>1142.1</ele>
        <time>2016-09-25T10:12:48Z</time>
      </trkpt>
      <trkpt lat="45.35475" lon="6.10986">
        <ele>1143.1</ele>
        <time>2016-09-25T10:12:54Z</time>
      </trkpt>
      <trkpt lat="45.35467" lon="6.10993">
        <ele>1144.1</ele>
        <time>2016-09-25T10:13:00Z</time>
      </trkpt>
      <trkpt lat="45.3546" lon="6.11001">
        <ele>1145.1</ele>
        <time>2016-09-25T10:13:06Z</time>
      </trkpt>
      <trkpt lat="45.3545" lon="6.11005">
        <ele>1146.3</ele>
        <time>2016-09-25T10:13:13Z</time>
      </trkpt>
      <trkpt lat="45.35442" lon="6.11013">
        <ele>1147.5</ele>
        <time>2016-09-25T10:13:20Z</time>
      </trkpt>
      <trkpt lat="45.35435" lon="6.11025">
        <ele>1148.7</ele>
        <time>2016-09-25T10:13:27Z</time>
      </trkpt>
      <trkpt lat="45.35426" lon="6.11031">
        <ele>1149.7</ele>
        <time>2016-09-25T10:13:33Z</time>
      </trkpt>
      <trkpt lat="45.35419" lon="6.11039">
        <ele>1150.5</ele>
        <time>2016-09-25T10:13:39Z</time>
      </trkpt>
      <trkpt lat="45.35411" lon="6.11049">
        <ele>1151.4</ele>
        <time>2016-09-25T10:13:45Z</time>
      </trkpt>
      <trkpt lat="45.35403" lon="6.11058">
        <ele>1152.3</ele>
        <time>2016-09-25T10:13:51Z</time>
      </trkpt>
      <trkpt lat="45.35394" lon="6.11065">
        <ele>1153.1</ele>
        <time>2016-09-25T10:13:57Z</time>
      </trkpt>
      <trkpt lat="45.35388" lon="6.11075">
        <ele>1153.6</ele>
        <time>2016-09-25T10:14:01Z</time>
      </trkpt>
      <trkpt lat="45.3538" lon="6.11081">
        <ele>1154.4</ele>
        <time>2016-09-25T10:14:06Z</time>
      </trkpt>
      <trkpt lat="45.35374" lon="6.11091">
        <ele>1155.3</ele>
        <time>2016-09-25T10:14:12Z</time>
      </trkpt>
      <trkpt lat="45.35365" lon="6.11099">
        <ele>1156</ele>
        <time>2016-09-25T10:14:18Z</time>
      </trkpt>
      <trkpt lat="45.35359" lon="6.1111">
        <ele>1156.6</ele>
        <time>2016-09-25T10:14:24Z</time>
      </trkpt>
      <trkpt lat="45.3535" lon="6.1112">
        <ele>1157.4</ele>
        <time>2016-09-25T10:14:30Z</time>
      </trkpt>
      <trkpt lat="45.35342" lon="6.11128">
        <ele>1158.3</ele>
        <time>2016-09-25T10:14:36Z</time>
      </trkpt>
      <trkpt lat="45.35335" lon="6.11138">
        <ele>1159.3</ele>
        <time>2016-09-25T10:14:42Z</time>
      </trkpt>
      <trkpt lat="45.35327" lon="6.11147">
        <ele>1160.6</ele>
        <time>2016-09-25T10:14:49Z</time>
      </trkpt>
      <trkpt lat="45.35321" lon="6.11158">
        <ele>1161.9</ele>
        <time>2016-09-25T10:14:56Z</time>
      </trkpt>
      <trkpt lat="45.35315" lon="6.11169">
        <ele>1162.8</ele>
        <time>2016-09-25T10:15:01Z</time>
      </trkpt>
      <trkpt lat="45.35311" lon="6.11181">
        <ele>1163.9</ele>
        <time>2016-09-25T10:15:08Z</time>
      </trkpt>
      <trkpt lat="45.35305" lon="6.11191">
        <ele>1165.2</ele>
        <time>2016-09-25T10:15:15Z</time>
      </trkpt>
      <trkpt lat="45.35297" lon="6.112">
        <ele>1166.1</ele>
        <time>2016-09-25T10:15:21Z</time>
      </trkpt>
      <trkpt lat="45.3529" lon="6.11209">
        <ele>1167.2</ele>
        <time>2016-09-25T10:15:28Z</time>
      </trkpt>
      <trkpt lat="45.35281" lon="6.11218">
        <ele>1168.2</ele>
        <time>2016-09-25T10:15:34Z</time>
      </trkpt>
      <trkpt lat="45.35275" lon="6.1123">
        <ele>1169.5</ele>
        <time>2016-09-25T10:15:41Z</time>
      </trkpt>
      <trkpt lat="45.35273" lon="6.11243">
        <ele>1170.5</ele>
        <time>2016-09-25T10:15:47Z</time>
      </trkpt>
      <trkpt lat="45.35273" lon="6.11256">
        <ele>1171.7</ele>
        <time>2016-09-25T10:15:54Z</time>
      </trkpt>
      <trkpt lat="45.35273" lon="6.1127">
        <ele>1172.7</ele>
        <time>2016-09-25T10:16:01Z</time>
      </trkpt>
      <trkpt lat="45.3527" lon="6.11282">
        <ele>1174.2</ele>
        <time>2016-09-25T10:16:11Z</time>
      </trkpt>
      <trkpt lat="45.35265" lon="6.11294">
        <ele>1175.1</ele>
        <time>2016-09-25T10:16:17Z</time>
      </trkpt>
      <trkpt lat="45.35258" lon="6.11303">
        <ele>1176.4</ele>
        <time>2016-09-25T10:16:24Z</time>
      </trkpt>
      <trkpt lat="45.35251" lon="6.11313">
        <ele>1177.8</ele>
        <time>2016-09-25T10:16:32Z</time>
      </trkpt>
      <trkpt lat="45.35243" lon="6.11321">
        <ele>1179</ele>
        <time>2016-09-25T10:16:39Z</time>
      </trkpt>
      <trkpt lat="45.35236" lon="6.11328">
        <ele>1180</ele>
        <time>2016-09-25T10:16:45Z</time>
      </trkpt>
      <trkpt lat="45.35228" lon="6.1134">
        <ele>1181</ele>
        <time>2016-09-25T10:16:50Z</time>
      </trkpt>
      <trkpt lat="45.35218" lon="6.1134">
        <ele>1182.4</ele>
        <time>2016-09-25T10:16:57Z</time>
      </trkpt>
      <trkpt lat="45.35208" lon="6.11339">
        <ele>1183.5</ele>
        <time>2016-09-25T10:17:03Z</time>
      </trkpt>
      <trkpt lat="45.35199" lon="6.11337">
        <ele>1184.5</ele>
        <time>2016-09-25T10:17:09Z</time>
      </trkpt>
      <trkpt lat="45.3519" lon="6.11342">
        <ele>1185.6</ele>
        <time>2016-09-25T10:17:16Z</time>
      </trkpt>
      <trkpt lat="45.35181" lon="6.11347">
        <ele>1186.6</ele>
        <time>2016-09-25T10:17:23Z</time>
      </trkpt>
      <trkpt lat="45.35174" lon="6.11355">
        <ele>1187.8</ele>
        <time>2016-09-25T10:17:30Z</time>
      </trkpt>
      <trkpt lat="45.35166" lon="6.11364">
        <ele>1188.8</ele>
        <time>2016-09-25T10:17:37Z</time>
      </trkpt>
      <trkpt lat="45.35158" lon="6.11372">
        <ele>1189.9</ele>
        <time>2016-09-25T10:17:44Z</time>
      </trkpt>
      <trkpt lat="45.35151" lon="6.11382">
        <ele>1190.9</ele>
        <time>2016-09-25T10:17:50Z</time>
      </trkpt>
      <trkpt lat="45.35143" lon="6.1139">
        <ele>1192</ele>
        <time>2016-09-25T10:17:57Z</time>
      </trkpt>
      <trkpt lat="45.35136" lon="6.11397">
        <ele>1193.1</ele>
        <time>2016-09-25T10:18:04Z</time>
      </trkpt>
      <trkpt lat="45.35127" lon="6.11404">
        <ele>1194.4</ele>
        <time>2016-09-25T10:18:11Z</time>
      </trkpt>
      <trkpt lat="45.3512" lon="6.11413">
        <ele>1195.6</ele>
        <time>2016-09-25T10:18:18Z</time>
      </trkpt>
      <trkpt lat="45.35114" lon="6.11423">
        <ele>1196.7</ele>
        <time>2016-09-25T10:18:25Z</time>
      </trkpt>
      <trkpt lat="45.35108" lon="6.11434">
        <ele>1197.8</ele>
        <time>2016-09-25T10:18:32Z</time>
      </trkpt>
      <trkpt lat="45.35104" lon="6.11445">
        <ele>1198.8</ele>
        <time>2016-09-25T10:18:38Z</time>
      </trkpt>
      <trkpt lat="45.35102" lon="6.11458">
        <ele>1199.7</ele>
        <time>2016-09-25T10:18:44Z</time>
      </trkpt>
      <trkpt lat="45.35101" lon="6.11473">
        <ele>1200.9</ele>
        <time>2016-09-25T10:18:51Z</time>
      </trkpt>
      <trkpt lat="45.35099" lon="6.11487">
        <ele>1202.1</ele>
        <time>2016-09-25T10:18:58Z</time>
      </trkpt>
      <trkpt lat="45.35094" lon="6.115">
        <ele>1203.5</ele>
        <time>2016-09-25T10:19:06Z</time>
      </trkpt>
      <trkpt lat="45.35089" lon="6.11512">
        <ele>1204.8</ele>
        <time>2016-09-25T10:19:13Z</time>
      </trkpt>
      <trkpt lat="45.35088" lon="6.11526">
        <ele>1205.8</ele>
        <time>2016-09-25T10:19:19Z</time>
      </trkpt>
      <trkpt lat="45.35083" lon="6.11536">
        <ele>1207.1</ele>
        <time>2016-09-25T10:19:27Z</time>
      </trkpt>
      <trkpt lat="45.35077" lon="6.11546">
        <ele>1208.4</ele>
        <time>2016-09-25T10:19:34Z</time>
      </trkpt>
      <trkpt lat="45.35069" lon="6.11551">
        <ele>1209.6</ele>
        <time>2016-09-25T10:19:41Z</time>
      </trkpt>
      <trkpt lat="45.3506" lon="6.11558">
        <ele>1210.8</ele>
        <time>2016-09-25T10:19:48Z</time>
      </trkpt>
      <trkpt lat="45.35053" lon="6.11567">
        <ele>1211.8</ele>
        <time>2016-09-25T10:19:55Z</time>
      </trkpt>
      <trkpt lat="45.35047" lon="6.11578">
        <ele>1212.7</ele>
        <time>2016-09-25T10:20:02Z</time>
      </trkpt>
      <trkpt lat="45.35042" lon="6.1159">
        <ele>1213.6</ele>
        <time>2016-09-25T10:20:08Z</time>
      </trkpt>
      <trkpt lat="45.35042" lon="6.11605">
        <ele>1214.7</ele>
        <time>2016-09-25T10:20:15Z</time>
      </trkpt>
      <trkpt lat="45.35042" lon="6.1162">
        <ele>1215.9</ele>
        <time>2016-09-25T10:20:22Z</time>
      </trkpt>
      <trkpt lat="45.35042" lon="6.11633">
        <ele>1217</ele>
        <time>2016-09-25T10:20:29Z</time>
      </trkpt>
      <trkpt lat="45.3504" lon="6.11647">
        <ele>1218.2</ele>
        <time>2016-09-25T10:20:36Z</time>
      </trkpt>
      <trkpt lat="45.35038" lon="6.11659">
        <ele>1219.3</ele>
        <time>2016-09-25T10:20:43Z</time>
      </trkpt>
      <trkpt lat="45.35036" lon="6.11672">
        <ele>1220.4</ele>
        <time>2016-09-25T10:20:50Z</time>
      </trkpt>
      <trkpt lat="45.35032" lon="6.11685">
        <ele>1221.2</ele>
        <time>2016-09-25T10:20:57Z</time>
      </trkpt>
      <trkpt lat="45.35023" lon="6.11691">
        <ele>1222.3</ele>
        <time>2016-09-25T10:21:05Z</time>
      </trkpt>
      <trkpt lat="45.35013" lon="6.11691">
        <ele>1223.3</ele>
        <time>2016-09-25T10:21:12Z</time>
      </trkpt>
      <trkpt lat="45.35004" lon="6.1169">
        <ele>1224.2</ele>
        <time>2016-09-25T10:21:18Z</time>
      </trkpt>
      <trkpt lat="45.34995" lon="6.11688">
        <ele>1225.3</ele>
        <time>2016-09-25T10:21:24Z</time>
      </trkpt>
      <trkpt lat="45.34986" lon="6.11693">
        <ele>1226.3</ele>
        <time>2016-09-25T10:21:30Z</time>
      </trkpt>
      <trkpt lat="45.34979" lon="6.11701">
        <ele>1227.4</ele>
        <time>2016-09-25T10:21:36Z</time>
      </trkpt>
      <trkpt lat="45.34971" lon="6.1171">
        <ele>1229</ele>
        <time>2016-09-25T10:21:43Z</time>
      </trkpt>
      <trkpt lat="45.34966" lon="6.11721">
        <ele>1230.5</ele>
        <time>2016-09-25T10:21:50Z</time>
      </trkpt>
      <trkpt lat="45.3497" lon="6.11733">
        <ele>1232.1</ele>
        <time>2016-09-25T10:21:58Z</time>
      </trkpt>
      <trkpt lat="45.3498" lon="6.11727">
        <ele>1233.4</ele>
        <time>2016-09-25T10:22:06Z</time>
      </trkpt>
      <trkpt lat="45.34989" lon="6.11722">
        <ele>1234.7</ele>
        <time>2016-09-25T10:22:13Z</time>
      </trkpt>
      <trkpt lat="45.34998" lon="6.1172">
        <ele>1235.6</ele>
        <time>2016-09-25T10:22:19Z</time>
      </trkpt>
      <trkpt lat="45.35008" lon="6.11722">
        <ele>1236.6</ele>
        <time>2016-09-25T10:22:25Z</time>
      </trkpt>
      <trkpt lat="45.35017" lon="6.11726">
        <ele>1237.7</ele>
        <time>2016-09-25T10:22:33Z</time>
      </trkpt>
      <trkpt lat="45.35026" lon="6.11733">
        <ele>1238.6</ele>
        <time>2016-09-25T10:22:39Z</time>
      </trkpt>
      <trkpt lat="45.35034" lon="6.11737">
        <ele>1239.2</ele>
        <time>2016-09-25T10:22:44Z</time>
      </trkpt>
      <trkpt lat="45.35044" lon="6.11731">
        <ele>1239.7</ele>
        <time>2016-09-25T10:22:49Z</time>
      </trkpt>
      <trkpt lat="45.35053" lon="6.11721">
        <ele>1240.7</ele>
        <time>2016-09-25T10:22:55Z</time>
      </trkpt>
      <trkpt lat="45.35057" lon="6.1171">
        <ele>1241.6</ele>
        <time>2016-09-25T10:23:01Z</time>
      </trkpt>
      <trkpt lat="45.35061" lon="6.11698">
        <ele>1242.9</ele>
        <time>2016-09-25T10:23:08Z</time>
      </trkpt>
      <trkpt lat="45.35064" lon="6.11684">
        <ele>1243.9</ele>
        <time>2016-09-25T10:23:14Z</time>
      </trkpt>
      <trkpt lat="45.35067" lon="6.11671">
        <ele>1244.9</ele>
        <time>2016-09-25T10:23:20Z</time>
      </trkpt>
      <trkpt lat="45.35071" lon="6.11658">
        <ele>1245.8</ele>
        <time>2016-09-25T10:23:26Z</time>
      </trkpt>
      <trkpt lat="45.35076" lon="6.11647">
        <ele>1246.9</ele>
        <time>2016-09-25T10:23:32Z</time>
      </trkpt>
      <trkpt lat="45.35084" lon="6.11639">
        <ele>1247.7</ele>
        <time>2016-09-25T10:23:38Z</time>
      </trkpt>
      <trkpt lat="45.35091" lon="6.1163">
        <ele>1248.5</ele>
        <time>2016-09-25T10:23:44Z</time>
      </trkpt>
      <trkpt lat="45.351" lon="6.11624">
        <ele>1249.2</ele>
        <time>2016-09-25T10:23:50Z</time>
      </trkpt>
      <trkpt lat="45.35108" lon="6.11618">
        <ele>1250</ele>
        <time>2016-09-25T10:23:55Z</time>
      </trkpt>
      <trkpt lat="45.35115" lon="6.11609">
        <ele>1250.6</ele>
        <time>2016-09-25T10:24:00Z</time>
      </trkpt>
      <trkpt lat="45.35123" lon="6.11599">
        <ele>1251.3</ele>
        <time>2016-09-25T10:24:04Z</time>
      </trkpt>
      <trkpt lat="45.3513" lon="6.11589">
        <ele>1252.4</ele>
        <time>2016-09-25T10:24:10Z</time>
      </trkpt>
      <trkpt lat="45.35138" lon="6.11579">
        <ele>1253.5</ele>
        <time>2016-09-25T10:24:16Z</time>
      </trkpt>
      <trkpt lat="45.35144" lon="6.1157">
        <ele>1254.4</ele>
        <time>2016-09-25T10:24:21Z</time>
      </trkpt>
      <trkpt lat="45.35152" lon="6.11563">
        <ele>1255.3</ele>
        <time>2016-09-25T10:24:26Z</time>
      </trkpt>
      <trkpt lat="45.35159" lon="6.11554">
        <ele>1256.1</ele>
        <time>2016-09-25T10:24:31Z</time>
      </trkpt>
      <trkpt lat="45.35166" lon="6.11544">
        <ele>1256.9</ele>
        <time>2016-09-25T10:24:36Z</time>
      </trkpt>
      <trkpt lat="45.35173" lon="6.11535">
        <ele>1258.5</ele>
        <time>2016-09-25T10:24:42Z</time>
      </trkpt>
      <trkpt lat="45.35181" lon="6.11525">
        <ele>1259.7</ele>
        <time>2016-09-25T10:24:48Z</time>
      </trkpt>
      <trkpt lat="45.35189" lon="6.11519">
        <ele>1260.3</ele>
        <time>2016-09-25T10:24:53Z</time>
      </trkpt>
      <trkpt lat="45.35197" lon="6.11512">
        <ele>1260.8</ele>
        <time>2016-09-25T10:24:58Z</time>
      </trkpt>
      <trkpt lat="45.35205" lon="6.11503">
        <ele>1261.4</ele>
        <time>2016-09-25T10:25:03Z</time>
      </trkpt>
      <trkpt lat="45.35213" lon="6.11496">
        <ele>1262.2</ele>
        <time>2016-09-25T10:25:09Z</time>
      </trkpt>
      <trkpt lat="45.35221" lon="6.11487">
        <ele>1262.9</ele>
        <time>2016-09-25T10:25:14Z</time>
      </trkpt>
      <trkpt lat="45.35228" lon="6.11479">
        <ele>1263.6</ele>
        <time>2016-09-25T10:25:19Z</time>
      </trkpt>
      <trkpt lat="45.35237" lon="6.11473">
        <ele>1264.6</ele>
        <time>2016-09-25T10:25:25Z</time>
      </trkpt>
      <trkpt lat="45.35247" lon="6.11471">
        <ele>1265.7</ele>
        <time>2016-09-25T10:25:31Z</time>
      </trkpt>
      <trkpt lat="45.35258" lon="6.11471">
        <ele>1266.7</ele>
        <time>2016-09-25T10:25:37Z</time>
      </trkpt>
      <trkpt lat="45.35267" lon="6.11473">
        <ele>1268</ele>
        <time>2016-09-25T10:25:43Z</time>
      </trkpt>
      <trkpt lat="45.35277" lon="6.11475">
        <ele>1269.2</ele>
        <time>2016-09-25T10:25:49Z</time>
      </trkpt>
      <trkpt lat="45.35287" lon="6.11473">
        <ele>1270.4</ele>
        <time>2016-09-25T10:25:55Z</time>
      </trkpt>
      <trkpt lat="45.35296" lon="6.11469">
        <ele>1271.3</ele>
        <time>2016-09-25T10:26:00Z</time>
      </trkpt>
      <trkpt lat="45.35304" lon="6.1146">
        <ele>1272.7</ele>
        <time>2016-09-25T10:26:06Z</time>
      </trkpt>
      <trkpt lat="45.35311" lon="6.11451">
        <ele>1273.8</ele>
        <time>2016-09-25T10:26:11Z</time>
      </trkpt>
      <trkpt lat="45.35319" lon="6.11443">
        <ele>1274.9</ele>
        <time>2016-09-25T10:26:17Z</time>
      </trkpt>
      <trkpt lat="45.35329" lon="6.11439">
        <ele>1276</ele>
        <time>2016-09-25T10:26:23Z</time>
      </trkpt>
      <trkpt lat="45.35338" lon="6.11436">
        <ele>1277.2</ele>
        <time>2016-09-25T10:26:29Z</time>
      </trkpt>
      <trkpt lat="45.35347" lon="6.11429">
        <ele>1278.5</ele>
        <time>2016-09-25T10:26:35Z</time>
      </trkpt>
      <trkpt lat="45.35356" lon="6.11421">
        <ele>1279.4</ele>
        <time>2016-09-25T10:26:40Z</time>
      </trkpt>
      <trkpt lat="45.35366" lon="6.11416">
        <ele>1280.7</ele>
        <time>2016-09-25T10:26:46Z</time>
      </trkpt>
      <trkpt lat="45.35374" lon="6.11411">
        <ele>1281.9</ele>
        <time>2016-09-25T10:26:52Z</time>
      </trkpt>
      <trkpt lat="45.35385" lon="6.11413">
        <ele>1283.1</ele>
        <time>2016-09-25T10:26:59Z</time>
      </trkpt>
      <trkpt lat="45.35394" lon="6.11415">
        <ele>1284.1</ele>
        <time>2016-09-25T10:27:05Z</time>
      </trkpt>
      <trkpt lat="45.35403" lon="6.11417">
        <ele>1285.5</ele>
        <time>2016-09-25T10:27:13Z</time>
      </trkpt>
      <trkpt lat="45.35413" lon="6.11417">
        <ele>1286.8</ele>
        <time>2016-09-25T10:27:21Z</time>
      </trkpt>
      <trkpt lat="45.35423" lon="6.11415">
        <ele>1287.9</ele>
        <time>2016-09-25T10:27:28Z</time>
      </trkpt>
      <trkpt lat="45.35432" lon="6.11415">
        <ele>1288.9</ele>
        <time>2016-09-25T10:27:34Z</time>
      </trkpt>
      <trkpt lat="45.35442" lon="6.11412">
        <ele>1289.8</ele>
        <time>2016-09-25T10:27:40Z</time>
      </trkpt>
      <trkpt lat="45.35451" lon="6.11416">
        <ele>1290.9</ele>
        <time>2016-09-25T10:27:46Z</time>
      </trkpt>
      <trkpt lat="45.3546" lon="6.11419">
        <ele>1291.9</ele>
        <time>2016-09-25T10:27:52Z</time>
      </trkpt>
      <trkpt lat="45.35471" lon="6.11421">
        <ele>1293.1</ele>
        <time>2016-09-25T10:27:58Z</time>
      </trkpt>
      <trkpt lat="45.35479" lon="6.11428">
        <ele>1294</ele>
        <time>2016-09-25T10:28:03Z</time>
      </trkpt>
      <trkpt lat="45.35488" lon="6.11434">
        <ele>1294.9</ele>
        <time>2016-09-25T10:28:08Z</time>
      </trkpt>
      <trkpt lat="45.35496" lon="6.11443">
        <ele>1296.6</ele>
        <time>2016-09-25T10:28:15Z</time>
      </trkpt>
      <trkpt lat="45.35503" lon="6.11456">
        <ele>1297.8</ele>
        <time>2016-09-25T10:28:20Z</time>
      </trkpt>
      <trkpt lat="45.35509" lon="6.11468">
        <ele>1298.8</ele>
        <time>2016-09-25T10:28:25Z</time>
      </trkpt>
      <trkpt lat="45.35515" lon="6.11478">
        <ele>1300.1</ele>
        <time>2016-09-25T10:28:31Z</time>
      </trkpt>
      <trkpt lat="45.35518" lon="6.11491">
        <ele>1301.3</ele>
        <time>2016-09-25T10:28:37Z</time>
      </trkpt>
      <trkpt lat="45.35522" lon="6.11503">
        <ele>1302.7</ele>
        <time>2016-09-25T10:28:43Z</time>
      </trkpt>
      <trkpt lat="45.35525" lon="6.11516">
        <ele>1303.8</ele>
        <time>2016-09-25T10:28:49Z</time>
      </trkpt>
      <trkpt lat="45.35528" lon="6.11528">
        <ele>1305</ele>
        <time>2016-09-25T10:28:55Z</time>
      </trkpt>
      <trkpt lat="45.3553" lon="6.11542">
        <ele>1306.5</ele>
        <time>2016-09-25T10:29:02Z</time>
      </trkpt>
      <trkpt lat="45.35533" lon="6.11554">
        <ele>1307.7</ele>
        <time>2016-09-25T10:29:08Z</time>
      </trkpt>
      <trkpt lat="45.35536" lon="6.11568">
        <ele>1309.2</ele>
        <time>2016-09-25T10:29:15Z</time>
      </trkpt>
      <trkpt lat="45.35539" lon="6.1158">
        <ele>1310.9</ele>
        <time>2016-09-25T10:29:23Z</time>
      </trkpt>
      <trkpt lat="45.35546" lon="6.1159">
        <ele>1312.4</ele>
        <time>2016-09-25T10:29:30Z</time>
      </trkpt>
      <trkpt lat="45.35552" lon="6.116">
        <ele>1313.5</ele>
        <time>2016-09-25T10:29:36Z</time>
      </trkpt>
      <trkpt lat="45.35558" lon="6.11614">
        <ele>1314.7</ele>
        <time>2016-09-25T10:29:42Z</time>
      </trkpt>
      <trkpt lat="45.35564" lon="6.11626">
        <ele>1315.7</ele>
        <time>2016-09-25T10:29:47Z</time>
      </trkpt>
      <trkpt lat="45.35566" lon="6.11639">
        <ele>1316.7</ele>
        <time>2016-09-25T10:29:53Z</time>
      </trkpt>
      <trkpt lat="45.35572" lon="6.11651">
        <ele>1317.7</ele>
        <time>2016-09-25T10:29:59Z</time>
      </trkpt>
      <trkpt lat="45.35574" lon="6.11664">
        <ele>1318.6</ele>
        <time>2016-09-25T10:30:05Z</time>
      </trkpt>
      <trkpt lat="45.35579" lon="6.11677">
        <ele>1319.4</ele>
        <time>2016-09-25T10:30:11Z</time>
      </trkpt>
      <trkpt lat="45.35582" lon="6.11691">
        <ele>1320.4</ele>
        <time>2016-09-25T10:30:17Z</time>
      </trkpt>
      <trkpt lat="45.35581" lon="6.11704">
        <ele>1321.3</ele>
        <time>2016-09-25T10:30:22Z</time>
      </trkpt>
      <trkpt lat="45.35582" lon="6.11717">
        <ele>1322.2</ele>
        <time>2016-09-25T10:30:27Z</time>
      </trkpt>
      <trkpt lat="45.35584" lon="6.1173">
        <ele>1323.2</ele>
        <time>2016-09-25T10:30:32Z</time>
      </trkpt>
      <trkpt lat="45.35587" lon="6.11744">
        <ele>1324.4</ele>
        <time>2016-09-25T10:30:37Z</time>
      </trkpt>
      <trkpt lat="45.35587" lon="6.11759">
        <ele>1325.7</ele>
        <time>2016-09-25T10:30:43Z</time>
      </trkpt>
      <trkpt lat="45.35584" lon="6.11772">
        <ele>1326.7</ele>
        <time>2016-09-25T10:30:48Z</time>
      </trkpt>
      <trkpt lat="45.35585" lon="6.11788">
        <ele>1327.7</ele>
        <time>2016-09-25T10:30:54Z</time>
      </trkpt>
      <trkpt lat="45.35588" lon="6.118">
        <ele>1328.6</ele>
        <time>2016-09-25T10:30:59Z</time>
      </trkpt>
      <trkpt lat="45.3559" lon="6.11813">
        <ele>1329.4</ele>
        <time>2016-09-25T10:31:04Z</time>
      </trkpt>
      <trkpt lat="45.35589" lon="6.11826">
        <ele>1330.1</ele>
        <time>2016-09-25T10:31:09Z</time>
      </trkpt>
      <trkpt lat="45.35587" lon="6.11841">
        <ele>1330.8</ele>
        <time>2016-09-25T10:31:14Z</time>
      </trkpt>
      <trkpt lat="45.35589" lon="6.11854">
        <ele>1331.5</ele>
        <time>2016-09-25T10:31:18Z</time>
      </trkpt>
      <trkpt lat="45.3559" lon="6.11868">
        <ele>1332.2</ele>
        <time>2016-09-25T10:31:23Z</time>
      </trkpt>
      <trkpt lat="45.35592" lon="6.11884">
        <ele>1332.9</ele>
        <time>2016-09-25T10:31:28Z</time>
      </trkpt>
      <trkpt lat="45.35595" lon="6.11899">
        <ele>1333.4</ele>
        <time>2016-09-25T10:31:33Z</time>
      </trkpt>
      <trkpt lat="45.35599" lon="6.11913">
        <ele>1334.2</ele>
        <time>2016-09-25T10:31:38Z</time>
      </trkpt>
      <trkpt lat="45.35606" lon="6.11922">
        <ele>1334.9</ele>
        <time>2016-09-25T10:31:43Z</time>
      </trkpt>
      <trkpt lat="45.35615" lon="6.11925">
        <ele>1335.6</ele>
        <time>2016-09-25T10:31:47Z</time>
      </trkpt>
      <trkpt lat="45.35625" lon="6.11917">
        <ele>1336.1</ele>
        <time>2016-09-25T10:31:51Z</time>
      </trkpt>
      <trkpt lat="45.35631" lon="6.11909">
        <ele>1336.8</ele>
        <time>2016-09-25T10:31:55Z</time>
      </trkpt>
      <trkpt lat="45.35636" lon="6.11895">
        <ele>1337.5</ele>
        <time>2016-09-25T10:32:00Z</time>
      </trkpt>
      <trkpt lat="45.35642" lon="6.11882">
        <ele>1338.1</ele>
        <time>2016-09-25T10:32:05Z</time>
      </trkpt>
      <trkpt lat="45.3565" lon="6.11873">
        <ele>1338.8</ele>
        <time>2016-09-25T10:32:10Z</time>
      </trkpt>
      <trkpt lat="45.35658" lon="6.11864">
        <ele>1339.5</ele>
        <time>2016-09-25T10:32:15Z</time>
      </trkpt>
      <trkpt lat="45.35664" lon="6.11854">
        <ele>1339.9</ele>
        <time>2016-09-25T10:32:19Z</time>
      </trkpt>
      <trkpt lat="45.35672" lon="6.11844">
        <ele>1340.7</ele>
        <time>2016-09-25T10:32:24Z</time>
      </trkpt>
      <trkpt lat="45.35679" lon="6.11835">
        <ele>1341.5</ele>
        <time>2016-09-25T10:32:29Z</time>
      </trkpt>
      <trkpt lat="45.35688" lon="6.1183">
        <ele>1342.4</ele>
        <time>2016-09-25T10:32:34Z</time>
      </trkpt>
      <trkpt lat="45.35697" lon="6.11829">
        <ele>1342.9</ele>
        <time>2016-09-25T10:32:38Z</time>
      </trkpt>
      <trkpt lat="45.35707" lon="6.11829">
        <ele>1343.5</ele>
        <time>2016-09-25T10:32:42Z</time>
      </trkpt>
      <trkpt lat="45.35717" lon="6.11829">
        <ele>1344</ele>
        <time>2016-09-25T10:32:46Z</time>
      </trkpt>
      <trkpt lat="45.35727" lon="6.1183">
        <ele>1344.4</ele>
        <time>2016-09-25T10:32:50Z</time>
      </trkpt>
      <trkpt lat="45.35736" lon="6.11836">
        <ele>1345.2</ele>
        <time>2016-09-25T10:32:54Z</time>
      </trkpt>
      <trkpt lat="45.35747" lon="6.11842">
        <ele>1345.8</ele>
        <time>2016-09-25T10:32:58Z</time>
      </trkpt>
      <trkpt lat="45.35758" lon="6.11849">
        <ele>1346.2</ele>
        <time>2016-09-25T10:33:02Z</time>
      </trkpt>
      <trkpt lat="45.35769" lon="6.11854">
        <ele>1346.5</ele>
        <time>2016-09-25T10:33:06Z</time>
      </trkpt>
      <trkpt lat="45.35779" lon="6.11858">
        <ele>1346.9</ele>
        <time>2016-09-25T10:33:10Z</time>
      </trkpt>
      <trkpt lat="45.35789" lon="6.11858">
        <ele>1347.2</ele>
        <time>2016-09-25T10:33:14Z</time>
      </trkpt>
      <trkpt lat="45.35797" lon="6.11847">
        <ele>1347.5</ele>
        <time>2016-09-25T10:33:19Z</time>
      </trkpt>
      <trkpt lat="45.35801" lon="6.11834">
        <ele>1348</ele>
        <time>2016-09-25T10:33:24Z</time>
      </trkpt>
      <trkpt lat="45.35803" lon="6.11821">
        <ele>1348.5</ele>
        <time>2016-09-25T10:33:29Z</time>
      </trkpt>
      <trkpt lat="45.35808" lon="6.11807">
        <ele>1349.2</ele>
        <time>2016-09-25T10:33:35Z</time>
      </trkpt>
      <trkpt lat="45.35811" lon="6.11794">
        <ele>1349.8</ele>
        <time>2016-09-25T10:33:40Z</time>
      </trkpt>
      <trkpt lat="45.35814" lon="6.11781">
        <ele>1350.4</ele>
        <time>2016-09-25T10:33:46Z</time>
      </trkpt>
      <trkpt lat="45.35815" lon="6.11766">
        <ele>1351.1</ele>
        <time>2016-09-25T10:33:52Z</time>
      </trkpt>
      <trkpt lat="45.35818" lon="6.11752">
        <ele>1352.1</ele>
        <time>2016-09-25T10:33:58Z</time>
      </trkpt>
      <trkpt lat="45.35821" lon="6.11738">
        <ele>1352.9</ele>
        <time>2016-09-25T10:34:04Z</time>
      </trkpt>
      <trkpt lat="45.35824" lon="6.11724">
        <ele>1353.6</ele>
        <time>2016-09-25T10:34:10Z</time>
      </trkpt>
      <trkpt lat="45.35827" lon="6.11709">
        <ele>1354.2</ele>
        <time>2016-09-25T10:34:15Z</time>
      </trkpt>
      <trkpt lat="45.35827" lon="6.11696">
        <ele>1354.7</ele>
        <time>2016-09-25T10:34:20Z</time>
      </trkpt>
      <trkpt lat="45.35832" lon="6.11684">
        <ele>1355.2</ele>
        <time>2016-09-25T10:34:25Z</time>
      </trkpt>
      <trkpt lat="45.35837" lon="6.11671">
        <ele>1356</ele>
        <time>2016-09-25T10:34:31Z</time>
      </trkpt>
      <trkpt lat="45.35845" lon="6.11663">
        <ele>1356.6</ele>
        <time>2016-09-25T10:34:37Z</time>
      </trkpt>
      <trkpt lat="45.35854" lon="6.11659">
        <ele>1357.2</ele>
        <time>2016-09-25T10:34:42Z</time>
      </trkpt>
      <trkpt lat="45.35863" lon="6.11661">
        <ele>1357.8</ele>
        <time>2016-09-25T10:34:47Z</time>
      </trkpt>
      <trkpt lat="45.35873" lon="6.11664">
        <ele>1358.4</ele>
        <time>2016-09-25T10:34:53Z</time>
      </trkpt>
      <trkpt lat="45.35882" lon="6.1167">
        <ele>1359.1</ele>
        <time>2016-09-25T10:34:59Z</time>
      </trkpt>
      <trkpt lat="45.35891" lon="6.11676">
        <ele>1359.9</ele>
        <time>2016-09-25T10:35:06Z</time>
      </trkpt>
      <trkpt lat="45.35899" lon="6.11683">
        <ele>1360.5</ele>
        <time>2016-09-25T10:35:11Z</time>
      </trkpt>
      <trkpt lat="45.35908" lon="6.11689">
        <ele>1361.1</ele>
        <time>2016-09-25T10:35:16Z</time>
      </trkpt>
      <trkpt lat="45.35916" lon="6.11695">
        <ele>1361.6</ele>
        <time>2016-09-25T10:35:21Z</time>
      </trkpt>
      <trkpt lat="45.35926" lon="6.117">
        <ele>1362.5</ele>
        <time>2016-09-25T10:35:27Z</time>
      </trkpt>
      <trkpt lat="45.35935" lon="6.11708">
        <ele>1363.4</ele>
        <time>2016-09-25T10:35:33Z</time>
      </trkpt>
      <trkpt lat="45.35942" lon="6.11717">
        <ele>1364.3</ele>
        <time>2016-09-25T10:35:39Z</time>
      </trkpt>
      <trkpt lat="45.35951" lon="6.11722">
        <ele>1365.1</ele>
        <time>2016-09-25T10:35:44Z</time>
      </trkpt>
      <trkpt lat="45.35961" lon="6.11727">
        <ele>1365.9</ele>
        <time>2016-09-25T10:35:50Z</time>
      </trkpt>
      <trkpt lat="45.3597" lon="6.11731">
        <ele>1366.7</ele>
        <time>2016-09-25T10:35:56Z</time>
      </trkpt>
      <trkpt lat="45.35979" lon="6.11734">
        <ele>1367.5</ele>
        <time>2016-09-25T10:36:02Z</time>
      </trkpt>
      <trkpt lat="45.3599" lon="6.11735">
        <ele>1368.2</ele>
        <time>2016-09-25T10:36:07Z</time>
      </trkpt>
      <trkpt lat="45.36" lon="6.11737">
        <ele>1369</ele>
        <time>2016-09-25T10:36:12Z</time>
      </trkpt>
      <trkpt lat="45.3601" lon="6.11739">
        <ele>1369.6</ele>
        <time>2016-09-25T10:36:17Z</time>
      </trkpt>
      <trkpt lat="45.3602" lon="6.11742">
        <ele>1370.5</ele>
        <time>2016-09-25T10:36:23Z</time>
      </trkpt>
      <trkpt lat="45.3603" lon="6.1174">
        <ele>1371.2</ele>
        <time>2016-09-25T10:36:28Z</time>
      </trkpt>
      <trkpt lat="45.36041" lon="6.11739">
        <ele>1371.8</ele>
        <time>2016-09-25T10:36:33Z</time>
      </trkpt>
      <trkpt lat="45.36049" lon="6.11733">
        <ele>1372.3</ele>
        <time>2016-09-25T10:36:37Z</time>
      </trkpt>
      <trkpt lat="45.36056" lon="6.11723">
        <ele>1372.9</ele>
        <time>2016-09-25T10:36:42Z</time>
      </trkpt>
      <trkpt lat="45.3606" lon="6.11709">
        <ele>1373.6</ele>
        <time>2016-09-25T10:36:47Z</time>
      </trkpt>
      <trkpt lat="45.36063" lon="6.11697">
        <ele>1374.4</ele>
        <time>2016-09-25T10:36:52Z</time>
      </trkpt>
      <trkpt lat="45.36067" lon="6.11685">
        <ele>1375</ele>
        <time>2016-09-25T10:36:57Z</time>
      </trkpt>
      <trkpt lat="45.36071" lon="6.11672">
        <ele>1375.6</ele>
        <time>2016-09-25T10:37:02Z</time>
      </trkpt>
      <trkpt lat="45.36075" lon="6.11659">
        <ele>1376</ele>
        <time>2016-09-25T10:37:06Z</time>
      </trkpt>
      <trkpt lat="45.36078" lon="6.11647">
        <ele>1376.4</ele>
        <time>2016-09-25T10:37:10Z</time>
      </trkpt>
      <trkpt lat="45.36082" lon="6.11635">
        <ele>1376.7</ele>
        <time>2016-09-25T10:37:14Z</time>
      </trkpt>
      <trkpt lat="45.36086" lon="6.1162">
        <ele>1377.3</ele>
        <time>2016-09-25T10:37:19Z</time>
      </trkpt>
      <trkpt lat="45.36091" lon="6.11607">
        <ele>1377.8</ele>
        <time>2016-09-25T10:37:24Z</time>
      </trkpt>
      <trkpt lat="45.36097" lon="6.11595">
        <ele>1378.3</ele>
        <time>2016-09-25T10:37:29Z</time>
      </trkpt>
      <trkpt lat="45.36105" lon="6.11588">
        <ele>1378.9</ele>
        <time>2016-09-25T10:37:34Z</time>
      </trkpt>
      <trkpt lat="45.36114" lon="6.11581">
        <ele>1379.7</ele>
        <time>2016-09-25T10:37:40Z</time>
      </trkpt>
      <trkpt lat="45.36122" lon="6.11574">
        <ele>1380.6</ele>
        <time>2016-09-25T10:37:46Z</time>
      </trkpt>
      <trkpt lat="45.36131" lon="6.11569">
        <ele>1381.3</ele>
        <time>2016-09-25T10:37:51Z</time>
      </trkpt>
      <trkpt lat="45.3614" lon="6.11565">
        <ele>1381.9</ele>
        <time>2016-09-25T10:37:56Z</time>
      </trkpt>
      <trkpt lat="45.3615" lon="6.11563">
        <ele>1383</ele>
        <time>2016-09-25T10:38:02Z</time>
      </trkpt>
      <trkpt lat="45.36159" lon="6.11562">
        <ele>1383.8</ele>
        <time>2016-09-25T10:38:07Z</time>
      </trkpt>
      <trkpt lat="45.36168" lon="6.11562">
        <ele>1384.7</ele>
        <time>2016-09-25T10:38:12Z</time>
      </trkpt>
      <trkpt lat="45.36179" lon="6.11561">
        <ele>1385.7</ele>
        <time>2016-09-25T10:38:18Z</time>
      </trkpt>
      <trkpt lat="45.36188" lon="6.11557">
        <ele>1386.4</ele>
        <time>2016-09-25T10:38:23Z</time>
      </trkpt>
      <trkpt lat="45.36199" lon="6.11555">
        <ele>1387.2</ele>
        <time>2016-09-25T10:38:28Z</time>
      </trkpt>
      <trkpt lat="45.36208" lon="6.11552">
        <ele>1387.8</ele>
        <time>2016-09-25T10:38:32Z</time>
      </trkpt>
      <trkpt lat="45.36218" lon="6.11548">
        <ele>1388.5</ele>
        <time>2016-09-25T10:38:37Z</time>
      </trkpt>
      <trkpt lat="45.36226" lon="6.1154">
        <ele>1389.4</ele>
        <time>2016-09-25T10:38:42Z</time>
      </trkpt>
      <trkpt lat="45.36233" lon="6.11533">
        <ele>1390.1</ele>
        <time>2016-09-25T10:38:47Z</time>
      </trkpt>
      <trkpt lat="45.36241" lon="6.11523">
        <ele>1390.9</ele>
        <time>2016-09-25T10:38:52Z</time>
      </trkpt>
      <trkpt lat="45.36248" lon="6.11514">
        <ele>1391.7</ele>
        <time>2016-09-25T10:38:57Z</time>
      </trkpt>
      <trkpt lat="45.36256" lon="6.11507">
        <ele>1392.4</ele>
        <time>2016-09-25T10:39:02Z</time>
      </trkpt>
      <trkpt lat="45.36264" lon="6.115">
        <ele>1393</ele>
        <time>2016-09-25T10:39:07Z</time>
      </trkpt>
      <trkpt lat="45.36274" lon="6.11499">
        <ele>1393.6</ele>
        <time>2016-09-25T10:39:12Z</time>
      </trkpt>
      <trkpt lat="45.36284" lon="6.11499">
        <ele>1394.2</ele>
        <time>2016-09-25T10:39:17Z</time>
      </trkpt>
      <trkpt lat="45.36294" lon="6.115">
        <ele>1394.8</ele>
        <time>2016-09-25T10:39:22Z</time>
      </trkpt>
      <trkpt lat="45.36305" lon="6.11501">
        <ele>1395.3</ele>
        <time>2016-09-25T10:39:27Z</time>
      </trkpt>
      <trkpt lat="45.36316" lon="6.11502">
        <ele>1395.8</ele>
        <time>2016-09-25T10:39:32Z</time>
      </trkpt>
      <trkpt lat="45.36325" lon="6.11502">
        <ele>1396.3</ele>
        <time>2016-09-25T10:39:37Z</time>
      </trkpt>
      <trkpt lat="45.36335" lon="6.115">
        <ele>1396.8</ele>
        <time>2016-09-25T10:39:42Z</time>
      </trkpt>
      <trkpt lat="45.36344" lon="6.11498">
        <ele>1397.4</ele>
        <time>2016-09-25T10:39:47Z</time>
      </trkpt>
      <trkpt lat="45.36353" lon="6.11496">
        <ele>1397.9</ele>
        <time>2016-09-25T10:39:52Z</time>
      </trkpt>
      <trkpt lat="45.36362" lon="6.11499">
        <ele>1398.8</ele>
        <time>2016-09-25T10:39:58Z</time>
      </trkpt>
      <trkpt lat="45.36362" lon="6.11512">
        <ele>1399.9</ele>
        <time>2016-09-25T10:40:06Z</time>
      </trkpt>
      <trkpt lat="45.36353" lon="6.11513">
        <ele>1400.7</ele>
        <time>2016-09-25T10:40:13Z</time>
      </trkpt>
      <trkpt lat="45.36344" lon="6.11515">
        <ele>1401.6</ele>
        <time>2016-09-25T10:40:19Z</time>
      </trkpt>
      <trkpt lat="45.36335" lon="6.11519">
        <ele>1402.4</ele>
        <time>2016-09-25T10:40:25Z</time>
      </trkpt>
      <trkpt lat="45.36326" lon="6.11525">
        <ele>1403.3</ele>
        <time>2016-09-25T10:40:31Z</time>
      </trkpt>
      <trkpt lat="45.36318" lon="6.11531">
        <ele>1404.1</ele>
        <time>2016-09-25T10:40:37Z</time>
      </trkpt>
      <trkpt lat="45.3631" lon="6.1154">
        <ele>1404.9</ele>
        <time>2016-09-25T10:40:43Z</time>
      </trkpt>
      <trkpt lat="45.36301" lon="6.11547">
        <ele>1405.7</ele>
        <time>2016-09-25T10:40:49Z</time>
      </trkpt>
      <trkpt lat="45.36292" lon="6.11555">
        <ele>1406.5</ele>
        <time>2016-09-25T10:40:55Z</time>
      </trkpt>
      <trkpt lat="45.36284" lon="6.11562">
        <ele>1407.3</ele>
        <time>2016-09-25T10:41:01Z</time>
      </trkpt>
      <trkpt lat="45.36274" lon="6.1157">
        <ele>1408</ele>
        <time>2016-09-25T10:41:07Z</time>
      </trkpt>
      <trkpt lat="45.36266" lon="6.11577">
        <ele>1409</ele>
        <time>2016-09-25T10:41:13Z</time>
      </trkpt>
      <trkpt lat="45.36258" lon="6.11585">
        <ele>1410</ele>
        <time>2016-09-25T10:41:19Z</time>
      </trkpt>
      <trkpt lat="45.36249" lon="6.11592">
        <ele>1410.8</ele>
        <time>2016-09-25T10:41:25Z</time>
      </trkpt>
      <trkpt lat="45.36239" lon="6.11597">
        <ele>1411.6</ele>
        <time>2016-09-25T10:41:30Z</time>
      </trkpt>
      <trkpt lat="45.3623" lon="6.11602">
        <ele>1412.3</ele>
        <time>2016-09-25T10:41:35Z</time>
      </trkpt>
      <trkpt lat="45.36221" lon="6.11607">
        <ele>1413.2</ele>
        <time>2016-09-25T10:41:40Z</time>
      </trkpt>
      <trkpt lat="45.3621" lon="6.11612">
        <ele>1414.1</ele>
        <time>2016-09-25T10:41:45Z</time>
      </trkpt>
      <trkpt lat="45.36201" lon="6.11618">
        <ele>1414.9</ele>
        <time>2016-09-25T10:41:50Z</time>
      </trkpt>
      <trkpt lat="45.36193" lon="6.11625">
        <ele>1415.6</ele>
        <time>2016-09-25T10:41:55Z</time>
      </trkpt>
      <trkpt lat="45.36185" lon="6.11632">
        <ele>1416.3</ele>
        <time>2016-09-25T10:42:00Z</time>
      </trkpt>
      <trkpt lat="45.36177" lon="6.1164">
        <ele>1416.9</ele>
        <time>2016-09-25T10:42:05Z</time>
      </trkpt>
      <trkpt lat="45.3617" lon="6.11649">
        <ele>1417.4</ele>
        <time>2016-09-25T10:42:09Z</time>
      </trkpt>
      <trkpt lat="45.36162" lon="6.11661">
        <ele>1418.2</ele>
        <time>2016-09-25T10:42:14Z</time>
      </trkpt>
      <trkpt lat="45.36158" lon="6.11672">
        <ele>1419</ele>
        <time>2016-09-25T10:42:19Z</time>
      </trkpt>
      <trkpt lat="45.36155" lon="6.11686">
        <ele>1420</ele>
        <time>2016-09-25T10:42:24Z</time>
      </trkpt>
      <trkpt lat="45.36153" lon="6.11699">
        <ele>1420.7</ele>
        <time>2016-09-25T10:42:29Z</time>
      </trkpt>
      <trkpt lat="45.36151" lon="6.11714">
        <ele>1421.5</ele>
        <time>2016-09-25T10:42:35Z</time>
      </trkpt>
      <trkpt lat="45.36151" lon="6.11728">
        <ele>1422.5</ele>
        <time>2016-09-25T10:42:41Z</time>
      </trkpt>
      <trkpt lat="45.3615" lon="6.11742">
        <ele>1423.5</ele>
        <time>2016-09-25T10:42:47Z</time>
      </trkpt>
      <trkpt lat="45.36151" lon="6.11755">
        <ele>1424.4</ele>
        <time>2016-09-25T10:42:52Z</time>
      </trkpt>
      <trkpt lat="45.36149" lon="6.11769">
        <ele>1425.4</ele>
        <time>2016-09-25T10:42:57Z</time>
      </trkpt>
      <trkpt lat="45.36147" lon="6.11783">
        <ele>1426.3</ele>
        <time>2016-09-25T10:43:02Z</time>
      </trkpt>
      <trkpt lat="45.36146" lon="6.11796">
        <ele>1427.2</ele>
        <time>2016-09-25T10:43:07Z</time>
      </trkpt>
      <trkpt lat="45.36144" lon="6.11809">
        <ele>1428.1</ele>
        <time>2016-09-25T10:43:12Z</time>
      </trkpt>
      <trkpt lat="45.36141" lon="6.11822">
        <ele>1428.7</ele>
        <time>2016-09-25T10:43:16Z</time>
      </trkpt>
      <trkpt lat="45.3614" lon="6.11835">
        <ele>1429.2</ele>
        <time>2016-09-25T10:43:20Z</time>
      </trkpt>
      <trkpt lat="45.36138" lon="6.1185">
        <ele>1429.9</ele>
        <time>2016-09-25T10:43:25Z</time>
      </trkpt>
      <trkpt lat="45.36138" lon="6.11864">
        <ele>1430.5</ele>
        <time>2016-09-25T10:43:30Z</time>
      </trkpt>
      <trkpt lat="45.36133" lon="6.11876">
        <ele>1430.3</ele>
        <time>2016-09-25T10:43:35Z</time>
      </trkpt>
      <trkpt lat="45.36131" lon="6.11889">
        <ele>1431</ele>
        <time>2016-09-25T10:43:40Z</time>
      </trkpt>
      <trkpt lat="45.36122" lon="6.1189">
        <ele>1431.6</ele>
        <time>2016-09-25T10:43:45Z</time>
      </trkpt>
      <trkpt lat="45.36111" lon="6.11894">
        <ele>1432.2</ele>
        <time>2016-09-25T10:43:50Z</time>
      </trkpt>
      <trkpt lat="45.361" lon="6.11897">
        <ele>1433.2</ele>
        <time>2016-09-25T10:43:55Z</time>
      </trkpt>
      <trkpt lat="45.3609" lon="6.119">
        <ele>1433.8</ele>
        <time>2016-09-25T10:43:59Z</time>
      </trkpt>
      <trkpt lat="45.36081" lon="6.11902">
        <ele>1434.3</ele>
        <time>2016-09-25T10:44:03Z</time>
      </trkpt>
      <trkpt lat="45.36072" lon="6.11905">
        <ele>1434.6</ele>
        <time>2016-09-25T10:44:07Z</time>
      </trkpt>
      <trkpt lat="45.3606" lon="6.11905">
        <ele>1434.9</ele>
        <time>2016-09-25T10:44:11Z</time>
      </trkpt>
      <trkpt lat="45.36049" lon="6.11907">
        <ele>1435.1</ele>
        <time>2016-09-25T10:44:15Z</time>
      </trkpt>
      <trkpt lat="45.36039" lon="6.11911">
        <ele>1435.5</ele>
        <time>2016-09-25T10:44:19Z</time>
      </trkpt>
      <trkpt lat="45.3603" lon="6.1191">
        <ele>1436.1</ele>
        <time>2016-09-25T10:44:24Z</time>
      </trkpt>
      <trkpt lat="45.3602" lon="6.11906">
        <ele>1436.8</ele>
        <time>2016-09-25T10:44:30Z</time>
      </trkpt>
      <trkpt lat="45.36011" lon="6.11904">
        <ele>1437.7</ele>
        <time>2016-09-25T10:44:36Z</time>
      </trkpt>
      <trkpt lat="45.36002" lon="6.11901">
        <ele>1438.6</ele>
        <time>2016-09-25T10:44:41Z</time>
      </trkpt>
      <trkpt lat="45.35992" lon="6.11899">
        <ele>1439.3</ele>
        <time>2016-09-25T10:44:46Z</time>
      </trkpt>
      <trkpt lat="45.35983" lon="6.11901">
        <ele>1440</ele>
        <time>2016-09-25T10:44:51Z</time>
      </trkpt>
      <trkpt lat="45.35975" lon="6.11907">
        <ele>1440.7</ele>
        <time>2016-09-25T10:44:56Z</time>
      </trkpt>
      <trkpt lat="45.3597" lon="6.1192">
        <ele>1441.3</ele>
        <time>2016-09-25T10:45:01Z</time>
      </trkpt>
      <trkpt lat="45.35969" lon="6.11934">
        <ele>1442.1</ele>
        <time>2016-09-25T10:45:06Z</time>
      </trkpt>
      <trkpt lat="45.35971" lon="6.11949">
        <ele>1443.1</ele>
        <time>2016-09-25T10:45:12Z</time>
      </trkpt>
      <trkpt lat="45.35973" lon="6.11961">
        <ele>1443.8</ele>
        <time>2016-09-25T10:45:17Z</time>
      </trkpt>
      <trkpt lat="45.35973" lon="6.11975">
        <ele>1444.6</ele>
        <time>2016-09-25T10:45:23Z</time>
      </trkpt>
      <trkpt lat="45.35972" lon="6.11989">
        <ele>1445.7</ele>
        <time>2016-09-25T10:45:31Z</time>
      </trkpt>
      <trkpt lat="45.3597" lon="6.12003">
        <ele>1446.8</ele>
        <time>2016-09-25T10:45:38Z</time>
      </trkpt>
      <trkpt lat="45.35969" lon="6.12016">
        <ele>1448</ele>
        <time>2016-09-25T10:45:45Z</time>
      </trkpt>
      <trkpt lat="45.35967" lon="6.1203">
        <ele>1449.2</ele>
        <time>2016-09-25T10:45:52Z</time>
      </trkpt>
      <trkpt lat="45.35965" lon="6.12043">
        <ele>1450.5</ele>
        <time>2016-09-25T10:45:59Z</time>
      </trkpt>
      <trkpt lat="45.35963" lon="6.12057">
        <ele>1451.7</ele>
        <time>2016-09-25T10:46:06Z</time>
      </trkpt>
      <trkpt lat="45.35962" lon="6.12071">
        <ele>1453.1</ele>
        <time>2016-09-25T10:46:14Z</time>
      </trkpt>
      <trkpt lat="45.35963" lon="6.12084">
        <ele>1454.3</ele>
        <time>2016-09-25T10:46:21Z</time>
      </trkpt>
      <trkpt lat="45.35963" lon="6.12097">
        <ele>1455.4</ele>
        <time>2016-09-25T10:46:28Z</time>
      </trkpt>
      <trkpt lat="45.35963" lon="6.12111">
        <ele>1456.4</ele>
        <time>2016-09-25T10:46:35Z</time>
      </trkpt>
      <trkpt lat="45.35964" lon="6.12124">
        <ele>1457.3</ele>
        <time>2016-09-25T10:46:41Z</time>
      </trkpt>
      <trkpt lat="45.35963" lon="6.12137">
        <ele>1459.4</ele>
        <time>2016-09-25T10:46:47Z</time>
      </trkpt>
      <trkpt lat="45.35963" lon="6.1215">
        <ele>1460</ele>
        <time>2016-09-25T10:46:53Z</time>
      </trkpt>
      <trkpt lat="45.35963" lon="6.12163">
        <ele>1460.6</ele>
        <time>2016-09-25T10:46:59Z</time>
      </trkpt>
      <trkpt lat="45.35963" lon="6.12177">
        <ele>1461.3</ele>
        <time>2016-09-25T10:47:05Z</time>
      </trkpt>
      <trkpt lat="45.35965" lon="6.12191">
        <ele>1461.8</ele>
        <time>2016-09-25T10:47:10Z</time>
      </trkpt>
      <trkpt lat="45.35964" lon="6.12204">
        <ele>1462.5</ele>
        <time>2016-09-25T10:47:15Z</time>
      </trkpt>
      <trkpt lat="45.35957" lon="6.12214">
        <ele>1463.1</ele>
        <time>2016-09-25T10:47:21Z</time>
      </trkpt>
      <trkpt lat="45.35947" lon="6.12218">
        <ele>1464</ele>
        <time>2016-09-25T10:47:28Z</time>
      </trkpt>
      <trkpt lat="45.35939" lon="6.12224">
        <ele>1464.8</ele>
        <time>2016-09-25T10:47:34Z</time>
      </trkpt>
      <trkpt lat="45.35929" lon="6.12227">
        <ele>1465.7</ele>
        <time>2016-09-25T10:47:40Z</time>
      </trkpt>
      <trkpt lat="45.35919" lon="6.12228">
        <ele>1466.7</ele>
        <time>2016-09-25T10:47:46Z</time>
      </trkpt>
      <trkpt lat="45.3591" lon="6.12233">
        <ele>1467.6</ele>
        <time>2016-09-25T10:47:51Z</time>
      </trkpt>
      <trkpt lat="45.35901" lon="6.12234">
        <ele>1468.4</ele>
        <time>2016-09-25T10:47:56Z</time>
      </trkpt>
      <trkpt lat="45.35892" lon="6.12236">
        <ele>1469.2</ele>
        <time>2016-09-25T10:48:01Z</time>
      </trkpt>
      <trkpt lat="45.35883" lon="6.1224">
        <ele>1469.9</ele>
        <time>2016-09-25T10:48:06Z</time>
      </trkpt>
      <trkpt lat="45.35874" lon="6.12243">
        <ele>1470.6</ele>
        <time>2016-09-25T10:48:11Z</time>
      </trkpt>
      <trkpt lat="45.35863" lon="6.12246">
        <ele>1471.5</ele>
        <time>2016-09-25T10:48:17Z</time>
      </trkpt>
      <trkpt lat="45.35853" lon="6.12249">
        <ele>1472.3</ele>
        <time>2016-09-25T10:48:23Z</time>
      </trkpt>
      <trkpt lat="45.35843" lon="6.12249">
        <ele>1473.1</ele>
        <time>2016-09-25T10:48:29Z</time>
      </trkpt>
      <trkpt lat="45.35834" lon="6.12249">
        <ele>1473.8</ele>
        <time>2016-09-25T10:48:34Z</time>
      </trkpt>
      <trkpt lat="45.35824" lon="6.12251">
        <ele>1474.7</ele>
        <time>2016-09-25T10:48:40Z</time>
      </trkpt>
      <trkpt lat="45.35814" lon="6.12252">
        <ele>1475.7</ele>
        <time>2016-09-25T10:48:46Z</time>
      </trkpt>
      <trkpt lat="45.35804" lon="6.12253">
        <ele>1476.4</ele>
        <time>2016-09-25T10:48:52Z</time>
      </trkpt>
      <trkpt lat="45.35795" lon="6.12255">
        <ele>1477.4</ele>
        <time>2016-09-25T10:48:58Z</time>
      </trkpt>
      <trkpt lat="45.35785" lon="6.12259">
        <ele>1478.1</ele>
        <time>2016-09-25T10:49:03Z</time>
      </trkpt>
      <trkpt lat="45.35775" lon="6.12263">
        <ele>1478.9</ele>
        <time>2016-09-25T10:49:09Z</time>
      </trkpt>
      <trkpt lat="45.35765" lon="6.12267">
        <ele>1479.9</ele>
        <time>2016-09-25T10:49:15Z</time>
      </trkpt>
      <trkpt lat="45.35756" lon="6.12272">
        <ele>1480.7</ele>
        <time>2016-09-25T10:49:20Z</time>
      </trkpt>
      <trkpt lat="45.35748" lon="6.12277">
        <ele>1481.6</ele>
        <time>2016-09-25T10:49:26Z</time>
      </trkpt>
      <trkpt lat="45.35738" lon="6.12282">
        <ele>1482.5</ele>
        <time>2016-09-25T10:49:32Z</time>
      </trkpt>
      <trkpt lat="45.3573" lon="6.12288">
        <ele>1483.7</ele>
        <time>2016-09-25T10:49:39Z</time>
      </trkpt>
      <trkpt lat="45.35721" lon="6.12294">
        <ele>1485.2</ele>
        <time>2016-09-25T10:49:49Z</time>
      </trkpt>
      <trkpt lat="45.35712" lon="6.123">
        <ele>1486.3</ele>
        <time>2016-09-25T10:49:55Z</time>
      </trkpt>
      <trkpt lat="45.35703" lon="6.12306">
        <ele>1487.2</ele>
        <time>2016-09-25T10:50:01Z</time>
      </trkpt>
      <trkpt lat="45.35695" lon="6.12315">
        <ele>1488.8</ele>
        <time>2016-09-25T10:50:10Z</time>
      </trkpt>
      <trkpt lat="45.35688" lon="6.12324">
        <ele>1490</ele>
        <time>2016-09-25T10:50:18Z</time>
      </trkpt>
      <trkpt lat="45.35679" lon="6.12331">
        <ele>1490.8</ele>
        <time>2016-09-25T10:50:24Z</time>
      </trkpt>
      <trkpt lat="45.35671" lon="6.1234">
        <ele>1492</ele>
        <time>2016-09-25T10:50:31Z</time>
      </trkpt>
      <trkpt lat="45.35663" lon="6.12349">
        <ele>1493</ele>
        <time>2016-09-25T10:50:37Z</time>
      </trkpt>
      <trkpt lat="45.35656" lon="6.1236">
        <ele>1494</ele>
        <time>2016-09-25T10:50:43Z</time>
      </trkpt>
      <trkpt lat="45.35651" lon="6.1237">
        <ele>1494.9</ele>
        <time>2016-09-25T10:50:49Z</time>
      </trkpt>
      <trkpt lat="45.35644" lon="6.12379">
        <ele>1496</ele>
        <time>2016-09-25T10:50:55Z</time>
      </trkpt>
      <trkpt lat="45.35637" lon="6.12389">
        <ele>1496.8</ele>
        <time>2016-09-25T10:51:01Z</time>
      </trkpt>
      <trkpt lat="45.35629" lon="6.12399">
        <ele>1497.6</ele>
        <time>2016-09-25T10:51:07Z</time>
      </trkpt>
      <trkpt lat="45.35624" lon="6.12411">
        <ele>1498.7</ele>
        <time>2016-09-25T10:51:13Z</time>
      </trkpt>
      <trkpt lat="45.3562" lon="6.12425">
        <ele>1499.5</ele>
        <time>2016-09-25T10:51:19Z</time>
      </trkpt>
      <trkpt lat="45.35619" lon="6.1244">
        <ele>1500.3</ele>
        <time>2016-09-25T10:51:25Z</time>
      </trkpt>
      <trkpt lat="45.3562" lon="6.12455">
        <ele>1501.3</ele>
        <time>2016-09-25T10:51:31Z</time>
      </trkpt>
      <trkpt lat="45.3562" lon="6.12468">
        <ele>1502.1</ele>
        <time>2016-09-25T10:51:36Z</time>
      </trkpt>
      <trkpt lat="45.3562" lon="6.12482">
        <ele>1503.1</ele>
        <time>2016-09-25T10:51:42Z</time>
      </trkpt>
      <trkpt lat="45.3562" lon="6.12496">
        <ele>1504</ele>
        <time>2016-09-25T10:51:48Z</time>
      </trkpt>
      <trkpt lat="45.35619" lon="6.1251">
        <ele>1505</ele>
        <time>2016-09-25T10:51:55Z</time>
      </trkpt>
      <trkpt lat="45.35619" lon="6.12524">
        <ele>1505.7</ele>
        <time>2016-09-25T10:52:01Z</time>
      </trkpt>
      <trkpt lat="45.35625" lon="6.12534">
        <ele>1506.6</ele>
        <time>2016-09-25T10:52:07Z</time>
      </trkpt>
      <trkpt lat="45.35629" lon="6.12523">
        <ele>1507.1</ele>
        <time>2016-09-25T10:52:13Z</time>
      </trkpt>
      <trkpt lat="45.3563" lon="6.12509">
        <ele>1507.8</ele>
        <time>2016-09-25T10:52:18Z</time>
      </trkpt>
      <trkpt lat="45.3563" lon="6.12493">
        <ele>1508.6</ele>
        <time>2016-09-25T10:52:23Z</time>
      </trkpt>
      <trkpt lat="45.35631" lon="6.12478">
        <ele>1509.3</ele>
        <time>2016-09-25T10:52:28Z</time>
      </trkpt>
      <trkpt lat="45.35632" lon="6.12463">
        <ele>1510</ele>
        <time>2016-09-25T10:52:33Z</time>
      </trkpt>
      <trkpt lat="45.35635" lon="6.12448">
        <ele>1510.6</ele>
        <time>2016-09-25T10:52:38Z</time>
      </trkpt>
      <trkpt lat="45.3564" lon="6.12434">
        <ele>1511.1</ele>
        <time>2016-09-25T10:52:43Z</time>
      </trkpt>
      <trkpt lat="45.35648" lon="6.12426">
        <ele>1511.5</ele>
        <time>2016-09-25T10:52:47Z</time>
      </trkpt>
      <trkpt lat="45.35657" lon="6.1242">
        <ele>1511.8</ele>
        <time>2016-09-25T10:52:51Z</time>
      </trkpt>
      <trkpt lat="45.35665" lon="6.12415">
        <ele>1512.2</ele>
        <time>2016-09-25T10:52:55Z</time>
      </trkpt>
      <trkpt lat="45.35674" lon="6.12412">
        <ele>1512.5</ele>
        <time>2016-09-25T10:52:59Z</time>
      </trkpt>
      <trkpt lat="45.35684" lon="6.12406">
        <ele>1512.9</ele>
        <time>2016-09-25T10:53:04Z</time>
      </trkpt>
      <trkpt lat="45.35693" lon="6.124">
        <ele>1513.6</ele>
        <time>2016-09-25T10:53:11Z</time>
      </trkpt>
      <trkpt lat="45.35704" lon="6.12398">
        <ele>1514.2</ele>
        <time>2016-09-25T10:53:16Z</time>
      </trkpt>
      <trkpt lat="45.35715" lon="6.12394">
        <ele>1514.9</ele>
        <time>2016-09-25T10:53:21Z</time>
      </trkpt>
      <trkpt lat="45.35725" lon="6.12391">
        <ele>1515.5</ele>
        <time>2016-09-25T10:53:26Z</time>
      </trkpt>
      <trkpt lat="45.35735" lon="6.1239">
        <ele>1516.3</ele>
        <time>2016-09-25T10:53:31Z</time>
      </trkpt>
      <trkpt lat="45.35746" lon="6.12386">
        <ele>1517</ele>
        <time>2016-09-25T10:53:36Z</time>
      </trkpt>
      <trkpt lat="45.35756" lon="6.12383">
        <ele>1517.7</ele>
        <time>2016-09-25T10:53:41Z</time>
      </trkpt>
      <trkpt lat="45.35766" lon="6.12381">
        <ele>1518.1</ele>
        <time>2016-09-25T10:53:45Z</time>
      </trkpt>
      <trkpt lat="45.35777" lon="6.12379">
        <ele>1518.6</ele>
        <time>2016-09-25T10:53:50Z</time>
      </trkpt>
      <trkpt lat="45.35787" lon="6.12376">
        <ele>1519.1</ele>
        <time>2016-09-25T10:53:55Z</time>
      </trkpt>
      <trkpt lat="45.35797" lon="6.12374">
        <ele>1519.6</ele>
        <time>2016-09-25T10:54:00Z</time>
      </trkpt>
      <trkpt lat="45.35806" lon="6.12369">
        <ele>1520.2</ele>
        <time>2016-09-25T10:54:06Z</time>
      </trkpt>
      <trkpt lat="45.35815" lon="6.12371">
        <ele>1521</ele>
        <time>2016-09-25T10:54:12Z</time>
      </trkpt>
      <trkpt lat="45.35809" lon="6.12381">
        <ele>1522.9</ele>
        <time>2016-09-25T10:54:26Z</time>
      </trkpt>
      <trkpt lat="45.358" lon="6.12385">
        <ele>1524.1</ele>
        <time>2016-09-25T10:54:34Z</time>
      </trkpt>
      <trkpt lat="45.35791" lon="6.12391">
        <ele>1525.1</ele>
        <time>2016-09-25T10:54:40Z</time>
      </trkpt>
      <trkpt lat="45.35782" lon="6.12395">
        <ele>1526</ele>
        <time>2016-09-25T10:54:46Z</time>
      </trkpt>
      <trkpt lat="45.35773" lon="6.12399">
        <ele>1527</ele>
        <time>2016-09-25T10:54:52Z</time>
      </trkpt>
      <trkpt lat="45.35765" lon="6.12405">
        <ele>1527.8</ele>
        <time>2016-09-25T10:54:58Z</time>
      </trkpt>
      <trkpt lat="45.35757" lon="6.12411">
        <ele>1528.8</ele>
        <time>2016-09-25T10:55:04Z</time>
      </trkpt>
      <trkpt lat="45.35748" lon="6.12417">
        <ele>1529.6</ele>
        <time>2016-09-25T10:55:10Z</time>
      </trkpt>
      <trkpt lat="45.35739" lon="6.12422">
        <ele>1530.2</ele>
        <time>2016-09-25T10:55:15Z</time>
      </trkpt>
      <trkpt lat="45.3573" lon="6.1243">
        <ele>1531.2</ele>
        <time>2016-09-25T10:55:21Z</time>
      </trkpt>
      <trkpt lat="45.35722" lon="6.12436">
        <ele>1532</ele>
        <time>2016-09-25T10:55:26Z</time>
      </trkpt>
      <trkpt lat="45.35714" lon="6.12442">
        <ele>1532.6</ele>
        <time>2016-09-25T10:55:31Z</time>
      </trkpt>
      <trkpt lat="45.35705" lon="6.12447">
        <ele>1533.2</ele>
        <time>2016-09-25T10:55:36Z</time>
      </trkpt>
      <trkpt lat="45.35697" lon="6.12454">
        <ele>1533.8</ele>
        <time>2016-09-25T10:55:41Z</time>
      </trkpt>
      <trkpt lat="45.3569" lon="6.12462">
        <ele>1534.5</ele>
        <time>2016-09-25T10:55:46Z</time>
      </trkpt>
      <trkpt lat="45.35683" lon="6.12473">
        <ele>1535.4</ele>
        <time>2016-09-25T10:55:52Z</time>
      </trkpt>
      <trkpt lat="45.35677" lon="6.12486">
        <ele>1536.4</ele>
        <time>2016-09-25T10:55:58Z</time>
      </trkpt>
      <trkpt lat="45.35676" lon="6.12499">
        <ele>1537.2</ele>
        <time>2016-09-25T10:56:03Z</time>
      </trkpt>
      <trkpt lat="45.35675" lon="6.12514">
        <ele>1537.9</ele>
        <time>2016-09-25T10:56:08Z</time>
      </trkpt>
      <trkpt lat="45.35675" lon="6.12526">
        <ele>1538.5</ele>
        <time>2016-09-25T10:56:13Z</time>
      </trkpt>
      <trkpt lat="45.35677" lon="6.12539">
        <ele>1539.3</ele>
        <time>2016-09-25T10:56:19Z</time>
      </trkpt>
      <trkpt lat="45.35677" lon="6.12552">
        <ele>1540.1</ele>
        <time>2016-09-25T10:56:25Z</time>
      </trkpt>
      <trkpt lat="45.35677" lon="6.12566">
        <ele>1540.7</ele>
        <time>2016-09-25T10:56:32Z</time>
      </trkpt>
      <trkpt lat="45.35679" lon="6.1258">
        <ele>1541.6</ele>
        <time>2016-09-25T10:56:40Z</time>
      </trkpt>
      <trkpt lat="45.35681" lon="6.12594">
        <ele>1542.7</ele>
        <time>2016-09-25T10:56:47Z</time>
      </trkpt>
      <trkpt lat="45.3568" lon="6.12607">
        <ele>1544.2</ele>
        <time>2016-09-25T10:56:54Z</time>
      </trkpt>
      <trkpt lat="45.35677" lon="6.1262">
        <ele>1546.3</ele>
        <time>2016-09-25T10:57:02Z</time>
      </trkpt>
      <trkpt lat="45.35674" lon="6.12632">
        <ele>1550.9</ele>
        <time>2016-09-25T10:57:23Z</time>
      </trkpt>
      <trkpt lat="45.35669" lon="6.12643">
        <ele>1553.2</ele>
        <time>2016-09-25T10:57:37Z</time>
      </trkpt>
      <trkpt lat="45.35665" lon="6.12656">
        <ele>1555.2</ele>
        <time>2016-09-25T10:57:52Z</time>
      </trkpt>
      <trkpt lat="45.35663" lon="6.12669">
        <ele>1556.7</ele>
        <time>2016-09-25T10:58:03Z</time>
      </trkpt>
      <trkpt lat="45.35659" lon="6.12682">
        <ele>1558</ele>
        <time>2016-09-25T10:58:15Z</time>
      </trkpt>
      <trkpt lat="45.35655" lon="6.12694">
        <ele>1559.1</ele>
        <time>2016-09-25T10:58:26Z</time>
      </trkpt>
      <trkpt lat="45.35662" lon="6.12703">
        <ele>1561.5</ele>
        <time>2016-09-25T10:58:45Z</time>
      </trkpt>
      <trkpt lat="45.35671" lon="6.12698">
        <ele>1564.2</ele>
        <time>2016-09-25T10:59:05Z</time>
      </trkpt>
      <trkpt lat="45.35677" lon="6.12687">
        <ele>1565.7</ele>
        <time>2016-09-25T10:59:18Z</time>
      </trkpt>
      <trkpt lat="45.35685" lon="6.1268">
        <ele>1567.3</ele>
        <time>2016-09-25T10:59:29Z</time>
      </trkpt>
      <trkpt lat="45.35694" lon="6.12678">
        <ele>1569.4</ele>
        <time>2016-09-25T10:59:49Z</time>
      </trkpt>
      <trkpt lat="45.35704" lon="6.12677">
        <ele>1570.5</ele>
        <time>2016-09-25T10:59:59Z</time>
      </trkpt>
      <trkpt lat="45.35715" lon="6.12678">
        <ele>1573.2</ele>
        <time>2016-09-25T11:00:46Z</time>
      </trkpt>
      <trkpt lat="45.35722" lon="6.1267">
        <ele>1573.9</ele>
        <time>2016-09-25T11:00:55Z</time>
      </trkpt>
      <trkpt lat="45.35727" lon="6.12659">
        <ele>1575.1</ele>
        <time>2016-09-25T11:01:05Z</time>
      </trkpt>
      <trkpt lat="45.35732" lon="6.12648">
        <ele>1576.3</ele>
        <time>2016-09-25T11:01:13Z</time>
      </trkpt>
      <trkpt lat="45.35737" lon="6.12636">
        <ele>1577.7</ele>
        <time>2016-09-25T11:01:21Z</time>
      </trkpt>
      <trkpt lat="45.35742" lon="6.12625">
        <ele>1579.3</ele>
        <time>2016-09-25T11:01:31Z</time>
      </trkpt>
      <trkpt lat="45.35746" lon="6.12613">
        <ele>1580.7</ele>
        <time>2016-09-25T11:01:40Z</time>
      </trkpt>
      <trkpt lat="45.3575" lon="6.126">
        <ele>1583.4</ele>
        <time>2016-09-25T11:01:55Z</time>
      </trkpt>
      <trkpt lat="45.35755" lon="6.12589">
        <ele>1585.8</ele>
        <time>2016-09-25T11:02:11Z</time>
      </trkpt>
      <trkpt lat="45.35762" lon="6.12579">
        <ele>1588.3</ele>
        <time>2016-09-25T11:02:30Z</time>
      </trkpt>
      <trkpt lat="45.3577" lon="6.12573">
        <ele>1590.8</ele>
        <time>2016-09-25T11:02:48Z</time>
      </trkpt>
      <trkpt lat="45.35773" lon="6.12587">
        <ele>1594.4</ele>
        <time>2016-09-25T11:03:29Z</time>
      </trkpt>
      <trkpt lat="45.3577" lon="6.12599">
        <ele>1595.1</ele>
        <time>2016-09-25T11:03:38Z</time>
      </trkpt>
      <trkpt lat="45.35768" lon="6.12612">
        <ele>1596</ele>
        <time>2016-09-25T11:03:46Z</time>
      </trkpt>
      <trkpt lat="45.35768" lon="6.12627">
        <ele>1596.4</ele>
        <time>2016-09-25T11:03:52Z</time>
      </trkpt>
      <trkpt lat="45.35766" lon="6.1264">
        <ele>1596.8</ele>
        <time>2016-09-25T11:03:58Z</time>
      </trkpt>
      <trkpt lat="45.35763" lon="6.12653">
        <ele>1597.6</ele>
        <time>2016-09-25T11:04:05Z</time>
      </trkpt>
      <trkpt lat="45.35761" lon="6.12667">
        <ele>1598.3</ele>
        <time>2016-09-25T11:04:11Z</time>
      </trkpt>
      <trkpt lat="45.35761" lon="6.1268">
        <ele>1599.1</ele>
        <time>2016-09-25T11:04:18Z</time>
      </trkpt>
      <trkpt lat="45.35761" lon="6.12693">
        <ele>1600.2</ele>
        <time>2016-09-25T11:04:27Z</time>
      </trkpt>
      <trkpt lat="45.35762" lon="6.12706">
        <ele>1601.1</ele>
        <time>2016-09-25T11:04:33Z</time>
      </trkpt>
      <trkpt lat="45.35759" lon="6.12719">
        <ele>1602.5</ele>
        <time>2016-09-25T11:04:43Z</time>
      </trkpt>
      <trkpt lat="45.35756" lon="6.12732">
        <ele>1604</ele>
        <time>2016-09-25T11:04:53Z</time>
      </trkpt>
      <trkpt lat="45.35754" lon="6.12744">
        <ele>1605.1</ele>
        <time>2016-09-25T11:05:01Z</time>
      </trkpt>
      <trkpt lat="45.35746" lon="6.12751">
        <ele>1606.8</ele>
        <time>2016-09-25T11:05:10Z</time>
      </trkpt>
      <trkpt lat="45.35736" lon="6.12755">
        <ele>1608.3</ele>
        <time>2016-09-25T11:05:19Z</time>
      </trkpt>
      <trkpt lat="45.3573" lon="6.12765">
        <ele>1609.9</ele>
        <time>2016-09-25T11:05:29Z</time>
      </trkpt>
      <trkpt lat="45.35724" lon="6.12776">
        <ele>1611.2</ele>
        <time>2016-09-25T11:05:37Z</time>
      </trkpt>
      <trkpt lat="45.35719" lon="6.12786">
        <ele>1612.8</ele>
        <time>2016-09-25T11:05:46Z</time>
      </trkpt>
      <trkpt lat="45.35714" lon="6.12797">
        <ele>1614.4</ele>
        <time>2016-09-25T11:05:55Z</time>
      </trkpt>
      <trkpt lat="45.3571" lon="6.12809">
        <ele>1615.6</ele>
        <time>2016-09-25T11:06:04Z</time>
      </trkpt>
      <trkpt lat="45.35708" lon="6.12823">
        <ele>1617.3</ele>
        <time>2016-09-25T11:06:14Z</time>
      </trkpt>
      <trkpt lat="45.35714" lon="6.12833">
        <ele>1619.1</ele>
        <time>2016-09-25T11:06:24Z</time>
      </trkpt>
      <trkpt lat="45.35722" lon="6.12826">
        <ele>1620.9</ele>
        <time>2016-09-25T11:06:33Z</time>
      </trkpt>
      <trkpt lat="45.35728" lon="6.12817">
        <ele>1623.2</ele>
        <time>2016-09-25T11:06:42Z</time>
      </trkpt>
      <trkpt lat="45.35737" lon="6.1281">
        <ele>1625.9</ele>
        <time>2016-09-25T11:06:51Z</time>
      </trkpt>
      <trkpt lat="45.35746" lon="6.12805">
        <ele>1628.7</ele>
        <time>2016-09-25T11:07:01Z</time>
      </trkpt>
      <trkpt lat="45.35755" lon="6.12804">
        <ele>1632.6</ele>
        <time>2016-09-25T11:07:30Z</time>
      </trkpt>
      <trkpt lat="45.35764" lon="6.12801">
        <ele>1633.9</ele>
        <time>2016-09-25T11:07:49Z</time>
      </trkpt>
      <trkpt lat="45.35773" lon="6.12795">
        <ele>1635.1</ele>
        <time>2016-09-25T11:07:58Z</time>
      </trkpt>
      <trkpt lat="45.35782" lon="6.12788">
        <ele>1636.4</ele>
        <time>2016-09-25T11:08:06Z</time>
      </trkpt>
      <trkpt lat="45.3579" lon="6.12783">
        <ele>1638</ele>
        <time>2016-09-25T11:08:15Z</time>
      </trkpt>
      <trkpt lat="45.35797" lon="6.12775">
        <ele>1639.4</ele>
        <time>2016-09-25T11:08:23Z</time>
      </trkpt>
      <trkpt lat="45.35803" lon="6.12764">
        <ele>1640.5</ele>
        <time>2016-09-25T11:08:30Z</time>
      </trkpt>
      <trkpt lat="45.35808" lon="6.12754">
        <ele>1641.8</ele>
        <time>2016-09-25T11:08:39Z</time>
      </trkpt>
      <trkpt lat="45.35814" lon="6.12742">
        <ele>1643.5</ele>
        <time>2016-09-25T11:08:49Z</time>
      </trkpt>
      <trkpt lat="45.35817" lon="6.1273">
        <ele>1645.3</ele>
        <time>2016-09-25T11:09:00Z</time>
      </trkpt>
      <trkpt lat="45.35824" lon="6.1272">
        <ele>1648</ele>
        <time>2016-09-25T11:09:16Z</time>
      </trkpt>
      <trkpt lat="45.35829" lon="6.12709">
        <ele>1649.8</ele>
        <time>2016-09-25T11:09:28Z</time>
      </trkpt>
      <trkpt lat="45.35837" lon="6.12701">
        <ele>1651.5</ele>
        <time>2016-09-25T11:09:42Z</time>
      </trkpt>
      <trkpt lat="45.35844" lon="6.12692">
        <ele>1653.3</ele>
        <time>2016-09-25T11:09:55Z</time>
      </trkpt>
      <trkpt lat="45.35851" lon="6.12684">
        <ele>1654.9</ele>
        <time>2016-09-25T11:10:07Z</time>
      </trkpt>
      <trkpt lat="45.3586" lon="6.1268">
        <ele>1656.8</ele>
        <time>2016-09-25T11:10:19Z</time>
      </trkpt>
      <trkpt lat="45.3587" lon="6.12676">
        <ele>1659.3</ele>
        <time>2016-09-25T11:10:39Z</time>
      </trkpt>
      <trkpt lat="45.35879" lon="6.12674">
        <ele>1660.5</ele>
        <time>2016-09-25T11:10:49Z</time>
      </trkpt>
      <trkpt lat="45.35888" lon="6.12673">
        <ele>1661.9</ele>
        <time>2016-09-25T11:10:59Z</time>
      </trkpt>
      <trkpt lat="45.35897" lon="6.12674">
        <ele>1663.2</ele>
        <time>2016-09-25T11:11:08Z</time>
      </trkpt>
      <trkpt lat="45.35907" lon="6.12672">
        <ele>1664.9</ele>
        <time>2016-09-25T11:11:19Z</time>
      </trkpt>
      <trkpt lat="45.35917" lon="6.12674">
        <ele>1666.7</ele>
        <time>2016-09-25T11:11:30Z</time>
      </trkpt>
      <trkpt lat="45.35927" lon="6.12675">
        <ele>1668.5</ele>
        <time>2016-09-25T11:11:40Z</time>
      </trkpt>
      <trkpt lat="45.35937" lon="6.12677">
        <ele>1670.4</ele>
        <time>2016-09-25T11:11:50Z</time>
      </trkpt>
      <trkpt lat="45.35946" lon="6.12679">
        <ele>1672.3</ele>
        <time>2016-09-25T11:11:59Z</time>
      </trkpt>
      <trkpt lat="45.35955" lon="6.12679">
        <ele>1675</ele>
        <time>2016-09-25T11:12:15Z</time>
      </trkpt>
      <trkpt lat="45.35964" lon="6.12678">
        <ele>1677.8</ele>
        <time>2016-09-25T11:12:33Z</time>
      </trkpt>
      <trkpt lat="45.35973" lon="6.1268">
        <ele>1679.7</ele>
        <time>2016-09-25T11:12:50Z</time>
      </trkpt>
      <trkpt lat="45.35982" lon="6.12678">
        <ele>1680.4</ele>
        <time>2016-09-25T11:12:59Z</time>
      </trkpt>
      <trkpt lat="45.35993" lon="6.12676">
        <ele>1680.7</ele>
        <time>2016-09-25T11:13:06Z</time>
      </trkpt>
      <trkpt lat="45.36003" lon="6.12675">
        <ele>1681</ele>
        <time>2016-09-25T11:13:13Z</time>
      </trkpt>
      <trkpt lat="45.36014" lon="6.12675">
        <ele>1681.2</ele>
        <time>2016-09-25T11:13:18Z</time>
      </trkpt>
      <trkpt lat="45.36023" lon="6.12672">
        <ele>1681.3</ele>
        <time>2016-09-25T11:13:23Z</time>
      </trkpt>
      <trkpt lat="45.36034" lon="6.12673">
        <ele>1681.3</ele>
        <time>2016-09-25T11:13:28Z</time>
      </trkpt>
      <trkpt lat="45.36044" lon="6.12673">
        <ele>1681.1</ele>
        <time>2016-09-25T11:13:34Z</time>
      </trkpt>
      <trkpt lat="45.36053" lon="6.12676">
        <ele>1680.9</ele>
        <time>2016-09-25T11:13:39Z</time>
      </trkpt>
      <trkpt lat="45.36062" lon="6.12678">
        <ele>1680.8</ele>
        <time>2016-09-25T11:13:44Z</time>
      </trkpt>
      <trkpt lat="45.36071" lon="6.12676">
        <ele>1680.7</ele>
        <time>2016-09-25T11:13:49Z</time>
      </trkpt>
      <trkpt lat="45.36082" lon="6.12676">
        <ele>1680.6</ele>
        <time>2016-09-25T11:13:55Z</time>
      </trkpt>
      <trkpt lat="45.36092" lon="6.12674">
        <ele>1680.5</ele>
        <time>2016-09-25T11:14:00Z</time>
      </trkpt>
      <trkpt lat="45.36102" lon="6.12668">
        <ele>1680.3</ele>
        <time>2016-09-25T11:14:05Z</time>
      </trkpt>
      <trkpt lat="45.36112" lon="6.12665">
        <ele>1680.1</ele>
        <time>2016-09-25T11:14:09Z</time>
      </trkpt>
      <trkpt lat="45.36122" lon="6.12662">
        <ele>1679.8</ele>
        <time>2016-09-25T11:14:14Z</time>
      </trkpt>
      <trkpt lat="45.3613" lon="6.12657">
        <ele>1679.6</ele>
        <time>2016-09-25T11:14:19Z</time>
      </trkpt>
      <trkpt lat="45.36138" lon="6.1265">
        <ele>1679.3</ele>
        <time>2016-09-25T11:14:24Z</time>
      </trkpt>
      <trkpt lat="45.36147" lon="6.12645">
        <ele>1678.9</ele>
        <time>2016-09-25T11:14:29Z</time>
      </trkpt>
      <trkpt lat="45.36156" lon="6.12642">
        <ele>1678.4</ele>
        <time>2016-09-25T11:14:35Z</time>
      </trkpt>
      <trkpt lat="45.36165" lon="6.1264">
        <ele>1679.4</ele>
        <time>2016-09-25T11:14:45Z</time>
      </trkpt>
      <trkpt lat="45.36175" lon="6.1263">
        <ele>1679</ele>
        <time>2016-09-25T11:14:52Z</time>
      </trkpt>
      <trkpt lat="45.36183" lon="6.12624">
        <ele>1678.8</ele>
        <time>2016-09-25T11:14:56Z</time>
      </trkpt>
      <trkpt lat="45.36192" lon="6.12618">
        <ele>1678.5</ele>
        <time>2016-09-25T11:15:01Z</time>
      </trkpt>
      <trkpt lat="45.36201" lon="6.12614">
        <ele>1678.4</ele>
        <time>2016-09-25T11:15:05Z</time>
      </trkpt>
      <trkpt lat="45.36211" lon="6.1261">
        <ele>1678.2</ele>
        <time>2016-09-25T11:15:10Z</time>
      </trkpt>
      <trkpt lat="45.36221" lon="6.12607">
        <ele>1678.1</ele>
        <time>2016-09-25T11:15:15Z</time>
      </trkpt>
      <trkpt lat="45.3623" lon="6.12605">
        <ele>1678.3</ele>
        <time>2016-09-25T11:15:21Z</time>
      </trkpt>
      <trkpt lat="45.3624" lon="6.12602">
        <ele>1680.3</ele>
        <time>2016-09-25T11:15:28Z</time>
      </trkpt>
      <trkpt lat="45.3625" lon="6.12599">
        <ele>1680.3</ele>
        <time>2016-09-25T11:15:33Z</time>
      </trkpt>
      <trkpt lat="45.36259" lon="6.12595">
        <ele>1680.4</ele>
        <time>2016-09-25T11:15:38Z</time>
      </trkpt>
      <trkpt lat="45.36268" lon="6.12588">
        <ele>1680.5</ele>
        <time>2016-09-25T11:15:45Z</time>
      </trkpt>
      <trkpt lat="45.36276" lon="6.12581">
        <ele>1680.8</ele>
        <time>2016-09-25T11:15:52Z</time>
      </trkpt>
      <trkpt lat="45.36285" lon="6.12574">
        <ele>1681.1</ele>
        <time>2016-09-25T11:15:58Z</time>
      </trkpt>
      <trkpt lat="45.36294" lon="6.12567">
        <ele>1681.4</ele>
        <time>2016-09-25T11:16:04Z</time>
      </trkpt>
      <trkpt lat="45.36302" lon="6.12559">
        <ele>1681.8</ele>
        <time>2016-09-25T11:16:09Z</time>
      </trkpt>
      <trkpt lat="45.36311" lon="6.12552">
        <ele>1682.2</ele>
        <time>2016-09-25T11:16:15Z</time>
      </trkpt>
      <trkpt lat="45.36319" lon="6.12545">
        <ele>1682.5</ele>
        <time>2016-09-25T11:16:21Z</time>
      </trkpt>
      <trkpt lat="45.36327" lon="6.12537">
        <ele>1682.9</ele>
        <time>2016-09-25T11:16:27Z</time>
      </trkpt>
      <trkpt lat="45.36334" lon="6.12528">
        <ele>1683.4</ele>
        <time>2016-09-25T11:16:34Z</time>
      </trkpt>
      <trkpt lat="45.36343" lon="6.1252">
        <ele>1683.7</ele>
        <time>2016-09-25T11:16:41Z</time>
      </trkpt>
      <trkpt lat="45.36343" lon="6.12534">
        <ele>1684.4</ele>
        <time>2016-09-25T11:16:54Z</time>
      </trkpt>
      <trkpt lat="45.36338" lon="6.12546">
        <ele>1685.3</ele>
        <time>2016-09-25T11:17:03Z</time>
      </trkpt>
      <trkpt lat="45.36333" lon="6.12557">
        <ele>1686.4</ele>
        <time>2016-09-25T11:17:11Z</time>
      </trkpt>
      <trkpt lat="45.3633" lon="6.12569">
        <ele>1687.9</ele>
        <time>2016-09-25T11:17:19Z</time>
      </trkpt>
      <trkpt lat="45.36331" lon="6.12582">
        <ele>1689.6</ele>
        <time>2016-09-25T11:17:26Z</time>
      </trkpt>
      <trkpt lat="45.36331" lon="6.12597">
        <ele>1691.4</ele>
        <time>2016-09-25T11:17:34Z</time>
      </trkpt>
      <trkpt lat="45.36329" lon="6.1261">
        <ele>1692.3</ele>
        <time>2016-09-25T11:17:39Z</time>
      </trkpt>
      <trkpt lat="45.36321" lon="6.12618">
        <ele>1693.3</ele>
        <time>2016-09-25T11:17:45Z</time>
      </trkpt>
      <trkpt lat="45.36313" lon="6.12625">
        <ele>1694.2</ele>
        <time>2016-09-25T11:17:51Z</time>
      </trkpt>
      <trkpt lat="45.36309" lon="6.12639">
        <ele>1695.4</ele>
        <time>2016-09-25T11:17:58Z</time>
      </trkpt>
      <trkpt lat="45.36304" lon="6.1265">
        <ele>1696.3</ele>
        <time>2016-09-25T11:18:04Z</time>
      </trkpt>
      <trkpt lat="45.36295" lon="6.12658">
        <ele>1697</ele>
        <time>2016-09-25T11:18:09Z</time>
      </trkpt>
      <trkpt lat="45.36288" lon="6.12667">
        <ele>1697.9</ele>
        <time>2016-09-25T11:18:15Z</time>
      </trkpt>
      <trkpt lat="45.3628" lon="6.12679">
        <ele>1698.9</ele>
        <time>2016-09-25T11:18:22Z</time>
      </trkpt>
      <trkpt lat="45.36272" lon="6.12688">
        <ele>1699.6</ele>
        <time>2016-09-25T11:18:28Z</time>
      </trkpt>
      <trkpt lat="45.36264" lon="6.12697">
        <ele>1700.5</ele>
        <time>2016-09-25T11:18:35Z</time>
      </trkpt>
      <trkpt lat="45.36255" lon="6.12704">
        <ele>1701.5</ele>
        <time>2016-09-25T11:18:41Z</time>
      </trkpt>
      <trkpt lat="45.3625" lon="6.12715">
        <ele>1702.8</ele>
        <time>2016-09-25T11:18:50Z</time>
      </trkpt>
      <trkpt lat="45.36243" lon="6.12725">
        <ele>1704.1</ele>
        <time>2016-09-25T11:18:57Z</time>
      </trkpt>
      <trkpt lat="45.36236" lon="6.12732">
        <ele>1705</ele>
        <time>2016-09-25T11:19:03Z</time>
      </trkpt>
      <trkpt lat="45.36225" lon="6.12739">
        <ele>1706.1</ele>
        <time>2016-09-25T11:19:10Z</time>
      </trkpt>
      <trkpt lat="45.36216" lon="6.12743">
        <ele>1707.1</ele>
        <time>2016-09-25T11:19:17Z</time>
      </trkpt>
      <trkpt lat="45.36206" lon="6.12748">
        <ele>1707.8</ele>
        <time>2016-09-25T11:19:24Z</time>
      </trkpt>
      <trkpt lat="45.36197" lon="6.12754">
        <ele>1708.2</ele>
        <time>2016-09-25T11:19:31Z</time>
      </trkpt>
      <trkpt lat="45.36187" lon="6.12759">
        <ele>1708.4</ele>
        <time>2016-09-25T11:19:36Z</time>
      </trkpt>
      <trkpt lat="45.36177" lon="6.12761">
        <ele>1708.5</ele>
        <time>2016-09-25T11:19:41Z</time>
      </trkpt>
      <trkpt lat="45.36168" lon="6.1276">
        <ele>1708.5</ele>
        <time>2016-09-25T11:19:45Z</time>
      </trkpt>
      <trkpt lat="45.36157" lon="6.12757">
        <ele>1708.1</ele>
        <time>2016-09-25T11:19:49Z</time>
      </trkpt>
      <trkpt lat="45.36147" lon="6.12759">
        <ele>1707.6</ele>
        <time>2016-09-25T11:19:53Z</time>
      </trkpt>
      <trkpt lat="45.36136" lon="6.12761">
        <ele>1707.1</ele>
        <time>2016-09-25T11:19:57Z</time>
      </trkpt>
      <trkpt lat="45.36127" lon="6.12764">
        <ele>1706.8</ele>
        <time>2016-09-25T11:20:00Z</time>
      </trkpt>
      <trkpt lat="45.36117" lon="6.12768">
        <ele>1706.4</ele>
        <time>2016-09-25T11:20:06Z</time>
      </trkpt>
      <trkpt lat="45.36107" lon="6.12771">
        <ele>1706.3</ele>
        <time>2016-09-25T11:20:12Z</time>
      </trkpt>
      <trkpt lat="45.36098" lon="6.12769">
        <ele>1706.2</ele>
        <time>2016-09-25T11:20:17Z</time>
      </trkpt>
      <trkpt lat="45.36089" lon="6.12766">
        <ele>1706.4</ele>
        <time>2016-09-25T11:20:23Z</time>
      </trkpt>
      <trkpt lat="45.36079" lon="6.12764">
        <ele>1707</ele>
        <time>2016-09-25T11:20:32Z</time>
      </trkpt>
      <trkpt lat="45.36014" lon="6.12786">
        <ele>1719</ele>
        <time>2016-09-25T11:22:04Z</time>
      </trkpt>
      <trkpt lat="45.35997" lon="6.12799">
        <ele>1719.8</ele>
        <time>2016-09-25T11:22:09Z</time>
      </trkpt>
      <trkpt lat="45.35987" lon="6.12806">
        <ele>1720.4</ele>
        <time>2016-09-25T11:22:14Z</time>
      </trkpt>
      <trkpt lat="45.35983" lon="6.12817">
        <ele>1721.5</ele>
        <time>2016-09-25T11:22:20Z</time>
      </trkpt>
      <trkpt lat="45.35976" lon="6.12827">
        <ele>1722.7</ele>
        <time>2016-09-25T11:22:27Z</time>
      </trkpt>
      <trkpt lat="45.35971" lon="6.12839">
        <ele>1723.1</ele>
        <time>2016-09-25T11:22:31Z</time>
      </trkpt>
      <trkpt lat="45.35964" lon="6.12848">
        <ele>1723.4</ele>
        <time>2016-09-25T11:22:34Z</time>
      </trkpt>
      <trkpt lat="45.35957" lon="6.12857">
        <ele>1723.7</ele>
        <time>2016-09-25T11:22:38Z</time>
      </trkpt>
      <trkpt lat="45.35949" lon="6.12868">
        <ele>1724</ele>
        <time>2016-09-25T11:22:43Z</time>
      </trkpt>
      <trkpt lat="45.35942" lon="6.1288">
        <ele>1724.2</ele>
        <time>2016-09-25T11:22:48Z</time>
      </trkpt>
      <trkpt lat="45.35935" lon="6.12889">
        <ele>1724.3</ele>
        <time>2016-09-25T11:22:52Z</time>
      </trkpt>
      <trkpt lat="45.35927" lon="6.129">
        <ele>1724.4</ele>
        <time>2016-09-25T11:22:57Z</time>
      </trkpt>
      <trkpt lat="45.3592" lon="6.12911">
        <ele>1724.4</ele>
        <time>2016-09-25T11:23:02Z</time>
      </trkpt>
      <trkpt lat="45.35913" lon="6.12921">
        <ele>1724.3</ele>
        <time>2016-09-25T11:23:07Z</time>
      </trkpt>
      <trkpt lat="45.35907" lon="6.12932">
        <ele>1724.3</ele>
        <time>2016-09-25T11:23:14Z</time>
      </trkpt>
      <trkpt lat="45.35902" lon="6.12944">
        <ele>1723.7</ele>
        <time>2016-09-25T11:23:18Z</time>
      </trkpt>
      <trkpt lat="45.35897" lon="6.12961">
        <ele>1723.4</ele>
        <time>2016-09-25T11:23:21Z</time>
      </trkpt>
      <trkpt lat="45.35894" lon="6.12973">
        <ele>1723.1</ele>
        <time>2016-09-25T11:23:23Z</time>
      </trkpt>
      <trkpt lat="45.35889" lon="6.12985">
        <ele>1722.8</ele>
        <time>2016-09-25T11:23:25Z</time>
      </trkpt>
      <trkpt lat="45.35882" lon="6.12995">
        <ele>1722.3</ele>
        <time>2016-09-25T11:23:28Z</time>
      </trkpt>
      <trkpt lat="45.35874" lon="6.13005">
        <ele>1721.7</ele>
        <time>2016-09-25T11:23:33Z</time>
      </trkpt>
      <trkpt lat="45.35866" lon="6.13016">
        <ele>1721.3</ele>
        <time>2016-09-25T11:23:38Z</time>
      </trkpt>
      <trkpt lat="45.35858" lon="6.13024">
        <ele>1721.1</ele>
        <time>2016-09-25T11:23:43Z</time>
      </trkpt>
      <trkpt lat="45.35851" lon="6.13033">
        <ele>1721.2</ele>
        <time>2016-09-25T11:23:50Z</time>
      </trkpt>
      <trkpt lat="45.35847" lon="6.13046">
        <ele>1721.9</ele>
        <time>2016-09-25T11:23:57Z</time>
      </trkpt>
      <trkpt lat="45.3584" lon="6.13057">
        <ele>1723.1</ele>
        <time>2016-09-25T11:24:05Z</time>
      </trkpt>
      <trkpt lat="45.35832" lon="6.13065">
        <ele>1724.4</ele>
        <time>2016-09-25T11:24:13Z</time>
      </trkpt>
      <trkpt lat="45.35824" lon="6.13071">
        <ele>1725.5</ele>
        <time>2016-09-25T11:24:21Z</time>
      </trkpt>
      <trkpt lat="45.35815" lon="6.13075">
        <ele>1726.1</ele>
        <time>2016-09-25T11:24:28Z</time>
      </trkpt>
      <trkpt lat="45.35804" lon="6.13075">
        <ele>1725.8</ele>
        <time>2016-09-25T11:24:33Z</time>
      </trkpt>
      <trkpt lat="45.35794" lon="6.13077">
        <ele>1725.3</ele>
        <time>2016-09-25T11:24:40Z</time>
      </trkpt>
      <trkpt lat="45.35783" lon="6.13076">
        <ele>1724.5</ele>
        <time>2016-09-25T11:24:44Z</time>
      </trkpt>
      <trkpt lat="45.35773" lon="6.13077">
        <ele>1723.5</ele>
        <time>2016-09-25T11:24:47Z</time>
      </trkpt>
      <trkpt lat="45.35761" lon="6.13079">
        <ele>1722.2</ele>
        <time>2016-09-25T11:24:51Z</time>
      </trkpt>
      <trkpt lat="45.35753" lon="6.13086">
        <ele>1721.3</ele>
        <time>2016-09-25T11:24:54Z</time>
      </trkpt>
      <trkpt lat="45.35746" lon="6.13093">
        <ele>1720.4</ele>
        <time>2016-09-25T11:24:57Z</time>
      </trkpt>
      <trkpt lat="45.35736" lon="6.13099">
        <ele>1719.5</ele>
        <time>2016-09-25T11:25:00Z</time>
      </trkpt>
      <trkpt lat="45.35726" lon="6.13106">
        <ele>1718.7</ele>
        <time>2016-09-25T11:25:03Z</time>
      </trkpt>
      <trkpt lat="45.35717" lon="6.13114">
        <ele>1717.5</ele>
        <time>2016-09-25T11:25:07Z</time>
      </trkpt>
      <trkpt lat="45.35709" lon="6.13121">
        <ele>1716.6</ele>
        <time>2016-09-25T11:25:11Z</time>
      </trkpt>
      <trkpt lat="45.357" lon="6.13129">
        <ele>1715.8</ele>
        <time>2016-09-25T11:25:16Z</time>
      </trkpt>
      <trkpt lat="45.35692" lon="6.1314">
        <ele>1715.2</ele>
        <time>2016-09-25T11:25:21Z</time>
      </trkpt>
      <trkpt lat="45.35685" lon="6.13149">
        <ele>1714.9</ele>
        <time>2016-09-25T11:25:25Z</time>
      </trkpt>
      <trkpt lat="45.35676" lon="6.13158">
        <ele>1714.5</ele>
        <time>2016-09-25T11:25:30Z</time>
      </trkpt>
      <trkpt lat="45.35668" lon="6.13166">
        <ele>1714.2</ele>
        <time>2016-09-25T11:25:35Z</time>
      </trkpt>
      <trkpt lat="45.35659" lon="6.13172">
        <ele>1714.1</ele>
        <time>2016-09-25T11:25:42Z</time>
      </trkpt>
      <trkpt lat="45.35649" lon="6.13174">
        <ele>1714.9</ele>
        <time>2016-09-25T11:25:52Z</time>
      </trkpt>
      <trkpt lat="45.3564" lon="6.13177">
        <ele>1715.7</ele>
        <time>2016-09-25T11:25:59Z</time>
      </trkpt>
      <trkpt lat="45.3563" lon="6.1318">
        <ele>1716.5</ele>
        <time>2016-09-25T11:26:06Z</time>
      </trkpt>
      <trkpt lat="45.35621" lon="6.13183">
        <ele>1717.1</ele>
        <time>2016-09-25T11:26:11Z</time>
      </trkpt>
      <trkpt lat="45.35612" lon="6.13186">
        <ele>1718.3</ele>
        <time>2016-09-25T11:26:20Z</time>
      </trkpt>
      <trkpt lat="45.35602" lon="6.13185">
        <ele>1719.2</ele>
        <time>2016-09-25T11:26:26Z</time>
      </trkpt>
      <trkpt lat="45.35592" lon="6.13184">
        <ele>1720</ele>
        <time>2016-09-25T11:26:33Z</time>
      </trkpt>
      <trkpt lat="45.35583" lon="6.13179">
        <ele>1720.8</ele>
        <time>2016-09-25T11:26:39Z</time>
      </trkpt>
      <trkpt lat="45.35575" lon="6.13173">
        <ele>1721.5</ele>
        <time>2016-09-25T11:26:45Z</time>
      </trkpt>
      <trkpt lat="45.35567" lon="6.13165">
        <ele>1722.4</ele>
        <time>2016-09-25T11:26:52Z</time>
      </trkpt>
      <trkpt lat="45.35559" lon="6.13157">
        <ele>1722.9</ele>
        <time>2016-09-25T11:26:56Z</time>
      </trkpt>
      <trkpt lat="45.35551" lon="6.1315">
        <ele>1723.3</ele>
        <time>2016-09-25T11:27:01Z</time>
      </trkpt>
      <trkpt lat="45.35541" lon="6.13143">
        <ele>1723.8</ele>
        <time>2016-09-25T11:27:07Z</time>
      </trkpt>
      <trkpt lat="45.35532" lon="6.13137">
        <ele>1724.4</ele>
        <time>2016-09-25T11:27:12Z</time>
      </trkpt>
      <trkpt lat="45.35523" lon="6.13131">
        <ele>1725</ele>
        <time>2016-09-25T11:27:17Z</time>
      </trkpt>
      <trkpt lat="45.35514" lon="6.13125">
        <ele>1726</ele>
        <time>2016-09-25T11:27:23Z</time>
      </trkpt>
      <trkpt lat="45.35505" lon="6.13121">
        <ele>1727.5</ele>
        <time>2016-09-25T11:27:32Z</time>
      </trkpt>
      <trkpt lat="45.35497" lon="6.13116">
        <ele>1728.1</ele>
        <time>2016-09-25T11:27:38Z</time>
      </trkpt>
      <trkpt lat="45.35489" lon="6.13107">
        <ele>1728.6</ele>
        <time>2016-09-25T11:27:44Z</time>
      </trkpt>
      <trkpt lat="45.3548" lon="6.13104">
        <ele>1729.3</ele>
        <time>2016-09-25T11:27:55Z</time>
      </trkpt>
      <trkpt lat="45.35471" lon="6.13099">
        <ele>1729.8</ele>
        <time>2016-09-25T11:28:04Z</time>
      </trkpt>
      <trkpt lat="45.35462" lon="6.13095">
        <ele>1730</ele>
        <time>2016-09-25T11:28:10Z</time>
      </trkpt>
      <trkpt lat="45.35455" lon="6.13087">
        <ele>1730.1</ele>
        <time>2016-09-25T11:28:15Z</time>
      </trkpt>
      <trkpt lat="45.35446" lon="6.13086">
        <ele>1730.2</ele>
        <time>2016-09-25T11:28:21Z</time>
      </trkpt>
      <trkpt lat="45.35437" lon="6.13081">
        <ele>1730.3</ele>
        <time>2016-09-25T11:28:27Z</time>
      </trkpt>
      <trkpt lat="45.35428" lon="6.13075">
        <ele>1730.4</ele>
        <time>2016-09-25T11:28:34Z</time>
      </trkpt>
      <trkpt lat="45.35419" lon="6.1307">
        <ele>1730.8</ele>
        <time>2016-09-25T11:28:47Z</time>
      </trkpt>
      <trkpt lat="45.35411" lon="6.13066">
        <ele>1731.8</ele>
        <time>2016-09-25T11:28:59Z</time>
      </trkpt>
      <trkpt lat="45.35402" lon="6.13067">
        <ele>1733.8</ele>
        <time>2016-09-25T11:29:20Z</time>
      </trkpt>
      <trkpt lat="45.35392" lon="6.13061">
        <ele>1733.6</ele>
        <time>2016-09-25T11:29:32Z</time>
      </trkpt>
      <trkpt lat="45.35384" lon="6.13055">
        <ele>1733.4</ele>
        <time>2016-09-25T11:29:38Z</time>
      </trkpt>
      <trkpt lat="45.35374" lon="6.13051">
        <ele>1734.9</ele>
        <time>2016-09-25T11:35:50Z</time>
      </trkpt>
      <trkpt lat="45.35362" lon="6.13045">
        <ele>1734.3</ele>
        <time>2016-09-25T11:35:55Z</time>
      </trkpt>
      <trkpt lat="45.35353" lon="6.13041">
        <ele>1733.7</ele>
        <time>2016-09-25T11:35:58Z</time>
      </trkpt>
      <trkpt lat="45.35343" lon="6.13035">
        <ele>1733.2</ele>
        <time>2016-09-25T11:36:00Z</time>
      </trkpt>
      <trkpt lat="45.35331" lon="6.13033">
        <ele>1732.4</ele>
        <time>2016-09-25T11:36:03Z</time>
      </trkpt>
      <trkpt lat="45.35321" lon="6.13031">
        <ele>1731.5</ele>
        <time>2016-09-25T11:36:07Z</time>
      </trkpt>
      <trkpt lat="45.35311" lon="6.13032">
        <ele>1730.7</ele>
        <time>2016-09-25T11:36:11Z</time>
      </trkpt>
      <trkpt lat="45.35302" lon="6.13033">
        <ele>1729.6</ele>
        <time>2016-09-25T11:36:17Z</time>
      </trkpt>
      <trkpt lat="45.35293" lon="6.13037">
        <ele>1729.1</ele>
        <time>2016-09-25T11:36:21Z</time>
      </trkpt>
      <trkpt lat="45.35283" lon="6.1304">
        <ele>1728.2</ele>
        <time>2016-09-25T11:36:30Z</time>
      </trkpt>
      <trkpt lat="45.35273" lon="6.13045">
        <ele>1727.8</ele>
        <time>2016-09-25T11:36:34Z</time>
      </trkpt>
      <trkpt lat="45.35265" lon="6.13053">
        <ele>1727.1</ele>
        <time>2016-09-25T11:36:38Z</time>
      </trkpt>
      <trkpt lat="45.35255" lon="6.13058">
        <ele>1726.5</ele>
        <time>2016-09-25T11:36:41Z</time>
      </trkpt>
      <trkpt lat="45.35245" lon="6.13063">
        <ele>1725.8</ele>
        <time>2016-09-25T11:36:44Z</time>
      </trkpt>
      <trkpt lat="45.35233" lon="6.13067">
        <ele>1725.2</ele>
        <time>2016-09-25T11:36:47Z</time>
      </trkpt>
      <trkpt lat="45.35223" lon="6.13076">
        <ele>1724.3</ele>
        <time>2016-09-25T11:36:50Z</time>
      </trkpt>
      <trkpt lat="45.35212" lon="6.13086">
        <ele>1723.6</ele>
        <time>2016-09-25T11:36:53Z</time>
      </trkpt>
      <trkpt lat="45.35198" lon="6.13094">
        <ele>1722.4</ele>
        <time>2016-09-25T11:36:56Z</time>
      </trkpt>
      <trkpt lat="45.3519" lon="6.13101">
        <ele>1721.1</ele>
        <time>2016-09-25T11:37:01Z</time>
      </trkpt>
      <trkpt lat="45.3518" lon="6.13102">
        <ele>1718.4</ele>
        <time>2016-09-25T11:37:19Z</time>
      </trkpt>
      <trkpt lat="45.35169" lon="6.13105">
        <ele>1717.8</ele>
        <time>2016-09-25T11:37:23Z</time>
      </trkpt>
      <trkpt lat="45.35155" lon="6.13113">
        <ele>1716.7</ele>
        <time>2016-09-25T11:37:27Z</time>
      </trkpt>
      <trkpt lat="45.35147" lon="6.13117">
        <ele>1716</ele>
        <time>2016-09-25T11:37:29Z</time>
      </trkpt>
      <trkpt lat="45.35136" lon="6.13124">
        <ele>1714.8</ele>
        <time>2016-09-25T11:37:32Z</time>
      </trkpt>
      <trkpt lat="45.35126" lon="6.13132">
        <ele>1713.6</ele>
        <time>2016-09-25T11:37:35Z</time>
      </trkpt>
      <trkpt lat="45.35117" lon="6.13133">
        <ele>1712.4</ele>
        <time>2016-09-25T11:37:38Z</time>
      </trkpt>
      <trkpt lat="45.35107" lon="6.13138">
        <ele>1710.5</ele>
        <time>2016-09-25T11:37:42Z</time>
      </trkpt>
      <trkpt lat="45.35098" lon="6.13142">
        <ele>1709</ele>
        <time>2016-09-25T11:37:45Z</time>
      </trkpt>
      <trkpt lat="45.3509" lon="6.13148">
        <ele>1706.8</ele>
        <time>2016-09-25T11:37:50Z</time>
      </trkpt>
      <trkpt lat="45.35082" lon="6.13154">
        <ele>1703.5</ele>
        <time>2016-09-25T11:38:01Z</time>
      </trkpt>
      <trkpt lat="45.35072" lon="6.1316">
        <ele>1702.6</ele>
        <time>2016-09-25T11:38:06Z</time>
      </trkpt>
      <trkpt lat="45.35064" lon="6.13169">
        <ele>1702.1</ele>
        <time>2016-09-25T11:38:10Z</time>
      </trkpt>
      <trkpt lat="45.35055" lon="6.13177">
        <ele>1701.6</ele>
        <time>2016-09-25T11:38:14Z</time>
      </trkpt>
      <trkpt lat="45.35045" lon="6.13182">
        <ele>1701.2</ele>
        <time>2016-09-25T11:38:18Z</time>
      </trkpt>
      <trkpt lat="45.35035" lon="6.13183">
        <ele>1700.3</ele>
        <time>2016-09-25T11:38:23Z</time>
      </trkpt>
      <trkpt lat="45.35025" lon="6.13179">
        <ele>1698.8</ele>
        <time>2016-09-25T11:38:28Z</time>
      </trkpt>
      <trkpt lat="45.35016" lon="6.13182">
        <ele>1697.4</ele>
        <time>2016-09-25T11:38:33Z</time>
      </trkpt>
      <trkpt lat="45.35008" lon="6.13193">
        <ele>1695.5</ele>
        <time>2016-09-25T11:38:38Z</time>
      </trkpt>
      <trkpt lat="45.35" lon="6.13199">
        <ele>1689.3</ele>
        <time>2016-09-25T11:39:07Z</time>
      </trkpt>
      <trkpt lat="45.34991" lon="6.13202">
        <ele>1685.8</ele>
        <time>2016-09-25T11:39:31Z</time>
      </trkpt>
      <trkpt lat="45.34981" lon="6.13202">
        <ele>1684.3</ele>
        <time>2016-09-25T11:39:40Z</time>
      </trkpt>
      <trkpt lat="45.3497" lon="6.13199">
        <ele>1682.3</ele>
        <time>2016-09-25T11:39:47Z</time>
      </trkpt>
      <trkpt lat="45.3496" lon="6.13196">
        <ele>1680.5</ele>
        <time>2016-09-25T11:39:52Z</time>
      </trkpt>
      <trkpt lat="45.34951" lon="6.13193">
        <ele>1678.8</ele>
        <time>2016-09-25T11:39:56Z</time>
      </trkpt>
      <trkpt lat="45.34941" lon="6.13186">
        <ele>1675.8</ele>
        <time>2016-09-25T11:40:01Z</time>
      </trkpt>
      <trkpt lat="45.34931" lon="6.13183">
        <ele>1674</ele>
        <time>2016-09-25T11:40:04Z</time>
      </trkpt>
      <trkpt lat="45.34921" lon="6.13179">
        <ele>1672.1</ele>
        <time>2016-09-25T11:40:07Z</time>
      </trkpt>
      <trkpt lat="45.34913" lon="6.13185">
        <ele>1668.7</ele>
        <time>2016-09-25T11:40:12Z</time>
      </trkpt>
      <trkpt lat="45.34904" lon="6.13192">
        <ele>1663</ele>
        <time>2016-09-25T11:40:26Z</time>
      </trkpt>
      <trkpt lat="45.34896" lon="6.13198">
        <ele>1661</ele>
        <time>2016-09-25T11:40:38Z</time>
      </trkpt>
      <trkpt lat="45.34886" lon="6.13202">
        <ele>1660.2</ele>
        <time>2016-09-25T11:40:50Z</time>
      </trkpt>
      <trkpt lat="45.34877" lon="6.13209">
        <ele>1660</ele>
        <time>2016-09-25T11:40:56Z</time>
      </trkpt>
      <trkpt lat="45.34868" lon="6.13217">
        <ele>1659.2</ele>
        <time>2016-09-25T11:41:02Z</time>
      </trkpt>
      <trkpt lat="45.3486" lon="6.13226">
        <ele>1658.6</ele>
        <time>2016-09-25T11:41:06Z</time>
      </trkpt>
      <trkpt lat="45.34853" lon="6.13236">
        <ele>1658.1</ele>
        <time>2016-09-25T11:41:11Z</time>
      </trkpt>
      <trkpt lat="45.34845" lon="6.13244">
        <ele>1657.8</ele>
        <time>2016-09-25T11:41:15Z</time>
      </trkpt>
      <trkpt lat="45.34835" lon="6.13248">
        <ele>1657.2</ele>
        <time>2016-09-25T11:41:30Z</time>
      </trkpt>
      <trkpt lat="45.34826" lon="6.13246">
        <ele>1657</ele>
        <time>2016-09-25T11:41:43Z</time>
      </trkpt>
      <trkpt lat="45.34816" lon="6.13247">
        <ele>1656.9</ele>
        <time>2016-09-25T11:41:51Z</time>
      </trkpt>
      <trkpt lat="45.34807" lon="6.13251">
        <ele>1656.7</ele>
        <time>2016-09-25T11:41:57Z</time>
      </trkpt>
      <trkpt lat="45.34797" lon="6.13255">
        <ele>1656.5</ele>
        <time>2016-09-25T11:42:02Z</time>
      </trkpt>
      <trkpt lat="45.34789" lon="6.13263">
        <ele>1656.3</ele>
        <time>2016-09-25T11:42:07Z</time>
      </trkpt>
      <trkpt lat="45.34781" lon="6.13267">
        <ele>1655.9</ele>
        <time>2016-09-25T11:42:13Z</time>
      </trkpt>
      <trkpt lat="45.34771" lon="6.13272">
        <ele>1655.1</ele>
        <time>2016-09-25T11:42:18Z</time>
      </trkpt>
      <trkpt lat="45.34762" lon="6.13277">
        <ele>1654.5</ele>
        <time>2016-09-25T11:42:22Z</time>
      </trkpt>
      <trkpt lat="45.34752" lon="6.13284">
        <ele>1653.8</ele>
        <time>2016-09-25T11:42:27Z</time>
      </trkpt>
      <trkpt lat="45.34743" lon="6.13285">
        <ele>1652.4</ele>
        <time>2016-09-25T11:42:44Z</time>
      </trkpt>
      <trkpt lat="45.34733" lon="6.13282">
        <ele>1651.5</ele>
        <time>2016-09-25T11:42:54Z</time>
      </trkpt>
      <trkpt lat="45.34724" lon="6.13286">
        <ele>1650.1</ele>
        <time>2016-09-25T11:43:06Z</time>
      </trkpt>
      <trkpt lat="45.34715" lon="6.13292">
        <ele>1648.7</ele>
        <time>2016-09-25T11:43:20Z</time>
      </trkpt>
      <trkpt lat="45.34707" lon="6.13295">
        <ele>1648</ele>
        <time>2016-09-25T11:43:29Z</time>
      </trkpt>
      <trkpt lat="45.34697" lon="6.13299">
        <ele>1646.9</ele>
        <time>2016-09-25T11:43:42Z</time>
      </trkpt>
      <trkpt lat="45.34687" lon="6.13301">
        <ele>1645.7</ele>
        <time>2016-09-25T11:43:48Z</time>
      </trkpt>
      <trkpt lat="45.34676" lon="6.13298">
        <ele>1643.5</ele>
        <time>2016-09-25T11:43:59Z</time>
      </trkpt>
      <trkpt lat="45.34668" lon="6.13293">
        <ele>1642.2</ele>
        <time>2016-09-25T11:44:04Z</time>
      </trkpt>
      <trkpt lat="45.34657" lon="6.1329">
        <ele>1640.9</ele>
        <time>2016-09-25T11:44:09Z</time>
      </trkpt>
      <trkpt lat="45.34647" lon="6.13285">
        <ele>1639.5</ele>
        <time>2016-09-25T11:44:14Z</time>
      </trkpt>
      <trkpt lat="45.34638" lon="6.13283">
        <ele>1638.2</ele>
        <time>2016-09-25T11:44:19Z</time>
      </trkpt>
      <trkpt lat="45.34628" lon="6.1328">
        <ele>1636.8</ele>
        <time>2016-09-25T11:44:25Z</time>
      </trkpt>
      <trkpt lat="45.34619" lon="6.13275">
        <ele>1635.9</ele>
        <time>2016-09-25T11:44:29Z</time>
      </trkpt>
      <trkpt lat="45.3461" lon="6.13275">
        <ele>1635</ele>
        <time>2016-09-25T11:44:32Z</time>
      </trkpt>
      <trkpt lat="45.34599" lon="6.13268">
        <ele>1633.3</ele>
        <time>2016-09-25T11:44:37Z</time>
      </trkpt>
      <trkpt lat="45.34588" lon="6.13265">
        <ele>1632</ele>
        <time>2016-09-25T11:44:40Z</time>
      </trkpt>
      <trkpt lat="45.34577" lon="6.13262">
        <ele>1630.2</ele>
        <time>2016-09-25T11:44:44Z</time>
      </trkpt>
      <trkpt lat="45.34564" lon="6.1326">
        <ele>1627.6</ele>
        <time>2016-09-25T11:44:49Z</time>
      </trkpt>
      <trkpt lat="45.34553" lon="6.1326">
        <ele>1625.6</ele>
        <time>2016-09-25T11:44:52Z</time>
      </trkpt>
      <trkpt lat="45.34542" lon="6.13254">
        <ele>1624.2</ele>
        <time>2016-09-25T11:44:55Z</time>
      </trkpt>
      <trkpt lat="45.34531" lon="6.13249">
        <ele>1622.2</ele>
        <time>2016-09-25T11:44:59Z</time>
      </trkpt>
      <trkpt lat="45.34522" lon="6.13245">
        <ele>1620.2</ele>
        <time>2016-09-25T11:45:03Z</time>
      </trkpt>
      <trkpt lat="45.34513" lon="6.13237">
        <ele>1617.9</ele>
        <time>2016-09-25T11:45:07Z</time>
      </trkpt>
      <trkpt lat="45.34503" lon="6.1323">
        <ele>1615.5</ele>
        <time>2016-09-25T11:45:11Z</time>
      </trkpt>
      <trkpt lat="45.34493" lon="6.13232">
        <ele>1612.2</ele>
        <time>2016-09-25T11:45:16Z</time>
      </trkpt>
      <trkpt lat="45.34484" lon="6.1323">
        <ele>1609.9</ele>
        <time>2016-09-25T11:45:20Z</time>
      </trkpt>
      <trkpt lat="45.34472" lon="6.13222">
        <ele>1607.7</ele>
        <time>2016-09-25T11:45:23Z</time>
      </trkpt>
      <trkpt lat="45.34462" lon="6.13212">
        <ele>1605.3</ele>
        <time>2016-09-25T11:45:26Z</time>
      </trkpt>
      <trkpt lat="45.34454" lon="6.13205">
        <ele>1603.5</ele>
        <time>2016-09-25T11:45:29Z</time>
      </trkpt>
      <trkpt lat="45.34445" lon="6.13198">
        <ele>1601.6</ele>
        <time>2016-09-25T11:45:33Z</time>
      </trkpt>
      <trkpt lat="45.34437" lon="6.13192">
        <ele>1600.2</ele>
        <time>2016-09-25T11:45:36Z</time>
      </trkpt>
      <trkpt lat="45.34425" lon="6.13189">
        <ele>1598</ele>
        <time>2016-09-25T11:45:40Z</time>
      </trkpt>
      <trkpt lat="45.34416" lon="6.1319">
        <ele>1596.5</ele>
        <time>2016-09-25T11:45:43Z</time>
      </trkpt>
      <trkpt lat="45.34405" lon="6.13188">
        <ele>1594.6</ele>
        <time>2016-09-25T11:45:48Z</time>
      </trkpt>
      <trkpt lat="45.34395" lon="6.13184">
        <ele>1591</ele>
        <time>2016-09-25T11:45:55Z</time>
      </trkpt>
      <trkpt lat="45.34385" lon="6.13181">
        <ele>1588.5</ele>
        <time>2016-09-25T11:46:00Z</time>
      </trkpt>
      <trkpt lat="45.34375" lon="6.13174">
        <ele>1586.7</ele>
        <time>2016-09-25T11:46:04Z</time>
      </trkpt>
      <trkpt lat="45.34379" lon="6.13162">
        <ele>1584.8</ele>
        <time>2016-09-25T11:46:08Z</time>
      </trkpt>
      <trkpt lat="45.34385" lon="6.13151">
        <ele>1583.9</ele>
        <time>2016-09-25T11:46:10Z</time>
      </trkpt>
      <trkpt lat="45.34391" lon="6.13138">
        <ele>1582.7</ele>
        <time>2016-09-25T11:46:12Z</time>
      </trkpt>
      <trkpt lat="45.34397" lon="6.13126">
        <ele>1581.6</ele>
        <time>2016-09-25T11:46:14Z</time>
      </trkpt>
      <trkpt lat="45.34405" lon="6.13118">
        <ele>1579.7</ele>
        <time>2016-09-25T11:46:18Z</time>
      </trkpt>
      <trkpt lat="45.34411" lon="6.13108">
        <ele>1577.1</ele>
        <time>2016-09-25T11:46:23Z</time>
      </trkpt>
      <trkpt lat="45.34418" lon="6.13097">
        <ele>1573.5</ele>
        <time>2016-09-25T11:46:29Z</time>
      </trkpt>
      <trkpt lat="45.34428" lon="6.13091">
        <ele>1569.7</ele>
        <time>2016-09-25T11:46:35Z</time>
      </trkpt>
      <trkpt lat="45.34432" lon="6.13078">
        <ele>1567.2</ele>
        <time>2016-09-25T11:46:39Z</time>
      </trkpt>
      <trkpt lat="45.34441" lon="6.13065">
        <ele>1565</ele>
        <time>2016-09-25T11:46:42Z</time>
      </trkpt>
      <trkpt lat="45.34445" lon="6.13052">
        <ele>1562.5</ele>
        <time>2016-09-25T11:46:47Z</time>
      </trkpt>
      <trkpt lat="45.34443" lon="6.13036">
        <ele>1559.8</ele>
        <time>2016-09-25T11:46:52Z</time>
      </trkpt>
      <trkpt lat="45.34441" lon="6.13021">
        <ele>1557.5</ele>
        <time>2016-09-25T11:46:55Z</time>
      </trkpt>
      <trkpt lat="45.3444" lon="6.13003">
        <ele>1556</ele>
        <time>2016-09-25T11:46:58Z</time>
      </trkpt>
      <trkpt lat="45.34436" lon="6.12989">
        <ele>1554.4</ele>
        <time>2016-09-25T11:47:01Z</time>
      </trkpt>
      <trkpt lat="45.34432" lon="6.12976">
        <ele>1552.5</ele>
        <time>2016-09-25T11:47:05Z</time>
      </trkpt>
      <trkpt lat="45.34438" lon="6.12966">
        <ele>1550.2</ele>
        <time>2016-09-25T11:47:11Z</time>
      </trkpt>
      <trkpt lat="45.34443" lon="6.12953">
        <ele>1548.4</ele>
        <time>2016-09-25T11:47:16Z</time>
      </trkpt>
      <trkpt lat="45.3445" lon="6.1294">
        <ele>1546.8</ele>
        <time>2016-09-25T11:47:20Z</time>
      </trkpt>
      <trkpt lat="45.34457" lon="6.12929">
        <ele>1545.4</ele>
        <time>2016-09-25T11:47:23Z</time>
      </trkpt>
      <trkpt lat="45.34464" lon="6.12917">
        <ele>1542.3</ele>
        <time>2016-09-25T11:47:33Z</time>
      </trkpt>
      <trkpt lat="45.34474" lon="6.12907">
        <ele>1541.5</ele>
        <time>2016-09-25T11:47:37Z</time>
      </trkpt>
      <trkpt lat="45.34484" lon="6.12902">
        <ele>1540.5</ele>
        <time>2016-09-25T11:47:42Z</time>
      </trkpt>
      <trkpt lat="45.34491" lon="6.12893">
        <ele>1539</ele>
        <time>2016-09-25T11:47:46Z</time>
      </trkpt>
      <trkpt lat="45.34496" lon="6.12881">
        <ele>1537.8</ele>
        <time>2016-09-25T11:47:49Z</time>
      </trkpt>
      <trkpt lat="45.34496" lon="6.12867">
        <ele>1536.7</ele>
        <time>2016-09-25T11:47:52Z</time>
      </trkpt>
      <trkpt lat="45.34502" lon="6.12854">
        <ele>1534.9</ele>
        <time>2016-09-25T11:47:59Z</time>
      </trkpt>
      <trkpt lat="45.34509" lon="6.12844">
        <ele>1532.7</ele>
        <time>2016-09-25T11:48:10Z</time>
      </trkpt>
      <trkpt lat="45.3452" lon="6.12841">
        <ele>1532.2</ele>
        <time>2016-09-25T11:48:13Z</time>
      </trkpt>
      <trkpt lat="45.34528" lon="6.12833">
        <ele>1531</ele>
        <time>2016-09-25T11:48:17Z</time>
      </trkpt>
      <trkpt lat="45.34534" lon="6.12821">
        <ele>1529.4</ele>
        <time>2016-09-25T11:48:21Z</time>
      </trkpt>
      <trkpt lat="45.34541" lon="6.12811">
        <ele>1526.8</ele>
        <time>2016-09-25T11:48:26Z</time>
      </trkpt>
      <trkpt lat="45.34548" lon="6.12801">
        <ele>1524.3</ele>
        <time>2016-09-25T11:48:30Z</time>
      </trkpt>
      <trkpt lat="45.34555" lon="6.1279">
        <ele>1522.1</ele>
        <time>2016-09-25T11:48:33Z</time>
      </trkpt>
      <trkpt lat="45.34563" lon="6.12779">
        <ele>1520.2</ele>
        <time>2016-09-25T11:48:35Z</time>
      </trkpt>
      <trkpt lat="45.34571" lon="6.12767">
        <ele>1517.9</ele>
        <time>2016-09-25T11:48:38Z</time>
      </trkpt>
      <trkpt lat="45.3458" lon="6.12758">
        <ele>1515.2</ele>
        <time>2016-09-25T11:48:42Z</time>
      </trkpt>
      <trkpt lat="45.3459" lon="6.1275">
        <ele>1513</ele>
        <time>2016-09-25T11:48:45Z</time>
      </trkpt>
      <trkpt lat="45.34589" lon="6.12736">
        <ele>1509.5</ele>
        <time>2016-09-25T11:48:50Z</time>
      </trkpt>
      <trkpt lat="45.3458" lon="6.12737">
        <ele>1507.2</ele>
        <time>2016-09-25T11:48:53Z</time>
      </trkpt>
      <trkpt lat="45.3457" lon="6.1274">
        <ele>1505.1</ele>
        <time>2016-09-25T11:48:56Z</time>
      </trkpt>
      <trkpt lat="45.3456" lon="6.12739">
        <ele>1503</ele>
        <time>2016-09-25T11:48:59Z</time>
      </trkpt>
      <trkpt lat="45.3455" lon="6.12733">
        <ele>1500.6</ele>
        <time>2016-09-25T11:49:02Z</time>
      </trkpt>
      <trkpt lat="45.34538" lon="6.12725">
        <ele>1498</ele>
        <time>2016-09-25T11:49:05Z</time>
      </trkpt>
      <trkpt lat="45.34528" lon="6.12717">
        <ele>1495.3</ele>
        <time>2016-09-25T11:49:08Z</time>
      </trkpt>
      <trkpt lat="45.34518" lon="6.12716">
        <ele>1492.7</ele>
        <time>2016-09-25T11:49:11Z</time>
      </trkpt>
      <trkpt lat="45.34509" lon="6.12707">
        <ele>1488.9</ele>
        <time>2016-09-25T11:49:16Z</time>
      </trkpt>
      <trkpt lat="45.34511" lon="6.12691">
        <ele>1483.1</ele>
        <time>2016-09-25T11:49:24Z</time>
      </trkpt>
      <trkpt lat="45.34519" lon="6.1268">
        <ele>1480.1</ele>
        <time>2016-09-25T11:49:28Z</time>
      </trkpt>
      <trkpt lat="45.34527" lon="6.12667">
        <ele>1476.7</ele>
        <time>2016-09-25T11:49:32Z</time>
      </trkpt>
      <trkpt lat="45.34534" lon="6.1266">
        <ele>1474.1</ele>
        <time>2016-09-25T11:49:35Z</time>
      </trkpt>
      <trkpt lat="45.34542" lon="6.12651">
        <ele>1471.1</ele>
        <time>2016-09-25T11:49:38Z</time>
      </trkpt>
      <trkpt lat="45.34546" lon="6.12637">
        <ele>1467.4</ele>
        <time>2016-09-25T11:49:42Z</time>
      </trkpt>
      <trkpt lat="45.34535" lon="6.12633">
        <ele>1462.3</ele>
        <time>2016-09-25T11:49:48Z</time>
      </trkpt>
      <trkpt lat="45.34525" lon="6.12632">
        <ele>1458.6</ele>
        <time>2016-09-25T11:49:53Z</time>
      </trkpt>
      <trkpt lat="45.34517" lon="6.12625">
        <ele>1454.7</ele>
        <time>2016-09-25T11:49:58Z</time>
      </trkpt>
      <trkpt lat="45.34521" lon="6.12612">
        <ele>1452.1</ele>
        <time>2016-09-25T11:50:02Z</time>
      </trkpt>
      <trkpt lat="45.34523" lon="6.12599">
        <ele>1447.2</ele>
        <time>2016-09-25T11:50:16Z</time>
      </trkpt>
      <trkpt lat="45.34524" lon="6.12586">
        <ele>1446</ele>
        <time>2016-09-25T11:50:21Z</time>
      </trkpt>
      <trkpt lat="45.34529" lon="6.12576">
        <ele>1444.7</ele>
        <time>2016-09-25T11:50:25Z</time>
      </trkpt>
      <trkpt lat="45.34536" lon="6.12565">
        <ele>1442.7</ele>
        <time>2016-09-25T11:50:30Z</time>
      </trkpt>
      <trkpt lat="45.34544" lon="6.12558">
        <ele>1441.1</ele>
        <time>2016-09-25T11:50:33Z</time>
      </trkpt>
      <trkpt lat="45.34552" lon="6.12549">
        <ele>1438.3</ele>
        <time>2016-09-25T11:50:38Z</time>
      </trkpt>
      <trkpt lat="45.3456" lon="6.12543">
        <ele>1435.7</ele>
        <time>2016-09-25T11:50:42Z</time>
      </trkpt>
      <trkpt lat="45.34569" lon="6.12538">
        <ele>1433.6</ele>
        <time>2016-09-25T11:50:45Z</time>
      </trkpt>
      <trkpt lat="45.3458" lon="6.12537">
        <ele>1430.9</ele>
        <time>2016-09-25T11:50:49Z</time>
      </trkpt>
      <trkpt lat="45.34574" lon="6.12527">
        <ele>1426.5</ele>
        <time>2016-09-25T11:50:56Z</time>
      </trkpt>
      <trkpt lat="45.34563" lon="6.1252">
        <ele>1424.4</ele>
        <time>2016-09-25T11:50:59Z</time>
      </trkpt>
      <trkpt lat="45.34553" lon="6.12516">
        <ele>1422.9</ele>
        <time>2016-09-25T11:51:01Z</time>
      </trkpt>
      <trkpt lat="45.34542" lon="6.12516">
        <ele>1420.6</ele>
        <time>2016-09-25T11:51:04Z</time>
      </trkpt>
      <trkpt lat="45.34533" lon="6.12511">
        <ele>1417.6</ele>
        <time>2016-09-25T11:51:08Z</time>
      </trkpt>
      <trkpt lat="45.34524" lon="6.12506">
        <ele>1414.5</ele>
        <time>2016-09-25T11:51:12Z</time>
      </trkpt>
      <trkpt lat="45.34514" lon="6.12505">
        <ele>1412.1</ele>
        <time>2016-09-25T11:51:15Z</time>
      </trkpt>
      <trkpt lat="45.34504" lon="6.12501">
        <ele>1409.7</ele>
        <time>2016-09-25T11:51:18Z</time>
      </trkpt>
      <trkpt lat="45.34495" lon="6.12501">
        <ele>1406.4</ele>
        <time>2016-09-25T11:51:22Z</time>
      </trkpt>
      <trkpt lat="45.34485" lon="6.12497">
        <ele>1402.5</ele>
        <time>2016-09-25T11:51:27Z</time>
      </trkpt>
      <trkpt lat="45.34475" lon="6.12493">
        <ele>1397.4</ele>
        <time>2016-09-25T11:51:34Z</time>
      </trkpt>
      <trkpt lat="45.34482" lon="6.12482">
        <ele>1392.3</ele>
        <time>2016-09-25T11:51:41Z</time>
      </trkpt>
      <trkpt lat="45.34489" lon="6.12474">
        <ele>1389.3</ele>
        <time>2016-09-25T11:51:45Z</time>
      </trkpt>
      <trkpt lat="45.34497" lon="6.12464">
        <ele>1385.6</ele>
        <time>2016-09-25T11:51:50Z</time>
      </trkpt>
      <trkpt lat="45.34496" lon="6.1245">
        <ele>1380.4</ele>
        <time>2016-09-25T11:51:58Z</time>
      </trkpt>
      <trkpt lat="45.34485" lon="6.12449">
        <ele>1374.7</ele>
        <time>2016-09-25T11:52:11Z</time>
      </trkpt>
      <trkpt lat="45.34475" lon="6.12447">
        <ele>1373.4</ele>
        <time>2016-09-25T11:52:14Z</time>
      </trkpt>
      <trkpt lat="45.34465" lon="6.12442">
        <ele>1371.2</ele>
        <time>2016-09-25T11:52:18Z</time>
      </trkpt>
      <trkpt lat="45.34452" lon="6.12446">
        <ele>1369.5</ele>
        <time>2016-09-25T11:52:21Z</time>
      </trkpt>
      <trkpt lat="45.34445" lon="6.12453">
        <ele>1367.5</ele>
        <time>2016-09-25T11:52:25Z</time>
      </trkpt>
      <trkpt lat="45.34437" lon="6.1246">
        <ele>1364.3</ele>
        <time>2016-09-25T11:52:31Z</time>
      </trkpt>
      <trkpt lat="45.34428" lon="6.12465">
        <ele>1362</ele>
        <time>2016-09-25T11:52:35Z</time>
      </trkpt>
      <trkpt lat="45.34419" lon="6.12475">
        <ele>1359.5</ele>
        <time>2016-09-25T11:52:40Z</time>
      </trkpt>
      <trkpt lat="45.34409" lon="6.12473">
        <ele>1357.4</ele>
        <time>2016-09-25T11:52:45Z</time>
      </trkpt>
      <trkpt lat="45.34397" lon="6.1247">
        <ele>1354.5</ele>
        <time>2016-09-25T11:52:51Z</time>
      </trkpt>
      <trkpt lat="45.34386" lon="6.12465">
        <ele>1351.8</ele>
        <time>2016-09-25T11:52:55Z</time>
      </trkpt>
      <trkpt lat="45.34378" lon="6.12457">
        <ele>1349.9</ele>
        <time>2016-09-25T11:52:58Z</time>
      </trkpt>
      <trkpt lat="45.3438" lon="6.12443">
        <ele>1343.4</ele>
        <time>2016-09-25T11:53:11Z</time>
      </trkpt>
      <trkpt lat="45.34382" lon="6.12427">
        <ele>1341.4</ele>
        <time>2016-09-25T11:53:15Z</time>
      </trkpt>
      <trkpt lat="45.34372" lon="6.12425">
        <ele>1338.7</ele>
        <time>2016-09-25T11:53:20Z</time>
      </trkpt>
      <trkpt lat="45.34362" lon="6.12422">
        <ele>1336.5</ele>
        <time>2016-09-25T11:53:24Z</time>
      </trkpt>
      <trkpt lat="45.34353" lon="6.12421">
        <ele>1334.7</ele>
        <time>2016-09-25T11:53:27Z</time>
      </trkpt>
      <trkpt lat="45.34342" lon="6.12419">
        <ele>1332.6</ele>
        <time>2016-09-25T11:53:30Z</time>
      </trkpt>
      <trkpt lat="45.34332" lon="6.12415">
        <ele>1330.4</ele>
        <time>2016-09-25T11:53:33Z</time>
      </trkpt>
      <trkpt lat="45.34322" lon="6.12419">
        <ele>1327.6</ele>
        <time>2016-09-25T11:53:37Z</time>
      </trkpt>
      <trkpt lat="45.34313" lon="6.12416">
        <ele>1325.6</ele>
        <time>2016-09-25T11:53:40Z</time>
      </trkpt>
      <trkpt lat="45.34302" lon="6.12414">
        <ele>1322.9</ele>
        <time>2016-09-25T11:53:44Z</time>
      </trkpt>
      <trkpt lat="45.34291" lon="6.12411">
        <ele>1320.6</ele>
        <time>2016-09-25T11:53:47Z</time>
      </trkpt>
      <trkpt lat="45.34283" lon="6.124">
        <ele>1317.9</ele>
        <time>2016-09-25T11:53:51Z</time>
      </trkpt>
      <trkpt lat="45.34277" lon="6.1239">
        <ele>1315.8</ele>
        <time>2016-09-25T11:53:54Z</time>
      </trkpt>
      <trkpt lat="45.34268" lon="6.12388">
        <ele>1311.5</ele>
        <time>2016-09-25T11:54:00Z</time>
      </trkpt>
      <trkpt lat="45.34262" lon="6.12399">
        <ele>1308.2</ele>
        <time>2016-09-25T11:54:05Z</time>
      </trkpt>
      <trkpt lat="45.34254" lon="6.12405">
        <ele>1305.7</ele>
        <time>2016-09-25T11:54:09Z</time>
      </trkpt>
      <trkpt lat="45.34245" lon="6.12414">
        <ele>1304</ele>
        <time>2016-09-25T11:54:12Z</time>
      </trkpt>
      <trkpt lat="45.34234" lon="6.12416">
        <ele>1302</ele>
        <time>2016-09-25T11:54:15Z</time>
      </trkpt>
      <trkpt lat="45.34225" lon="6.12417">
        <ele>1300.1</ele>
        <time>2016-09-25T11:54:18Z</time>
      </trkpt>
      <trkpt lat="45.34212" lon="6.1242">
        <ele>1298.2</ele>
        <time>2016-09-25T11:54:21Z</time>
      </trkpt>
      <trkpt lat="45.34202" lon="6.12424">
        <ele>1296.6</ele>
        <time>2016-09-25T11:54:24Z</time>
      </trkpt>
      <trkpt lat="45.3419" lon="6.12424">
        <ele>1294.9</ele>
        <time>2016-09-25T11:54:28Z</time>
      </trkpt>
      <trkpt lat="45.3418" lon="6.12426">
        <ele>1293.2</ele>
        <time>2016-09-25T11:54:32Z</time>
      </trkpt>
      <trkpt lat="45.3417" lon="6.12427">
        <ele>1291.8</ele>
        <time>2016-09-25T11:54:35Z</time>
      </trkpt>
      <trkpt lat="45.34161" lon="6.12431">
        <ele>1290.6</ele>
        <time>2016-09-25T11:54:38Z</time>
      </trkpt>
      <trkpt lat="45.34151" lon="6.12428">
        <ele>1289</ele>
        <time>2016-09-25T11:54:43Z</time>
      </trkpt>
      <trkpt lat="45.34142" lon="6.12417">
        <ele>1287.9</ele>
        <time>2016-09-25T11:54:48Z</time>
      </trkpt>
      <trkpt lat="45.34131" lon="6.12414">
        <ele>1287</ele>
        <time>2016-09-25T11:54:53Z</time>
      </trkpt>
      <trkpt lat="45.34122" lon="6.1241">
        <ele>1286.5</ele>
        <time>2016-09-25T11:54:56Z</time>
      </trkpt>
      <trkpt lat="45.34111" lon="6.12413">
        <ele>1286</ele>
        <time>2016-09-25T11:55:00Z</time>
      </trkpt>
      <trkpt lat="45.34102" lon="6.12414">
        <ele>1285.5</ele>
        <time>2016-09-25T11:55:03Z</time>
      </trkpt>
      <trkpt lat="45.34091" lon="6.12419">
        <ele>1285.1</ele>
        <time>2016-09-25T11:55:06Z</time>
      </trkpt>
      <trkpt lat="45.34082" lon="6.12422">
        <ele>1284.7</ele>
        <time>2016-09-25T11:55:09Z</time>
      </trkpt>
      <trkpt lat="45.34072" lon="6.12415">
        <ele>1283.9</ele>
        <time>2016-09-25T11:55:14Z</time>
      </trkpt>
      <trkpt lat="45.34064" lon="6.12406">
        <ele>1283.1</ele>
        <time>2016-09-25T11:55:17Z</time>
      </trkpt>
      <trkpt lat="45.34053" lon="6.12402">
        <ele>1281.4</ele>
        <time>2016-09-25T11:55:22Z</time>
      </trkpt>
      <trkpt lat="45.34043" lon="6.124">
        <ele>1280.4</ele>
        <time>2016-09-25T11:55:24Z</time>
      </trkpt>
      <trkpt lat="45.3403" lon="6.12393">
        <ele>1279.5</ele>
        <time>2016-09-25T11:55:26Z</time>
      </trkpt>
      <trkpt lat="45.34016" lon="6.12392">
        <ele>1278.7</ele>
        <time>2016-09-25T11:55:28Z</time>
      </trkpt>
      <trkpt lat="45.34005" lon="6.12395">
        <ele>1278</ele>
        <time>2016-09-25T11:55:30Z</time>
      </trkpt>
      <trkpt lat="45.33993" lon="6.12395">
        <ele>1276.9</ele>
        <time>2016-09-25T11:55:33Z</time>
      </trkpt>
      <trkpt lat="45.33983" lon="6.12398">
        <ele>1275.7</ele>
        <time>2016-09-25T11:55:37Z</time>
      </trkpt>
      <trkpt lat="45.33973" lon="6.124">
        <ele>1274.6</ele>
        <time>2016-09-25T11:55:42Z</time>
      </trkpt>
      <trkpt lat="45.33963" lon="6.12396">
        <ele>1273.8</ele>
        <time>2016-09-25T11:55:45Z</time>
      </trkpt>
      <trkpt lat="45.33954" lon="6.12397">
        <ele>1272.8</ele>
        <time>2016-09-25T11:55:49Z</time>
      </trkpt>
      <trkpt lat="45.33941" lon="6.12395">
        <ele>1271.4</ele>
        <time>2016-09-25T11:55:53Z</time>
      </trkpt>
      <trkpt lat="45.33929" lon="6.12395">
        <ele>1270</ele>
        <time>2016-09-25T11:55:56Z</time>
      </trkpt>
      <trkpt lat="45.33918" lon="6.12387">
        <ele>1268.7</ele>
        <time>2016-09-25T11:55:59Z</time>
      </trkpt>
      <trkpt lat="45.33908" lon="6.12378">
        <ele>1267.1</ele>
        <time>2016-09-25T11:56:02Z</time>
      </trkpt>
      <trkpt lat="45.33902" lon="6.12368">
        <ele>1265.5</ele>
        <time>2016-09-25T11:56:05Z</time>
      </trkpt>
      <trkpt lat="45.33894" lon="6.12362">
        <ele>1263.6</ele>
        <time>2016-09-25T11:56:09Z</time>
      </trkpt>
      <trkpt lat="45.33884" lon="6.12357">
        <ele>1262.3</ele>
        <time>2016-09-25T11:56:12Z</time>
      </trkpt>
      <trkpt lat="45.33873" lon="6.12353">
        <ele>1260.9</ele>
        <time>2016-09-25T11:56:15Z</time>
      </trkpt>
      <trkpt lat="45.33862" lon="6.12349">
        <ele>1259.7</ele>
        <time>2016-09-25T11:56:18Z</time>
      </trkpt>
      <trkpt lat="45.33852" lon="6.12354">
        <ele>1257.9</ele>
        <time>2016-09-25T11:56:23Z</time>
      </trkpt>
      <trkpt lat="45.33843" lon="6.12353">
        <ele>1252</ele>
        <time>2016-09-25T11:56:48Z</time>
      </trkpt>
      <trkpt lat="45.33833" lon="6.12351">
        <ele>1250.4</ele>
        <time>2016-09-25T11:56:52Z</time>
      </trkpt>
      <trkpt lat="45.33822" lon="6.1235">
        <ele>1249.1</ele>
        <time>2016-09-25T11:56:55Z</time>
      </trkpt>
      <trkpt lat="45.3381" lon="6.12347">
        <ele>1247.7</ele>
        <time>2016-09-25T11:56:58Z</time>
      </trkpt>
      <trkpt lat="45.33797" lon="6.12342">
        <ele>1246</ele>
        <time>2016-09-25T11:57:01Z</time>
      </trkpt>
      <trkpt lat="45.33787" lon="6.12334">
        <ele>1244.4</ele>
        <time>2016-09-25T11:57:04Z</time>
      </trkpt>
      <trkpt lat="45.3378" lon="6.12327">
        <ele>1240.9</ele>
        <time>2016-09-25T11:57:13Z</time>
      </trkpt>
      <trkpt lat="45.33771" lon="6.12319">
        <ele>1239</ele>
        <time>2016-09-25T11:57:21Z</time>
      </trkpt>
      <trkpt lat="45.3376" lon="6.12309">
        <ele>1238.1</ele>
        <time>2016-09-25T11:57:24Z</time>
      </trkpt>
      <trkpt lat="45.33749" lon="6.12301">
        <ele>1237.3</ele>
        <time>2016-09-25T11:57:27Z</time>
      </trkpt>
      <trkpt lat="45.33737" lon="6.12294">
        <ele>1236.6</ele>
        <time>2016-09-25T11:57:30Z</time>
      </trkpt>
      <trkpt lat="45.33728" lon="6.1229">
        <ele>1236</ele>
        <time>2016-09-25T11:57:32Z</time>
      </trkpt>
      <trkpt lat="45.33718" lon="6.12285">
        <ele>1235.1</ele>
        <time>2016-09-25T11:57:35Z</time>
      </trkpt>
      <trkpt lat="45.33709" lon="6.1228">
        <ele>1234.3</ele>
        <time>2016-09-25T11:57:37Z</time>
      </trkpt>
      <trkpt lat="45.33698" lon="6.12277">
        <ele>1232.6</ele>
        <time>2016-09-25T11:57:41Z</time>
      </trkpt>
      <trkpt lat="45.33689" lon="6.12276">
        <ele>1231.3</ele>
        <time>2016-09-25T11:57:44Z</time>
      </trkpt>
      <trkpt lat="45.33679" lon="6.12276">
        <ele>1229.5</ele>
        <time>2016-09-25T11:57:47Z</time>
      </trkpt>
      <trkpt lat="45.33669" lon="6.12274">
        <ele>1228.3</ele>
        <time>2016-09-25T11:57:49Z</time>
      </trkpt>
      <trkpt lat="45.33657" lon="6.12273">
        <ele>1227</ele>
        <time>2016-09-25T11:57:52Z</time>
      </trkpt>
      <trkpt lat="45.33648" lon="6.12276">
        <ele>1225.9</ele>
        <time>2016-09-25T11:57:55Z</time>
      </trkpt>
      <trkpt lat="45.33637" lon="6.1228">
        <ele>1224.7</ele>
        <time>2016-09-25T11:57:59Z</time>
      </trkpt>
      <trkpt lat="45.33627" lon="6.12284">
        <ele>1224</ele>
        <time>2016-09-25T11:58:02Z</time>
      </trkpt>
      <trkpt lat="45.3362" lon="6.12293">
        <ele>1223.1</ele>
        <time>2016-09-25T11:58:06Z</time>
      </trkpt>
      <trkpt lat="45.33614" lon="6.12307">
        <ele>1222</ele>
        <time>2016-09-25T11:58:10Z</time>
      </trkpt>
      <trkpt lat="45.33605" lon="6.12302">
        <ele>1220.7</ele>
        <time>2016-09-25T11:58:14Z</time>
      </trkpt>
      <trkpt lat="45.33601" lon="6.12284">
        <ele>1219.3</ele>
        <time>2016-09-25T11:58:17Z</time>
      </trkpt>
      <trkpt lat="45.33595" lon="6.12274">
        <ele>1217.6</ele>
        <time>2016-09-25T11:58:21Z</time>
      </trkpt>
      <trkpt lat="45.33589" lon="6.12264">
        <ele>1216.7</ele>
        <time>2016-09-25T11:58:23Z</time>
      </trkpt>
      <trkpt lat="45.33584" lon="6.12249">
        <ele>1215</ele>
        <time>2016-09-25T11:58:26Z</time>
      </trkpt>
      <trkpt lat="45.33582" lon="6.12236">
        <ele>1213.2</ele>
        <time>2016-09-25T11:58:29Z</time>
      </trkpt>
      <trkpt lat="45.33585" lon="6.12223">
        <ele>1211.3</ele>
        <time>2016-09-25T11:58:32Z</time>
      </trkpt>
      <trkpt lat="45.33598" lon="6.12211">
        <ele>1209.4</ele>
        <time>2016-09-25T11:58:35Z</time>
      </trkpt>
      <trkpt lat="45.33607" lon="6.12202">
        <ele>1208</ele>
        <time>2016-09-25T11:58:37Z</time>
      </trkpt>
      <trkpt lat="45.33618" lon="6.12195">
        <ele>1206.1</ele>
        <time>2016-09-25T11:58:39Z</time>
      </trkpt>
      <trkpt lat="45.33627" lon="6.1219">
        <ele>1204.7</ele>
        <time>2016-09-25T11:58:41Z</time>
      </trkpt>
      <trkpt lat="45.33637" lon="6.12184">
        <ele>1203.5</ele>
        <time>2016-09-25T11:58:43Z</time>
      </trkpt>
      <trkpt lat="45.33645" lon="6.12177">
        <ele>1202.2</ele>
        <time>2016-09-25T11:58:45Z</time>
      </trkpt>
      <trkpt lat="45.33655" lon="6.12172">
        <ele>1200.7</ele>
        <time>2016-09-25T11:58:47Z</time>
      </trkpt>
      <trkpt lat="45.33664" lon="6.12167">
        <ele>1199.3</ele>
        <time>2016-09-25T11:58:49Z</time>
      </trkpt>
      <trkpt lat="45.33675" lon="6.12158">
        <ele>1196.9</ele>
        <time>2016-09-25T11:58:52Z</time>
      </trkpt>
      <trkpt lat="45.33684" lon="6.12158">
        <ele>1195.2</ele>
        <time>2016-09-25T11:58:54Z</time>
      </trkpt>
      <trkpt lat="45.33694" lon="6.12159">
        <ele>1193.8</ele>
        <time>2016-09-25T11:58:56Z</time>
      </trkpt>
      <trkpt lat="45.33703" lon="6.12156">
        <ele>1192.4</ele>
        <time>2016-09-25T11:58:58Z</time>
      </trkpt>
      <trkpt lat="45.33712" lon="6.12151">
        <ele>1190.9</ele>
        <time>2016-09-25T11:59:00Z</time>
      </trkpt>
      <trkpt lat="45.33721" lon="6.12144">
        <ele>1188.2</ele>
        <time>2016-09-25T11:59:04Z</time>
      </trkpt>
      <trkpt lat="45.3373" lon="6.12139">
        <ele>1185</ele>
        <time>2016-09-25T11:59:07Z</time>
      </trkpt>
      <trkpt lat="45.3374" lon="6.1214">
        <ele>1183.3</ele>
        <time>2016-09-25T11:59:10Z</time>
      </trkpt>
      <trkpt lat="45.33748" lon="6.12144">
        <ele>1180.3</ele>
        <time>2016-09-25T11:59:19Z</time>
      </trkpt>
      <trkpt lat="45.33758" lon="6.12139">
        <ele>1177.6</ele>
        <time>2016-09-25T11:59:38Z</time>
      </trkpt>
      <trkpt lat="45.33768" lon="6.12136">
        <ele>1176.7</ele>
        <time>2016-09-25T11:59:42Z</time>
      </trkpt>
      <trkpt lat="45.33775" lon="6.12123">
        <ele>1175.7</ele>
        <time>2016-09-25T11:59:46Z</time>
      </trkpt>
      <trkpt lat="45.3378" lon="6.12113">
        <ele>1175.1</ele>
        <time>2016-09-25T11:59:48Z</time>
      </trkpt>
      <trkpt lat="45.33787" lon="6.12104">
        <ele>1174.3</ele>
        <time>2016-09-25T11:59:50Z</time>
      </trkpt>
      <trkpt lat="45.33794" lon="6.12095">
        <ele>1173.4</ele>
        <time>2016-09-25T11:59:52Z</time>
      </trkpt>
      <trkpt lat="45.33802" lon="6.12083">
        <ele>1171.8</ele>
        <time>2016-09-25T11:59:55Z</time>
      </trkpt>
      <trkpt lat="45.33809" lon="6.12072">
        <ele>1169.9</ele>
        <time>2016-09-25T11:59:58Z</time>
      </trkpt>
      <trkpt lat="45.3382" lon="6.12063">
        <ele>1168.5</ele>
        <time>2016-09-25T12:00:00Z</time>
      </trkpt>
      <trkpt lat="45.33831" lon="6.12054">
        <ele>1167.2</ele>
        <time>2016-09-25T12:00:02Z</time>
      </trkpt>
      <trkpt lat="45.33841" lon="6.12042">
        <ele>1165.6</ele>
        <time>2016-09-25T12:00:04Z</time>
      </trkpt>
      <trkpt lat="45.33848" lon="6.12032">
        <ele>1164.2</ele>
        <time>2016-09-25T12:00:06Z</time>
      </trkpt>
      <trkpt lat="45.33851" lon="6.12018">
        <ele>1161.6</ele>
        <time>2016-09-25T12:00:10Z</time>
      </trkpt>
      <trkpt lat="45.33859" lon="6.12012">
        <ele>1159.2</ele>
        <time>2016-09-25T12:00:14Z</time>
      </trkpt>
      <trkpt lat="45.33868" lon="6.12006">
        <ele>1157.3</ele>
        <time>2016-09-25T12:00:17Z</time>
      </trkpt>
      <trkpt lat="45.33875" lon="6.11998">
        <ele>1153</ele>
        <time>2016-09-25T12:00:25Z</time>
      </trkpt>
      <trkpt lat="45.33883" lon="6.1199">
        <ele>1148.5</ele>
        <time>2016-09-25T12:00:37Z</time>
      </trkpt>
      <trkpt lat="45.33871" lon="6.11989">
        <ele>1144</ele>
        <time>2016-09-25T12:00:54Z</time>
      </trkpt>
      <trkpt lat="45.33862" lon="6.11991">
        <ele>1143.2</ele>
        <time>2016-09-25T12:00:57Z</time>
      </trkpt>
      <trkpt lat="45.33854" lon="6.11984">
        <ele>1142.3</ele>
        <time>2016-09-25T12:01:00Z</time>
      </trkpt>
      <trkpt lat="45.33857" lon="6.11972">
        <ele>1138.6</ele>
        <time>2016-09-25T12:01:22Z</time>
      </trkpt>
      <trkpt lat="45.33867" lon="6.11966">
        <ele>1138.2</ele>
        <time>2016-09-25T12:01:24Z</time>
      </trkpt>
      <trkpt lat="45.33878" lon="6.1196">
        <ele>1137.9</ele>
        <time>2016-09-25T12:01:26Z</time>
      </trkpt>
      <trkpt lat="45.33888" lon="6.11954">
        <ele>1137.4</ele>
        <time>2016-09-25T12:01:28Z</time>
      </trkpt>
      <trkpt lat="45.33901" lon="6.11948">
        <ele>1136.7</ele>
        <time>2016-09-25T12:01:30Z</time>
      </trkpt>
      <trkpt lat="45.33913" lon="6.11942">
        <ele>1135.9</ele>
        <time>2016-09-25T12:01:32Z</time>
      </trkpt>
      <trkpt lat="45.33926" lon="6.11938">
        <ele>1135.1</ele>
        <time>2016-09-25T12:01:34Z</time>
      </trkpt>
      <trkpt lat="45.33939" lon="6.11935">
        <ele>1134.2</ele>
        <time>2016-09-25T12:01:36Z</time>
      </trkpt>
      <trkpt lat="45.3395" lon="6.11932">
        <ele>1133.4</ele>
        <time>2016-09-25T12:01:38Z</time>
      </trkpt>
      <trkpt lat="45.33959" lon="6.1193">
        <ele>1132.4</ele>
        <time>2016-09-25T12:01:40Z</time>
      </trkpt>
      <trkpt lat="45.33972" lon="6.11927">
        <ele>1131.5</ele>
        <time>2016-09-25T12:01:42Z</time>
      </trkpt>
      <trkpt lat="45.33986" lon="6.11921">
        <ele>1130.4</ele>
        <time>2016-09-25T12:01:44Z</time>
      </trkpt>
      <trkpt lat="45.33998" lon="6.11919">
        <ele>1129.3</ele>
        <time>2016-09-25T12:01:46Z</time>
      </trkpt>
      <trkpt lat="45.34008" lon="6.11919">
        <ele>1128.2</ele>
        <time>2016-09-25T12:01:48Z</time>
      </trkpt>
      <trkpt lat="45.34014" lon="6.11904">
        <ele>1126.5</ele>
        <time>2016-09-25T12:01:51Z</time>
      </trkpt>
      <trkpt lat="45.34008" lon="6.11894">
        <ele>1125.5</ele>
        <time>2016-09-25T12:01:53Z</time>
      </trkpt>
      <trkpt lat="45.33997" lon="6.11885">
        <ele>1124.4</ele>
        <time>2016-09-25T12:01:55Z</time>
      </trkpt>
      <trkpt lat="45.33988" lon="6.11876">
        <ele>1123.2</ele>
        <time>2016-09-25T12:01:57Z</time>
      </trkpt>
      <trkpt lat="45.3398" lon="6.11865">
        <ele>1122</ele>
        <time>2016-09-25T12:01:59Z</time>
      </trkpt>
      <trkpt lat="45.33976" lon="6.11852">
        <ele>1120.3</ele>
        <time>2016-09-25T12:02:02Z</time>
      </trkpt>
      <trkpt lat="45.33966" lon="6.11853">
        <ele>1110.1</ele>
        <time>2016-09-25T12:04:55Z</time>
      </trkpt>
      <trkpt lat="45.33955" lon="6.11857">
        <ele>1110</ele>
        <time>2016-09-25T12:04:59Z</time>
      </trkpt>
      <trkpt lat="45.33942" lon="6.11859">
        <ele>1109.8</ele>
        <time>2016-09-25T12:05:02Z</time>
      </trkpt>
      <trkpt lat="45.33933" lon="6.11861">
        <ele>1109.7</ele>
        <time>2016-09-25T12:05:04Z</time>
      </trkpt>
      <trkpt lat="45.33924" lon="6.11864">
        <ele>1109.5</ele>
        <time>2016-09-25T12:05:06Z</time>
      </trkpt>
      <trkpt lat="45.33912" lon="6.11864">
        <ele>1109.3</ele>
        <time>2016-09-25T12:05:08Z</time>
      </trkpt>
      <trkpt lat="45.33901" lon="6.1187">
        <ele>1109</ele>
        <time>2016-09-25T12:05:10Z</time>
      </trkpt>
      <trkpt lat="45.33891" lon="6.11877">
        <ele>1108.8</ele>
        <time>2016-09-25T12:05:12Z</time>
      </trkpt>
      <trkpt lat="45.33883" lon="6.11882">
        <ele>1108.5</ele>
        <time>2016-09-25T12:05:14Z</time>
      </trkpt>
      <trkpt lat="45.33871" lon="6.11887">
        <ele>1108.3</ele>
        <time>2016-09-25T12:05:17Z</time>
      </trkpt>
      <trkpt lat="45.33861" lon="6.11892">
        <ele>1108</ele>
        <time>2016-09-25T12:05:20Z</time>
      </trkpt>
      <trkpt lat="45.33851" lon="6.11898">
        <ele>1107.9</ele>
        <time>2016-09-25T12:05:23Z</time>
      </trkpt>
      <trkpt lat="45.33841" lon="6.11905">
        <ele>1107.7</ele>
        <time>2016-09-25T12:05:26Z</time>
      </trkpt>
      <trkpt lat="45.33831" lon="6.11913">
        <ele>1107.6</ele>
        <time>2016-09-25T12:05:29Z</time>
      </trkpt>
      <trkpt lat="45.3382" lon="6.11919">
        <ele>1107.5</ele>
        <time>2016-09-25T12:05:32Z</time>
      </trkpt>
      <trkpt lat="45.33811" lon="6.11925">
        <ele>1107.4</ele>
        <time>2016-09-25T12:05:35Z</time>
      </trkpt>
      <trkpt lat="45.33802" lon="6.11931">
        <ele>1107.5</ele>
        <time>2016-09-25T12:05:38Z</time>
      </trkpt>
      <trkpt lat="45.33793" lon="6.11936">
        <ele>1107.7</ele>
        <time>2016-09-25T12:05:41Z</time>
      </trkpt>
      <trkpt lat="45.33785" lon="6.11942">
        <ele>1108</ele>
        <time>2016-09-25T12:05:44Z</time>
      </trkpt>
      <trkpt lat="45.33775" lon="6.11948">
        <ele>1108.2</ele>
        <time>2016-09-25T12:05:47Z</time>
      </trkpt>
      <trkpt lat="45.33766" lon="6.11953">
        <ele>1108.5</ele>
        <time>2016-09-25T12:05:50Z</time>
      </trkpt>
      <trkpt lat="45.33756" lon="6.11957">
        <ele>1108.7</ele>
        <time>2016-09-25T12:05:53Z</time>
      </trkpt>
      <trkpt lat="45.33745" lon="6.11961">
        <ele>1108.9</ele>
        <time>2016-09-25T12:05:56Z</time>
      </trkpt>
      <trkpt lat="45.33733" lon="6.11963">
        <ele>1109.1</ele>
        <time>2016-09-25T12:05:59Z</time>
      </trkpt>
      <trkpt lat="45.33722" lon="6.11965">
        <ele>1109.3</ele>
        <time>2016-09-25T12:06:02Z</time>
      </trkpt>
      <trkpt lat="45.33711" lon="6.11966">
        <ele>1109.5</ele>
        <time>2016-09-25T12:06:05Z</time>
      </trkpt>
      <trkpt lat="45.33701" lon="6.11969">
        <ele>1109.7</ele>
        <time>2016-09-25T12:06:08Z</time>
      </trkpt>
      <trkpt lat="45.33691" lon="6.11973">
        <ele>1110</ele>
        <time>2016-09-25T12:06:11Z</time>
      </trkpt>
      <trkpt lat="45.33682" lon="6.11977">
        <ele>1110.4</ele>
        <time>2016-09-25T12:06:14Z</time>
      </trkpt>
      <trkpt lat="45.33672" lon="6.11982">
        <ele>1110.7</ele>
        <time>2016-09-25T12:06:17Z</time>
      </trkpt>
      <trkpt lat="45.33661" lon="6.1199">
        <ele>1111</ele>
        <time>2016-09-25T12:06:20Z</time>
      </trkpt>
      <trkpt lat="45.33651" lon="6.11996">
        <ele>1111.3</ele>
        <time>2016-09-25T12:06:23Z</time>
      </trkpt>
      <trkpt lat="45.3364" lon="6.12">
        <ele>1111.5</ele>
        <time>2016-09-25T12:06:26Z</time>
      </trkpt>
      <trkpt lat="45.33629" lon="6.11999">
        <ele>1111.7</ele>
        <time>2016-09-25T12:06:29Z</time>
      </trkpt>
      <trkpt lat="45.33621" lon="6.11991">
        <ele>1111.9</ele>
        <time>2016-09-25T12:06:32Z</time>
      </trkpt>
      <trkpt lat="45.33613" lon="6.11983">
        <ele>1112.2</ele>
        <time>2016-09-25T12:06:35Z</time>
      </trkpt>
      <trkpt lat="45.33605" lon="6.11976">
        <ele>1112.5</ele>
        <time>2016-09-25T12:06:38Z</time>
      </trkpt>
      <trkpt lat="45.33597" lon="6.11972">
        <ele>1112.7</ele>
        <time>2016-09-25T12:06:41Z</time>
      </trkpt>
      <trkpt lat="45.33585" lon="6.11972">
        <ele>1113.2</ele>
        <time>2016-09-25T12:06:45Z</time>
      </trkpt>
      <trkpt lat="45.33576" lon="6.11971">
        <ele>1113.8</ele>
        <time>2016-09-25T12:06:49Z</time>
      </trkpt>
      <trkpt lat="45.33565" lon="6.11969">
        <ele>1114.5</ele>
        <time>2016-09-25T12:06:54Z</time>
      </trkpt>
      <trkpt lat="45.33555" lon="6.11967">
        <ele>1115.1</ele>
        <time>2016-09-25T12:06:58Z</time>
      </trkpt>
      <trkpt lat="45.33544" lon="6.11964">
        <ele>1115.7</ele>
        <time>2016-09-25T12:07:02Z</time>
      </trkpt>
      <trkpt lat="45.33533" lon="6.11965">
        <ele>1116.1</ele>
        <time>2016-09-25T12:07:06Z</time>
      </trkpt>
      <trkpt lat="45.33525" lon="6.11971">
        <ele>1116.6</ele>
        <time>2016-09-25T12:07:10Z</time>
      </trkpt>
      <trkpt lat="45.33516" lon="6.11978">
        <ele>1117.4</ele>
        <time>2016-09-25T12:07:16Z</time>
      </trkpt>
      <trkpt lat="45.33508" lon="6.11986">
        <ele>1118.2</ele>
        <time>2016-09-25T12:07:22Z</time>
      </trkpt>
      <trkpt lat="45.33502" lon="6.11997">
        <ele>1118.8</ele>
        <time>2016-09-25T12:07:27Z</time>
      </trkpt>
      <trkpt lat="45.33496" lon="6.1201">
        <ele>1119.2</ele>
        <time>2016-09-25T12:07:32Z</time>
      </trkpt>
      <trkpt lat="45.33488" lon="6.12022">
        <ele>1119.5</ele>
        <time>2016-09-25T12:07:36Z</time>
      </trkpt>
      <trkpt lat="45.33478" lon="6.12018">
        <ele>1119.6</ele>
        <time>2016-09-25T12:07:39Z</time>
      </trkpt>
      <trkpt lat="45.33472" lon="6.12004">
        <ele>1119.6</ele>
        <time>2016-09-25T12:07:42Z</time>
      </trkpt>
      <trkpt lat="45.33466" lon="6.11992">
        <ele>1119.5</ele>
        <time>2016-09-25T12:07:46Z</time>
      </trkpt>
      <trkpt lat="45.33459" lon="6.11981">
        <ele>1119.6</ele>
        <time>2016-09-25T12:07:51Z</time>
      </trkpt>
      <trkpt lat="45.3345" lon="6.11981">
        <ele>1119.7</ele>
        <time>2016-09-25T12:07:55Z</time>
      </trkpt>
      <trkpt lat="45.33441" lon="6.11983">
        <ele>1119.8</ele>
        <time>2016-09-25T12:07:59Z</time>
      </trkpt>
      <trkpt lat="45.33431" lon="6.11984">
        <ele>1120.1</ele>
        <time>2016-09-25T12:08:03Z</time>
      </trkpt>
      <trkpt lat="45.3342" lon="6.11988">
        <ele>1120.2</ele>
        <time>2016-09-25T12:08:07Z</time>
      </trkpt>
      <trkpt lat="45.33412" lon="6.11994">
        <ele>1120.2</ele>
        <time>2016-09-25T12:08:10Z</time>
      </trkpt>
      <trkpt lat="45.33397" lon="6.12003">
        <ele>1120</ele>
        <time>2016-09-25T12:08:15Z</time>
      </trkpt>
      <trkpt lat="45.33384" lon="6.12007">
        <ele>1120</ele>
        <time>2016-09-25T12:08:20Z</time>
      </trkpt>
      <trkpt lat="45.33373" lon="6.12013">
        <ele>1119.8</ele>
        <time>2016-09-25T12:08:24Z</time>
      </trkpt>
      <trkpt lat="45.33365" lon="6.12018">
        <ele>1119.6</ele>
        <time>2016-09-25T12:08:27Z</time>
      </trkpt>
      <trkpt lat="45.33351" lon="6.12027">
        <ele>1119.4</ele>
        <time>2016-09-25T12:08:33Z</time>
      </trkpt>
      <trkpt lat="45.33342" lon="6.12035">
        <ele>1119.3</ele>
        <time>2016-09-25T12:08:37Z</time>
      </trkpt>
      <trkpt lat="45.33334" lon="6.1204">
        <ele>1119.3</ele>
        <time>2016-09-25T12:08:40Z</time>
      </trkpt>
      <trkpt lat="45.33326" lon="6.12046">
        <ele>1119.2</ele>
        <time>2016-09-25T12:08:43Z</time>
      </trkpt>
      <trkpt lat="45.33316" lon="6.12054">
        <ele>1119</ele>
        <time>2016-09-25T12:08:47Z</time>
      </trkpt>
      <trkpt lat="45.33305" lon="6.12054">
        <ele>1118.9</ele>
        <time>2016-09-25T12:08:52Z</time>
      </trkpt>
      <trkpt lat="45.33294" lon="6.12059">
        <ele>1118.8</ele>
        <time>2016-09-25T12:08:58Z</time>
      </trkpt>
      <trkpt lat="45.33283" lon="6.12062">
        <ele>1118.6</ele>
        <time>2016-09-25T12:09:01Z</time>
      </trkpt>
      <trkpt lat="45.33273" lon="6.1206">
        <ele>1118.2</ele>
        <time>2016-09-25T12:09:03Z</time>
      </trkpt>
      <trkpt lat="45.33264" lon="6.12054">
        <ele>1117.7</ele>
        <time>2016-09-25T12:09:05Z</time>
      </trkpt>
      <trkpt lat="45.33255" lon="6.12042">
        <ele>1117.2</ele>
        <time>2016-09-25T12:09:07Z</time>
      </trkpt>
      <trkpt lat="45.33245" lon="6.12029">
        <ele>1116.7</ele>
        <time>2016-09-25T12:09:09Z</time>
      </trkpt>
      <trkpt lat="45.33236" lon="6.1202">
        <ele>1116.2</ele>
        <time>2016-09-25T12:09:11Z</time>
      </trkpt>
      <trkpt lat="45.33226" lon="6.12012">
        <ele>1115.5</ele>
        <time>2016-09-25T12:09:14Z</time>
      </trkpt>
      <trkpt lat="45.33216" lon="6.12005">
        <ele>1114.7</ele>
        <time>2016-09-25T12:09:18Z</time>
      </trkpt>
      <trkpt lat="45.3321" lon="6.11995">
        <ele>1113.9</ele>
        <time>2016-09-25T12:09:24Z</time>
      </trkpt>
      <trkpt lat="45.33203" lon="6.11986">
        <ele>1113.4</ele>
        <time>2016-09-25T12:09:29Z</time>
      </trkpt>
      <trkpt lat="45.33193" lon="6.1198">
        <ele>1113.3</ele>
        <time>2016-09-25T12:09:34Z</time>
      </trkpt>
      <trkpt lat="45.33184" lon="6.11974">
        <ele>1113.5</ele>
        <time>2016-09-25T12:09:39Z</time>
      </trkpt>
      <trkpt lat="45.33174" lon="6.11971">
        <ele>1114</ele>
        <time>2016-09-25T12:09:45Z</time>
      </trkpt>
      <trkpt lat="45.33164" lon="6.11966">
        <ele>1114.6</ele>
        <time>2016-09-25T12:09:50Z</time>
      </trkpt>
      <trkpt lat="45.33156" lon="6.11959">
        <ele>1115.7</ele>
        <time>2016-09-25T12:09:59Z</time>
      </trkpt>
      <trkpt lat="45.33146" lon="6.11955">
        <ele>1116</ele>
        <time>2016-09-25T12:10:07Z</time>
      </trkpt>
      <trkpt lat="45.33136" lon="6.11956">
        <ele>1118.2</ele>
        <time>2016-09-25T12:10:18Z</time>
      </trkpt>
      <trkpt lat="45.33127" lon="6.11952">
        <ele>1119.2</ele>
        <time>2016-09-25T12:10:26Z</time>
      </trkpt>
      <trkpt lat="45.33119" lon="6.11948">
        <ele>1119.6</ele>
        <time>2016-09-25T12:10:31Z</time>
      </trkpt>
      <trkpt lat="45.33112" lon="6.11938">
        <ele>1120</ele>
        <time>2016-09-25T12:10:46Z</time>
      </trkpt>
      <trkpt lat="45.33104" lon="6.11928">
        <ele>1122</ele>
        <time>2016-09-25T12:11:02Z</time>
      </trkpt>
      <trkpt lat="45.33101" lon="6.11912">
        <ele>1122.5</ele>
        <time>2016-09-25T12:11:13Z</time>
      </trkpt>
      <trkpt lat="45.33106" lon="6.11901">
        <ele>1123.4</ele>
        <time>2016-09-25T12:11:23Z</time>
      </trkpt>
      <trkpt lat="45.33115" lon="6.11896">
        <ele>1127.9</ele>
        <time>2016-09-25T12:11:54Z</time>
      </trkpt>
      <trkpt lat="45.33122" lon="6.11886">
        <ele>1130.1</ele>
        <time>2016-09-25T12:12:09Z</time>
      </trkpt>
      <trkpt lat="45.33125" lon="6.11873">
        <ele>1132.1</ele>
        <time>2016-09-25T12:12:21Z</time>
      </trkpt>
      <trkpt lat="45.33128" lon="6.11861">
        <ele>1134</ele>
        <time>2016-09-25T12:12:33Z</time>
      </trkpt>
      <trkpt lat="45.33134" lon="6.11851">
        <ele>1136.7</ele>
        <time>2016-09-25T12:12:52Z</time>
      </trkpt>
      <trkpt lat="45.33136" lon="6.11838">
        <ele>1139.9</ele>
        <time>2016-09-25T12:13:14Z</time>
      </trkpt>
      <trkpt lat="45.33136" lon="6.11825">
        <ele>1144.1</ele>
        <time>2016-09-25T12:13:51Z</time>
      </trkpt>
      <trkpt lat="45.33136" lon="6.11811">
        <ele>1145.1</ele>
        <time>2016-09-25T12:14:03Z</time>
      </trkpt>
      <trkpt lat="45.33138" lon="6.11798">
        <ele>1147</ele>
        <time>2016-09-25T12:14:22Z</time>
      </trkpt>
      <trkpt lat="45.33142" lon="6.11786">
        <ele>1148.8</ele>
        <time>2016-09-25T12:14:33Z</time>
      </trkpt>
      <trkpt lat="45.33147" lon="6.11775">
        <ele>1152.7</ele>
        <time>2016-09-25T12:14:51Z</time>
      </trkpt>
      <trkpt lat="45.33146" lon="6.11755">
        <ele>1155.9</ele>
        <time>2016-09-25T12:15:15Z</time>
      </trkpt>
      <trkpt lat="45.33146" lon="6.11742">
        <ele>1157.8</ele>
        <time>2016-09-25T12:15:29Z</time>
      </trkpt>
      <trkpt lat="45.33145" lon="6.11728">
        <ele>1159.6</ele>
        <time>2016-09-25T12:15:42Z</time>
      </trkpt>
      <trkpt lat="45.33145" lon="6.11715">
        <ele>1161.5</ele>
        <time>2016-09-25T12:15:54Z</time>
      </trkpt>
      <trkpt lat="45.33141" lon="6.11702">
        <ele>1164.6</ele>
        <time>2016-09-25T12:16:18Z</time>
      </trkpt>
      <trkpt lat="45.33136" lon="6.1169">
        <ele>1166.5</ele>
        <time>2016-09-25T12:16:28Z</time>
      </trkpt>
      <trkpt lat="45.3313" lon="6.11679">
        <ele>1169.6</ele>
        <time>2016-09-25T12:16:47Z</time>
      </trkpt>
      <trkpt lat="45.33125" lon="6.11668">
        <ele>1172.5</ele>
        <time>2016-09-25T12:17:04Z</time>
      </trkpt>
      <trkpt lat="45.3312" lon="6.11657">
        <ele>1175.1</ele>
        <time>2016-09-25T12:17:18Z</time>
      </trkpt>
      <trkpt lat="45.33115" lon="6.11646">
        <ele>1177.6</ele>
        <time>2016-09-25T12:17:32Z</time>
      </trkpt>
      <trkpt lat="45.33118" lon="6.11632">
        <ele>1181.7</ele>
        <time>2016-09-25T12:18:05Z</time>
      </trkpt>
      <trkpt lat="45.33125" lon="6.11623">
        <ele>1182.2</ele>
        <time>2016-09-25T12:18:12Z</time>
      </trkpt>
      <trkpt lat="45.33133" lon="6.11617">
        <ele>1183.3</ele>
        <time>2016-09-25T12:18:22Z</time>
      </trkpt>
      <trkpt lat="45.3314" lon="6.11609">
        <ele>1184.2</ele>
        <time>2016-09-25T12:18:28Z</time>
      </trkpt>
      <trkpt lat="45.33145" lon="6.11598">
        <ele>1186.2</ele>
        <time>2016-09-25T12:18:41Z</time>
      </trkpt>
      <trkpt lat="45.33149" lon="6.11586">
        <ele>1189.5</ele>
        <time>2016-09-25T12:19:02Z</time>
      </trkpt>
      <trkpt lat="45.33159" lon="6.11585">
        <ele>1193.5</ele>
        <time>2016-09-25T12:19:31Z</time>
      </trkpt>
      <trkpt lat="45.33168" lon="6.11581">
        <ele>1196.1</ele>
        <time>2016-09-25T12:19:50Z</time>
      </trkpt>
      <trkpt lat="45.33177" lon="6.11578">
        <ele>1199.7</ele>
        <time>2016-09-25T12:20:14Z</time>
      </trkpt>
      <trkpt lat="45.33186" lon="6.11577">
        <ele>1202.4</ele>
        <time>2016-09-25T12:20:34Z</time>
      </trkpt>
      <trkpt lat="45.33195" lon="6.11573">
        <ele>1205.3</ele>
        <time>2016-09-25T12:20:54Z</time>
      </trkpt>
      <trkpt lat="45.33204" lon="6.11569">
        <ele>1208</ele>
        <time>2016-09-25T12:21:10Z</time>
      </trkpt>
      <trkpt lat="45.33212" lon="6.11562">
        <ele>1210.2</ele>
        <time>2016-09-25T12:21:23Z</time>
      </trkpt>
      <trkpt lat="45.33222" lon="6.1156">
        <ele>1212.2</ele>
        <time>2016-09-25T12:23:49Z</time>
      </trkpt>
      <trkpt lat="45.33231" lon="6.11559">
        <ele>1212.6</ele>
        <time>2016-09-25T12:23:57Z</time>
      </trkpt>
      <trkpt lat="45.3324" lon="6.11558">
        <ele>1213.4</ele>
        <time>2016-09-25T12:24:07Z</time>
      </trkpt>
      <trkpt lat="45.3325" lon="6.11555">
        <ele>1213.9</ele>
        <time>2016-09-25T12:24:13Z</time>
      </trkpt>
      <trkpt lat="45.33259" lon="6.11553">
        <ele>1214.4</ele>
        <time>2016-09-25T12:24:20Z</time>
      </trkpt>
      <trkpt lat="45.33268" lon="6.11549">
        <ele>1214.8</ele>
        <time>2016-09-25T12:24:26Z</time>
      </trkpt>
      <trkpt lat="45.33276" lon="6.11543">
        <ele>1215.6</ele>
        <time>2016-09-25T12:24:35Z</time>
      </trkpt>
      <trkpt lat="45.33284" lon="6.11535">
        <ele>1216.8</ele>
        <time>2016-09-25T12:24:43Z</time>
      </trkpt>
      <trkpt lat="45.33291" lon="6.11529">
        <ele>1218.4</ele>
        <time>2016-09-25T12:24:51Z</time>
      </trkpt>
      <trkpt lat="45.33301" lon="6.11523">
        <ele>1220.1</ele>
        <time>2016-09-25T12:24:58Z</time>
      </trkpt>
      <trkpt lat="45.33308" lon="6.11513">
        <ele>1222.7</ele>
        <time>2016-09-25T12:25:08Z</time>
      </trkpt>
      <trkpt lat="45.33312" lon="6.11501">
        <ele>1225.4</ele>
        <time>2016-09-25T12:25:18Z</time>
      </trkpt>
      <trkpt lat="45.33318" lon="6.11492">
        <ele>1227.1</ele>
        <time>2016-09-25T12:25:25Z</time>
      </trkpt>
      <trkpt lat="45.33327" lon="6.11488">
        <ele>1229.6</ele>
        <time>2016-09-25T12:25:35Z</time>
      </trkpt>
      <trkpt lat="45.33335" lon="6.11482">
        <ele>1233.8</ele>
        <time>2016-09-25T12:25:58Z</time>
      </trkpt>
      <trkpt lat="45.33341" lon="6.11472">
        <ele>1236.2</ele>
        <time>2016-09-25T12:26:19Z</time>
      </trkpt>
      <trkpt lat="45.33346" lon="6.11462">
        <ele>1238.2</ele>
        <time>2016-09-25T12:26:37Z</time>
      </trkpt>
      <trkpt lat="45.33354" lon="6.11453">
        <ele>1240.8</ele>
        <time>2016-09-25T12:26:56Z</time>
      </trkpt>
      <trkpt lat="45.33361" lon="6.11445">
        <ele>1243.4</ele>
        <time>2016-09-25T12:27:14Z</time>
      </trkpt>
      <trkpt lat="45.33369" lon="6.11438">
        <ele>1245.7</ele>
        <time>2016-09-25T12:27:31Z</time>
      </trkpt>
      <trkpt lat="45.33371" lon="6.11425">
        <ele>1249.1</ele>
        <time>2016-09-25T12:27:55Z</time>
      </trkpt>
      <trkpt lat="45.33362" lon="6.11424">
        <ele>1252.9</ele>
        <time>2016-09-25T12:28:26Z</time>
      </trkpt>
      <trkpt lat="45.33352" lon="6.11421">
        <ele>1256.2</ele>
        <time>2016-09-25T12:28:54Z</time>
      </trkpt>
      <trkpt lat="45.33342" lon="6.11417">
        <ele>1258.7</ele>
        <time>2016-09-25T12:29:09Z</time>
      </trkpt>
      <trkpt lat="45.33333" lon="6.11418">
        <ele>1261.3</ele>
        <time>2016-09-25T12:29:27Z</time>
      </trkpt>
      <trkpt lat="45.33324" lon="6.11419">
        <ele>1263</ele>
        <time>2016-09-25T12:29:43Z</time>
      </trkpt>
      <trkpt lat="45.33315" lon="6.1142">
        <ele>1265.1</ele>
        <time>2016-09-25T12:30:02Z</time>
      </trkpt>
      <trkpt lat="45.33306" lon="6.11416">
        <ele>1268.8</ele>
        <time>2016-09-25T12:30:28Z</time>
      </trkpt>
      <trkpt lat="45.33297" lon="6.11414">
        <ele>1273.5</ele>
        <time>2016-09-25T12:31:08Z</time>
      </trkpt>
      <trkpt lat="45.33287" lon="6.1141">
        <ele>1276.8</ele>
        <time>2016-09-25T12:31:35Z</time>
      </trkpt>
      <trkpt lat="45.33278" lon="6.11409">
        <ele>1278.5</ele>
        <time>2016-09-25T12:31:49Z</time>
      </trkpt>
      <trkpt lat="45.33269" lon="6.1141">
        <ele>1280.2</ele>
        <time>2016-09-25T12:32:03Z</time>
      </trkpt>
      <trkpt lat="45.3326" lon="6.11406">
        <ele>1282</ele>
        <time>2016-09-25T12:32:16Z</time>
      </trkpt>
      <trkpt lat="45.33252" lon="6.11398">
        <ele>1284.1</ele>
        <time>2016-09-25T12:32:29Z</time>
      </trkpt>
      <trkpt lat="45.33242" lon="6.11396">
        <ele>1287.6</ele>
        <time>2016-09-25T12:33:02Z</time>
      </trkpt>
      <trkpt lat="45.33232" lon="6.11392">
        <ele>1288.1</ele>
        <time>2016-09-25T12:33:09Z</time>
      </trkpt>
      <trkpt lat="45.33223" lon="6.11394">
        <ele>1288.9</ele>
        <time>2016-09-25T12:33:17Z</time>
      </trkpt>
      <trkpt lat="45.33215" lon="6.11399">
        <ele>1290.2</ele>
        <time>2016-09-25T12:33:25Z</time>
      </trkpt>
      <trkpt lat="45.33207" lon="6.11394">
        <ele>1293.1</ele>
        <time>2016-09-25T12:33:40Z</time>
      </trkpt>
      <trkpt lat="45.33198" lon="6.11389">
        <ele>1296.2</ele>
        <time>2016-09-25T12:33:59Z</time>
      </trkpt>
      <trkpt lat="45.33192" lon="6.11378">
        <ele>1298.4</ele>
        <time>2016-09-25T12:34:13Z</time>
      </trkpt>
      <trkpt lat="45.33183" lon="6.11374">
        <ele>1301.2</ele>
        <time>2016-09-25T12:34:31Z</time>
      </trkpt>
      <trkpt lat="45.33175" lon="6.11369">
        <ele>1303.7</ele>
        <time>2016-09-25T12:34:48Z</time>
      </trkpt>
      <trkpt lat="45.33166" lon="6.11363">
        <ele>1306.7</ele>
        <time>2016-09-25T12:35:06Z</time>
      </trkpt>
      <trkpt lat="45.33171" lon="6.11352">
        <ele>1309.3</ele>
        <time>2016-09-25T12:35:24Z</time>
      </trkpt>
      <trkpt lat="45.3318" lon="6.11349">
        <ele>1311.3</ele>
        <time>2016-09-25T12:35:36Z</time>
      </trkpt>
      <trkpt lat="45.33188" lon="6.11342">
        <ele>1313.6</ele>
        <time>2016-09-25T12:35:48Z</time>
      </trkpt>
      <trkpt lat="45.33194" lon="6.11331">
        <ele>1315.6</ele>
        <time>2016-09-25T12:36:01Z</time>
      </trkpt>
      <trkpt lat="45.33201" lon="6.11323">
        <ele>1318.2</ele>
        <time>2016-09-25T12:36:17Z</time>
      </trkpt>
      <trkpt lat="45.33209" lon="6.11311">
        <ele>1322.2</ele>
        <time>2016-09-25T12:36:45Z</time>
      </trkpt>
      <trkpt lat="45.33217" lon="6.11294">
        <ele>1326</ele>
        <time>2016-09-25T12:37:20Z</time>
      </trkpt>
      <trkpt lat="45.33235" lon="6.11267">
        <ele>1336</ele>
        <time>2016-09-25T12:38:32Z</time>
      </trkpt>
      <trkpt lat="45.33243" lon="6.11262">
        <ele>1338.1</ele>
        <time>2016-09-25T12:38:48Z</time>
      </trkpt>
      <trkpt lat="45.3325" lon="6.11252">
        <ele>1340.1</ele>
        <time>2016-09-25T12:39:03Z</time>
      </trkpt>
      <trkpt lat="45.33256" lon="6.11243">
        <ele>1341.4</ele>
        <time>2016-09-25T12:39:12Z</time>
      </trkpt>
      <trkpt lat="45.33259" lon="6.11231">
        <ele>1343.4</ele>
        <time>2016-09-25T12:39:24Z</time>
      </trkpt>
      <trkpt lat="45.33261" lon="6.11217">
        <ele>1345.2</ele>
        <time>2016-09-25T12:39:34Z</time>
      </trkpt>
      <trkpt lat="45.33264" lon="6.11205">
        <ele>1347.5</ele>
        <time>2016-09-25T12:39:47Z</time>
      </trkpt>
      <trkpt lat="45.3327" lon="6.11195">
        <ele>1350.6</ele>
        <time>2016-09-25T12:40:05Z</time>
      </trkpt>
      <trkpt lat="45.3327" lon="6.11181">
        <ele>1352.7</ele>
        <time>2016-09-25T12:40:18Z</time>
      </trkpt>
      <trkpt lat="45.33272" lon="6.11168">
        <ele>1355</ele>
        <time>2016-09-25T12:40:34Z</time>
      </trkpt>
      <trkpt lat="45.33275" lon="6.11156">
        <ele>1357.1</ele>
        <time>2016-09-25T12:40:47Z</time>
      </trkpt>
      <trkpt lat="45.33279" lon="6.11144">
        <ele>1359.3</ele>
        <time>2016-09-25T12:41:01Z</time>
      </trkpt>
      <trkpt lat="45.33286" lon="6.11133">
        <ele>1360.9</ele>
        <time>2016-09-25T12:41:12Z</time>
      </trkpt>
      <trkpt lat="45.33293" lon="6.11125">
        <ele>1363.1</ele>
        <time>2016-09-25T12:41:26Z</time>
      </trkpt>
      <trkpt lat="45.33293" lon="6.11112">
        <ele>1364.8</ele>
        <time>2016-09-25T12:41:38Z</time>
      </trkpt>
      <trkpt lat="45.33295" lon="6.11099">
        <ele>1366.8</ele>
        <time>2016-09-25T12:41:49Z</time>
      </trkpt>
      <trkpt lat="45.33302" lon="6.11089">
        <ele>1368.7</ele>
        <time>2016-09-25T12:42:00Z</time>
      </trkpt>
      <trkpt lat="45.33306" lon="6.11077">
        <ele>1371.5</ele>
        <time>2016-09-25T12:42:15Z</time>
      </trkpt>
      <trkpt lat="45.33309" lon="6.11065">
        <ele>1373.7</ele>
        <time>2016-09-25T12:42:27Z</time>
      </trkpt>
      <trkpt lat="45.33314" lon="6.11053">
        <ele>1375.8</ele>
        <time>2016-09-25T12:42:38Z</time>
      </trkpt>
      <trkpt lat="45.33313" lon="6.1104">
        <ele>1377.4</ele>
        <time>2016-09-25T12:42:47Z</time>
      </trkpt>
      <trkpt lat="45.33307" lon="6.1103">
        <ele>1379.4</ele>
        <time>2016-09-25T12:43:00Z</time>
      </trkpt>
      <trkpt lat="45.33299" lon="6.11022">
        <ele>1382.5</ele>
        <time>2016-09-25T12:43:16Z</time>
      </trkpt>
      <trkpt lat="45.33294" lon="6.11011">
        <ele>1386.1</ele>
        <time>2016-09-25T12:43:34Z</time>
      </trkpt>
      <trkpt lat="45.33289" lon="6.11">
        <ele>1389.4</ele>
        <time>2016-09-25T12:43:53Z</time>
      </trkpt>
      <trkpt lat="45.33286" lon="6.10987">
        <ele>1391.8</ele>
        <time>2016-09-25T12:44:06Z</time>
      </trkpt>
      <trkpt lat="45.33284" lon="6.10974">
        <ele>1393.6</ele>
        <time>2016-09-25T12:44:17Z</time>
      </trkpt>
      <trkpt lat="45.33277" lon="6.10964">
        <ele>1395.5</ele>
        <time>2016-09-25T12:44:26Z</time>
      </trkpt>
      <trkpt lat="45.33272" lon="6.10952">
        <ele>1396.6</ele>
        <time>2016-09-25T12:44:35Z</time>
      </trkpt>
      <trkpt lat="45.33266" lon="6.10941">
        <ele>1398.7</ele>
        <time>2016-09-25T12:44:48Z</time>
      </trkpt>
      <trkpt lat="45.33261" lon="6.10931">
        <ele>1400.5</ele>
        <time>2016-09-25T12:45:01Z</time>
      </trkpt>
      <trkpt lat="45.33255" lon="6.1092">
        <ele>1401.8</ele>
        <time>2016-09-25T12:45:10Z</time>
      </trkpt>
      <trkpt lat="45.33252" lon="6.10908">
        <ele>1404.9</ele>
        <time>2016-09-25T12:45:29Z</time>
      </trkpt>
      <trkpt lat="45.33246" lon="6.10896">
        <ele>1407.3</ele>
        <time>2016-09-25T12:45:44Z</time>
      </trkpt>
      <trkpt lat="45.33239" lon="6.10886">
        <ele>1409</ele>
        <time>2016-09-25T12:45:55Z</time>
      </trkpt>
      <trkpt lat="45.33234" lon="6.10875">
        <ele>1411</ele>
        <time>2016-09-25T12:46:09Z</time>
      </trkpt>
      <trkpt lat="45.3323" lon="6.10863">
        <ele>1411.8</ele>
        <time>2016-09-25T12:46:17Z</time>
      </trkpt>
      <trkpt lat="45.33225" lon="6.10851">
        <ele>1412.7</ele>
        <time>2016-09-25T12:46:27Z</time>
      </trkpt>
      <trkpt lat="45.33222" lon="6.10837">
        <ele>1413.3</ele>
        <time>2016-09-25T12:46:35Z</time>
      </trkpt>
      <trkpt lat="45.33219" lon="6.10825">
        <ele>1413.8</ele>
        <time>2016-09-25T12:46:43Z</time>
      </trkpt>
      <trkpt lat="45.33214" lon="6.10813">
        <ele>1414.4</ele>
        <time>2016-09-25T12:46:51Z</time>
      </trkpt>
      <trkpt lat="45.3321" lon="6.10802">
        <ele>1414.9</ele>
        <time>2016-09-25T12:46:58Z</time>
      </trkpt>
      <trkpt lat="45.33204" lon="6.1079">
        <ele>1415.6</ele>
        <time>2016-09-25T12:47:06Z</time>
      </trkpt>
      <trkpt lat="45.33198" lon="6.10779">
        <ele>1416.3</ele>
        <time>2016-09-25T12:47:14Z</time>
      </trkpt>
      <trkpt lat="45.33192" lon="6.10767">
        <ele>1417.2</ele>
        <time>2016-09-25T12:47:23Z</time>
      </trkpt>
      <trkpt lat="45.33184" lon="6.10759">
        <ele>1418.5</ele>
        <time>2016-09-25T12:47:31Z</time>
      </trkpt>
      <trkpt lat="45.33183" lon="6.10745">
        <ele>1420.8</ele>
        <time>2016-09-25T12:47:43Z</time>
      </trkpt>
      <trkpt lat="45.33175" lon="6.10735">
        <ele>1422.1</ele>
        <time>2016-09-25T12:47:52Z</time>
      </trkpt>
      <trkpt lat="45.33168" lon="6.10727">
        <ele>1423.4</ele>
        <time>2016-09-25T12:48:00Z</time>
      </trkpt>
      <trkpt lat="45.33161" lon="6.10719">
        <ele>1424.9</ele>
        <time>2016-09-25T12:48:09Z</time>
      </trkpt>
      <trkpt lat="45.33152" lon="6.10713">
        <ele>1426.6</ele>
        <time>2016-09-25T12:48:19Z</time>
      </trkpt>
      <trkpt lat="45.33143" lon="6.1071">
        <ele>1427.9</ele>
        <time>2016-09-25T12:48:26Z</time>
      </trkpt>
      <trkpt lat="45.33135" lon="6.10703">
        <ele>1430</ele>
        <time>2016-09-25T12:48:37Z</time>
      </trkpt>
      <trkpt lat="45.33126" lon="6.10698">
        <ele>1432.4</ele>
        <time>2016-09-25T12:48:46Z</time>
      </trkpt>
      <trkpt lat="45.33118" lon="6.1069">
        <ele>1436.2</ele>
        <time>2016-09-25T12:49:07Z</time>
      </trkpt>
      <trkpt lat="45.33109" lon="6.10689">
        <ele>1437.9</ele>
        <time>2016-09-25T12:49:20Z</time>
      </trkpt>
      <trkpt lat="45.33101" lon="6.10682">
        <ele>1439.8</ele>
        <time>2016-09-25T12:49:34Z</time>
      </trkpt>
      <trkpt lat="45.33093" lon="6.10675">
        <ele>1441</ele>
        <time>2016-09-25T12:49:42Z</time>
      </trkpt>
      <trkpt lat="45.33084" lon="6.10669">
        <ele>1442.8</ele>
        <time>2016-09-25T12:49:52Z</time>
      </trkpt>
      <trkpt lat="45.33077" lon="6.1066">
        <ele>1445.2</ele>
        <time>2016-09-25T12:50:07Z</time>
      </trkpt>
      <trkpt lat="45.33068" lon="6.10653">
        <ele>1448.1</ele>
        <time>2016-09-25T12:50:23Z</time>
      </trkpt>
      <trkpt lat="45.33061" lon="6.10646">
        <ele>1449.3</ele>
        <time>2016-09-25T12:50:31Z</time>
      </trkpt>
      <trkpt lat="45.33052" lon="6.10641">
        <ele>1450.4</ele>
        <time>2016-09-25T12:50:39Z</time>
      </trkpt>
      <trkpt lat="45.33043" lon="6.10638">
        <ele>1453.9</ele>
        <time>2016-09-25T12:51:15Z</time>
      </trkpt>
      <trkpt lat="45.33037" lon="6.10649">
        <ele>1455.9</ele>
        <time>2016-09-25T12:51:31Z</time>
      </trkpt>
      <trkpt lat="45.33028" lon="6.10653">
        <ele>1458.4</ele>
        <time>2016-09-25T12:51:45Z</time>
      </trkpt>
      <trkpt lat="45.33019" lon="6.10652">
        <ele>1461.3</ele>
        <time>2016-09-25T12:52:02Z</time>
      </trkpt>
      <trkpt lat="45.3301" lon="6.10655">
        <ele>1464.2</ele>
        <time>2016-09-25T12:52:19Z</time>
      </trkpt>
      <trkpt lat="45.33001" lon="6.10654">
        <ele>1466.1</ele>
        <time>2016-09-25T12:52:31Z</time>
      </trkpt>
      <trkpt lat="45.32991" lon="6.10652">
        <ele>1468.9</ele>
        <time>2016-09-25T12:52:47Z</time>
      </trkpt>
      <trkpt lat="45.32982" lon="6.10649">
        <ele>1470.3</ele>
        <time>2016-09-25T12:52:56Z</time>
      </trkpt>
      <trkpt lat="45.32974" lon="6.10656">
        <ele>1472.1</ele>
        <time>2016-09-25T12:53:08Z</time>
      </trkpt>
      <trkpt lat="45.32966" lon="6.10663">
        <ele>1474.4</ele>
        <time>2016-09-25T12:53:27Z</time>
      </trkpt>
      <trkpt lat="45.32957" lon="6.10669">
        <ele>1475.2</ele>
        <time>2016-09-25T12:53:34Z</time>
      </trkpt>
      <trkpt lat="45.32949" lon="6.10674">
        <ele>1476.6</ele>
        <time>2016-09-25T12:53:42Z</time>
      </trkpt>
      <trkpt lat="45.3294" lon="6.10681">
        <ele>1478.3</ele>
        <time>2016-09-25T12:53:51Z</time>
      </trkpt>
      <trkpt lat="45.32936" lon="6.10693">
        <ele>1481.7</ele>
        <time>2016-09-25T12:54:09Z</time>
      </trkpt>
      <trkpt lat="45.32933" lon="6.10706">
        <ele>1483.8</ele>
        <time>2016-09-25T12:54:23Z</time>
      </trkpt>
      <trkpt lat="45.32935" lon="6.10719">
        <ele>1484.9</ele>
        <time>2016-09-25T12:54:37Z</time>
      </trkpt>
      <trkpt lat="45.32933" lon="6.10732">
        <ele>1485.9</ele>
        <time>2016-09-25T12:54:47Z</time>
      </trkpt>
      <trkpt lat="45.32924" lon="6.10733">
        <ele>1487.4</ele>
        <time>2016-09-25T12:54:58Z</time>
      </trkpt>
      <trkpt lat="45.32913" lon="6.10736">
        <ele>1488.8</ele>
        <time>2016-09-25T12:55:06Z</time>
      </trkpt>
      <trkpt lat="45.32903" lon="6.10739">
        <ele>1489.7</ele>
        <time>2016-09-25T12:55:12Z</time>
      </trkpt>
      <trkpt lat="45.32895" lon="6.10747">
        <ele>1491.3</ele>
        <time>2016-09-25T12:55:22Z</time>
      </trkpt>
      <trkpt lat="45.32887" lon="6.10756">
        <ele>1493</ele>
        <time>2016-09-25T12:55:32Z</time>
      </trkpt>
      <trkpt lat="45.3288" lon="6.10763">
        <ele>1494.1</ele>
        <time>2016-09-25T12:55:38Z</time>
      </trkpt>
      <trkpt lat="45.32871" lon="6.10769">
        <ele>1495.1</ele>
        <time>2016-09-25T12:55:44Z</time>
      </trkpt>
      <trkpt lat="45.32865" lon="6.10778">
        <ele>1496.8</ele>
        <time>2016-09-25T12:55:55Z</time>
      </trkpt>
      <trkpt lat="45.32856" lon="6.10781">
        <ele>1498.2</ele>
        <time>2016-09-25T12:56:03Z</time>
      </trkpt>
      <trkpt lat="45.32846" lon="6.10781">
        <ele>1500.2</ele>
        <time>2016-09-25T12:56:12Z</time>
      </trkpt>
      <trkpt lat="45.32837" lon="6.10785">
        <ele>1502.1</ele>
        <time>2016-09-25T12:56:21Z</time>
      </trkpt>
      <trkpt lat="45.32828" lon="6.10787">
        <ele>1505.4</ele>
        <time>2016-09-25T12:56:36Z</time>
      </trkpt>
      <trkpt lat="45.3282" lon="6.10794">
        <ele>1507</ele>
        <time>2016-09-25T12:56:51Z</time>
      </trkpt>
      <trkpt lat="45.32813" lon="6.10802">
        <ele>1508.9</ele>
        <time>2016-09-25T12:57:09Z</time>
      </trkpt>
      <trkpt lat="45.32805" lon="6.10808">
        <ele>1511</ele>
        <time>2016-09-25T12:57:27Z</time>
      </trkpt>
      <trkpt lat="45.32797" lon="6.10818">
        <ele>1513.2</ele>
        <time>2016-09-25T12:57:43Z</time>
      </trkpt>
      <trkpt lat="45.32787" lon="6.10824">
        <ele>1515.1</ele>
        <time>2016-09-25T12:57:57Z</time>
      </trkpt>
      <trkpt lat="45.32779" lon="6.1083">
        <ele>1518</ele>
        <time>2016-09-25T12:58:13Z</time>
      </trkpt>
      <trkpt lat="45.32771" lon="6.10837">
        <ele>1520.7</ele>
        <time>2016-09-25T12:58:27Z</time>
      </trkpt>
      <trkpt lat="45.32764" lon="6.10845">
        <ele>1522.5</ele>
        <time>2016-09-25T12:58:39Z</time>
      </trkpt>
      <trkpt lat="45.32756" lon="6.10851">
        <ele>1525</ele>
        <time>2016-09-25T12:58:54Z</time>
      </trkpt>
      <trkpt lat="45.32749" lon="6.1086">
        <ele>1527</ele>
        <time>2016-09-25T12:59:06Z</time>
      </trkpt>
      <trkpt lat="45.3274" lon="6.10865">
        <ele>1528.9</ele>
        <time>2016-09-25T12:59:16Z</time>
      </trkpt>
      <trkpt lat="45.32734" lon="6.10876">
        <ele>1530.1</ele>
        <time>2016-09-25T12:59:24Z</time>
      </trkpt>
      <trkpt lat="45.32725" lon="6.10881">
        <ele>1531.6</ele>
        <time>2016-09-25T12:59:33Z</time>
      </trkpt>
      <trkpt lat="45.32717" lon="6.10889">
        <ele>1533</ele>
        <time>2016-09-25T12:59:43Z</time>
      </trkpt>
      <trkpt lat="45.3271" lon="6.10898">
        <ele>1534.2</ele>
        <time>2016-09-25T12:59:52Z</time>
      </trkpt>
      <trkpt lat="45.32702" lon="6.10905">
        <ele>1536</ele>
        <time>2016-09-25T13:00:03Z</time>
      </trkpt>
      <trkpt lat="45.32693" lon="6.10906">
        <ele>1537.7</ele>
        <time>2016-09-25T13:00:12Z</time>
      </trkpt>
      <trkpt lat="45.32684" lon="6.10912">
        <ele>1540.2</ele>
        <time>2016-09-25T13:00:26Z</time>
      </trkpt>
      <trkpt lat="45.32675" lon="6.10911">
        <ele>1541.8</ele>
        <time>2016-09-25T13:00:36Z</time>
      </trkpt>
      <trkpt lat="45.32666" lon="6.10908">
        <ele>1543.7</ele>
        <time>2016-09-25T13:00:49Z</time>
      </trkpt>
      <trkpt lat="45.32656" lon="6.10906">
        <ele>1545.2</ele>
        <time>2016-09-25T13:00:57Z</time>
      </trkpt>
      <trkpt lat="45.32647" lon="6.10905">
        <ele>1545.9</ele>
        <time>2016-09-25T13:01:03Z</time>
      </trkpt>
      <trkpt lat="45.32639" lon="6.10901">
        <ele>1546.7</ele>
        <time>2016-09-25T13:01:12Z</time>
      </trkpt>
      <trkpt lat="45.3263" lon="6.10899">
        <ele>1547.3</ele>
        <time>2016-09-25T13:01:20Z</time>
      </trkpt>
      <trkpt lat="45.3262" lon="6.10899">
        <ele>1548</ele>
        <time>2016-09-25T13:01:28Z</time>
      </trkpt>
      <trkpt lat="45.3261" lon="6.10896">
        <ele>1549.2</ele>
        <time>2016-09-25T13:01:37Z</time>
      </trkpt>
      <trkpt lat="45.32602" lon="6.10893">
        <ele>1550.6</ele>
        <time>2016-09-25T13:01:44Z</time>
      </trkpt>
      <trkpt lat="45.32592" lon="6.10893">
        <ele>1553.4</ele>
        <time>2016-09-25T13:02:00Z</time>
      </trkpt>
      <trkpt lat="45.32581" lon="6.10896">
        <ele>1557.7</ele>
        <time>2016-09-25T13:02:27Z</time>
      </trkpt>
      <trkpt lat="45.32572" lon="6.10897">
        <ele>1559.3</ele>
        <time>2016-09-25T13:02:40Z</time>
      </trkpt>
      <trkpt lat="45.32563" lon="6.10894">
        <ele>1561.3</ele>
        <time>2016-09-25T13:02:54Z</time>
      </trkpt>
      <trkpt lat="45.32553" lon="6.10894">
        <ele>1563.4</ele>
        <time>2016-09-25T13:03:09Z</time>
      </trkpt>
      <trkpt lat="45.32544" lon="6.10893">
        <ele>1565.3</ele>
        <time>2016-09-25T13:03:21Z</time>
      </trkpt>
      <trkpt lat="45.32535" lon="6.10897">
        <ele>1567.8</ele>
        <time>2016-09-25T13:03:37Z</time>
      </trkpt>
      <trkpt lat="45.32525" lon="6.10897">
        <ele>1570.7</ele>
        <time>2016-09-25T13:03:54Z</time>
      </trkpt>
      <trkpt lat="45.32516" lon="6.10897">
        <ele>1573.6</ele>
        <time>2016-09-25T13:04:11Z</time>
      </trkpt>
      <trkpt lat="45.32507" lon="6.10899">
        <ele>1575.7</ele>
        <time>2016-09-25T13:04:25Z</time>
      </trkpt>
      <trkpt lat="45.32498" lon="6.10899">
        <ele>1578.3</ele>
        <time>2016-09-25T13:04:39Z</time>
      </trkpt>
      <trkpt lat="45.32489" lon="6.10902">
        <ele>1581.6</ele>
        <time>2016-09-25T13:04:55Z</time>
      </trkpt>
      <trkpt lat="45.3248" lon="6.10904">
        <ele>1584.6</ele>
        <time>2016-09-25T13:05:11Z</time>
      </trkpt>
      <trkpt lat="45.32471" lon="6.109">
        <ele>1586.9</ele>
        <time>2016-09-25T13:05:25Z</time>
      </trkpt>
      <trkpt lat="45.32462" lon="6.10899">
        <ele>1587.7</ele>
        <time>2016-09-25T13:05:32Z</time>
      </trkpt>
      <trkpt lat="45.32452" lon="6.10896">
        <ele>1588.5</ele>
        <time>2016-09-25T13:05:39Z</time>
      </trkpt>
      <trkpt lat="45.32443" lon="6.10893">
        <ele>1589.7</ele>
        <time>2016-09-25T13:05:51Z</time>
      </trkpt>
      <trkpt lat="45.32433" lon="6.1089">
        <ele>1592.5</ele>
        <time>2016-09-25T13:06:10Z</time>
      </trkpt>
      <trkpt lat="45.32425" lon="6.10887">
        <ele>1595.4</ele>
        <time>2016-09-25T13:06:28Z</time>
      </trkpt>
      <trkpt lat="45.32416" lon="6.10886">
        <ele>1597.6</ele>
        <time>2016-09-25T13:06:41Z</time>
      </trkpt>
      <trkpt lat="45.32407" lon="6.10882">
        <ele>1599.8</ele>
        <time>2016-09-25T13:06:53Z</time>
      </trkpt>
      <trkpt lat="45.32397" lon="6.1088">
        <ele>1602.4</ele>
        <time>2016-09-25T13:07:07Z</time>
      </trkpt>
      <trkpt lat="45.32389" lon="6.10886">
        <ele>1604.3</ele>
        <time>2016-09-25T13:07:18Z</time>
      </trkpt>
      <trkpt lat="45.32386" lon="6.10898">
        <ele>1607.2</ele>
        <time>2016-09-25T13:07:34Z</time>
      </trkpt>
      <trkpt lat="45.32385" lon="6.10911">
        <ele>1610.6</ele>
        <time>2016-09-25T13:07:52Z</time>
      </trkpt>
      <trkpt lat="45.32385" lon="6.10925">
        <ele>1614</ele>
        <time>2016-09-25T13:08:10Z</time>
      </trkpt>
      <trkpt lat="45.32381" lon="6.10936">
        <ele>1617.4</ele>
        <time>2016-09-25T13:08:30Z</time>
      </trkpt>
      <trkpt lat="45.32373" lon="6.1094">
        <ele>1620</ele>
        <time>2016-09-25T13:08:46Z</time>
      </trkpt>
      <trkpt lat="45.32364" lon="6.10944">
        <ele>1622.4</ele>
        <time>2016-09-25T13:09:01Z</time>
      </trkpt>
      <trkpt lat="45.32354" lon="6.10941">
        <ele>1626.9</ele>
        <time>2016-09-25T13:09:31Z</time>
      </trkpt>
      <trkpt lat="45.32345" lon="6.10944">
        <ele>1629.4</ele>
        <time>2016-09-25T13:09:48Z</time>
      </trkpt>
      <trkpt lat="45.32336" lon="6.10946">
        <ele>1631.7</ele>
        <time>2016-09-25T13:10:03Z</time>
      </trkpt>
      <trkpt lat="45.32328" lon="6.10941">
        <ele>1633.8</ele>
        <time>2016-09-25T13:10:16Z</time>
      </trkpt>
      <trkpt lat="45.32319" lon="6.10935">
        <ele>1635.7</ele>
        <time>2016-09-25T13:10:29Z</time>
      </trkpt>
      <trkpt lat="45.32311" lon="6.1093">
        <ele>1640.1</ele>
        <time>2016-09-25T13:10:57Z</time>
      </trkpt>
      <trkpt lat="45.32302" lon="6.1093">
        <ele>1642</ele>
        <time>2016-09-25T13:11:10Z</time>
      </trkpt>
      <trkpt lat="45.32293" lon="6.1093">
        <ele>1645.3</ele>
        <time>2016-09-25T13:11:33Z</time>
      </trkpt>
      <trkpt lat="45.32284" lon="6.10935">
        <ele>1649.6</ele>
        <time>2016-09-25T13:12:05Z</time>
      </trkpt>
      <trkpt lat="45.32275" lon="6.10932">
        <ele>1652.5</ele>
        <time>2016-09-25T13:12:31Z</time>
      </trkpt>
      <trkpt lat="45.32266" lon="6.10938">
        <ele>1657.3</ele>
        <time>2016-09-25T13:13:21Z</time>
      </trkpt>
      <trkpt lat="45.32257" lon="6.10941">
        <ele>1656.9</ele>
        <time>2016-09-25T13:13:32Z</time>
      </trkpt>
      <trkpt lat="45.32248" lon="6.10946">
        <ele>1659</ele>
        <time>2016-09-25T13:13:43Z</time>
      </trkpt>
      <trkpt lat="45.32241" lon="6.10954">
        <ele>1660.4</ele>
        <time>2016-09-25T13:13:54Z</time>
      </trkpt>
      <trkpt lat="45.32244" lon="6.10969">
        <ele>1661.7</ele>
        <time>2016-09-25T13:14:20Z</time>
      </trkpt>
      <trkpt lat="45.32242" lon="6.10981">
        <ele>1661.1</ele>
        <time>2016-09-25T13:14:29Z</time>
      </trkpt>
      <trkpt lat="45.32236" lon="6.10992">
        <ele>1661.2</ele>
        <time>2016-09-25T13:14:43Z</time>
      </trkpt>
      <trkpt lat="45.32227" lon="6.10995">
        <ele>1661.6</ele>
        <time>2016-09-25T13:14:51Z</time>
      </trkpt>
      <trkpt lat="45.32218" lon="6.10988">
        <ele>1663.5</ele>
        <time>2016-09-25T13:15:05Z</time>
      </trkpt>
      <trkpt lat="45.32209" lon="6.1099">
        <ele>1665.3</ele>
        <time>2016-09-25T13:15:18Z</time>
      </trkpt>
      <trkpt lat="45.32199" lon="6.10989">
        <ele>1667.7</ele>
        <time>2016-09-25T13:15:32Z</time>
      </trkpt>
      <trkpt lat="45.3219" lon="6.10993">
        <ele>1670.5</ele>
        <time>2016-09-25T13:15:47Z</time>
      </trkpt>
      <trkpt lat="45.32181" lon="6.10994">
        <ele>1673.6</ele>
        <time>2016-09-25T13:16:04Z</time>
      </trkpt>
      <trkpt lat="45.32172" lon="6.10995">
        <ele>1679.1</ele>
        <time>2016-09-25T13:16:36Z</time>
      </trkpt>
      <trkpt lat="45.32164" lon="6.10998">
        <ele>1682.6</ele>
        <time>2016-09-25T13:17:00Z</time>
      </trkpt>
      <trkpt lat="45.32155" lon="6.11002">
        <ele>1685</ele>
        <time>2016-09-25T13:17:14Z</time>
      </trkpt>
      <trkpt lat="45.32146" lon="6.10999">
        <ele>1687.3</ele>
        <time>2016-09-25T13:17:30Z</time>
      </trkpt>
      <trkpt lat="45.32136" lon="6.10998">
        <ele>1689.7</ele>
        <time>2016-09-25T13:17:45Z</time>
      </trkpt>
      <trkpt lat="45.32128" lon="6.10991">
        <ele>1692.1</ele>
        <time>2016-09-25T13:18:06Z</time>
      </trkpt>
      <trkpt lat="45.3212" lon="6.10986">
        <ele>1694.4</ele>
        <time>2016-09-25T13:18:19Z</time>
      </trkpt>
      <trkpt lat="45.3211" lon="6.10988">
        <ele>1698.4</ele>
        <time>2016-09-25T13:18:48Z</time>
      </trkpt>
      <trkpt lat="45.32101" lon="6.10987">
        <ele>1700.2</ele>
        <time>2016-09-25T13:19:02Z</time>
      </trkpt>
      <trkpt lat="45.32091" lon="6.10985">
        <ele>1703</ele>
        <time>2016-09-25T13:19:21Z</time>
      </trkpt>
      <trkpt lat="45.32082" lon="6.10986">
        <ele>1706.2</ele>
        <time>2016-09-25T13:19:40Z</time>
      </trkpt>
      <trkpt lat="45.32071" lon="6.10987">
        <ele>1711.2</ele>
        <time>2016-09-25T13:20:14Z</time>
      </trkpt>
      <trkpt lat="45.32063" lon="6.10984">
        <ele>1715</ele>
        <time>2016-09-25T13:21:00Z</time>
      </trkpt>
      <trkpt lat="45.32053" lon="6.10987">
        <ele>1717.6</ele>
        <time>2016-09-25T13:21:21Z</time>
      </trkpt>
      <trkpt lat="45.32045" lon="6.10992">
        <ele>1720.5</ele>
        <time>2016-09-25T13:21:40Z</time>
      </trkpt>
      <trkpt lat="45.32035" lon="6.10994">
        <ele>1724.1</ele>
        <time>2016-09-25T13:22:08Z</time>
      </trkpt>
      <trkpt lat="45.32026" lon="6.10994">
        <ele>1726.6</ele>
        <time>2016-09-25T13:22:30Z</time>
      </trkpt>
      <trkpt lat="45.32017" lon="6.10991">
        <ele>1728.3</ele>
        <time>2016-09-25T13:22:45Z</time>
      </trkpt>
      <trkpt lat="45.32008" lon="6.10992">
        <ele>1732.5</ele>
        <time>2016-09-25T13:23:14Z</time>
      </trkpt>
      <trkpt lat="45.31999" lon="6.10995">
        <ele>1735.8</ele>
        <time>2016-09-25T13:23:39Z</time>
      </trkpt>
      <trkpt lat="45.3199" lon="6.10994">
        <ele>1740.3</ele>
        <time>2016-09-25T13:24:15Z</time>
      </trkpt>
      <trkpt lat="45.31981" lon="6.10995">
        <ele>1745.5</ele>
        <time>2016-09-25T13:24:52Z</time>
      </trkpt>
      <trkpt lat="45.31971" lon="6.10997">
        <ele>1750.7</ele>
        <time>2016-09-25T13:25:51Z</time>
      </trkpt>
      <trkpt lat="45.31958" lon="6.11001">
        <ele>1759.2</ele>
        <time>2016-09-25T13:27:30Z</time>
      </trkpt>
      <trkpt lat="45.31948" lon="6.11007">
        <ele>1767</ele>
        <time>2016-09-25T13:29:13Z</time>
      </trkpt>
      <trkpt lat="45.31939" lon="6.11008">
        <ele>1769.5</ele>
        <time>2016-09-25T13:29:41Z</time>
      </trkpt>
      <trkpt lat="45.31924" lon="6.11009">
        <ele>1778</ele>
        <time>2016-09-25T13:32:15Z</time>
      </trkpt>
      <trkpt lat="45.31914" lon="6.11012">
        <ele>1783.8</ele>
        <time>2016-09-25T13:33:13Z</time>
      </trkpt>
      <trkpt lat="45.31906" lon="6.11018">
        <ele>1787.1</ele>
        <time>2016-09-25T13:33:59Z</time>
      </trkpt>
      <trkpt lat="45.31897" lon="6.11025">
        <ele>1790.3</ele>
        <time>2016-09-25T13:34:26Z</time>
      </trkpt>
      <trkpt lat="45.31888" lon="6.11022">
        <ele>1795</ele>
        <time>2016-09-25T13:35:08Z</time>
      </trkpt>
      <trkpt lat="45.31879" lon="6.11024">
        <ele>1800.4</ele>
        <time>2016-09-25T13:35:57Z</time>
      </trkpt>
      <trkpt lat="45.31868" lon="6.11027">
        <ele>1807</ele>
        <time>2016-09-25T13:37:17Z</time>
      </trkpt>
      <trkpt lat="45.31859" lon="6.11027">
        <ele>1810.2</ele>
        <time>2016-09-25T13:37:50Z</time>
      </trkpt>
      <trkpt lat="45.31851" lon="6.11021">
        <ele>1813.6</ele>
        <time>2016-09-25T13:38:13Z</time>
      </trkpt>
      <trkpt lat="45.31842" lon="6.11018">
        <ele>1818.1</ele>
        <time>2016-09-25T13:38:54Z</time>
      </trkpt>
      <trkpt lat="45.31835" lon="6.11026">
        <ele>1820.2</ele>
        <time>2016-09-25T13:39:31Z</time>
      </trkpt>
      <trkpt lat="45.31832" lon="6.11039">
        <ele>1824.4</ele>
        <time>2016-09-25T13:56:44Z</time>
      </trkpt>
      <trkpt lat="45.31831" lon="6.11052">
        <ele>1824</ele>
        <time>2016-09-25T13:56:48Z</time>
      </trkpt>
      <trkpt lat="45.31825" lon="6.11061">
        <ele>1823.6</ele>
        <time>2016-09-25T13:56:52Z</time>
      </trkpt>
      <trkpt lat="45.31818" lon="6.11075">
        <ele>1822.4</ele>
        <time>2016-09-25T13:56:56Z</time>
      </trkpt>
      <trkpt lat="45.31812" lon="6.11086">
        <ele>1821.7</ele>
        <time>2016-09-25T13:56:59Z</time>
      </trkpt>
      <trkpt lat="45.31803" lon="6.11092">
        <ele>1820.9</ele>
        <time>2016-09-25T13:57:06Z</time>
      </trkpt>
      <trkpt lat="45.31795" lon="6.111">
        <ele>1820.7</ele>
        <time>2016-09-25T13:57:11Z</time>
      </trkpt>
      <trkpt lat="45.31788" lon="6.11108">
        <ele>1820.7</ele>
        <time>2016-09-25T13:57:15Z</time>
      </trkpt>
      <trkpt lat="45.31779" lon="6.11119">
        <ele>1820.6</ele>
        <time>2016-09-25T13:57:20Z</time>
      </trkpt>
      <trkpt lat="45.31768" lon="6.11128">
        <ele>1820.3</ele>
        <time>2016-09-25T13:57:23Z</time>
      </trkpt>
      <trkpt lat="45.31759" lon="6.11129">
        <ele>1819.7</ele>
        <time>2016-09-25T13:57:27Z</time>
      </trkpt>
      <trkpt lat="45.3175" lon="6.11129">
        <ele>1818</ele>
        <time>2016-09-25T13:57:31Z</time>
      </trkpt>
      <trkpt lat="45.31738" lon="6.11128">
        <ele>1816.1</ele>
        <time>2016-09-25T13:57:35Z</time>
      </trkpt>
      <trkpt lat="45.31727" lon="6.1113">
        <ele>1813.4</ele>
        <time>2016-09-25T13:57:40Z</time>
      </trkpt>
      <trkpt lat="45.31721" lon="6.1112">
        <ele>1809.3</ele>
        <time>2016-09-25T13:57:48Z</time>
      </trkpt>
      <trkpt lat="45.31724" lon="6.11108">
        <ele>1806.4</ele>
        <time>2016-09-25T13:57:53Z</time>
      </trkpt>
      <trkpt lat="45.31727" lon="6.11096">
        <ele>1803</ele>
        <time>2016-09-25T13:57:59Z</time>
      </trkpt>
      <trkpt lat="45.31717" lon="6.1109">
        <ele>1798.8</ele>
        <time>2016-09-25T13:58:06Z</time>
      </trkpt>
      <trkpt lat="45.31708" lon="6.11089">
        <ele>1795.9</ele>
        <time>2016-09-25T13:58:11Z</time>
      </trkpt>
      <trkpt lat="45.317" lon="6.11083">
        <ele>1792.3</ele>
        <time>2016-09-25T13:58:17Z</time>
      </trkpt>
      <trkpt lat="45.31697" lon="6.1107">
        <ele>1783.4</ele>
        <time>2016-09-25T13:58:35Z</time>
      </trkpt>
      <trkpt lat="45.31698" lon="6.11057">
        <ele>1779.4</ele>
        <time>2016-09-25T13:58:44Z</time>
      </trkpt>
      <trkpt lat="45.31696" lon="6.11044">
        <ele>1771.1</ele>
        <time>2016-09-25T13:59:12Z</time>
      </trkpt>
      <trkpt lat="45.31693" lon="6.11029">
        <ele>1768</ele>
        <time>2016-09-25T13:59:22Z</time>
      </trkpt>
      <trkpt lat="45.31689" lon="6.11018">
        <ele>1764.9</ele>
        <time>2016-09-25T13:59:30Z</time>
      </trkpt>
      <trkpt lat="45.31691" lon="6.11003">
        <ele>1762.1</ele>
        <time>2016-09-25T13:59:36Z</time>
      </trkpt>
      <trkpt lat="45.31692" lon="6.10987">
        <ele>1759.8</ele>
        <time>2016-09-25T13:59:41Z</time>
      </trkpt>
      <trkpt lat="45.31691" lon="6.10974">
        <ele>1758.2</ele>
        <time>2016-09-25T13:59:44Z</time>
      </trkpt>
      <trkpt lat="45.31691" lon="6.1096">
        <ele>1756.5</ele>
        <time>2016-09-25T13:59:47Z</time>
      </trkpt>
      <trkpt lat="45.31692" lon="6.10945">
        <ele>1753.9</ele>
        <time>2016-09-25T13:59:53Z</time>
      </trkpt>
      <trkpt lat="45.31691" lon="6.10932">
        <ele>1750.2</ele>
        <time>2016-09-25T14:00:08Z</time>
      </trkpt>
      <trkpt lat="45.31687" lon="6.1092">
        <ele>1748.9</ele>
        <time>2016-09-25T14:00:22Z</time>
      </trkpt>
      <trkpt lat="45.31684" lon="6.10907">
        <ele>1747.8</ele>
        <time>2016-09-25T14:00:34Z</time>
      </trkpt>
      <trkpt lat="45.3168" lon="6.10895">
        <ele>1746.4</ele>
        <time>2016-09-25T14:00:46Z</time>
      </trkpt>
      <trkpt lat="45.31672" lon="6.10886">
        <ele>1745.6</ele>
        <time>2016-09-25T14:00:53Z</time>
      </trkpt>
      <trkpt lat="45.31665" lon="6.10877">
        <ele>1744.7</ele>
        <time>2016-09-25T14:01:05Z</time>
      </trkpt>
      <trkpt lat="45.31663" lon="6.10864">
        <ele>1743.6</ele>
        <time>2016-09-25T14:01:20Z</time>
      </trkpt>
      <trkpt lat="45.31654" lon="6.10856">
        <ele>1742.7</ele>
        <time>2016-09-25T14:01:27Z</time>
      </trkpt>
      <trkpt lat="45.31647" lon="6.10845">
        <ele>1741.7</ele>
        <time>2016-09-25T14:01:32Z</time>
      </trkpt>
      <trkpt lat="45.31638" lon="6.10837">
        <ele>1740.3</ele>
        <time>2016-09-25T14:01:37Z</time>
      </trkpt>
      <trkpt lat="45.31626" lon="6.10832">
        <ele>1738.9</ele>
        <time>2016-09-25T14:01:41Z</time>
      </trkpt>
      <trkpt lat="45.31617" lon="6.10821">
        <ele>1737.7</ele>
        <time>2016-09-25T14:01:44Z</time>
      </trkpt>
      <trkpt lat="45.31607" lon="6.10813">
        <ele>1736.2</ele>
        <time>2016-09-25T14:01:47Z</time>
      </trkpt>
      <trkpt lat="45.31599" lon="6.10805">
        <ele>1735.1</ele>
        <time>2016-09-25T14:01:51Z</time>
      </trkpt>
      <trkpt lat="45.31591" lon="6.108">
        <ele>1734</ele>
        <time>2016-09-25T14:01:56Z</time>
      </trkpt>
      <trkpt lat="45.31582" lon="6.10795">
        <ele>1733</ele>
        <time>2016-09-25T14:02:01Z</time>
      </trkpt>
      <trkpt lat="45.31572" lon="6.10792">
        <ele>1728.7</ele>
        <time>2016-09-25T14:02:36Z</time>
      </trkpt>
      <trkpt lat="45.31564" lon="6.10783">
        <ele>1728.5</ele>
        <time>2016-09-25T14:02:41Z</time>
      </trkpt>
      <trkpt lat="45.31557" lon="6.10772">
        <ele>1728.2</ele>
        <time>2016-09-25T14:02:46Z</time>
      </trkpt>
      <trkpt lat="45.3155" lon="6.10763">
        <ele>1728</ele>
        <time>2016-09-25T14:02:51Z</time>
      </trkpt>
      <trkpt lat="45.31542" lon="6.10753">
        <ele>1727.8</ele>
        <time>2016-09-25T14:02:57Z</time>
      </trkpt>
      <trkpt lat="45.31535" lon="6.10746">
        <ele>1727.7</ele>
        <time>2016-09-25T14:03:02Z</time>
      </trkpt>
      <trkpt lat="45.31526" lon="6.1074">
        <ele>1727.7</ele>
        <time>2016-09-25T14:03:08Z</time>
      </trkpt>
      <trkpt lat="45.31516" lon="6.10738">
        <ele>1727.6</ele>
        <time>2016-09-25T14:03:26Z</time>
      </trkpt>
      <trkpt lat="45.31506" lon="6.10742">
        <ele>1727.2</ele>
        <time>2016-09-25T14:03:31Z</time>
      </trkpt>
      <trkpt lat="45.31497" lon="6.10744">
        <ele>1725.2</ele>
        <time>2016-09-25T14:03:53Z</time>
      </trkpt>
      <trkpt lat="45.31488" lon="6.1074">
        <ele>1724.8</ele>
        <time>2016-09-25T14:04:02Z</time>
      </trkpt>
      <trkpt lat="45.31479" lon="6.10739">
        <ele>1724.6</ele>
        <time>2016-09-25T14:04:11Z</time>
      </trkpt>
      <trkpt lat="45.3147" lon="6.10736">
        <ele>1725.7</ele>
        <time>2016-09-25T14:04:25Z</time>
      </trkpt>
      <trkpt lat="45.3146" lon="6.10735">
        <ele>1730.9</ele>
        <time>2016-09-25T14:05:06Z</time>
      </trkpt>
      <trkpt lat="45.31451" lon="6.10731">
        <ele>1735.2</ele>
        <time>2016-09-25T14:05:43Z</time>
      </trkpt>
      <trkpt lat="45.31443" lon="6.10725">
        <ele>1738.5</ele>
        <time>2016-09-25T14:06:08Z</time>
      </trkpt>
      <trkpt lat="45.31435" lon="6.10719">
        <ele>1739.6</ele>
        <time>2016-09-25T14:06:18Z</time>
      </trkpt>
      <trkpt lat="45.31426" lon="6.10718">
        <ele>1741.9</ele>
        <time>2016-09-25T14:06:37Z</time>
      </trkpt>
      <trkpt lat="45.31416" lon="6.10719">
        <ele>1743.1</ele>
        <time>2016-09-25T14:06:48Z</time>
      </trkpt>
      <trkpt lat="45.31407" lon="6.10722">
        <ele>1743.6</ele>
        <time>2016-09-25T14:06:56Z</time>
      </trkpt>
      <trkpt lat="45.31398" lon="6.10726">
        <ele>1746.1</ele>
        <time>2016-09-25T14:07:29Z</time>
      </trkpt>
      <trkpt lat="45.31391" lon="6.10718">
        <ele>1748.6</ele>
        <time>2016-09-25T14:07:57Z</time>
      </trkpt>
      <trkpt lat="45.31385" lon="6.10707">
        <ele>1749.7</ele>
        <time>2016-09-25T14:08:15Z</time>
      </trkpt>
      <trkpt lat="45.31382" lon="6.10694">
        <ele>1750.6</ele>
        <time>2016-09-25T14:08:27Z</time>
      </trkpt>
      <trkpt lat="45.31381" lon="6.10681">
        <ele>1751.1</ele>
        <time>2016-09-25T14:08:36Z</time>
      </trkpt>
      <trkpt lat="45.31376" lon="6.1067">
        <ele>1752.1</ele>
        <time>2016-09-25T14:08:47Z</time>
      </trkpt>
      <trkpt lat="45.31374" lon="6.10657">
        <ele>1753.4</ele>
        <time>2016-09-25T14:08:57Z</time>
      </trkpt>
      <trkpt lat="45.31372" lon="6.10643">
        <ele>1754.6</ele>
        <time>2016-09-25T14:09:07Z</time>
      </trkpt>
      <trkpt lat="45.31368" lon="6.10631">
        <ele>1756.2</ele>
        <time>2016-09-25T14:09:20Z</time>
      </trkpt>
      <trkpt lat="45.31366" lon="6.10618">
        <ele>1757.6</ele>
        <time>2016-09-25T14:09:31Z</time>
      </trkpt>
      <trkpt lat="45.31365" lon="6.10604">
        <ele>1759.6</ele>
        <time>2016-09-25T14:09:43Z</time>
      </trkpt>
      <trkpt lat="45.31366" lon="6.1059">
        <ele>1761.2</ele>
        <time>2016-09-25T14:09:54Z</time>
      </trkpt>
      <trkpt lat="45.31369" lon="6.10577">
        <ele>1761.9</ele>
        <time>2016-09-25T14:10:02Z</time>
      </trkpt>
      <trkpt lat="45.31372" lon="6.10564">
        <ele>1762.7</ele>
        <time>2016-09-25T14:10:13Z</time>
      </trkpt>
      <trkpt lat="45.31374" lon="6.10552">
        <ele>1764.2</ele>
        <time>2016-09-25T14:10:25Z</time>
      </trkpt>
      <trkpt lat="45.31377" lon="6.10539">
        <ele>1765.6</ele>
        <time>2016-09-25T14:10:36Z</time>
      </trkpt>
      <trkpt lat="45.31383" lon="6.10527">
        <ele>1767</ele>
        <time>2016-09-25T14:11:03Z</time>
      </trkpt>
      <trkpt lat="45.31385" lon="6.10511">
        <ele>1766.7</ele>
        <time>2016-09-25T14:11:08Z</time>
      </trkpt>
      <trkpt lat="45.31386" lon="6.10498">
        <ele>1766.3</ele>
        <time>2016-09-25T14:11:18Z</time>
      </trkpt>
      <trkpt lat="45.31378" lon="6.10491">
        <ele>1766.3</ele>
        <time>2016-09-25T14:11:26Z</time>
      </trkpt>
      <trkpt lat="45.3137" lon="6.10484">
        <ele>1767.2</ele>
        <time>2016-09-25T14:11:36Z</time>
      </trkpt>
      <trkpt lat="45.31364" lon="6.10473">
        <ele>1768</ele>
        <time>2016-09-25T14:11:44Z</time>
      </trkpt>
      <trkpt lat="45.31358" lon="6.10463">
        <ele>1768.8</ele>
        <time>2016-09-25T14:11:52Z</time>
      </trkpt>
      <trkpt lat="45.31349" lon="6.10463">
        <ele>1769.6</ele>
        <time>2016-09-25T14:12:01Z</time>
      </trkpt>
      <trkpt lat="45.3134" lon="6.10463">
        <ele>1770.2</ele>
        <time>2016-09-25T14:12:10Z</time>
      </trkpt>
      <trkpt lat="45.31329" lon="6.10462">
        <ele>1770.4</ele>
        <time>2016-09-25T14:12:15Z</time>
      </trkpt>
      <trkpt lat="45.3132" lon="6.10467">
        <ele>1770.5</ele>
        <time>2016-09-25T14:12:20Z</time>
      </trkpt>
      <trkpt lat="45.31311" lon="6.10473">
        <ele>1770.6</ele>
        <time>2016-09-25T14:12:25Z</time>
      </trkpt>
      <trkpt lat="45.31302" lon="6.10478">
        <ele>1770.8</ele>
        <time>2016-09-25T14:12:39Z</time>
      </trkpt>
      <trkpt lat="45.31294" lon="6.10482">
        <ele>1770.8</ele>
        <time>2016-09-25T14:12:45Z</time>
      </trkpt>
      <trkpt lat="45.31284" lon="6.10486">
        <ele>1770.9</ele>
        <time>2016-09-25T14:12:53Z</time>
      </trkpt>
      <trkpt lat="45.31276" lon="6.10492">
        <ele>1771.3</ele>
        <time>2016-09-25T14:13:03Z</time>
      </trkpt>
      <trkpt lat="45.31268" lon="6.10497">
        <ele>1772.3</ele>
        <time>2016-09-25T14:13:13Z</time>
      </trkpt>
      <trkpt lat="45.31259" lon="6.10502">
        <ele>1773.3</ele>
        <time>2016-09-25T14:13:22Z</time>
      </trkpt>
      <trkpt lat="45.31249" lon="6.10501">
        <ele>1774.1</ele>
        <time>2016-09-25T14:13:31Z</time>
      </trkpt>
      <trkpt lat="45.31239" lon="6.10499">
        <ele>1774.5</ele>
        <time>2016-09-25T14:13:36Z</time>
      </trkpt>
      <trkpt lat="45.31228" lon="6.10495">
        <ele>1774.7</ele>
        <time>2016-09-25T14:13:40Z</time>
      </trkpt>
      <trkpt lat="45.31219" lon="6.10489">
        <ele>1775</ele>
        <time>2016-09-25T14:13:46Z</time>
      </trkpt>
      <trkpt lat="45.3121" lon="6.1048">
        <ele>1775.3</ele>
        <time>2016-09-25T14:13:51Z</time>
      </trkpt>
      <trkpt lat="45.31204" lon="6.1047">
        <ele>1775.4</ele>
        <time>2016-09-25T14:13:55Z</time>
      </trkpt>
      <trkpt lat="45.31198" lon="6.10458">
        <ele>1774.7</ele>
        <time>2016-09-25T14:14:00Z</time>
      </trkpt>
      <trkpt lat="45.31192" lon="6.10448">
        <ele>1771.8</ele>
        <time>2016-09-25T14:14:11Z</time>
      </trkpt>
      <trkpt lat="45.31184" lon="6.10441">
        <ele>1770</ele>
        <time>2016-09-25T14:14:16Z</time>
      </trkpt>
      <trkpt lat="45.31177" lon="6.10432">
        <ele>1766.8</ele>
        <time>2016-09-25T14:14:24Z</time>
      </trkpt>
      <trkpt lat="45.31171" lon="6.1042">
        <ele>1762.8</ele>
        <time>2016-09-25T14:14:36Z</time>
      </trkpt>
      <trkpt lat="45.31173" lon="6.10407">
        <ele>1759.5</ele>
        <time>2016-09-25T14:14:43Z</time>
      </trkpt>
      <trkpt lat="45.31165" lon="6.104">
        <ele>1756.8</ele>
        <time>2016-09-25T14:14:48Z</time>
      </trkpt>
      <trkpt lat="45.31157" lon="6.10394">
        <ele>1753.8</ele>
        <time>2016-09-25T14:14:54Z</time>
      </trkpt>
      <trkpt lat="45.31151" lon="6.10383">
        <ele>1749.4</ele>
        <time>2016-09-25T14:15:03Z</time>
      </trkpt>
      <trkpt lat="45.31144" lon="6.10376">
        <ele>1746.5</ele>
        <time>2016-09-25T14:15:09Z</time>
      </trkpt>
      <trkpt lat="45.31134" lon="6.10371">
        <ele>1743.6</ele>
        <time>2016-09-25T14:15:14Z</time>
      </trkpt>
      <trkpt lat="45.31124" lon="6.10369">
        <ele>1741</ele>
        <time>2016-09-25T14:15:19Z</time>
      </trkpt>
      <trkpt lat="45.31114" lon="6.10374">
        <ele>1737.7</ele>
        <time>2016-09-25T14:15:27Z</time>
      </trkpt>
      <trkpt lat="45.31105" lon="6.10376">
        <ele>1735.3</ele>
        <time>2016-09-25T14:15:36Z</time>
      </trkpt>
      <trkpt lat="45.31097" lon="6.10383">
        <ele>1732.6</ele>
        <time>2016-09-25T14:15:49Z</time>
      </trkpt>
      <trkpt lat="45.31089" lon="6.10387">
        <ele>1727.9</ele>
        <time>2016-09-25T14:17:24Z</time>
      </trkpt>
      <trkpt lat="45.31079" lon="6.10387">
        <ele>1727.6</ele>
        <time>2016-09-25T14:17:29Z</time>
      </trkpt>
      <trkpt lat="45.3107" lon="6.10389">
        <ele>1726.9</ele>
        <time>2016-09-25T14:17:35Z</time>
      </trkpt>
      <trkpt lat="45.31072" lon="6.10375">
        <ele>1721.6</ele>
        <time>2016-09-25T14:17:59Z</time>
      </trkpt>
      <trkpt lat="45.31078" lon="6.10364">
        <ele>1720.4</ele>
        <time>2016-09-25T14:18:04Z</time>
      </trkpt>
      <trkpt lat="45.31081" lon="6.10351">
        <ele>1718.6</ele>
        <time>2016-09-25T14:18:09Z</time>
      </trkpt>
      <trkpt lat="45.31087" lon="6.10338">
        <ele>1716.6</ele>
        <time>2016-09-25T14:18:13Z</time>
      </trkpt>
      <trkpt lat="45.31078" lon="6.10332">
        <ele>1712.5</ele>
        <time>2016-09-25T14:18:21Z</time>
      </trkpt>
      <trkpt lat="45.31068" lon="6.1033">
        <ele>1708.7</ele>
        <time>2016-09-25T14:18:27Z</time>
      </trkpt>
      <trkpt lat="45.31059" lon="6.10336">
        <ele>1705.5</ele>
        <time>2016-09-25T14:18:32Z</time>
      </trkpt>
      <trkpt lat="45.3105" lon="6.10341">
        <ele>1703.7</ele>
        <time>2016-09-25T14:18:35Z</time>
      </trkpt>
      <trkpt lat="45.3104" lon="6.10344">
        <ele>1700.6</ele>
        <time>2016-09-25T14:18:40Z</time>
      </trkpt>
      <trkpt lat="45.31045" lon="6.10331">
        <ele>1697.1</ele>
        <time>2016-09-25T14:18:45Z</time>
      </trkpt>
      <trkpt lat="45.3105" lon="6.1032">
        <ele>1694.5</ele>
        <time>2016-09-25T14:18:49Z</time>
      </trkpt>
      <trkpt lat="45.31041" lon="6.10319">
        <ele>1688.1</ele>
        <time>2016-09-25T14:19:00Z</time>
      </trkpt>
      <trkpt lat="45.31031" lon="6.10319">
        <ele>1685.5</ele>
        <time>2016-09-25T14:19:04Z</time>
      </trkpt>
      <trkpt lat="45.31022" lon="6.10323">
        <ele>1683.6</ele>
        <time>2016-09-25T14:19:07Z</time>
      </trkpt>
      <trkpt lat="45.31012" lon="6.10321">
        <ele>1680.4</ele>
        <time>2016-09-25T14:19:12Z</time>
      </trkpt>
      <trkpt lat="45.31002" lon="6.10319">
        <ele>1677.3</ele>
        <time>2016-09-25T14:19:17Z</time>
      </trkpt>
      <trkpt lat="45.31004" lon="6.10306">
        <ele>1667.7</ele>
        <time>2016-09-25T14:19:42Z</time>
      </trkpt>
      <trkpt lat="45.31013" lon="6.10295">
        <ele>1666.3</ele>
        <time>2016-09-25T14:19:45Z</time>
      </trkpt>
      <trkpt lat="45.3102" lon="6.10285">
        <ele>1664.2</ele>
        <time>2016-09-25T14:19:48Z</time>
      </trkpt>
      <trkpt lat="45.31026" lon="6.1027">
        <ele>1662</ele>
        <time>2016-09-25T14:19:51Z</time>
      </trkpt>
      <trkpt lat="45.31031" lon="6.10257">
        <ele>1659.8</ele>
        <time>2016-09-25T14:19:54Z</time>
      </trkpt>
      <trkpt lat="45.31034" lon="6.10245">
        <ele>1657.4</ele>
        <time>2016-09-25T14:19:57Z</time>
      </trkpt>
      <trkpt lat="45.31038" lon="6.10233">
        <ele>1655</ele>
        <time>2016-09-25T14:20:00Z</time>
      </trkpt>
      <trkpt lat="45.31044" lon="6.10219">
        <ele>1652.4</ele>
        <time>2016-09-25T14:20:03Z</time>
      </trkpt>
      <trkpt lat="45.31052" lon="6.1021">
        <ele>1649.8</ele>
        <time>2016-09-25T14:20:06Z</time>
      </trkpt>
      <trkpt lat="45.31061" lon="6.102">
        <ele>1646.4</ele>
        <time>2016-09-25T14:20:10Z</time>
      </trkpt>
      <trkpt lat="45.31069" lon="6.10193">
        <ele>1643.3</ele>
        <time>2016-09-25T14:20:14Z</time>
      </trkpt>
      <trkpt lat="45.31079" lon="6.10187">
        <ele>1632.6</ele>
        <time>2016-09-25T14:20:28Z</time>
      </trkpt>
      <trkpt lat="45.3109" lon="6.1018">
        <ele>1631.1</ele>
        <time>2016-09-25T14:20:32Z</time>
      </trkpt>
      <trkpt lat="45.311" lon="6.10175">
        <ele>1629.7</ele>
        <time>2016-09-25T14:20:36Z</time>
      </trkpt>
      <trkpt lat="45.31108" lon="6.10172">
        <ele>1628.5</ele>
        <time>2016-09-25T14:20:39Z</time>
      </trkpt>
      <trkpt lat="45.31122" lon="6.10169">
        <ele>1627</ele>
        <time>2016-09-25T14:20:42Z</time>
      </trkpt>
      <trkpt lat="45.31131" lon="6.10164">
        <ele>1626.2</ele>
        <time>2016-09-25T14:20:44Z</time>
      </trkpt>
      <trkpt lat="45.31143" lon="6.10161">
        <ele>1625.1</ele>
        <time>2016-09-25T14:20:47Z</time>
      </trkpt>
      <trkpt lat="45.31154" lon="6.10161">
        <ele>1624.2</ele>
        <time>2016-09-25T14:20:50Z</time>
      </trkpt>
      <trkpt lat="45.31164" lon="6.10163">
        <ele>1623.2</ele>
        <time>2016-09-25T14:20:53Z</time>
      </trkpt>
      <trkpt lat="45.31174" lon="6.10165">
        <ele>1622</ele>
        <time>2016-09-25T14:20:57Z</time>
      </trkpt>
      <trkpt lat="45.31181" lon="6.10176">
        <ele>1619.6</ele>
        <time>2016-09-25T14:21:08Z</time>
      </trkpt>
      <trkpt lat="45.31189" lon="6.10182">
        <ele>1618.6</ele>
        <time>2016-09-25T14:21:11Z</time>
      </trkpt>
      <trkpt lat="45.31199" lon="6.10183">
        <ele>1618</ele>
        <time>2016-09-25T14:21:13Z</time>
      </trkpt>
      <trkpt lat="45.31209" lon="6.10184">
        <ele>1617.5</ele>
        <time>2016-09-25T14:21:15Z</time>
      </trkpt>
      <trkpt lat="45.31218" lon="6.10182">
        <ele>1617</ele>
        <time>2016-09-25T14:21:17Z</time>
      </trkpt>
      <trkpt lat="45.31226" lon="6.10175">
        <ele>1616</ele>
        <time>2016-09-25T14:21:20Z</time>
      </trkpt>
      <trkpt lat="45.31232" lon="6.10159">
        <ele>1614.6</ele>
        <time>2016-09-25T14:21:24Z</time>
      </trkpt>
      <trkpt lat="45.31239" lon="6.10143">
        <ele>1613.4</ele>
        <time>2016-09-25T14:21:27Z</time>
      </trkpt>
      <trkpt lat="45.31246" lon="6.10133">
        <ele>1612.1</ele>
        <time>2016-09-25T14:21:29Z</time>
      </trkpt>
      <trkpt lat="45.31253" lon="6.10125">
        <ele>1610.9</ele>
        <time>2016-09-25T14:21:31Z</time>
      </trkpt>
      <trkpt lat="45.31263" lon="6.10116">
        <ele>1608.8</ele>
        <time>2016-09-25T14:21:34Z</time>
      </trkpt>
      <trkpt lat="45.31272" lon="6.10106">
        <ele>1606.7</ele>
        <time>2016-09-25T14:21:37Z</time>
      </trkpt>
      <trkpt lat="45.31283" lon="6.10095">
        <ele>1604.5</ele>
        <time>2016-09-25T14:21:40Z</time>
      </trkpt>
      <trkpt lat="45.31294" lon="6.10084">
        <ele>1602.1</ele>
        <time>2016-09-25T14:21:43Z</time>
      </trkpt>
      <trkpt lat="45.31302" lon="6.10074">
        <ele>1599.7</ele>
        <time>2016-09-25T14:21:46Z</time>
      </trkpt>
      <trkpt lat="45.31311" lon="6.10063">
        <ele>1597.5</ele>
        <time>2016-09-25T14:21:49Z</time>
      </trkpt>
      <trkpt lat="45.3132" lon="6.10054">
        <ele>1595.1</ele>
        <time>2016-09-25T14:21:52Z</time>
      </trkpt>
      <trkpt lat="45.31328" lon="6.10046">
        <ele>1592.2</ele>
        <time>2016-09-25T14:21:55Z</time>
      </trkpt>
      <trkpt lat="45.31325" lon="6.10032">
        <ele>1582.5</ele>
        <time>2016-09-25T14:22:10Z</time>
      </trkpt>
      <trkpt lat="45.31333" lon="6.10023">
        <ele>1579.6</ele>
        <time>2016-09-25T14:22:15Z</time>
      </trkpt>
      <trkpt lat="45.31342" lon="6.10019">
        <ele>1577.1</ele>
        <time>2016-09-25T14:22:19Z</time>
      </trkpt>
      <trkpt lat="45.31349" lon="6.10009">
        <ele>1567.9</ele>
        <time>2016-09-25T14:22:49Z</time>
      </trkpt>
      <trkpt lat="45.31356" lon="6.09999">
        <ele>1564.5</ele>
        <time>2016-09-25T14:22:57Z</time>
      </trkpt>
      <trkpt lat="45.31363" lon="6.0999">
        <ele>1561.7</ele>
        <time>2016-09-25T14:23:03Z</time>
      </trkpt>
      <trkpt lat="45.31366" lon="6.09977">
        <ele>1558.2</ele>
        <time>2016-09-25T14:23:09Z</time>
      </trkpt>
      <trkpt lat="45.31371" lon="6.09963">
        <ele>1555.5</ele>
        <time>2016-09-25T14:23:14Z</time>
      </trkpt>
      <trkpt lat="45.31378" lon="6.09954">
        <ele>1553.2</ele>
        <time>2016-09-25T14:23:18Z</time>
      </trkpt>
      <trkpt lat="45.31392" lon="6.09949">
        <ele>1551.4</ele>
        <time>2016-09-25T14:23:21Z</time>
      </trkpt>
      <trkpt lat="45.31387" lon="6.09938">
        <ele>1547.7</ele>
        <time>2016-09-25T14:23:27Z</time>
      </trkpt>
      <trkpt lat="45.31391" lon="6.09926">
        <ele>1541.1</ele>
        <time>2016-09-25T14:23:38Z</time>
      </trkpt>
      <trkpt lat="45.31383" lon="6.09917">
        <ele>1537.6</ele>
        <time>2016-09-25T14:23:44Z</time>
      </trkpt>
      <trkpt lat="45.31377" lon="6.09907">
        <ele>1534.4</ele>
        <time>2016-09-25T14:23:49Z</time>
      </trkpt>
      <trkpt lat="45.31383" lon="6.09898">
        <ele>1530.6</ele>
        <time>2016-09-25T14:23:55Z</time>
      </trkpt>
      <trkpt lat="45.31376" lon="6.09889">
        <ele>1527</ele>
        <time>2016-09-25T14:24:01Z</time>
      </trkpt>
      <trkpt lat="45.31368" lon="6.0988">
        <ele>1524.2</ele>
        <time>2016-09-25T14:24:06Z</time>
      </trkpt>
      <trkpt lat="45.3136" lon="6.09874">
        <ele>1521.4</ele>
        <time>2016-09-25T14:24:11Z</time>
      </trkpt>
      <trkpt lat="45.31351" lon="6.09869">
        <ele>1518.8</ele>
        <time>2016-09-25T14:24:15Z</time>
      </trkpt>
      <trkpt lat="45.3135" lon="6.09855">
        <ele>1512</ele>
        <time>2016-09-25T14:24:29Z</time>
      </trkpt>
      <trkpt lat="45.31359" lon="6.0985">
        <ele>1508.3</ele>
        <time>2016-09-25T14:24:40Z</time>
      </trkpt>
      <trkpt lat="45.31352" lon="6.09839">
        <ele>1505.1</ele>
        <time>2016-09-25T14:24:52Z</time>
      </trkpt>
      <trkpt lat="45.31348" lon="6.09827">
        <ele>1502.1</ele>
        <time>2016-09-25T14:24:59Z</time>
      </trkpt>
      <trkpt lat="45.31341" lon="6.09818">
        <ele>1497.5</ele>
        <time>2016-09-25T14:25:08Z</time>
      </trkpt>
      <trkpt lat="45.31334" lon="6.09809">
        <ele>1494.2</ele>
        <time>2016-09-25T14:25:14Z</time>
      </trkpt>
      <trkpt lat="45.31338" lon="6.09798">
        <ele>1489.3</ele>
        <time>2016-09-25T14:25:22Z</time>
      </trkpt>
      <trkpt lat="45.31334" lon="6.09786">
        <ele>1482.8</ele>
        <time>2016-09-25T14:25:33Z</time>
      </trkpt>
      <trkpt lat="45.31331" lon="6.09774">
        <ele>1478.7</ele>
        <time>2016-09-25T14:25:40Z</time>
      </trkpt>
      <trkpt lat="45.3133" lon="6.0976">
        <ele>1472.5</ele>
        <time>2016-09-25T14:25:51Z</time>
      </trkpt>
      <trkpt lat="45.31326" lon="6.09747">
        <ele>1467.8</ele>
        <time>2016-09-25T14:25:59Z</time>
      </trkpt>
      <trkpt lat="45.31334" lon="6.09742">
        <ele>1461.6</ele>
        <time>2016-09-25T14:26:08Z</time>
      </trkpt>
      <trkpt lat="45.31336" lon="6.09728">
        <ele>1457.3</ele>
        <time>2016-09-25T14:26:19Z</time>
      </trkpt>
      <trkpt lat="45.31337" lon="6.09715">
        <ele>1453.2</ele>
        <time>2016-09-25T14:26:27Z</time>
      </trkpt>
      <trkpt lat="45.31346" lon="6.0971">
        <ele>1450.2</ele>
        <time>2016-09-25T14:26:32Z</time>
      </trkpt>
      <trkpt lat="45.31343" lon="6.09697">
        <ele>1443.2</ele>
        <time>2016-09-25T14:26:44Z</time>
      </trkpt>
      <trkpt lat="45.31352" lon="6.09689">
        <ele>1438.5</ele>
        <time>2016-09-25T14:26:54Z</time>
      </trkpt>
      <trkpt lat="45.3136" lon="6.09684">
        <ele>1433.2</ele>
        <time>2016-09-25T14:27:09Z</time>
      </trkpt>
      <trkpt lat="45.31359" lon="6.09671">
        <ele>1429.8</ele>
        <time>2016-09-25T14:27:20Z</time>
      </trkpt>
      <trkpt lat="45.3135" lon="6.09662">
        <ele>1427.1</ele>
        <time>2016-09-25T14:27:28Z</time>
      </trkpt>
      <trkpt lat="45.31358" lon="6.09652">
        <ele>1420.6</ele>
        <time>2016-09-25T14:27:54Z</time>
      </trkpt>
      <trkpt lat="45.31366" lon="6.09644">
        <ele>1418.9</ele>
        <time>2016-09-25T14:28:00Z</time>
      </trkpt>
      <trkpt lat="45.3136" lon="6.09632">
        <ele>1416.6</ele>
        <time>2016-09-25T14:28:07Z</time>
      </trkpt>
      <trkpt lat="45.31353" lon="6.09621">
        <ele>1414.6</ele>
        <time>2016-09-25T14:28:12Z</time>
      </trkpt>
      <trkpt lat="45.31348" lon="6.0961">
        <ele>1411.6</ele>
        <time>2016-09-25T14:28:19Z</time>
      </trkpt>
      <trkpt lat="45.31341" lon="6.09603">
        <ele>1408.9</ele>
        <time>2016-09-25T14:28:25Z</time>
      </trkpt>
      <trkpt lat="45.31346" lon="6.09592">
        <ele>1404.2</ele>
        <time>2016-09-25T14:28:38Z</time>
      </trkpt>
      <trkpt lat="45.31345" lon="6.09578">
        <ele>1400.9</ele>
        <time>2016-09-25T14:28:47Z</time>
      </trkpt>
      <trkpt lat="45.31346" lon="6.09564">
        <ele>1397.5</ele>
        <time>2016-09-25T14:28:54Z</time>
      </trkpt>
      <trkpt lat="45.31337" lon="6.09559">
        <ele>1393.9</ele>
        <time>2016-09-25T14:29:03Z</time>
      </trkpt>
      <trkpt lat="45.31333" lon="6.09547">
        <ele>1390.7</ele>
        <time>2016-09-25T14:29:19Z</time>
      </trkpt>
      <trkpt lat="45.31326" lon="6.09538">
        <ele>1389.7</ele>
        <time>2016-09-25T14:29:22Z</time>
      </trkpt>
      <trkpt lat="45.31318" lon="6.09531">
        <ele>1388.7</ele>
        <time>2016-09-25T14:29:25Z</time>
      </trkpt>
      <trkpt lat="45.3131" lon="6.09523">
        <ele>1387.1</ele>
        <time>2016-09-25T14:29:29Z</time>
      </trkpt>
      <trkpt lat="45.31299" lon="6.09517">
        <ele>1385.4</ele>
        <time>2016-09-25T14:29:33Z</time>
      </trkpt>
      <trkpt lat="45.31289" lon="6.09516">
        <ele>1383.7</ele>
        <time>2016-09-25T14:29:37Z</time>
      </trkpt>
      <trkpt lat="45.31279" lon="6.09515">
        <ele>1381.4</ele>
        <time>2016-09-25T14:29:42Z</time>
      </trkpt>
      <trkpt lat="45.31271" lon="6.09506">
        <ele>1375.5</ele>
        <time>2016-09-25T14:29:58Z</time>
      </trkpt>
      <trkpt lat="45.31262" lon="6.09504">
        <ele>1374.3</ele>
        <time>2016-09-25T14:30:02Z</time>
      </trkpt>
      <trkpt lat="45.31253" lon="6.09499">
        <ele>1373.1</ele>
        <time>2016-09-25T14:30:05Z</time>
      </trkpt>
      <trkpt lat="45.31244" lon="6.09494">
        <ele>1371.8</ele>
        <time>2016-09-25T14:30:08Z</time>
      </trkpt>
      <trkpt lat="45.31235" lon="6.0949">
        <ele>1370.5</ele>
        <time>2016-09-25T14:30:11Z</time>
      </trkpt>
      <trkpt lat="45.31226" lon="6.09487">
        <ele>1369</ele>
        <time>2016-09-25T14:30:14Z</time>
      </trkpt>
      <trkpt lat="45.31218" lon="6.09479">
        <ele>1366.8</ele>
        <time>2016-09-25T14:30:18Z</time>
      </trkpt>
      <trkpt lat="45.31211" lon="6.09471">
        <ele>1358.8</ele>
        <time>2016-09-25T14:30:42Z</time>
      </trkpt>
      <trkpt lat="45.31202" lon="6.09471">
        <ele>1355.7</ele>
        <time>2016-09-25T14:30:55Z</time>
      </trkpt>
      <trkpt lat="45.31197" lon="6.09461">
        <ele>1351.5</ele>
        <time>2016-09-25T14:31:10Z</time>
      </trkpt>
      <trkpt lat="45.31187" lon="6.09456">
        <ele>1347.4</ele>
        <time>2016-09-25T14:31:17Z</time>
      </trkpt>
      <trkpt lat="45.31179" lon="6.09448">
        <ele>1337.2</ele>
        <time>2016-09-25T14:31:51Z</time>
      </trkpt>
      <trkpt lat="45.31172" lon="6.09438">
        <ele>1333.8</ele>
        <time>2016-09-25T14:32:00Z</time>
      </trkpt>
      <trkpt lat="45.31163" lon="6.09434">
        <ele>1331.2</ele>
        <time>2016-09-25T14:32:06Z</time>
      </trkpt>
      <trkpt lat="45.31154" lon="6.09427">
        <ele>1329.2</ele>
        <time>2016-09-25T14:32:10Z</time>
      </trkpt>
      <trkpt lat="45.31147" lon="6.09416">
        <ele>1322</ele>
        <time>2016-09-25T14:32:30Z</time>
      </trkpt>
      <trkpt lat="45.31144" lon="6.09401">
        <ele>1319.9</ele>
        <time>2016-09-25T14:32:36Z</time>
      </trkpt>
      <trkpt lat="45.3114" lon="6.09386">
        <ele>1317.6</ele>
        <time>2016-09-25T14:32:41Z</time>
      </trkpt>
      <trkpt lat="45.31137" lon="6.09372">
        <ele>1315.3</ele>
        <time>2016-09-25T14:32:44Z</time>
      </trkpt>
      <trkpt lat="45.31134" lon="6.0936">
        <ele>1312.1</ele>
        <time>2016-09-25T14:32:48Z</time>
      </trkpt>
      <trkpt lat="45.31135" lon="6.09347">
        <ele>1309.5</ele>
        <time>2016-09-25T14:32:52Z</time>
      </trkpt>
      <trkpt lat="45.31132" lon="6.09334">
        <ele>1306.8</ele>
        <time>2016-09-25T14:32:57Z</time>
      </trkpt>
      <trkpt lat="45.31134" lon="6.09319">
        <ele>1304.7</ele>
        <time>2016-09-25T14:33:01Z</time>
      </trkpt>
      <trkpt lat="45.31131" lon="6.09306">
        <ele>1302.3</ele>
        <time>2016-09-25T14:33:05Z</time>
      </trkpt>
      <trkpt lat="45.31126" lon="6.09292">
        <ele>1299.7</ele>
        <time>2016-09-25T14:33:10Z</time>
      </trkpt>
      <trkpt lat="45.31123" lon="6.0928">
        <ele>1298.2</ele>
        <time>2016-09-25T14:33:14Z</time>
      </trkpt>
      <trkpt lat="45.3112" lon="6.09265">
        <ele>1295.1</ele>
        <time>2016-09-25T14:33:20Z</time>
      </trkpt>
      <trkpt lat="45.31115" lon="6.09252">
        <ele>1292.5</ele>
        <time>2016-09-25T14:33:24Z</time>
      </trkpt>
      <trkpt lat="45.31113" lon="6.09237">
        <ele>1290.4</ele>
        <time>2016-09-25T14:33:28Z</time>
      </trkpt>
      <trkpt lat="45.31112" lon="6.09222">
        <ele>1287.5</ele>
        <time>2016-09-25T14:33:33Z</time>
      </trkpt>
      <trkpt lat="45.31104" lon="6.09215">
        <ele>1280.9</ele>
        <time>2016-09-25T14:33:44Z</time>
      </trkpt>
      <trkpt lat="45.31102" lon="6.09201">
        <ele>1277.6</ele>
        <time>2016-09-25T14:33:50Z</time>
      </trkpt>
      <trkpt lat="45.31094" lon="6.09193">
        <ele>1273.6</ele>
        <time>2016-09-25T14:33:57Z</time>
      </trkpt>
      <trkpt lat="45.31085" lon="6.09192">
        <ele>1269.4</ele>
        <time>2016-09-25T14:34:04Z</time>
      </trkpt>
      <trkpt lat="45.3108" lon="6.0918">
        <ele>1266.4</ele>
        <time>2016-09-25T14:34:09Z</time>
      </trkpt>
      <trkpt lat="45.31071" lon="6.09175">
        <ele>1261.9</ele>
        <time>2016-09-25T14:34:16Z</time>
      </trkpt>
      <trkpt lat="45.31067" lon="6.0916">
        <ele>1258.3</ele>
        <time>2016-09-25T14:34:21Z</time>
      </trkpt>
      <trkpt lat="45.31061" lon="6.09145">
        <ele>1256.3</ele>
        <time>2016-09-25T14:34:24Z</time>
      </trkpt>
      <trkpt lat="45.31058" lon="6.0913">
        <ele>1253.6</ele>
        <time>2016-09-25T14:34:29Z</time>
      </trkpt>
      <trkpt lat="45.31054" lon="6.09115">
        <ele>1252.1</ele>
        <time>2016-09-25T14:34:33Z</time>
      </trkpt>
      <trkpt lat="45.31055" lon="6.09099">
        <ele>1250.2</ele>
        <time>2016-09-25T14:34:38Z</time>
      </trkpt>
      <trkpt lat="45.31063" lon="6.09092">
        <ele>1248.7</ele>
        <time>2016-09-25T14:34:42Z</time>
      </trkpt>
      <trkpt lat="45.31067" lon="6.09078">
        <ele>1245.1</ele>
        <time>2016-09-25T14:34:51Z</time>
      </trkpt>
      <trkpt lat="45.31062" lon="6.09064">
        <ele>1242.2</ele>
        <time>2016-09-25T14:34:58Z</time>
      </trkpt>
      <trkpt lat="45.31061" lon="6.09051">
        <ele>1240.3</ele>
        <time>2016-09-25T14:35:02Z</time>
      </trkpt>
      <trkpt lat="45.31056" lon="6.09037">
        <ele>1237.7</ele>
        <time>2016-09-25T14:35:07Z</time>
      </trkpt>
      <trkpt lat="45.31054" lon="6.09023">
        <ele>1235.2</ele>
        <time>2016-09-25T14:35:11Z</time>
      </trkpt>
      <trkpt lat="45.31048" lon="6.0901">
        <ele>1232.2</ele>
        <time>2016-09-25T14:35:15Z</time>
      </trkpt>
      <trkpt lat="45.31042" lon="6.08999">
        <ele>1230.4</ele>
        <time>2016-09-25T14:35:17Z</time>
      </trkpt>
      <trkpt lat="45.31034" lon="6.08985">
        <ele>1227.7</ele>
        <time>2016-09-25T14:35:20Z</time>
      </trkpt>
      <trkpt lat="45.31025" lon="6.08979">
        <ele>1225.3</ele>
        <time>2016-09-25T14:35:23Z</time>
      </trkpt>
      <trkpt lat="45.31018" lon="6.08968">
        <ele>1221</ele>
        <time>2016-09-25T14:35:28Z</time>
      </trkpt>
      <trkpt lat="45.31014" lon="6.08956">
        <ele>1217.9</ele>
        <time>2016-09-25T14:35:32Z</time>
      </trkpt>
      <trkpt lat="45.31009" lon="6.08943">
        <ele>1214.9</ele>
        <time>2016-09-25T14:35:36Z</time>
      </trkpt>
      <trkpt lat="45.31004" lon="6.08931">
        <ele>1210.7</ele>
        <time>2016-09-25T14:35:41Z</time>
      </trkpt>
      <trkpt lat="45.31004" lon="6.08918">
        <ele>1208.2</ele>
        <time>2016-09-25T14:35:45Z</time>
      </trkpt>
      <trkpt lat="45.31002" lon="6.08903">
        <ele>1205.5</ele>
        <time>2016-09-25T14:35:49Z</time>
      </trkpt>
      <trkpt lat="45.30998" lon="6.0889">
        <ele>1202.4</ele>
        <time>2016-09-25T14:35:53Z</time>
      </trkpt>
      <trkpt lat="45.30993" lon="6.08876">
        <ele>1199.4</ele>
        <time>2016-09-25T14:35:57Z</time>
      </trkpt>
      <trkpt lat="45.30994" lon="6.08862">
        <ele>1195.9</ele>
        <time>2016-09-25T14:36:01Z</time>
      </trkpt>
      <trkpt lat="45.30993" lon="6.08848">
        <ele>1190.6</ele>
        <time>2016-09-25T14:36:08Z</time>
      </trkpt>
      <trkpt lat="45.30983" lon="6.08847">
        <ele>1187.4</ele>
        <time>2016-09-25T14:36:13Z</time>
      </trkpt>
      <trkpt lat="45.30971" lon="6.08849">
        <ele>1183.8</ele>
        <time>2016-09-25T14:36:18Z</time>
      </trkpt>
      <trkpt lat="45.30963" lon="6.08841">
        <ele>1180.2</ele>
        <time>2016-09-25T14:36:23Z</time>
      </trkpt>
      <trkpt lat="45.30955" lon="6.08834">
        <ele>1176.9</ele>
        <time>2016-09-25T14:36:27Z</time>
      </trkpt>
      <trkpt lat="45.30951" lon="6.08822">
        <ele>1173.8</ele>
        <time>2016-09-25T14:36:31Z</time>
      </trkpt>
      <trkpt lat="45.3095" lon="6.08807">
        <ele>1170.5</ele>
        <time>2016-09-25T14:36:35Z</time>
      </trkpt>
      <trkpt lat="45.30947" lon="6.08793">
        <ele>1166.9</ele>
        <time>2016-09-25T14:36:39Z</time>
      </trkpt>
      <trkpt lat="45.30957" lon="6.0879">
        <ele>1162.3</ele>
        <time>2016-09-25T14:36:45Z</time>
      </trkpt>
      <trkpt lat="45.3095" lon="6.08778">
        <ele>1155.7</ele>
        <time>2016-09-25T14:36:58Z</time>
      </trkpt>
      <trkpt lat="45.30941" lon="6.08774">
        <ele>1154.2</ele>
        <time>2016-09-25T14:37:02Z</time>
      </trkpt>
      <trkpt lat="45.30935" lon="6.08786">
        <ele>1151.4</ele>
        <time>2016-09-25T14:37:12Z</time>
      </trkpt>
      <trkpt lat="45.30933" lon="6.088">
        <ele>1150.5</ele>
        <time>2016-09-25T14:37:15Z</time>
      </trkpt>
      <trkpt lat="45.30932" lon="6.08814">
        <ele>1149.7</ele>
        <time>2016-09-25T14:37:17Z</time>
      </trkpt>
      <trkpt lat="45.3093" lon="6.0883">
        <ele>1149</ele>
        <time>2016-09-25T14:37:19Z</time>
      </trkpt>
      <trkpt lat="45.30929" lon="6.08845">
        <ele>1148.2</ele>
        <time>2016-09-25T14:37:21Z</time>
      </trkpt>
      <trkpt lat="45.30927" lon="6.08859">
        <ele>1146.8</ele>
        <time>2016-09-25T14:37:24Z</time>
      </trkpt>
      <trkpt lat="45.30921" lon="6.08872">
        <ele>1145</ele>
        <time>2016-09-25T14:37:28Z</time>
      </trkpt>
      <trkpt lat="45.30913" lon="6.08877">
        <ele>1143.7</ele>
        <time>2016-09-25T14:37:31Z</time>
      </trkpt>
      <trkpt lat="45.30904" lon="6.08873">
        <ele>1142.3</ele>
        <time>2016-09-25T14:37:34Z</time>
      </trkpt>
      <trkpt lat="45.30895" lon="6.08867">
        <ele>1137.6</ele>
        <time>2016-09-25T14:37:50Z</time>
      </trkpt>
      <trkpt lat="45.30887" lon="6.08859">
        <ele>1137</ele>
        <time>2016-09-25T14:37:53Z</time>
      </trkpt>
      <trkpt lat="45.30878" lon="6.08851">
        <ele>1136</ele>
        <time>2016-09-25T14:37:57Z</time>
      </trkpt>
      <trkpt lat="45.3087" lon="6.08839">
        <ele>1134</ele>
        <time>2016-09-25T14:38:01Z</time>
      </trkpt>
      <trkpt lat="45.30861" lon="6.08829">
        <ele>1132.6</ele>
        <time>2016-09-25T14:38:06Z</time>
      </trkpt>
      <trkpt lat="45.30852" lon="6.08823">
        <ele>1131.6</ele>
        <time>2016-09-25T14:38:10Z</time>
      </trkpt>
      <trkpt lat="45.3085" lon="6.08808">
        <ele>1130.1</ele>
        <time>2016-09-25T14:38:18Z</time>
      </trkpt>
      <trkpt lat="45.30855" lon="6.08797">
        <ele>1128.8</ele>
        <time>2016-09-25T14:38:22Z</time>
      </trkpt>
      <trkpt lat="45.30858" lon="6.08782">
        <ele>1127.1</ele>
        <time>2016-09-25T14:38:26Z</time>
      </trkpt>
      <trkpt lat="45.3086" lon="6.08769">
        <ele>1124.9</ele>
        <time>2016-09-25T14:38:31Z</time>
      </trkpt>
      <trkpt lat="45.30865" lon="6.08759">
        <ele>1122.5</ele>
        <time>2016-09-25T14:38:36Z</time>
      </trkpt>
      <trkpt lat="45.30867" lon="6.08743">
        <ele>1120.1</ele>
        <time>2016-09-25T14:38:41Z</time>
      </trkpt>
      <trkpt lat="45.30866" lon="6.08731">
        <ele>1118.6</ele>
        <time>2016-09-25T14:38:45Z</time>
      </trkpt>
      <trkpt lat="45.30865" lon="6.08716">
        <ele>1114</ele>
        <time>2016-09-25T14:39:00Z</time>
      </trkpt>
      <trkpt lat="45.30868" lon="6.08703">
        <ele>1112.9</ele>
        <time>2016-09-25T14:39:04Z</time>
      </trkpt>
      <trkpt lat="45.30873" lon="6.08693">
        <ele>1110.2</ele>
        <time>2016-09-25T14:39:15Z</time>
      </trkpt>
      <trkpt lat="45.30875" lon="6.0868">
        <ele>1109.2</ele>
        <time>2016-09-25T14:39:20Z</time>
      </trkpt>
      <trkpt lat="45.30874" lon="6.08666">
        <ele>1108.1</ele>
        <time>2016-09-25T14:39:24Z</time>
      </trkpt>
      <trkpt lat="45.3087" lon="6.08654">
        <ele>1106.4</ele>
        <time>2016-09-25T14:39:29Z</time>
      </trkpt>
      <trkpt lat="45.30867" lon="6.08641">
        <ele>1104.2</ele>
        <time>2016-09-25T14:39:36Z</time>
      </trkpt>
      <trkpt lat="45.30862" lon="6.08628">
        <ele>1101.9</ele>
        <time>2016-09-25T14:39:45Z</time>
      </trkpt>
      <trkpt lat="45.30855" lon="6.08616">
        <ele>1100.5</ele>
        <time>2016-09-25T14:39:48Z</time>
      </trkpt>
      <trkpt lat="45.3085" lon="6.08605">
        <ele>1099.6</ele>
        <time>2016-09-25T14:39:50Z</time>
      </trkpt>
      <trkpt lat="45.30845" lon="6.08594">
        <ele>1098.4</ele>
        <time>2016-09-25T14:39:52Z</time>
      </trkpt>
      <trkpt lat="45.3084" lon="6.08584">
        <ele>1096.9</ele>
        <time>2016-09-25T14:39:55Z</time>
      </trkpt>
      <trkpt lat="45.30839" lon="6.08571">
        <ele>1091.5</ele>
        <time>2016-09-25T14:40:09Z</time>
      </trkpt>
      <trkpt lat="45.30846" lon="6.08583">
        <ele>1089.3</ele>
        <time>2016-09-25T14:40:27Z</time>
      </trkpt>
      <trkpt lat="45.30853" lon="6.08595">
        <ele>1089.6</ele>
        <time>2016-09-25T14:40:32Z</time>
      </trkpt>
      <trkpt lat="45.30862" lon="6.08601">
        <ele>1090</ele>
        <time>2016-09-25T14:40:37Z</time>
      </trkpt>
      <trkpt lat="45.30871" lon="6.08604">
        <ele>1090.4</ele>
        <time>2016-09-25T14:40:41Z</time>
      </trkpt>
      <trkpt lat="45.30882" lon="6.08608">
        <ele>1091</ele>
        <time>2016-09-25T14:40:45Z</time>
      </trkpt>
      <trkpt lat="45.30891" lon="6.08603">
        <ele>1091.8</ele>
        <time>2016-09-25T14:40:50Z</time>
      </trkpt>
      <trkpt lat="45.30893" lon="6.08589">
        <ele>1091.8</ele>
        <time>2016-09-25T14:40:53Z</time>
      </trkpt>
      <trkpt lat="45.30894" lon="6.08576">
        <ele>1091.3</ele>
        <time>2016-09-25T14:40:55Z</time>
      </trkpt>
      <trkpt lat="45.30896" lon="6.08559">
        <ele>1090.4</ele>
        <time>2016-09-25T14:40:58Z</time>
      </trkpt>
      <trkpt lat="45.30897" lon="6.08546">
        <ele>1089.3</ele>
        <time>2016-09-25T14:41:01Z</time>
      </trkpt>
      <trkpt lat="45.30899" lon="6.0853">
        <ele>1087.4</ele>
        <time>2016-09-25T14:41:05Z</time>
      </trkpt>
      <trkpt lat="45.30902" lon="6.08516">
        <ele>1085.8</ele>
        <time>2016-09-25T14:41:08Z</time>
      </trkpt>
      <trkpt lat="45.30904" lon="6.08503">
        <ele>1084.5</ele>
        <time>2016-09-25T14:41:11Z</time>
      </trkpt>
      <trkpt lat="45.3091" lon="6.08491">
        <ele>1083.3</ele>
        <time>2016-09-25T14:41:14Z</time>
      </trkpt>
      <trkpt lat="45.30916" lon="6.08479">
        <ele>1081.5</ele>
        <time>2016-09-25T14:41:18Z</time>
      </trkpt>
      <trkpt lat="45.3092" lon="6.08468">
        <ele>1079</ele>
        <time>2016-09-25T14:41:23Z</time>
      </trkpt>
      <trkpt lat="45.3092" lon="6.08454">
        <ele>1076.7</ele>
        <time>2016-09-25T14:41:27Z</time>
      </trkpt>
      <trkpt lat="45.30924" lon="6.08442">
        <ele>1075.1</ele>
        <time>2016-09-25T14:41:30Z</time>
      </trkpt>
      <trkpt lat="45.30931" lon="6.08432">
        <ele>1073.2</ele>
        <time>2016-09-25T14:41:33Z</time>
      </trkpt>
      <trkpt lat="45.30938" lon="6.08419">
        <ele>1071</ele>
        <time>2016-09-25T14:41:37Z</time>
      </trkpt>
      <trkpt lat="45.30942" lon="6.08407">
        <ele>1069.1</ele>
        <time>2016-09-25T14:41:40Z</time>
      </trkpt>
      <trkpt lat="45.30946" lon="6.08395">
        <ele>1066.7</ele>
        <time>2016-09-25T14:41:44Z</time>
      </trkpt>
      <trkpt lat="45.30953" lon="6.08387">
        <ele>1064.4</ele>
        <time>2016-09-25T14:41:48Z</time>
      </trkpt>
      <trkpt lat="45.3096" lon="6.08376">
        <ele>1061.4</ele>
        <time>2016-09-25T14:41:52Z</time>
      </trkpt>
      <trkpt lat="45.30968" lon="6.08363">
        <ele>1058.8</ele>
        <time>2016-09-25T14:41:56Z</time>
      </trkpt>
      <trkpt lat="45.30975" lon="6.0835">
        <ele>1056.8</ele>
        <time>2016-09-25T14:41:59Z</time>
      </trkpt>
      <trkpt lat="45.30984" lon="6.08339">
        <ele>1055</ele>
        <time>2016-09-25T14:42:02Z</time>
      </trkpt>
      <trkpt lat="45.30992" lon="6.08324">
        <ele>1053.1</ele>
        <time>2016-09-25T14:42:05Z</time>
      </trkpt>
      <trkpt lat="45.30997" lon="6.0831">
        <ele>1051</ele>
        <time>2016-09-25T14:42:08Z</time>
      </trkpt>
      <trkpt lat="45.31001" lon="6.08298">
        <ele>1049.4</ele>
        <time>2016-09-25T14:42:10Z</time>
      </trkpt>
      <trkpt lat="45.31004" lon="6.08281">
        <ele>1047.3</ele>
        <time>2016-09-25T14:42:13Z</time>
      </trkpt>
      <trkpt lat="45.31009" lon="6.08269">
        <ele>1045.7</ele>
        <time>2016-09-25T14:42:15Z</time>
      </trkpt>
      <trkpt lat="45.31019" lon="6.08263">
        <ele>1041.2</ele>
        <time>2016-09-25T14:42:23Z</time>
      </trkpt>
      <trkpt lat="45.31025" lon="6.0825">
        <ele>1040</ele>
        <time>2016-09-25T14:42:25Z</time>
      </trkpt>
      <trkpt lat="45.31034" lon="6.08233">
        <ele>1038.5</ele>
        <time>2016-09-25T14:42:27Z</time>
      </trkpt>
      <trkpt lat="45.31043" lon="6.08216">
        <ele>1037</ele>
        <time>2016-09-25T14:42:29Z</time>
      </trkpt>
      <trkpt lat="45.3105" lon="6.082">
        <ele>1035.6</ele>
        <time>2016-09-25T14:42:31Z</time>
      </trkpt>
      <trkpt lat="45.31054" lon="6.08185">
        <ele>1034</ele>
        <time>2016-09-25T14:42:33Z</time>
      </trkpt>
      <trkpt lat="45.31058" lon="6.08171">
        <ele>1031.7</ele>
        <time>2016-09-25T14:42:36Z</time>
      </trkpt>
      <trkpt lat="45.31066" lon="6.08161">
        <ele>1028.5</ele>
        <time>2016-09-25T14:42:40Z</time>
      </trkpt>
      <trkpt lat="45.31077" lon="6.08168">
        <ele>1026.5</ele>
        <time>2016-09-25T14:42:43Z</time>
      </trkpt>
      <trkpt lat="45.31087" lon="6.08179">
        <ele>1024.9</ele>
        <time>2016-09-25T14:42:46Z</time>
      </trkpt>
      <trkpt lat="45.31095" lon="6.08188">
        <ele>1023.8</ele>
        <time>2016-09-25T14:42:48Z</time>
      </trkpt>
      <trkpt lat="45.31104" lon="6.08197">
        <ele>1022.8</ele>
        <time>2016-09-25T14:42:50Z</time>
      </trkpt>
      <trkpt lat="45.31114" lon="6.08204">
        <ele>1021.8</ele>
        <time>2016-09-25T14:42:52Z</time>
      </trkpt>
      <trkpt lat="45.31125" lon="6.08211">
        <ele>1021</ele>
        <time>2016-09-25T14:42:54Z</time>
      </trkpt>
      <trkpt lat="45.31138" lon="6.08216">
        <ele>1020.1</ele>
        <time>2016-09-25T14:42:56Z</time>
      </trkpt>
      <trkpt lat="45.3115" lon="6.0822">
        <ele>1019.3</ele>
        <time>2016-09-25T14:42:58Z</time>
      </trkpt>
      <trkpt lat="45.31164" lon="6.08226">
        <ele>1018.4</ele>
        <time>2016-09-25T14:43:00Z</time>
      </trkpt>
      <trkpt lat="45.31177" lon="6.0823">
        <ele>1017.4</ele>
        <time>2016-09-25T14:43:02Z</time>
      </trkpt>
      <trkpt lat="45.31189" lon="6.08235">
        <ele>1016.4</ele>
        <time>2016-09-25T14:43:04Z</time>
      </trkpt>
      <trkpt lat="45.31199" lon="6.0824">
        <ele>1015.5</ele>
        <time>2016-09-25T14:43:06Z</time>
      </trkpt>
      <trkpt lat="45.31207" lon="6.08245">
        <ele>1014.5</ele>
        <time>2016-09-25T14:43:08Z</time>
      </trkpt>
      <trkpt lat="45.31216" lon="6.08255">
        <ele>1013.6</ele>
        <time>2016-09-25T14:43:10Z</time>
      </trkpt>
      <trkpt lat="45.31225" lon="6.08264">
        <ele>1012.6</ele>
        <time>2016-09-25T14:43:12Z</time>
      </trkpt>
      <trkpt lat="45.31233" lon="6.0827">
        <ele>1003.5</ele>
        <time>2016-09-25T14:44:48Z</time>
      </trkpt>
      <trkpt lat="45.3124" lon="6.08278">
        <ele>1003.4</ele>
        <time>2016-09-25T14:44:52Z</time>
      </trkpt>
      <trkpt lat="45.31253" lon="6.08283">
        <ele>1003.1</ele>
        <time>2016-09-25T14:44:55Z</time>
      </trkpt>
      <trkpt lat="45.31262" lon="6.08288">
        <ele>1002.7</ele>
        <time>2016-09-25T14:44:57Z</time>
      </trkpt>
      <trkpt lat="45.31274" lon="6.08293">
        <ele>1002.4</ele>
        <time>2016-09-25T14:44:59Z</time>
      </trkpt>
      <trkpt lat="45.31288" lon="6.08296">
        <ele>1001.9</ele>
        <time>2016-09-25T14:45:01Z</time>
      </trkpt>
      <trkpt lat="45.31302" lon="6.08295">
        <ele>1001.1</ele>
        <time>2016-09-25T14:45:03Z</time>
      </trkpt>
      <trkpt lat="45.31317" lon="6.08295">
        <ele>1000.3</ele>
        <time>2016-09-25T14:45:05Z</time>
      </trkpt>
      <trkpt lat="45.31333" lon="6.08298">
        <ele>999.5</ele>
        <time>2016-09-25T14:45:07Z</time>
      </trkpt>
      <trkpt lat="45.31341" lon="6.08303">
        <ele>999</ele>
        <time>2016-09-25T14:45:08Z</time>
      </trkpt>
      <trkpt lat="45.31356" lon="6.08314">
        <ele>998</ele>
        <time>2016-09-25T14:45:10Z</time>
      </trkpt>
      <trkpt lat="45.31367" lon="6.08326">
        <ele>997</ele>
        <time>2016-09-25T14:45:12Z</time>
      </trkpt>
      <trkpt lat="45.31378" lon="6.08339">
        <ele>996</ele>
        <time>2016-09-25T14:45:14Z</time>
      </trkpt>
      <trkpt lat="45.31391" lon="6.08348">
        <ele>995</ele>
        <time>2016-09-25T14:45:16Z</time>
      </trkpt>
      <trkpt lat="45.31402" lon="6.08357">
        <ele>993.9</ele>
        <time>2016-09-25T14:45:18Z</time>
      </trkpt>
      <trkpt lat="45.31412" lon="6.08364">
        <ele>992.8</ele>
        <time>2016-09-25T14:45:20Z</time>
      </trkpt>
      <trkpt lat="45.31422" lon="6.08372">
        <ele>991.6</ele>
        <time>2016-09-25T14:45:22Z</time>
      </trkpt>
      <trkpt lat="45.31432" lon="6.08378">
        <ele>990.4</ele>
        <time>2016-09-25T14:45:24Z</time>
      </trkpt>
      <trkpt lat="45.31442" lon="6.08382">
        <ele>988.5</ele>
        <time>2016-09-25T14:45:28Z</time>
      </trkpt>
      <trkpt lat="45.31451" lon="6.08387">
        <ele>986.1</ele>
        <time>2016-09-25T14:45:34Z</time>
      </trkpt>
      <trkpt lat="45.31459" lon="6.08395">
        <ele>985.2</ele>
        <time>2016-09-25T14:45:37Z</time>
      </trkpt>
      <trkpt lat="45.31471" lon="6.08406">
        <ele>984.2</ele>
        <time>2016-09-25T14:45:40Z</time>
      </trkpt>
      <trkpt lat="45.31481" lon="6.08414">
        <ele>983.5</ele>
        <time>2016-09-25T14:45:42Z</time>
      </trkpt>
      <trkpt lat="45.31491" lon="6.08424">
        <ele>982.8</ele>
        <time>2016-09-25T14:45:44Z</time>
      </trkpt>
      <trkpt lat="45.31503" lon="6.08435">
        <ele>982</ele>
        <time>2016-09-25T14:45:46Z</time>
      </trkpt>
      <trkpt lat="45.31515" lon="6.08447">
        <ele>981.3</ele>
        <time>2016-09-25T14:45:48Z</time>
      </trkpt>
      <trkpt lat="45.31525" lon="6.08456">
        <ele>980.6</ele>
        <time>2016-09-25T14:45:50Z</time>
      </trkpt>
      <trkpt lat="45.31533" lon="6.0845">
        <ele>978.1</ele>
        <time>2016-09-25T14:45:57Z</time>
      </trkpt>
      <trkpt lat="45.31541" lon="6.0844">
        <ele>976.8</ele>
        <time>2016-09-25T14:46:00Z</time>
      </trkpt>
      <trkpt lat="45.31548" lon="6.08432">
        <ele>975.4</ele>
        <time>2016-09-25T14:46:03Z</time>
      </trkpt>
      <trkpt lat="45.31556" lon="6.08423">
        <ele>973.6</ele>
        <time>2016-09-25T14:46:07Z</time>
      </trkpt>
      <trkpt lat="45.31567" lon="6.08416">
        <ele>971.7</ele>
        <time>2016-09-25T14:46:11Z</time>
      </trkpt>
      <trkpt lat="45.31577" lon="6.08405">
        <ele>970.1</ele>
        <time>2016-09-25T14:46:15Z</time>
      </trkpt>
      <trkpt lat="45.31582" lon="6.08394">
        <ele>968.4</ele>
        <time>2016-09-25T14:46:18Z</time>
      </trkpt>
      <trkpt lat="45.31588" lon="6.08381">
        <ele>965.9</ele>
        <time>2016-09-25T14:46:22Z</time>
      </trkpt>
      <trkpt lat="45.31591" lon="6.08369">
        <ele>964.4</ele>
        <time>2016-09-25T14:46:25Z</time>
      </trkpt>
      <trkpt lat="45.31597" lon="6.08358">
        <ele>963</ele>
        <time>2016-09-25T14:46:28Z</time>
      </trkpt>
      <trkpt lat="45.31606" lon="6.08349">
        <ele>961.1</ele>
        <time>2016-09-25T14:46:32Z</time>
      </trkpt>
      <trkpt lat="45.31616" lon="6.08345">
        <ele>959.9</ele>
        <time>2016-09-25T14:46:35Z</time>
      </trkpt>
      <trkpt lat="45.31626" lon="6.08336">
        <ele>958.8</ele>
        <time>2016-09-25T14:46:38Z</time>
      </trkpt>
      <trkpt lat="45.31637" lon="6.0833">
        <ele>957.5</ele>
        <time>2016-09-25T14:46:41Z</time>
      </trkpt>
      <trkpt lat="45.31648" lon="6.08325">
        <ele>955.8</ele>
        <time>2016-09-25T14:46:44Z</time>
      </trkpt>
      <trkpt lat="45.31658" lon="6.08318">
        <ele>953.5</ele>
        <time>2016-09-25T14:46:48Z</time>
      </trkpt>
      <trkpt lat="45.3167" lon="6.08315">
        <ele>951.7</ele>
        <time>2016-09-25T14:46:51Z</time>
      </trkpt>
      <trkpt lat="45.3168" lon="6.08312">
        <ele>950.2</ele>
        <time>2016-09-25T14:46:53Z</time>
      </trkpt>
      <trkpt lat="45.31689" lon="6.08308">
        <ele>948.8</ele>
        <time>2016-09-25T14:46:55Z</time>
      </trkpt>
      <trkpt lat="45.317" lon="6.08309">
        <ele>947.5</ele>
        <time>2016-09-25T14:46:57Z</time>
      </trkpt>
      <trkpt lat="45.31709" lon="6.08313">
        <ele>946.5</ele>
        <time>2016-09-25T14:46:59Z</time>
      </trkpt>
      <trkpt lat="45.31721" lon="6.08319">
        <ele>945.1</ele>
        <time>2016-09-25T14:47:02Z</time>
      </trkpt>
      <trkpt lat="45.3173" lon="6.08323">
        <ele>944</ele>
        <time>2016-09-25T14:47:04Z</time>
      </trkpt>
      <trkpt lat="45.3174" lon="6.08329">
        <ele>942.9</ele>
        <time>2016-09-25T14:47:06Z</time>
      </trkpt>
      <trkpt lat="45.31751" lon="6.08336">
        <ele>942</ele>
        <time>2016-09-25T14:47:08Z</time>
      </trkpt>
      <trkpt lat="45.3176" lon="6.08343">
        <ele>941.3</ele>
        <time>2016-09-25T14:47:10Z</time>
      </trkpt>
      <trkpt lat="45.3177" lon="6.0835">
        <ele>940.6</ele>
        <time>2016-09-25T14:47:12Z</time>
      </trkpt>
      <trkpt lat="45.31779" lon="6.08357">
        <ele>939.9</ele>
        <time>2016-09-25T14:47:14Z</time>
      </trkpt>
      <trkpt lat="45.31788" lon="6.08367">
        <ele>939.4</ele>
        <time>2016-09-25T14:47:16Z</time>
      </trkpt>
      <trkpt lat="45.31797" lon="6.08377">
        <ele>938.9</ele>
        <time>2016-09-25T14:47:18Z</time>
      </trkpt>
      <trkpt lat="45.31808" lon="6.08387">
        <ele>938.3</ele>
        <time>2016-09-25T14:47:20Z</time>
      </trkpt>
      <trkpt lat="45.31818" lon="6.08398">
        <ele>937.8</ele>
        <time>2016-09-25T14:47:22Z</time>
      </trkpt>
      <trkpt lat="45.31829" lon="6.08407">
        <ele>937.3</ele>
        <time>2016-09-25T14:47:24Z</time>
      </trkpt>
      <trkpt lat="45.31839" lon="6.08418">
        <ele>936.9</ele>
        <time>2016-09-25T14:47:26Z</time>
      </trkpt>
      <trkpt lat="45.31847" lon="6.08426">
        <ele>936.4</ele>
        <time>2016-09-25T14:47:28Z</time>
      </trkpt>
      <trkpt lat="45.31856" lon="6.0844">
        <ele>935.6</ele>
        <time>2016-09-25T14:47:31Z</time>
      </trkpt>
      <trkpt lat="45.31859" lon="6.08455">
        <ele>934.9</ele>
        <time>2016-09-25T14:47:34Z</time>
      </trkpt>
      <trkpt lat="45.31862" lon="6.08469">
        <ele>934.3</ele>
        <time>2016-09-25T14:47:37Z</time>
      </trkpt>
      <trkpt lat="45.31865" lon="6.08481">
        <ele>933.9</ele>
        <time>2016-09-25T14:47:40Z</time>
      </trkpt>
      <trkpt lat="45.31871" lon="6.08493">
        <ele>933.7</ele>
        <time>2016-09-25T14:47:43Z</time>
      </trkpt>
      <trkpt lat="45.3188" lon="6.08502">
        <ele>933.5</ele>
        <time>2016-09-25T14:47:46Z</time>
      </trkpt>
      <trkpt lat="45.31889" lon="6.08509">
        <ele>933.6</ele>
        <time>2016-09-25T14:47:49Z</time>
      </trkpt>
      <trkpt lat="45.31899" lon="6.08514">
        <ele>933.6</ele>
        <time>2016-09-25T14:47:54Z</time>
      </trkpt>
      <trkpt lat="45.31909" lon="6.08517">
        <ele>933.9</ele>
        <time>2016-09-25T14:47:59Z</time>
      </trkpt>
      <trkpt lat="45.31919" lon="6.08525">
        <ele>934.3</ele>
        <time>2016-09-25T14:48:04Z</time>
      </trkpt>
      <trkpt lat="45.31929" lon="6.0853">
        <ele>934.8</ele>
        <time>2016-09-25T14:48:08Z</time>
      </trkpt>
      <trkpt lat="45.31939" lon="6.08536">
        <ele>935.4</ele>
        <time>2016-09-25T14:48:12Z</time>
      </trkpt>
      <trkpt lat="45.3195" lon="6.0854">
        <ele>936</ele>
        <time>2016-09-25T14:48:16Z</time>
      </trkpt>
      <trkpt lat="45.3196" lon="6.08545">
        <ele>936.7</ele>
        <time>2016-09-25T14:48:20Z</time>
      </trkpt>
      <trkpt lat="45.3197" lon="6.08551">
        <ele>937.4</ele>
        <time>2016-09-25T14:48:24Z</time>
      </trkpt>
      <trkpt lat="45.31979" lon="6.08556">
        <ele>938</ele>
        <time>2016-09-25T14:48:28Z</time>
      </trkpt>
      <trkpt lat="45.31988" lon="6.08561">
        <ele>938.8</ele>
        <time>2016-09-25T14:48:32Z</time>
      </trkpt>
      <trkpt lat="45.31998" lon="6.08566">
        <ele>939.4</ele>
        <time>2016-09-25T14:48:36Z</time>
      </trkpt>
      <trkpt lat="45.32008" lon="6.08572">
        <ele>940.2</ele>
        <time>2016-09-25T14:48:40Z</time>
      </trkpt>
      <trkpt lat="45.32018" lon="6.08578">
        <ele>941</ele>
        <time>2016-09-25T14:48:44Z</time>
      </trkpt>
      <trkpt lat="45.32027" lon="6.08584">
        <ele>941.8</ele>
        <time>2016-09-25T14:48:48Z</time>
      </trkpt>
      <trkpt lat="45.32037" lon="6.08589">
        <ele>942.5</ele>
        <time>2016-09-25T14:48:52Z</time>
      </trkpt>
      <trkpt lat="45.32047" lon="6.08595">
        <ele>943.3</ele>
        <time>2016-09-25T14:48:56Z</time>
      </trkpt>
      <trkpt lat="45.32057" lon="6.08599">
        <ele>944.4</ele>
        <time>2016-09-25T14:49:00Z</time>
      </trkpt>
      <trkpt lat="45.32068" lon="6.08603">
        <ele>945.4</ele>
        <time>2016-09-25T14:49:04Z</time>
      </trkpt>
      <trkpt lat="45.32077" lon="6.08609">
        <ele>946.2</ele>
        <time>2016-09-25T14:49:08Z</time>
      </trkpt>
      <trkpt lat="45.32087" lon="6.08615">
        <ele>946.8</ele>
        <time>2016-09-25T14:49:12Z</time>
      </trkpt>
      <trkpt lat="45.32097" lon="6.08621">
        <ele>947.5</ele>
        <time>2016-09-25T14:49:16Z</time>
      </trkpt>
      <trkpt lat="45.32107" lon="6.08626">
        <ele>948.1</ele>
        <time>2016-09-25T14:49:20Z</time>
      </trkpt>
      <trkpt lat="45.32117" lon="6.08632">
        <ele>948.8</ele>
        <time>2016-09-25T14:49:24Z</time>
      </trkpt>
      <trkpt lat="45.32126" lon="6.08635">
        <ele>949.5</ele>
        <time>2016-09-25T14:49:28Z</time>
      </trkpt>
      <trkpt lat="45.32136" lon="6.0864">
        <ele>950.3</ele>
        <time>2016-09-25T14:49:32Z</time>
      </trkpt>
      <trkpt lat="45.32145" lon="6.08641">
        <ele>951</ele>
        <time>2016-09-25T14:49:36Z</time>
      </trkpt>
      <trkpt lat="45.32153" lon="6.08646">
        <ele>951.7</ele>
        <time>2016-09-25T14:49:40Z</time>
      </trkpt>
      <trkpt lat="45.32156" lon="6.08661">
        <ele>952.7</ele>
        <time>2016-09-25T14:49:46Z</time>
      </trkpt>
      <trkpt lat="45.32163" lon="6.08671">
        <ele>953.3</ele>
        <time>2016-09-25T14:49:50Z</time>
      </trkpt>
      <trkpt lat="45.32172" lon="6.08677">
        <ele>953.6</ele>
        <time>2016-09-25T14:49:53Z</time>
      </trkpt>
      <trkpt lat="45.32181" lon="6.08682">
        <ele>953.8</ele>
        <time>2016-09-25T14:49:56Z</time>
      </trkpt>
      <trkpt lat="45.32191" lon="6.08688">
        <ele>954</ele>
        <time>2016-09-25T14:49:59Z</time>
      </trkpt>
      <trkpt lat="45.32202" lon="6.08695">
        <ele>954.2</ele>
        <time>2016-09-25T14:50:02Z</time>
      </trkpt>
      <trkpt lat="45.32212" lon="6.08702">
        <ele>954.3</ele>
        <time>2016-09-25T14:50:05Z</time>
      </trkpt>
      <trkpt lat="45.32222" lon="6.08708">
        <ele>954.5</ele>
        <time>2016-09-25T14:50:08Z</time>
      </trkpt>
      <trkpt lat="45.32231" lon="6.08715">
        <ele>954.5</ele>
        <time>2016-09-25T14:50:11Z</time>
      </trkpt>
      <trkpt lat="45.32243" lon="6.08721">
        <ele>954.6</ele>
        <time>2016-09-25T14:50:14Z</time>
      </trkpt>
      <trkpt lat="45.32255" lon="6.08729">
        <ele>954.6</ele>
        <time>2016-09-25T14:50:17Z</time>
      </trkpt>
      <trkpt lat="45.32264" lon="6.08734">
        <ele>954.4</ele>
        <time>2016-09-25T14:50:19Z</time>
      </trkpt>
      <trkpt lat="45.32273" lon="6.08741">
        <ele>954.3</ele>
        <time>2016-09-25T14:50:21Z</time>
      </trkpt>
      <trkpt lat="45.32283" lon="6.08749">
        <ele>954.1</ele>
        <time>2016-09-25T14:50:23Z</time>
      </trkpt>
      <trkpt lat="45.32294" lon="6.08757">
        <ele>953.9</ele>
        <time>2016-09-25T14:50:25Z</time>
      </trkpt>
      <trkpt lat="45.32305" lon="6.08766">
        <ele>953.6</ele>
        <time>2016-09-25T14:50:27Z</time>
      </trkpt>
      <trkpt lat="45.32318" lon="6.08777">
        <ele>953.3</ele>
        <time>2016-09-25T14:50:29Z</time>
      </trkpt>
      <trkpt lat="45.3233" lon="6.08789">
        <ele>952.8</ele>
        <time>2016-09-25T14:50:31Z</time>
      </trkpt>
      <trkpt lat="45.32337" lon="6.08798">
        <ele>952.3</ele>
        <time>2016-09-25T14:50:33Z</time>
      </trkpt>
      <trkpt lat="45.32344" lon="6.08808">
        <ele>951.8</ele>
        <time>2016-09-25T14:50:35Z</time>
      </trkpt>
      <trkpt lat="45.3235" lon="6.0882">
        <ele>951.3</ele>
        <time>2016-09-25T14:50:37Z</time>
      </trkpt>
      <trkpt lat="45.32357" lon="6.08834">
        <ele>950.6</ele>
        <time>2016-09-25T14:50:39Z</time>
      </trkpt>
      <trkpt lat="45.32365" lon="6.0885">
        <ele>949.9</ele>
        <time>2016-09-25T14:50:41Z</time>
      </trkpt>
      <trkpt lat="45.32374" lon="6.08865">
        <ele>949.4</ele>
        <time>2016-09-25T14:50:43Z</time>
      </trkpt>
      <trkpt lat="45.32386" lon="6.0888">
        <ele>948.7</ele>
        <time>2016-09-25T14:50:45Z</time>
      </trkpt>
      <trkpt lat="45.32399" lon="6.08893">
        <ele>948.1</ele>
        <time>2016-09-25T14:50:47Z</time>
      </trkpt>
      <trkpt lat="45.32412" lon="6.08905">
        <ele>947.4</ele>
        <time>2016-09-25T14:50:49Z</time>
      </trkpt>
      <trkpt lat="45.32426" lon="6.08918">
        <ele>946.8</ele>
        <time>2016-09-25T14:50:51Z</time>
      </trkpt>
      <trkpt lat="45.3244" lon="6.0893">
        <ele>946.1</ele>
        <time>2016-09-25T14:50:53Z</time>
      </trkpt>
      <trkpt lat="45.32453" lon="6.08942">
        <ele>945.4</ele>
        <time>2016-09-25T14:50:55Z</time>
      </trkpt>
      <trkpt lat="45.32467" lon="6.08955">
        <ele>944.7</ele>
        <time>2016-09-25T14:50:57Z</time>
      </trkpt>
      <trkpt lat="45.32481" lon="6.08968">
        <ele>944</ele>
        <time>2016-09-25T14:50:59Z</time>
      </trkpt>
      <trkpt lat="45.32495" lon="6.08981">
        <ele>943.3</ele>
        <time>2016-09-25T14:51:01Z</time>
      </trkpt>
      <trkpt lat="45.32509" lon="6.08994">
        <ele>942.7</ele>
        <time>2016-09-25T14:51:03Z</time>
      </trkpt>
      <trkpt lat="45.32524" lon="6.09007">
        <ele>942.1</ele>
        <time>2016-09-25T14:51:05Z</time>
      </trkpt>
      <trkpt lat="45.32539" lon="6.09017">
        <ele>941.4</ele>
        <time>2016-09-25T14:51:07Z</time>
      </trkpt>
      <trkpt lat="45.32556" lon="6.09022">
        <ele>940.9</ele>
        <time>2016-09-25T14:51:09Z</time>
      </trkpt>
      <trkpt lat="45.32572" lon="6.09024">
        <ele>940.3</ele>
        <time>2016-09-25T14:51:11Z</time>
      </trkpt>
      <trkpt lat="45.32589" lon="6.09024">
        <ele>939.8</ele>
        <time>2016-09-25T14:51:13Z</time>
      </trkpt>
      <trkpt lat="45.32606" lon="6.09024">
        <ele>939.2</ele>
        <time>2016-09-25T14:51:15Z</time>
      </trkpt>
      <trkpt lat="45.32622" lon="6.09024">
        <ele>938.8</ele>
        <time>2016-09-25T14:51:17Z</time>
      </trkpt>
      <trkpt lat="45.32638" lon="6.09027">
        <ele>938.3</ele>
        <time>2016-09-25T14:51:19Z</time>
      </trkpt>
      <trkpt lat="45.32653" lon="6.09032">
        <ele>938.7</ele>
        <time>2016-09-25T14:51:21Z</time>
      </trkpt>
      <trkpt lat="45.32668" lon="6.09038">
        <ele>938.1</ele>
        <time>2016-09-25T14:51:23Z</time>
      </trkpt>
      <trkpt lat="45.32683" lon="6.09044">
        <ele>937.4</ele>
        <time>2016-09-25T14:51:25Z</time>
      </trkpt>
      <trkpt lat="45.32698" lon="6.09052">
        <ele>936.7</ele>
        <time>2016-09-25T14:51:27Z</time>
      </trkpt>
      <trkpt lat="45.32714" lon="6.09059">
        <ele>935.8</ele>
        <time>2016-09-25T14:51:29Z</time>
      </trkpt>
      <trkpt lat="45.32723" lon="6.09063">
        <ele>935.4</ele>
        <time>2016-09-25T14:51:30Z</time>
      </trkpt>
      <trkpt lat="45.3274" lon="6.09071">
        <ele>934.5</ele>
        <time>2016-09-25T14:51:32Z</time>
      </trkpt>
      <trkpt lat="45.3275" lon="6.09075">
        <ele>934</ele>
        <time>2016-09-25T14:51:33Z</time>
      </trkpt>
      <trkpt lat="45.32759" lon="6.09079">
        <ele>933.5</ele>
        <time>2016-09-25T14:51:34Z</time>
      </trkpt>
      <trkpt lat="45.32769" lon="6.09085">
        <ele>933</ele>
        <time>2016-09-25T14:51:35Z</time>
      </trkpt>
      <trkpt lat="45.32778" lon="6.09091">
        <ele>932.5</ele>
        <time>2016-09-25T14:51:36Z</time>
      </trkpt>
      <trkpt lat="45.32787" lon="6.09099">
        <ele>932</ele>
        <time>2016-09-25T14:51:37Z</time>
      </trkpt>
      <trkpt lat="45.32796" lon="6.09108">
        <ele>931.5</ele>
        <time>2016-09-25T14:51:38Z</time>
      </trkpt>
      <trkpt lat="45.32805" lon="6.09118">
        <ele>930.9</ele>
        <time>2016-09-25T14:51:39Z</time>
      </trkpt>
      <trkpt lat="45.32814" lon="6.09127">
        <ele>930.3</ele>
        <time>2016-09-25T14:51:40Z</time>
      </trkpt>
      <trkpt lat="45.32824" lon="6.09134">
        <ele>929.7</ele>
        <time>2016-09-25T14:51:41Z</time>
      </trkpt>
      <trkpt lat="45.32834" lon="6.0914">
        <ele>929.1</ele>
        <time>2016-09-25T14:51:42Z</time>
      </trkpt>
      <trkpt lat="45.32844" lon="6.09143">
        <ele>928.5</ele>
        <time>2016-09-25T14:51:43Z</time>
      </trkpt>
      <trkpt lat="45.32855" lon="6.09145">
        <ele>927.9</ele>
        <time>2016-09-25T14:51:44Z</time>
      </trkpt>
      <trkpt lat="45.32865" lon="6.09147">
        <ele>927.2</ele>
        <time>2016-09-25T14:51:45Z</time>
      </trkpt>
      <trkpt lat="45.32876" lon="6.09148">
        <ele>926.6</ele>
        <time>2016-09-25T14:51:46Z</time>
      </trkpt>
      <trkpt lat="45.32887" lon="6.0915">
        <ele>925.9</ele>
        <time>2016-09-25T14:51:47Z</time>
      </trkpt>
      <trkpt lat="45.32898" lon="6.09152">
        <ele>925.3</ele>
        <time>2016-09-25T14:51:48Z</time>
      </trkpt>
      <trkpt lat="45.32909" lon="6.09154">
        <ele>924.7</ele>
        <time>2016-09-25T14:51:49Z</time>
      </trkpt>
      <trkpt lat="45.3292" lon="6.09154">
        <ele>924</ele>
        <time>2016-09-25T14:51:50Z</time>
      </trkpt>
      <trkpt lat="45.32931" lon="6.09153">
        <ele>923.4</ele>
        <time>2016-09-25T14:51:51Z</time>
      </trkpt>
      <trkpt lat="45.32942" lon="6.09152">
        <ele>922.7</ele>
        <time>2016-09-25T14:51:52Z</time>
      </trkpt>
      <trkpt lat="45.32953" lon="6.09151">
        <ele>922.1</ele>
        <time>2016-09-25T14:51:53Z</time>
      </trkpt>
      <trkpt lat="45.32963" lon="6.0915">
        <ele>921.6</ele>
        <time>2016-09-25T14:51:54Z</time>
      </trkpt>
      <trkpt lat="45.32973" lon="6.0915">
        <ele>920.9</ele>
        <time>2016-09-25T14:51:55Z</time>
      </trkpt>
      <trkpt lat="45.32984" lon="6.0915">
        <ele>920.3</ele>
        <time>2016-09-25T14:51:56Z</time>
      </trkpt>
      <trkpt lat="45.32995" lon="6.09149">
        <ele>919.7</ele>
        <time>2016-09-25T14:51:57Z</time>
      </trkpt>
      <trkpt lat="45.33004" lon="6.0915">
        <ele>919.2</ele>
        <time>2016-09-25T14:51:58Z</time>
      </trkpt>
      <trkpt lat="45.33014" lon="6.0915">
        <ele>918.6</ele>
        <time>2016-09-25T14:51:59Z</time>
      </trkpt>
      <trkpt lat="45.33024" lon="6.09152">
        <ele>918</ele>
        <time>2016-09-25T14:52:00Z</time>
      </trkpt>
      <trkpt lat="45.33033" lon="6.09155">
        <ele>917.4</ele>
        <time>2016-09-25T14:52:01Z</time>
      </trkpt>
      <trkpt lat="45.33043" lon="6.09158">
        <ele>916.8</ele>
        <time>2016-09-25T14:52:02Z</time>
      </trkpt>
      <trkpt lat="45.33053" lon="6.09162">
        <ele>916.2</ele>
        <time>2016-09-25T14:52:03Z</time>
      </trkpt>
      <trkpt lat="45.33063" lon="6.09165">
        <ele>916.3</ele>
        <time>2016-09-25T14:52:04Z</time>
      </trkpt>
      <trkpt lat="45.33073" lon="6.09169">
        <ele>915.7</ele>
        <time>2016-09-25T14:52:05Z</time>
      </trkpt>
      <trkpt lat="45.33083" lon="6.09173">
        <ele>915.1</ele>
        <time>2016-09-25T14:52:06Z</time>
      </trkpt>
      <trkpt lat="45.33092" lon="6.09179">
        <ele>914.6</ele>
        <time>2016-09-25T14:52:07Z</time>
      </trkpt>
      <trkpt lat="45.33101" lon="6.09184">
        <ele>913.9</ele>
        <time>2016-09-25T14:52:08Z</time>
      </trkpt>
      <trkpt lat="45.33111" lon="6.0919">
        <ele>913.3</ele>
        <time>2016-09-25T14:52:09Z</time>
      </trkpt>
      <trkpt lat="45.3312" lon="6.09197">
        <ele>912.8</ele>
        <time>2016-09-25T14:52:10Z</time>
      </trkpt>
      <trkpt lat="45.33129" lon="6.09203">
        <ele>912.2</ele>
        <time>2016-09-25T14:52:11Z</time>
      </trkpt>
      <trkpt lat="45.33138" lon="6.0921">
        <ele>911.6</ele>
        <time>2016-09-25T14:52:12Z</time>
      </trkpt>
      <trkpt lat="45.33147" lon="6.09217">
        <ele>911.1</ele>
        <time>2016-09-25T14:52:13Z</time>
      </trkpt>
      <trkpt lat="45.33156" lon="6.09224">
        <ele>910.5</ele>
        <time>2016-09-25T14:52:14Z</time>
      </trkpt>
      <trkpt lat="45.33164" lon="6.09231">
        <ele>910</ele>
        <time>2016-09-25T14:52:15Z</time>
      </trkpt>
      <trkpt lat="45.33172" lon="6.09238">
        <ele>909.4</ele>
        <time>2016-09-25T14:52:16Z</time>
      </trkpt>
      <trkpt lat="45.33181" lon="6.09244">
        <ele>908.9</ele>
        <time>2016-09-25T14:52:17Z</time>
      </trkpt>
      <trkpt lat="45.33189" lon="6.0925">
        <ele>908.5</ele>
        <time>2016-09-25T14:52:18Z</time>
      </trkpt>
      <trkpt lat="45.33198" lon="6.09256">
        <ele>908</ele>
        <time>2016-09-25T14:52:19Z</time>
      </trkpt>
      <trkpt lat="45.33206" lon="6.09261">
        <ele>907.6</ele>
        <time>2016-09-25T14:52:20Z</time>
      </trkpt>
      <trkpt lat="45.33215" lon="6.09265">
        <ele>907.1</ele>
        <time>2016-09-25T14:52:21Z</time>
      </trkpt>
      <trkpt lat="45.33224" lon="6.09268">
        <ele>906.7</ele>
        <time>2016-09-25T14:52:22Z</time>
      </trkpt>
      <trkpt lat="45.33242" lon="6.0927">
        <ele>905.9</ele>
        <time>2016-09-25T14:52:24Z</time>
      </trkpt>
      <trkpt lat="45.33255" lon="6.09268">
        <ele>905.2</ele>
        <time>2016-09-25T14:52:26Z</time>
      </trkpt>
      <trkpt lat="45.33271" lon="6.09263">
        <ele>904.5</ele>
        <time>2016-09-25T14:52:28Z</time>
      </trkpt>
      <trkpt lat="45.33287" lon="6.0926">
        <ele>904</ele>
        <time>2016-09-25T14:52:30Z</time>
      </trkpt>
      <trkpt lat="45.33303" lon="6.09257">
        <ele>903.4</ele>
        <time>2016-09-25T14:52:32Z</time>
      </trkpt>
      <trkpt lat="45.33319" lon="6.09253">
        <ele>903</ele>
        <time>2016-09-25T14:52:34Z</time>
      </trkpt>
      <trkpt lat="45.33333" lon="6.09249">
        <ele>902.6</ele>
        <time>2016-09-25T14:52:36Z</time>
      </trkpt>
      <trkpt lat="45.33348" lon="6.09245">
        <ele>902.2</ele>
        <time>2016-09-25T14:52:38Z</time>
      </trkpt>
      <trkpt lat="45.33362" lon="6.09241">
        <ele>901.8</ele>
        <time>2016-09-25T14:52:40Z</time>
      </trkpt>
      <trkpt lat="45.33375" lon="6.09238">
        <ele>901.5</ele>
        <time>2016-09-25T14:52:42Z</time>
      </trkpt>
      <trkpt lat="45.33389" lon="6.09235">
        <ele>901</ele>
        <time>2016-09-25T14:52:44Z</time>
      </trkpt>
      <trkpt lat="45.33404" lon="6.09233">
        <ele>900.5</ele>
        <time>2016-09-25T14:52:46Z</time>
      </trkpt>
      <trkpt lat="45.33418" lon="6.09231">
        <ele>900.2</ele>
        <time>2016-09-25T14:52:48Z</time>
      </trkpt>
      <trkpt lat="45.33432" lon="6.09229">
        <ele>899.9</ele>
        <time>2016-09-25T14:52:50Z</time>
      </trkpt>
      <trkpt lat="45.33446" lon="6.09227">
        <ele>899.6</ele>
        <time>2016-09-25T14:52:52Z</time>
      </trkpt>
      <trkpt lat="45.33461" lon="6.09225">
        <ele>899.3</ele>
        <time>2016-09-25T14:52:54Z</time>
      </trkpt>
      <trkpt lat="45.33476" lon="6.09223">
        <ele>899</ele>
        <time>2016-09-25T14:52:56Z</time>
      </trkpt>
      <trkpt lat="45.33492" lon="6.09221">
        <ele>898.6</ele>
        <time>2016-09-25T14:52:58Z</time>
      </trkpt>
      <trkpt lat="45.33508" lon="6.09217">
        <ele>898.3</ele>
        <time>2016-09-25T14:53:00Z</time>
      </trkpt>
      <trkpt lat="45.33523" lon="6.09215">
        <ele>898</ele>
        <time>2016-09-25T14:53:02Z</time>
      </trkpt>
      <trkpt lat="45.33538" lon="6.09216">
        <ele>897.5</ele>
        <time>2016-09-25T14:53:04Z</time>
      </trkpt>
      <trkpt lat="45.33552" lon="6.09222">
        <ele>896.9</ele>
        <time>2016-09-25T14:53:06Z</time>
      </trkpt>
      <trkpt lat="45.33566" lon="6.09231">
        <ele>896.4</ele>
        <time>2016-09-25T14:53:08Z</time>
      </trkpt>
      <trkpt lat="45.3358" lon="6.09244">
        <ele>895.9</ele>
        <time>2016-09-25T14:53:10Z</time>
      </trkpt>
      <trkpt lat="45.33593" lon="6.09258">
        <ele>897</ele>
        <time>2016-09-25T14:53:12Z</time>
      </trkpt>
      <trkpt lat="45.33607" lon="6.09273">
        <ele>896.2</ele>
        <time>2016-09-25T14:53:14Z</time>
      </trkpt>
      <trkpt lat="45.3362" lon="6.09289">
        <ele>895.4</ele>
        <time>2016-09-25T14:53:16Z</time>
      </trkpt>
      <trkpt lat="45.33634" lon="6.09304">
        <ele>894.7</ele>
        <time>2016-09-25T14:53:18Z</time>
      </trkpt>
      <trkpt lat="45.33648" lon="6.09318">
        <ele>894</ele>
        <time>2016-09-25T14:53:20Z</time>
      </trkpt>
      <trkpt lat="45.33662" lon="6.0933">
        <ele>893.3</ele>
        <time>2016-09-25T14:53:22Z</time>
      </trkpt>
      <trkpt lat="45.33677" lon="6.09338">
        <ele>892.7</ele>
        <time>2016-09-25T14:53:24Z</time>
      </trkpt>
      <trkpt lat="45.33693" lon="6.09342">
        <ele>892.1</ele>
        <time>2016-09-25T14:53:26Z</time>
      </trkpt>
      <trkpt lat="45.33707" lon="6.09346">
        <ele>891.5</ele>
        <time>2016-09-25T14:53:28Z</time>
      </trkpt>
      <trkpt lat="45.33719" lon="6.09349">
        <ele>891</ele>
        <time>2016-09-25T14:53:30Z</time>
      </trkpt>
      <trkpt lat="45.33734" lon="6.09349">
        <ele>890.5</ele>
        <time>2016-09-25T14:53:32Z</time>
      </trkpt>
      <trkpt lat="45.33748" lon="6.09347">
        <ele>890.1</ele>
        <time>2016-09-25T14:53:34Z</time>
      </trkpt>
      <trkpt lat="45.33764" lon="6.09345">
        <ele>889.6</ele>
        <time>2016-09-25T14:53:36Z</time>
      </trkpt>
      <trkpt lat="45.33779" lon="6.09344">
        <ele>889.2</ele>
        <time>2016-09-25T14:53:38Z</time>
      </trkpt>
      <trkpt lat="45.33792" lon="6.09343">
        <ele>888.8</ele>
        <time>2016-09-25T14:53:40Z</time>
      </trkpt>
      <trkpt lat="45.33806" lon="6.09342">
        <ele>888.4</ele>
        <time>2016-09-25T14:53:42Z</time>
      </trkpt>
      <trkpt lat="45.3382" lon="6.09342">
        <ele>888</ele>
        <time>2016-09-25T14:53:44Z</time>
      </trkpt>
      <trkpt lat="45.33835" lon="6.09346">
        <ele>887.4</ele>
        <time>2016-09-25T14:53:46Z</time>
      </trkpt>
      <trkpt lat="45.33849" lon="6.09353">
        <ele>887</ele>
        <time>2016-09-25T14:53:48Z</time>
      </trkpt>
      <trkpt lat="45.33864" lon="6.09358">
        <ele>886.4</ele>
        <time>2016-09-25T14:53:50Z</time>
      </trkpt>
      <trkpt lat="45.33881" lon="6.09359">
        <ele>885.8</ele>
        <time>2016-09-25T14:53:52Z</time>
      </trkpt>
      <trkpt lat="45.33897" lon="6.09359">
        <ele>885.3</ele>
        <time>2016-09-25T14:53:54Z</time>
      </trkpt>
      <trkpt lat="45.33913" lon="6.09361">
        <ele>886.4</ele>
        <time>2016-09-25T14:53:56Z</time>
      </trkpt>
      <trkpt lat="45.33929" lon="6.09368">
        <ele>885.5</ele>
        <time>2016-09-25T14:53:58Z</time>
      </trkpt>
      <trkpt lat="45.33945" lon="6.09377">
        <ele>884.6</ele>
        <time>2016-09-25T14:54:00Z</time>
      </trkpt>
      <trkpt lat="45.3396" lon="6.09385">
        <ele>883.7</ele>
        <time>2016-09-25T14:54:02Z</time>
      </trkpt>
      <trkpt lat="45.33973" lon="6.09393">
        <ele>882.9</ele>
        <time>2016-09-25T14:54:04Z</time>
      </trkpt>
      <trkpt lat="45.33981" lon="6.094">
        <ele>881.9</ele>
        <time>2016-09-25T14:54:06Z</time>
      </trkpt>
      <trkpt lat="45.33985" lon="6.09415">
        <ele>880.6</ele>
        <time>2016-09-25T14:54:09Z</time>
      </trkpt>
      <trkpt lat="45.33993" lon="6.0942">
        <ele>879.5</ele>
        <time>2016-09-25T14:54:12Z</time>
      </trkpt>
      <trkpt lat="45.34003" lon="6.09416">
        <ele>878.7</ele>
        <time>2016-09-25T14:54:15Z</time>
      </trkpt>
      <trkpt lat="45.34013" lon="6.09408">
        <ele>877.8</ele>
        <time>2016-09-25T14:54:19Z</time>
      </trkpt>
      <trkpt lat="45.34025" lon="6.09406">
        <ele>877.2</ele>
        <time>2016-09-25T14:54:23Z</time>
      </trkpt>
      <trkpt lat="45.34034" lon="6.09408">
        <ele>876.8</ele>
        <time>2016-09-25T14:54:26Z</time>
      </trkpt>
      <trkpt lat="45.34043" lon="6.09411">
        <ele>876.6</ele>
        <time>2016-09-25T14:54:29Z</time>
      </trkpt>
      <trkpt lat="45.3405" lon="6.09419">
        <ele>876.5</ele>
        <time>2016-09-25T14:54:32Z</time>
      </trkpt>
      <trkpt lat="45.34056" lon="6.09431">
        <ele>876.4</ele>
        <time>2016-09-25T14:54:35Z</time>
      </trkpt>
      <trkpt lat="45.34061" lon="6.09441">
        <ele>876.5</ele>
        <time>2016-09-25T14:54:38Z</time>
      </trkpt>
      <trkpt lat="45.34069" lon="6.0945">
        <ele>876.7</ele>
        <time>2016-09-25T14:54:42Z</time>
      </trkpt>
      <trkpt lat="45.34074" lon="6.09461">
        <ele>876.8</ele>
        <time>2016-09-25T14:54:46Z</time>
      </trkpt>
      <trkpt lat="45.3408" lon="6.09471">
        <ele>878.1</ele>
        <time>2016-09-25T14:56:20Z</time>
      </trkpt>
      <trkpt lat="45.3409" lon="6.09478">
        <ele>878.2</ele>
        <time>2016-09-25T14:56:26Z</time>
      </trkpt>
      <trkpt lat="45.34099" lon="6.09484">
        <ele>878.3</ele>
        <time>2016-09-25T14:56:30Z</time>
      </trkpt>
      <trkpt lat="45.34107" lon="6.09491">
        <ele>878.3</ele>
        <time>2016-09-25T14:56:34Z</time>
      </trkpt>
      <trkpt lat="45.34115" lon="6.095">
        <ele>878.5</ele>
        <time>2016-09-25T14:56:38Z</time>
      </trkpt>
      <trkpt lat="45.34123" lon="6.0951">
        <ele>878.7</ele>
        <time>2016-09-25T14:56:42Z</time>
      </trkpt>
      <trkpt lat="45.3413" lon="6.09519">
        <ele>878.9</ele>
        <time>2016-09-25T14:56:45Z</time>
      </trkpt>
      <trkpt lat="45.34138" lon="6.09532">
        <ele>879.2</ele>
        <time>2016-09-25T14:56:49Z</time>
      </trkpt>
      <trkpt lat="45.34147" lon="6.09542">
        <ele>879.6</ele>
        <time>2016-09-25T14:56:53Z</time>
      </trkpt>
      <trkpt lat="45.34156" lon="6.09554">
        <ele>880</ele>
        <time>2016-09-25T14:56:57Z</time>
      </trkpt>
      <trkpt lat="45.34162" lon="6.09563">
        <ele>880.3</ele>
        <time>2016-09-25T14:57:00Z</time>
      </trkpt>
      <trkpt lat="45.3417" lon="6.09571">
        <ele>880.6</ele>
        <time>2016-09-25T14:57:03Z</time>
      </trkpt>
      <trkpt lat="45.34179" lon="6.0958">
        <ele>881</ele>
        <time>2016-09-25T14:57:07Z</time>
      </trkpt>
      <trkpt lat="45.34191" lon="6.09584">
        <ele>881.3</ele>
        <time>2016-09-25T14:57:11Z</time>
      </trkpt>
      <trkpt lat="45.34201" lon="6.09588">
        <ele>881.6</ele>
        <time>2016-09-25T14:57:15Z</time>
      </trkpt>
      <trkpt lat="45.34213" lon="6.09589">
        <ele>882</ele>
        <time>2016-09-25T14:57:19Z</time>
      </trkpt>
      <trkpt lat="45.34224" lon="6.09591">
        <ele>882.2</ele>
        <time>2016-09-25T14:57:23Z</time>
      </trkpt>
      <trkpt lat="45.34233" lon="6.09594">
        <ele>882.4</ele>
        <time>2016-09-25T14:57:26Z</time>
      </trkpt>
      <trkpt lat="45.34244" lon="6.09602">
        <ele>882.7</ele>
        <time>2016-09-25T14:57:30Z</time>
      </trkpt>
      <trkpt lat="45.34249" lon="6.09614">
        <ele>882.9</ele>
        <time>2016-09-25T14:57:33Z</time>
      </trkpt>
      <trkpt lat="45.34252" lon="6.09628">
        <ele>883.2</ele>
        <time>2016-09-25T14:57:36Z</time>
      </trkpt>
      <trkpt lat="45.34255" lon="6.09641">
        <ele>883.4</ele>
        <time>2016-09-25T14:57:39Z</time>
      </trkpt>
      <trkpt lat="45.34259" lon="6.09655">
        <ele>883.7</ele>
        <time>2016-09-25T14:57:42Z</time>
      </trkpt>
      <trkpt lat="45.34266" lon="6.09663">
        <ele>884</ele>
        <time>2016-09-25T14:57:45Z</time>
      </trkpt>
      <trkpt lat="45.34276" lon="6.09666">
        <ele>884.2</ele>
        <time>2016-09-25T14:57:48Z</time>
      </trkpt>
      <trkpt lat="45.34286" lon="6.09667">
        <ele>884.5</ele>
        <time>2016-09-25T14:57:51Z</time>
      </trkpt>
      <trkpt lat="45.34297" lon="6.09663">
        <ele>884.8</ele>
        <time>2016-09-25T14:57:54Z</time>
      </trkpt>
      <trkpt lat="45.34306" lon="6.09656">
        <ele>885.1</ele>
        <time>2016-09-25T14:57:57Z</time>
      </trkpt>
      <trkpt lat="45.34314" lon="6.09649">
        <ele>885.4</ele>
        <time>2016-09-25T14:58:00Z</time>
      </trkpt>
      <trkpt lat="45.34323" lon="6.09643">
        <ele>885.8</ele>
        <time>2016-09-25T14:58:03Z</time>
      </trkpt>
      <trkpt lat="45.34332" lon="6.09638">
        <ele>886.1</ele>
        <time>2016-09-25T14:58:06Z</time>
      </trkpt>
      <trkpt lat="45.34344" lon="6.09633">
        <ele>886.5</ele>
        <time>2016-09-25T14:58:10Z</time>
      </trkpt>
      <trkpt lat="45.34353" lon="6.09635">
        <ele>886.9</ele>
        <time>2016-09-25T14:58:13Z</time>
      </trkpt>
      <trkpt lat="45.34361" lon="6.0964">
        <ele>887.3</ele>
        <time>2016-09-25T14:58:16Z</time>
      </trkpt>
      <trkpt lat="45.34368" lon="6.09649">
        <ele>887.6</ele>
        <time>2016-09-25T14:58:19Z</time>
      </trkpt>
      <trkpt lat="45.34376" lon="6.09657">
        <ele>888.1</ele>
        <time>2016-09-25T14:58:22Z</time>
      </trkpt>
      <trkpt lat="45.34383" lon="6.09666">
        <ele>888.5</ele>
        <time>2016-09-25T14:58:25Z</time>
      </trkpt>
      <trkpt lat="45.34392" lon="6.09673">
        <ele>888.9</ele>
        <time>2016-09-25T14:58:28Z</time>
      </trkpt>
      <trkpt lat="45.34401" lon="6.09676">
        <ele>889.3</ele>
        <time>2016-09-25T14:58:31Z</time>
      </trkpt>
      <trkpt lat="45.34411" lon="6.09677">
        <ele>889.6</ele>
        <time>2016-09-25T14:58:34Z</time>
      </trkpt>
      <trkpt lat="45.34421" lon="6.09677">
        <ele>890.1</ele>
        <time>2016-09-25T14:58:37Z</time>
      </trkpt>
      <trkpt lat="45.34431" lon="6.09679">
        <ele>890.5</ele>
        <time>2016-09-25T14:58:40Z</time>
      </trkpt>
      <trkpt lat="45.3444" lon="6.09681">
        <ele>890.9</ele>
        <time>2016-09-25T14:58:43Z</time>
      </trkpt>
      <trkpt lat="45.3445" lon="6.09685">
        <ele>891.3</ele>
        <time>2016-09-25T14:58:46Z</time>
      </trkpt>
      <trkpt lat="45.34458" lon="6.0969">
        <ele>891.7</ele>
        <time>2016-09-25T14:58:49Z</time>
      </trkpt>
      <trkpt lat="45.34466" lon="6.09697">
        <ele>892.1</ele>
        <time>2016-09-25T14:58:52Z</time>
      </trkpt>
      <trkpt lat="45.34474" lon="6.09706">
        <ele>892.4</ele>
        <time>2016-09-25T14:58:55Z</time>
      </trkpt>
      <trkpt lat="45.3448" lon="6.09714">
        <ele>892.9</ele>
        <time>2016-09-25T14:58:58Z</time>
      </trkpt>
      <trkpt lat="45.34487" lon="6.09723">
        <ele>893.2</ele>
        <time>2016-09-25T14:59:01Z</time>
      </trkpt>
      <trkpt lat="45.34495" lon="6.09732">
        <ele>894.1</ele>
        <time>2016-09-25T14:59:04Z</time>
      </trkpt>
      <trkpt lat="45.34503" lon="6.09738">
        <ele>894.6</ele>
        <time>2016-09-25T14:59:07Z</time>
      </trkpt>
      <trkpt lat="45.34512" lon="6.09745">
        <ele>894.9</ele>
        <time>2016-09-25T14:59:10Z</time>
      </trkpt>
      <trkpt lat="45.34521" lon="6.0975">
        <ele>895.4</ele>
        <time>2016-09-25T14:59:13Z</time>
      </trkpt>
      <trkpt lat="45.3453" lon="6.09755">
        <ele>894.8</ele>
        <time>2016-09-25T14:59:16Z</time>
      </trkpt>
      <trkpt lat="45.34539" lon="6.09762">
        <ele>895.1</ele>
        <time>2016-09-25T14:59:19Z</time>
      </trkpt>
      <trkpt lat="45.34547" lon="6.09769">
        <ele>895.4</ele>
        <time>2016-09-25T14:59:22Z</time>
      </trkpt>
      <trkpt lat="45.34555" lon="6.09778">
        <ele>895.7</ele>
        <time>2016-09-25T14:59:25Z</time>
      </trkpt>
      <trkpt lat="45.34561" lon="6.09788">
        <ele>895.9</ele>
        <time>2016-09-25T14:59:28Z</time>
      </trkpt>
      <trkpt lat="45.34566" lon="6.098">
        <ele>896.1</ele>
        <time>2016-09-25T14:59:31Z</time>
      </trkpt>
      <trkpt lat="45.34571" lon="6.09811">
        <ele>896.3</ele>
        <time>2016-09-25T14:59:34Z</time>
      </trkpt>
      <trkpt lat="45.3458" lon="6.09823">
        <ele>896.7</ele>
        <time>2016-09-25T14:59:38Z</time>
      </trkpt>
      <trkpt lat="45.34588" lon="6.0983">
        <ele>897</ele>
        <time>2016-09-25T14:59:41Z</time>
      </trkpt>
      <trkpt lat="45.34596" lon="6.09837">
        <ele>897.2</ele>
        <time>2016-09-25T14:59:44Z</time>
      </trkpt>
      <trkpt lat="45.34604" lon="6.09844">
        <ele>897.5</ele>
        <time>2016-09-25T14:59:47Z</time>
      </trkpt>
      <trkpt lat="45.34612" lon="6.09851">
        <ele>897.7</ele>
        <time>2016-09-25T14:59:50Z</time>
      </trkpt>
      <trkpt lat="45.34621" lon="6.09858">
        <ele>897.9</ele>
        <time>2016-09-25T14:59:53Z</time>
      </trkpt>
      <trkpt lat="45.34629" lon="6.09865">
        <ele>898.2</ele>
        <time>2016-09-25T14:59:56Z</time>
      </trkpt>
      <trkpt lat="45.34637" lon="6.09871">
        <ele>898.5</ele>
        <time>2016-09-25T14:59:59Z</time>
      </trkpt>
      <trkpt lat="45.34646" lon="6.09877">
        <ele>898.7</ele>
        <time>2016-09-25T15:00:02Z</time>
      </trkpt>
      <trkpt lat="45.34655" lon="6.09884">
        <ele>897.7</ele>
        <time>2016-09-25T15:00:05Z</time>
      </trkpt>
      <trkpt lat="45.34663" lon="6.09891">
        <ele>898.6</ele>
        <time>2016-09-25T15:00:08Z</time>
      </trkpt>
      <trkpt lat="45.34671" lon="6.09898">
        <ele>899.3</ele>
        <time>2016-09-25T15:00:11Z</time>
      </trkpt>
      <trkpt lat="45.34679" lon="6.09905">
        <ele>899.8</ele>
        <time>2016-09-25T15:00:14Z</time>
      </trkpt>
      <trkpt lat="45.34688" lon="6.0991">
        <ele>900.2</ele>
        <time>2016-09-25T15:00:17Z</time>
      </trkpt>
      <trkpt lat="45.34698" lon="6.09914">
        <ele>900.6</ele>
        <time>2016-09-25T15:00:20Z</time>
      </trkpt>
      <trkpt lat="45.34708" lon="6.09915">
        <ele>900.9</ele>
        <time>2016-09-25T15:00:23Z</time>
      </trkpt>
      <trkpt lat="45.34717" lon="6.09917">
        <ele>901.1</ele>
        <time>2016-09-25T15:00:26Z</time>
      </trkpt>
      <trkpt lat="45.34727" lon="6.09926">
        <ele>901.4</ele>
        <time>2016-09-25T15:00:30Z</time>
      </trkpt>
      <trkpt lat="45.34727" lon="6.09939">
        <ele>901.6</ele>
        <time>2016-09-25T15:00:33Z</time>
      </trkpt>
      <trkpt lat="45.34717" lon="6.09946">
        <ele>901.9</ele>
        <time>2016-09-25T15:00:37Z</time>
      </trkpt>
      <trkpt lat="45.34706" lon="6.09941">
        <ele>902.3</ele>
        <time>2016-09-25T15:00:41Z</time>
      </trkpt>
      <trkpt lat="45.34696" lon="6.09934">
        <ele>902.8</ele>
        <time>2016-09-25T15:00:45Z</time>
      </trkpt>
      <trkpt lat="45.34687" lon="6.09931">
        <ele>903.2</ele>
        <time>2016-09-25T15:00:48Z</time>
      </trkpt>
      <trkpt lat="45.34676" lon="6.09928">
        <ele>903.9</ele>
        <time>2016-09-25T15:00:52Z</time>
      </trkpt>
      <trkpt lat="45.34666" lon="6.09925">
        <ele>904.5</ele>
        <time>2016-09-25T15:00:56Z</time>
      </trkpt>
      <trkpt lat="45.34656" lon="6.09922">
        <ele>905.1</ele>
        <time>2016-09-25T15:01:00Z</time>
      </trkpt>
      <trkpt lat="45.34646" lon="6.0992">
        <ele>905.8</ele>
        <time>2016-09-25T15:01:04Z</time>
      </trkpt>
      <trkpt lat="45.34636" lon="6.09915">
        <ele>906.5</ele>
        <time>2016-09-25T15:01:08Z</time>
      </trkpt>
      <trkpt lat="45.34625" lon="6.09913">
        <ele>907.5</ele>
        <time>2016-09-25T15:01:13Z</time>
      </trkpt>
      <trkpt lat="45.34614" lon="6.09909">
        <ele>908.3</ele>
        <time>2016-09-25T15:01:18Z</time>
      </trkpt>
      <trkpt lat="45.34605" lon="6.09903">
        <ele>909.2</ele>
        <time>2016-09-25T15:01:23Z</time>
      </trkpt>
      <trkpt lat="45.34596" lon="6.09896">
        <ele>910.1</ele>
        <time>2016-09-25T15:01:28Z</time>
      </trkpt>
      <trkpt lat="45.34587" lon="6.09889">
        <ele>910.9</ele>
        <time>2016-09-25T15:01:33Z</time>
      </trkpt>
      <trkpt lat="45.34579" lon="6.09881">
        <ele>911.8</ele>
        <time>2016-09-25T15:01:38Z</time>
      </trkpt>
      <trkpt lat="45.34569" lon="6.09875">
        <ele>912.7</ele>
        <time>2016-09-25T15:01:43Z</time>
      </trkpt>
      <trkpt lat="45.3456" lon="6.09871">
        <ele>913.4</ele>
        <time>2016-09-25T15:01:47Z</time>
      </trkpt>
      <trkpt lat="45.34549" lon="6.09867">
        <ele>914.2</ele>
        <time>2016-09-25T15:01:51Z</time>
      </trkpt>
      <trkpt lat="45.3454" lon="6.09864">
        <ele>915</ele>
        <time>2016-09-25T15:01:55Z</time>
      </trkpt>
      <trkpt lat="45.3453" lon="6.09861">
        <ele>915.7</ele>
        <time>2016-09-25T15:01:59Z</time>
      </trkpt>
      <trkpt lat="45.34521" lon="6.09859">
        <ele>916.6</ele>
        <time>2016-09-25T15:02:03Z</time>
      </trkpt>
      <trkpt lat="45.34511" lon="6.09856">
        <ele>917.4</ele>
        <time>2016-09-25T15:02:07Z</time>
      </trkpt>
      <trkpt lat="45.34502" lon="6.09852">
        <ele>918.1</ele>
        <time>2016-09-25T15:02:11Z</time>
      </trkpt>
      <trkpt lat="45.34491" lon="6.09849">
        <ele>919.1</ele>
        <time>2016-09-25T15:02:16Z</time>
      </trkpt>
      <trkpt lat="45.34482" lon="6.09845">
        <ele>920</ele>
        <time>2016-09-25T15:02:20Z</time>
      </trkpt>
      <trkpt lat="45.34472" lon="6.09842">
        <ele>920.9</ele>
        <time>2016-09-25T15:02:25Z</time>
      </trkpt>
      <trkpt lat="45.34462" lon="6.0984">
        <ele>921.9</ele>
        <time>2016-09-25T15:02:30Z</time>
      </trkpt>
      <trkpt lat="45.34452" lon="6.09836">
        <ele>922.9</ele>
        <time>2016-09-25T15:02:35Z</time>
      </trkpt>
      <trkpt lat="45.34442" lon="6.09836">
        <ele>923.8</ele>
        <time>2016-09-25T15:02:39Z</time>
      </trkpt>
      <trkpt lat="45.34432" lon="6.09833">
        <ele>924.6</ele>
        <time>2016-09-25T15:02:43Z</time>
      </trkpt>
      <trkpt lat="45.34422" lon="6.09829">
        <ele>925.6</ele>
        <time>2016-09-25T15:02:48Z</time>
      </trkpt>
      <trkpt lat="45.34413" lon="6.09827">
        <ele>926.4</ele>
        <time>2016-09-25T15:02:52Z</time>
      </trkpt>
      <trkpt lat="45.34404" lon="6.09824">
        <ele>927.2</ele>
        <time>2016-09-25T15:02:56Z</time>
      </trkpt>
      <trkpt lat="45.34395" lon="6.09821">
        <ele>927.8</ele>
        <time>2016-09-25T15:03:00Z</time>
      </trkpt>
      <trkpt lat="45.34386" lon="6.09817">
        <ele>928.5</ele>
        <time>2016-09-25T15:03:04Z</time>
      </trkpt>
      <trkpt lat="45.34377" lon="6.09814">
        <ele>929.2</ele>
        <time>2016-09-25T15:03:08Z</time>
      </trkpt>
      <trkpt lat="45.34366" lon="6.0981">
        <ele>930.1</ele>
        <time>2016-09-25T15:03:13Z</time>
      </trkpt>
      <trkpt lat="45.34357" lon="6.0981">
        <ele>930.8</ele>
        <time>2016-09-25T15:03:17Z</time>
      </trkpt>
      <trkpt lat="45.34347" lon="6.09814">
        <ele>931.6</ele>
        <time>2016-09-25T15:03:22Z</time>
      </trkpt>
      <trkpt lat="45.34344" lon="6.09828">
        <ele>932.4</ele>
        <time>2016-09-25T15:03:27Z</time>
      </trkpt>
      <trkpt lat="45.34349" lon="6.0984">
        <ele>932.9</ele>
        <time>2016-09-25T15:03:31Z</time>
      </trkpt>
      <trkpt lat="45.34359" lon="6.09846">
        <ele>933.4</ele>
        <time>2016-09-25T15:03:35Z</time>
      </trkpt>
      <trkpt lat="45.3437" lon="6.09851">
        <ele>933.8</ele>
        <time>2016-09-25T15:03:39Z</time>
      </trkpt>
      <trkpt lat="45.3438" lon="6.09858">
        <ele>934.3</ele>
        <time>2016-09-25T15:03:43Z</time>
      </trkpt>
      <trkpt lat="45.34389" lon="6.09865">
        <ele>934.8</ele>
        <time>2016-09-25T15:03:47Z</time>
      </trkpt>
      <trkpt lat="45.34399" lon="6.09871">
        <ele>935.2</ele>
        <time>2016-09-25T15:03:51Z</time>
      </trkpt>
      <trkpt lat="45.34407" lon="6.09879">
        <ele>935.7</ele>
        <time>2016-09-25T15:03:55Z</time>
      </trkpt>
      <trkpt lat="45.34416" lon="6.09886">
        <ele>936.2</ele>
        <time>2016-09-25T15:03:59Z</time>
      </trkpt>
      <trkpt lat="45.34425" lon="6.09893">
        <ele>936.8</ele>
        <time>2016-09-25T15:04:03Z</time>
      </trkpt>
      <trkpt lat="45.34434" lon="6.09898">
        <ele>937.3</ele>
        <time>2016-09-25T15:04:07Z</time>
      </trkpt>
      <trkpt lat="45.34442" lon="6.09903">
        <ele>938</ele>
        <time>2016-09-25T15:04:11Z</time>
      </trkpt>
      <trkpt lat="45.34451" lon="6.0991">
        <ele>938.5</ele>
        <time>2016-09-25T15:04:15Z</time>
      </trkpt>
      <trkpt lat="45.34462" lon="6.09917">
        <ele>939.1</ele>
        <time>2016-09-25T15:04:20Z</time>
      </trkpt>
      <trkpt lat="45.34471" lon="6.0992">
        <ele>939.7</ele>
        <time>2016-09-25T15:04:24Z</time>
      </trkpt>
      <trkpt lat="45.34483" lon="6.09922">
        <ele>940.5</ele>
        <time>2016-09-25T15:04:29Z</time>
      </trkpt>
      <trkpt lat="45.34494" lon="6.09926">
        <ele>941.1</ele>
        <time>2016-09-25T15:04:33Z</time>
      </trkpt>
      <trkpt lat="45.34506" lon="6.0993">
        <ele>941.8</ele>
        <time>2016-09-25T15:04:37Z</time>
      </trkpt>
      <trkpt lat="45.34517" lon="6.09933">
        <ele>942.5</ele>
        <time>2016-09-25T15:04:41Z</time>
      </trkpt>
      <trkpt lat="45.34526" lon="6.09937">
        <ele>941.2</ele>
        <time>2016-09-25T15:04:44Z</time>
      </trkpt>
      <trkpt lat="45.34535" lon="6.09942">
        <ele>941.8</ele>
        <time>2016-09-25T15:04:47Z</time>
      </trkpt>
      <trkpt lat="45.34545" lon="6.0995">
        <ele>942.5</ele>
        <time>2016-09-25T15:04:51Z</time>
      </trkpt>
      <trkpt lat="45.34555" lon="6.09957">
        <ele>943</ele>
        <time>2016-09-25T15:04:54Z</time>
      </trkpt>
      <trkpt lat="45.34564" lon="6.09963">
        <ele>943.5</ele>
        <time>2016-09-25T15:04:57Z</time>
      </trkpt>
      <trkpt lat="45.34573" lon="6.09972">
        <ele>943.9</ele>
        <time>2016-09-25T15:05:00Z</time>
      </trkpt>
      <trkpt lat="45.34583" lon="6.09981">
        <ele>944.3</ele>
        <time>2016-09-25T15:05:03Z</time>
      </trkpt>
      <trkpt lat="45.34593" lon="6.0999">
        <ele>944.7</ele>
        <time>2016-09-25T15:05:06Z</time>
      </trkpt>
      <trkpt lat="45.34604" lon="6.09999">
        <ele>945</ele>
        <time>2016-09-25T15:05:09Z</time>
      </trkpt>
      <trkpt lat="45.34613" lon="6.10009">
        <ele>945.3</ele>
        <time>2016-09-25T15:05:12Z</time>
      </trkpt>
      <trkpt lat="45.34623" lon="6.10019">
        <ele>945.6</ele>
        <time>2016-09-25T15:05:15Z</time>
      </trkpt>
      <trkpt lat="45.34634" lon="6.10026">
        <ele>945.9</ele>
        <time>2016-09-25T15:05:18Z</time>
      </trkpt>
      <trkpt lat="45.34645" lon="6.10032">
        <ele>946.2</ele>
        <time>2016-09-25T15:05:21Z</time>
      </trkpt>
      <trkpt lat="45.34657" lon="6.10037">
        <ele>946.4</ele>
        <time>2016-09-25T15:05:24Z</time>
      </trkpt>
      <trkpt lat="45.34668" lon="6.10043">
        <ele>946.7</ele>
        <time>2016-09-25T15:05:27Z</time>
      </trkpt>
      <trkpt lat="45.34679" lon="6.10051">
        <ele>946.9</ele>
        <time>2016-09-25T15:05:30Z</time>
      </trkpt>
      <trkpt lat="45.34688" lon="6.10058">
        <ele>947.2</ele>
        <time>2016-09-25T15:05:33Z</time>
      </trkpt>
      <trkpt lat="45.34697" lon="6.10064">
        <ele>947.5</ele>
        <time>2016-09-25T15:05:36Z</time>
      </trkpt>
      <trkpt lat="45.34704" lon="6.10071">
        <ele>947.7</ele>
        <time>2016-09-25T15:05:39Z</time>
      </trkpt>
      <trkpt lat="45.34711" lon="6.1008">
        <ele>948</ele>
        <time>2016-09-25T15:05:42Z</time>
      </trkpt>
      <trkpt lat="45.34719" lon="6.10093">
        <ele>948.5</ele>
        <time>2016-09-25T15:05:46Z</time>
      </trkpt>
      <trkpt lat="45.34724" lon="6.10108">
        <ele>948.9</ele>
        <time>2016-09-25T15:05:50Z</time>
      </trkpt>
      <trkpt lat="45.34723" lon="6.10121">
        <ele>949.2</ele>
        <time>2016-09-25T15:05:53Z</time>
      </trkpt>
      <trkpt lat="45.34716" lon="6.10132">
        <ele>949.4</ele>
        <time>2016-09-25T15:05:56Z</time>
      </trkpt>
      <trkpt lat="45.34708" lon="6.10141">
        <ele>949.6</ele>
        <time>2016-09-25T15:05:59Z</time>
      </trkpt>
      <trkpt lat="45.34701" lon="6.10151">
        <ele>949.7</ele>
        <time>2016-09-25T15:06:02Z</time>
      </trkpt>
      <trkpt lat="45.34693" lon="6.10159">
        <ele>949.8</ele>
        <time>2016-09-25T15:06:05Z</time>
      </trkpt>
      <trkpt lat="45.34683" lon="6.10163">
        <ele>950</ele>
        <time>2016-09-25T15:06:08Z</time>
      </trkpt>
      <trkpt lat="45.34672" lon="6.10165">
        <ele>950.2</ele>
        <time>2016-09-25T15:06:11Z</time>
      </trkpt>
      <trkpt lat="45.34661" lon="6.10164">
        <ele>950.4</ele>
        <time>2016-09-25T15:06:14Z</time>
      </trkpt>
      <trkpt lat="45.3465" lon="6.10163">
        <ele>950.7</ele>
        <time>2016-09-25T15:06:17Z</time>
      </trkpt>
      <trkpt lat="45.3464" lon="6.10162">
        <ele>951.1</ele>
        <time>2016-09-25T15:06:20Z</time>
      </trkpt>
      <trkpt lat="45.34629" lon="6.1016">
        <ele>951.5</ele>
        <time>2016-09-25T15:06:23Z</time>
      </trkpt>
      <trkpt lat="45.34619" lon="6.10157">
        <ele>951.8</ele>
        <time>2016-09-25T15:06:26Z</time>
      </trkpt>
      <trkpt lat="45.34608" lon="6.10157">
        <ele>952.1</ele>
        <time>2016-09-25T15:06:29Z</time>
      </trkpt>
      <trkpt lat="45.34598" lon="6.10155">
        <ele>952.5</ele>
        <time>2016-09-25T15:06:32Z</time>
      </trkpt>
      <trkpt lat="45.34588" lon="6.10152">
        <ele>952.9</ele>
        <time>2016-09-25T15:06:35Z</time>
      </trkpt>
      <trkpt lat="45.34577" lon="6.1015">
        <ele>953.3</ele>
        <time>2016-09-25T15:06:38Z</time>
      </trkpt>
      <trkpt lat="45.34567" lon="6.10148">
        <ele>953.7</ele>
        <time>2016-09-25T15:06:41Z</time>
      </trkpt>
      <trkpt lat="45.34557" lon="6.10145">
        <ele>954.2</ele>
        <time>2016-09-25T15:06:44Z</time>
      </trkpt>
      <trkpt lat="45.34546" lon="6.10142">
        <ele>954.7</ele>
        <time>2016-09-25T15:06:47Z</time>
      </trkpt>
      <trkpt lat="45.34536" lon="6.1014">
        <ele>955.3</ele>
        <time>2016-09-25T15:06:50Z</time>
      </trkpt>
      <trkpt lat="45.34527" lon="6.10138">
        <ele>955.8</ele>
        <time>2016-09-25T15:06:53Z</time>
      </trkpt>
      <trkpt lat="45.34518" lon="6.10135">
        <ele>956.5</ele>
        <time>2016-09-25T15:06:56Z</time>
      </trkpt>
      <trkpt lat="45.34508" lon="6.10132">
        <ele>957.1</ele>
        <time>2016-09-25T15:06:59Z</time>
      </trkpt>
      <trkpt lat="45.34499" lon="6.10129">
        <ele>957.6</ele>
        <time>2016-09-25T15:07:02Z</time>
      </trkpt>
      <trkpt lat="45.3449" lon="6.10127">
        <ele>958</ele>
        <time>2016-09-25T15:07:05Z</time>
      </trkpt>
      <trkpt lat="45.34481" lon="6.10126">
        <ele>958.4</ele>
        <time>2016-09-25T15:07:08Z</time>
      </trkpt>
      <trkpt lat="45.34472" lon="6.10127">
        <ele>958.7</ele>
        <time>2016-09-25T15:07:11Z</time>
      </trkpt>
      <trkpt lat="45.3446" lon="6.10128">
        <ele>959.2</ele>
        <time>2016-09-25T15:07:15Z</time>
      </trkpt>
      <trkpt lat="45.34451" lon="6.10128">
        <ele>959.5</ele>
        <time>2016-09-25T15:07:18Z</time>
      </trkpt>
      <trkpt lat="45.34441" lon="6.10128">
        <ele>959.9</ele>
        <time>2016-09-25T15:07:21Z</time>
      </trkpt>
      <trkpt lat="45.34433" lon="6.10125">
        <ele>960.3</ele>
        <time>2016-09-25T15:07:24Z</time>
      </trkpt>
      <trkpt lat="45.34425" lon="6.10119">
        <ele>960.7</ele>
        <time>2016-09-25T15:07:27Z</time>
      </trkpt>
      <trkpt lat="45.34417" lon="6.10111">
        <ele>961.2</ele>
        <time>2016-09-25T15:07:30Z</time>
      </trkpt>
      <trkpt lat="45.34409" lon="6.10103">
        <ele>961.6</ele>
        <time>2016-09-25T15:07:33Z</time>
      </trkpt>
      <trkpt lat="45.34401" lon="6.10094">
        <ele>962.1</ele>
        <time>2016-09-25T15:07:36Z</time>
      </trkpt>
      <trkpt lat="45.34394" lon="6.10086">
        <ele>962.4</ele>
        <time>2016-09-25T15:07:39Z</time>
      </trkpt>
      <trkpt lat="45.34387" lon="6.10078">
        <ele>962.9</ele>
        <time>2016-09-25T15:07:42Z</time>
      </trkpt>
      <trkpt lat="45.34379" lon="6.1007">
        <ele>963.3</ele>
        <time>2016-09-25T15:07:45Z</time>
      </trkpt>
      <trkpt lat="45.34371" lon="6.10061">
        <ele>963.9</ele>
        <time>2016-09-25T15:07:49Z</time>
      </trkpt>
      <trkpt lat="45.34361" lon="6.10053">
        <ele>964.5</ele>
        <time>2016-09-25T15:07:53Z</time>
      </trkpt>
      <trkpt lat="45.34352" lon="6.10044">
        <ele>965.2</ele>
        <time>2016-09-25T15:07:57Z</time>
      </trkpt>
      <trkpt lat="45.34345" lon="6.10035">
        <ele>966</ele>
        <time>2016-09-25T15:08:02Z</time>
      </trkpt>
      <trkpt lat="45.34335" lon="6.10026">
        <ele>967</ele>
        <time>2016-09-25T15:08:08Z</time>
      </trkpt>
      <trkpt lat="45.34326" lon="6.10017">
        <ele>967.7</ele>
        <time>2016-09-25T15:08:12Z</time>
      </trkpt>
      <trkpt lat="45.34319" lon="6.1001">
        <ele>968.3</ele>
        <time>2016-09-25T15:08:16Z</time>
      </trkpt>
      <trkpt lat="45.3431" lon="6.10001">
        <ele>969</ele>
        <time>2016-09-25T15:08:20Z</time>
      </trkpt>
      <trkpt lat="45.34301" lon="6.09991">
        <ele>969.9</ele>
        <time>2016-09-25T15:08:25Z</time>
      </trkpt>
      <trkpt lat="45.34292" lon="6.09982">
        <ele>971.2</ele>
        <time>2016-09-25T15:08:31Z</time>
      </trkpt>
      <trkpt lat="45.34284" lon="6.09974">
        <ele>972.3</ele>
        <time>2016-09-25T15:08:36Z</time>
      </trkpt>
      <trkpt lat="45.34275" lon="6.09964">
        <ele>973.1</ele>
        <time>2016-09-25T15:08:40Z</time>
      </trkpt>
      <trkpt lat="45.34265" lon="6.09956">
        <ele>974</ele>
        <time>2016-09-25T15:08:44Z</time>
      </trkpt>
      <trkpt lat="45.34256" lon="6.09952">
        <ele>974.8</ele>
        <time>2016-09-25T15:08:48Z</time>
      </trkpt>
      <trkpt lat="45.34246" lon="6.09952">
        <ele>975.6</ele>
        <time>2016-09-25T15:08:52Z</time>
      </trkpt>
      <trkpt lat="45.34235" lon="6.09952">
        <ele>976.5</ele>
        <time>2016-09-25T15:08:56Z</time>
      </trkpt>
      <trkpt lat="45.34226" lon="6.09956">
        <ele>977.3</ele>
        <time>2016-09-25T15:09:00Z</time>
      </trkpt>
      <trkpt lat="45.34218" lon="6.09964">
        <ele>978.1</ele>
        <time>2016-09-25T15:09:04Z</time>
      </trkpt>
      <trkpt lat="45.34209" lon="6.09973">
        <ele>979.1</ele>
        <time>2016-09-25T15:09:09Z</time>
      </trkpt>
      <trkpt lat="45.342" lon="6.09982">
        <ele>980.1</ele>
        <time>2016-09-25T15:09:14Z</time>
      </trkpt>
      <trkpt lat="45.34193" lon="6.09993">
        <ele>981.2</ele>
        <time>2016-09-25T15:09:19Z</time>
      </trkpt>
      <trkpt lat="45.34186" lon="6.10002">
        <ele>981.9</ele>
        <time>2016-09-25T15:09:23Z</time>
      </trkpt>
      <trkpt lat="45.34176" lon="6.10007">
        <ele>983</ele>
        <time>2016-09-25T15:09:28Z</time>
      </trkpt>
      <trkpt lat="45.34165" lon="6.10005">
        <ele>984.1</ele>
        <time>2016-09-25T15:09:33Z</time>
      </trkpt>
      <trkpt lat="45.34154" lon="6.10002">
        <ele>985.2</ele>
        <time>2016-09-25T15:09:38Z</time>
      </trkpt>
      <trkpt lat="45.34144" lon="6.09999">
        <ele>986.2</ele>
        <time>2016-09-25T15:09:43Z</time>
      </trkpt>
      <trkpt lat="45.34135" lon="6.09994">
        <ele>987.1</ele>
        <time>2016-09-25T15:09:47Z</time>
      </trkpt>
      <trkpt lat="45.34125" lon="6.09988">
        <ele>988.3</ele>
        <time>2016-09-25T15:09:52Z</time>
      </trkpt>
      <trkpt lat="45.34117" lon="6.09981">
        <ele>989.4</ele>
        <time>2016-09-25T15:09:57Z</time>
      </trkpt>
      <trkpt lat="45.34107" lon="6.09975">
        <ele>990.5</ele>
        <time>2016-09-25T15:10:02Z</time>
      </trkpt>
      <trkpt lat="45.34097" lon="6.09976">
        <ele>991.6</ele>
        <time>2016-09-25T15:10:07Z</time>
      </trkpt>
      <trkpt lat="45.34088" lon="6.0998">
        <ele>992.6</ele>
        <time>2016-09-25T15:10:12Z</time>
      </trkpt>
      <trkpt lat="45.34078" lon="6.09984">
        <ele>993.6</ele>
        <time>2016-09-25T15:10:17Z</time>
      </trkpt>
      <trkpt lat="45.34067" lon="6.09987">
        <ele>994.6</ele>
        <time>2016-09-25T15:10:22Z</time>
      </trkpt>
      <trkpt lat="45.34056" lon="6.09989">
        <ele>995.7</ele>
        <time>2016-09-25T15:10:27Z</time>
      </trkpt>
      <trkpt lat="45.34048" lon="6.09993">
        <ele>996.7</ele>
        <time>2016-09-25T15:10:32Z</time>
      </trkpt>
      <trkpt lat="45.3404" lon="6.10003">
        <ele>997.9</ele>
        <time>2016-09-25T15:10:39Z</time>
      </trkpt>
      <trkpt lat="45.34032" lon="6.10012">
        <ele>999</ele>
        <time>2016-09-25T15:10:46Z</time>
      </trkpt>
      <trkpt lat="45.34022" lon="6.10011">
        <ele>1000.4</ele>
        <time>2016-09-25T15:10:54Z</time>
      </trkpt>
      <trkpt lat="45.34013" lon="6.10009">
        <ele>1001.6</ele>
        <time>2016-09-25T15:11:01Z</time>
      </trkpt>
      <trkpt lat="45.34004" lon="6.10003">
        <ele>1002.8</ele>
        <time>2016-09-25T15:11:08Z</time>
      </trkpt>
      <trkpt lat="45.33996" lon="6.09999">
        <ele>1004.1</ele>
        <time>2016-09-25T15:11:15Z</time>
      </trkpt>
      <trkpt lat="45.33986" lon="6.09995">
        <ele>1005.2</ele>
        <time>2016-09-25T15:11:21Z</time>
      </trkpt>
      <trkpt lat="45.33977" lon="6.09992">
        <ele>1006.2</ele>
        <time>2016-09-25T15:11:27Z</time>
      </trkpt>
      <trkpt lat="45.33967" lon="6.09989">
        <ele>1007.1</ele>
        <time>2016-09-25T15:11:33Z</time>
      </trkpt>
      <trkpt lat="45.33958" lon="6.09985">
        <ele>1007.8</ele>
        <time>2016-09-25T15:11:39Z</time>
      </trkpt>
      <trkpt lat="45.33948" lon="6.09981">
        <ele>1008.7</ele>
        <time>2016-09-25T15:11:46Z</time>
      </trkpt>
      <trkpt lat="45.33938" lon="6.09976">
        <ele>1009.5</ele>
        <time>2016-09-25T15:11:52Z</time>
      </trkpt>
      <trkpt lat="45.3393" lon="6.09971">
        <ele>1010.2</ele>
        <time>2016-09-25T15:11:57Z</time>
      </trkpt>
      <trkpt lat="45.33919" lon="6.09967">
        <ele>1011</ele>
        <time>2016-09-25T15:12:03Z</time>
      </trkpt>
      <trkpt lat="45.33909" lon="6.09962">
        <ele>1011.8</ele>
        <time>2016-09-25T15:12:09Z</time>
      </trkpt>
      <trkpt lat="45.339" lon="6.09957">
        <ele>1012.7</ele>
        <time>2016-09-25T15:12:15Z</time>
      </trkpt>
      <trkpt lat="45.33891" lon="6.09951">
        <ele>1013.6</ele>
        <time>2016-09-25T15:12:21Z</time>
      </trkpt>
      <trkpt lat="45.33881" lon="6.09946">
        <ele>1014.7</ele>
        <time>2016-09-25T15:12:27Z</time>
      </trkpt>
      <trkpt lat="45.33872" lon="6.0994">
        <ele>1015.4</ele>
        <time>2016-09-25T15:12:33Z</time>
      </trkpt>
      <trkpt lat="45.33864" lon="6.09932">
        <ele>1016</ele>
        <time>2016-09-25T15:12:38Z</time>
      </trkpt>
      <trkpt lat="45.33856" lon="6.09923">
        <ele>1016.7</ele>
        <time>2016-09-25T15:12:44Z</time>
      </trkpt>
      <trkpt lat="45.33849" lon="6.09912">
        <ele>1017.6</ele>
        <time>2016-09-25T15:12:50Z</time>
      </trkpt>
      <trkpt lat="45.33843" lon="6.09902">
        <ele>1018.5</ele>
        <time>2016-09-25T15:12:55Z</time>
      </trkpt>
      <trkpt lat="45.33836" lon="6.09891">
        <ele>1019.5</ele>
        <time>2016-09-25T15:13:01Z</time>
      </trkpt>
      <trkpt lat="45.33831" lon="6.09881">
        <ele>1020.2</ele>
        <time>2016-09-25T15:13:06Z</time>
      </trkpt>
      <trkpt lat="45.33825" lon="6.0987">
        <ele>1021.3</ele>
        <time>2016-09-25T15:13:13Z</time>
      </trkpt>
      <trkpt lat="45.33818" lon="6.09859">
        <ele>1022.3</ele>
        <time>2016-09-25T15:13:19Z</time>
      </trkpt>
      <trkpt lat="45.33811" lon="6.09849">
        <ele>1023.1</ele>
        <time>2016-09-25T15:13:25Z</time>
      </trkpt>
      <trkpt lat="45.33803" lon="6.09841">
        <ele>1023.8</ele>
        <time>2016-09-25T15:13:29Z</time>
      </trkpt>
      <trkpt lat="45.33794" lon="6.09835">
        <ele>1024.6</ele>
        <time>2016-09-25T15:13:34Z</time>
      </trkpt>
      <trkpt lat="45.33784" lon="6.09831">
        <ele>1025.6</ele>
        <time>2016-09-25T15:13:40Z</time>
      </trkpt>
      <trkpt lat="45.33774" lon="6.09829">
        <ele>1026.9</ele>
        <time>2016-09-25T15:13:47Z</time>
      </trkpt>
      <trkpt lat="45.33764" lon="6.09827">
        <ele>1027.9</ele>
        <time>2016-09-25T15:13:53Z</time>
      </trkpt>
      <trkpt lat="45.33754" lon="6.09829">
        <ele>1028.8</ele>
        <time>2016-09-25T15:13:59Z</time>
      </trkpt>
      <trkpt lat="45.33746" lon="6.09834">
        <ele>1029.6</ele>
        <time>2016-09-25T15:14:04Z</time>
      </trkpt>
      <trkpt lat="45.33737" lon="6.0984">
        <ele>1030.5</ele>
        <time>2016-09-25T15:14:09Z</time>
      </trkpt>
      <trkpt lat="45.33728" lon="6.09845">
        <ele>1031.5</ele>
        <time>2016-09-25T15:14:15Z</time>
      </trkpt>
      <trkpt lat="45.33719" lon="6.0985">
        <ele>1032.5</ele>
        <time>2016-09-25T15:14:21Z</time>
      </trkpt>
      <trkpt lat="45.3371" lon="6.09856">
        <ele>1033.5</ele>
        <time>2016-09-25T15:14:27Z</time>
      </trkpt>
      <trkpt lat="45.33701" lon="6.09861">
        <ele>1034.6</ele>
        <time>2016-09-25T15:14:33Z</time>
      </trkpt>
      <trkpt lat="45.33692" lon="6.09868">
        <ele>1035.5</ele>
        <time>2016-09-25T15:14:39Z</time>
      </trkpt>
      <trkpt lat="45.33683" lon="6.09873">
        <ele>1036.4</ele>
        <time>2016-09-25T15:14:45Z</time>
      </trkpt>
      <trkpt lat="45.33673" lon="6.09878">
        <ele>1037.4</ele>
        <time>2016-09-25T15:14:51Z</time>
      </trkpt>
      <trkpt lat="45.33663" lon="6.09876">
        <ele>1038.2</ele>
        <time>2016-09-25T15:14:57Z</time>
      </trkpt>
      <trkpt lat="45.33655" lon="6.09869">
        <ele>1039</ele>
        <time>2016-09-25T15:15:03Z</time>
      </trkpt>
      <trkpt lat="45.33646" lon="6.09863">
        <ele>1040.2</ele>
        <time>2016-09-25T15:15:10Z</time>
      </trkpt>
      <trkpt lat="45.33636" lon="6.09858">
        <ele>1041.4</ele>
        <time>2016-09-25T15:15:17Z</time>
      </trkpt>
      <trkpt lat="45.33631" lon="6.09869">
        <ele>1042.4</ele>
        <time>2016-09-25T15:15:23Z</time>
      </trkpt>
      <trkpt lat="45.33636" lon="6.09881">
        <ele>1043.4</ele>
        <time>2016-09-25T15:15:29Z</time>
      </trkpt>
      <trkpt lat="45.33644" lon="6.09889">
        <ele>1044.4</ele>
        <time>2016-09-25T15:15:35Z</time>
      </trkpt>
      <trkpt lat="45.33652" lon="6.09898">
        <ele>1045.3</ele>
        <time>2016-09-25T15:15:41Z</time>
      </trkpt>
      <trkpt lat="45.33662" lon="6.09904">
        <ele>1046.2</ele>
        <time>2016-09-25T15:15:47Z</time>
      </trkpt>
      <trkpt lat="45.3367" lon="6.09909">
        <ele>1047</ele>
        <time>2016-09-25T15:15:53Z</time>
      </trkpt>
      <trkpt lat="45.33679" lon="6.09913">
        <ele>1048.1</ele>
        <time>2016-09-25T15:16:00Z</time>
      </trkpt>
      <trkpt lat="45.33685" lon="6.09922">
        <ele>1049.1</ele>
        <time>2016-09-25T15:16:07Z</time>
      </trkpt>
      <trkpt lat="45.33693" lon="6.0993">
        <ele>1050.1</ele>
        <time>2016-09-25T15:16:13Z</time>
      </trkpt>
      <trkpt lat="45.337" lon="6.09939">
        <ele>1050.7</ele>
        <time>2016-09-25T15:16:18Z</time>
      </trkpt>
      <trkpt lat="45.33708" lon="6.09947">
        <ele>1051.7</ele>
        <time>2016-09-25T15:16:24Z</time>
      </trkpt>
      <trkpt lat="45.33715" lon="6.09956">
        <ele>1052.6</ele>
        <time>2016-09-25T15:16:30Z</time>
      </trkpt>
      <trkpt lat="45.33723" lon="6.09964">
        <ele>1053.5</ele>
        <time>2016-09-25T15:16:37Z</time>
      </trkpt>
      <trkpt lat="45.33731" lon="6.09973">
        <ele>1054.4</ele>
        <time>2016-09-25T15:16:44Z</time>
      </trkpt>
      <trkpt lat="45.33739" lon="6.0998">
        <ele>1055.5</ele>
        <time>2016-09-25T15:16:52Z</time>
      </trkpt>
      <trkpt lat="45.33746" lon="6.09991">
        <ele>1056.4</ele>
        <time>2016-09-25T15:16:59Z</time>
      </trkpt>
      <trkpt lat="45.33752" lon="6.10003">
        <ele>1057</ele>
        <time>2016-09-25T15:17:05Z</time>
      </trkpt>
      <trkpt lat="45.33758" lon="6.10014">
        <ele>1057.4</ele>
        <time>2016-09-25T15:17:10Z</time>
      </trkpt>
      <trkpt lat="45.33767" lon="6.10022">
        <ele>1058.3</ele>
        <time>2016-09-25T15:17:16Z</time>
      </trkpt>
      <trkpt lat="45.33776" lon="6.1003">
        <ele>1059.2</ele>
        <time>2016-09-25T15:17:22Z</time>
      </trkpt>
      <trkpt lat="45.33784" lon="6.10039">
        <ele>1060</ele>
        <time>2016-09-25T15:17:28Z</time>
      </trkpt>
      <trkpt lat="45.33791" lon="6.10048">
        <ele>1061.1</ele>
        <time>2016-09-25T15:17:34Z</time>
      </trkpt>
      <trkpt lat="45.33798" lon="6.1006">
        <ele>1062</ele>
        <time>2016-09-25T15:17:40Z</time>
      </trkpt>
      <trkpt lat="45.33805" lon="6.10071">
        <ele>1062.9</ele>
        <time>2016-09-25T15:17:46Z</time>
      </trkpt>
      <trkpt lat="45.33813" lon="6.10081">
        <ele>1064</ele>
        <time>2016-09-25T15:17:52Z</time>
      </trkpt>
      <trkpt lat="45.3382" lon="6.1009">
        <ele>1065</ele>
        <time>2016-09-25T15:17:58Z</time>
      </trkpt>
      <trkpt lat="45.33827" lon="6.101">
        <ele>1066.2</ele>
        <time>2016-09-25T15:18:05Z</time>
      </trkpt>
      <trkpt lat="45.33834" lon="6.1011">
        <ele>1067.1</ele>
        <time>2016-09-25T15:18:11Z</time>
      </trkpt>
      <trkpt lat="45.3384" lon="6.10121">
        <ele>1068.3</ele>
        <time>2016-09-25T15:18:17Z</time>
      </trkpt>
      <trkpt lat="45.33845" lon="6.10131">
        <ele>1069.4</ele>
        <time>2016-09-25T15:18:23Z</time>
      </trkpt>
      <trkpt lat="45.33852" lon="6.10142">
        <ele>1070.5</ele>
        <time>2016-09-25T15:18:30Z</time>
      </trkpt>
      <trkpt lat="45.33859" lon="6.10153">
        <ele>1071.4</ele>
        <time>2016-09-25T15:18:37Z</time>
      </trkpt>
      <trkpt lat="45.33867" lon="6.10162">
        <ele>1072.4</ele>
        <time>2016-09-25T15:18:44Z</time>
      </trkpt>
      <trkpt lat="45.33874" lon="6.10172">
        <ele>1073.4</ele>
        <time>2016-09-25T15:18:51Z</time>
      </trkpt>
      <trkpt lat="45.33882" lon="6.1018">
        <ele>1074.5</ele>
        <time>2016-09-25T15:18:58Z</time>
      </trkpt>
      <trkpt lat="45.33891" lon="6.10188">
        <ele>1075.6</ele>
        <time>2016-09-25T15:19:05Z</time>
      </trkpt>
      <trkpt lat="45.339" lon="6.10194">
        <ele>1076.7</ele>
        <time>2016-09-25T15:19:11Z</time>
      </trkpt>
      <trkpt lat="45.3391" lon="6.10197">
        <ele>1077.7</ele>
        <time>2016-09-25T15:19:18Z</time>
      </trkpt>
      <trkpt lat="45.33919" lon="6.10198">
        <ele>1078.5</ele>
        <time>2016-09-25T15:19:24Z</time>
      </trkpt>
      <trkpt lat="45.33928" lon="6.10199">
        <ele>1079.2</ele>
        <time>2016-09-25T15:19:29Z</time>
      </trkpt>
      <trkpt lat="45.33938" lon="6.10199">
        <ele>1079.7</ele>
        <time>2016-09-25T15:19:34Z</time>
      </trkpt>
      <trkpt lat="45.33948" lon="6.10199">
        <ele>1080.4</ele>
        <time>2016-09-25T15:19:40Z</time>
      </trkpt>
      <trkpt lat="45.33954" lon="6.10211">
        <ele>1081</ele>
        <time>2016-09-25T15:19:46Z</time>
      </trkpt>
      <trkpt lat="45.33949" lon="6.10222">
        <ele>1081.5</ele>
        <time>2016-09-25T15:19:52Z</time>
      </trkpt>
      <trkpt lat="45.33939" lon="6.10222">
        <ele>1082</ele>
        <time>2016-09-25T15:19:58Z</time>
      </trkpt>
      <trkpt lat="45.3393" lon="6.10215">
        <ele>1082.5</ele>
        <time>2016-09-25T15:20:04Z</time>
      </trkpt>
      <trkpt lat="45.3392" lon="6.10213">
        <ele>1083.1</ele>
        <time>2016-09-25T15:20:10Z</time>
      </trkpt>
      <trkpt lat="45.33909" lon="6.10212">
        <ele>1083.7</ele>
        <time>2016-09-25T15:20:16Z</time>
      </trkpt>
      <trkpt lat="45.33899" lon="6.1021">
        <ele>1084.4</ele>
        <time>2016-09-25T15:20:22Z</time>
      </trkpt>
      <trkpt lat="45.33889" lon="6.10208">
        <ele>1085.1</ele>
        <time>2016-09-25T15:20:28Z</time>
      </trkpt>
      <trkpt lat="45.3388" lon="6.10203">
        <ele>1086.3</ele>
        <time>2016-09-25T15:20:34Z</time>
      </trkpt>
      <trkpt lat="45.3387" lon="6.10197">
        <ele>1087.4</ele>
        <time>2016-09-25T15:20:40Z</time>
      </trkpt>
      <trkpt lat="45.33861" lon="6.10195">
        <ele>1088.5</ele>
        <time>2016-09-25T15:20:46Z</time>
      </trkpt>
      <trkpt lat="45.33852" lon="6.10192">
        <ele>1089.4</ele>
        <time>2016-09-25T15:20:51Z</time>
      </trkpt>
      <trkpt lat="45.33842" lon="6.10189">
        <ele>1090.5</ele>
        <time>2016-09-25T15:20:57Z</time>
      </trkpt>
      <trkpt lat="45.33832" lon="6.10186">
        <ele>1091.7</ele>
        <time>2016-09-25T15:21:03Z</time>
      </trkpt>
      <trkpt lat="45.33824" lon="6.10181">
        <ele>1092.7</ele>
        <time>2016-09-25T15:21:09Z</time>
      </trkpt>
      <trkpt lat="45.33815" lon="6.10175">
        <ele>1093.6</ele>
        <time>2016-09-25T15:21:15Z</time>
      </trkpt>
      <trkpt lat="45.33805" lon="6.10171">
        <ele>1094.7</ele>
        <time>2016-09-25T15:21:21Z</time>
      </trkpt>
      <trkpt lat="45.33796" lon="6.10167">
        <ele>1095.8</ele>
        <time>2016-09-25T15:21:27Z</time>
      </trkpt>
      <trkpt lat="45.33785" lon="6.10163">
        <ele>1097</ele>
        <time>2016-09-25T15:21:33Z</time>
      </trkpt>
      <trkpt lat="45.33777" lon="6.10157">
        <ele>1098.1</ele>
        <time>2016-09-25T15:21:38Z</time>
      </trkpt>
      <trkpt lat="45.33767" lon="6.10153">
        <ele>1099.1</ele>
        <time>2016-09-25T15:21:44Z</time>
      </trkpt>
      <trkpt lat="45.33757" lon="6.10151">
        <ele>1100.1</ele>
        <time>2016-09-25T15:21:50Z</time>
      </trkpt>
      <trkpt lat="45.33747" lon="6.10149">
        <ele>1101.1</ele>
        <time>2016-09-25T15:21:56Z</time>
      </trkpt>
      <trkpt lat="45.33738" lon="6.10149">
        <ele>1102.2</ele>
        <time>2016-09-25T15:22:02Z</time>
      </trkpt>
      <trkpt lat="45.33729" lon="6.1015">
        <ele>1103.5</ele>
        <time>2016-09-25T15:22:08Z</time>
      </trkpt>
      <trkpt lat="45.3372" lon="6.1015">
        <ele>1104.4</ele>
        <time>2016-09-25T15:22:14Z</time>
      </trkpt>
      <trkpt lat="45.33711" lon="6.10149">
        <ele>1105.3</ele>
        <time>2016-09-25T15:22:21Z</time>
      </trkpt>
      <trkpt lat="45.33701" lon="6.10145">
        <ele>1106.5</ele>
        <time>2016-09-25T15:22:29Z</time>
      </trkpt>
      <trkpt lat="45.33692" lon="6.10142">
        <ele>1107.6</ele>
        <time>2016-09-25T15:22:36Z</time>
      </trkpt>
      <trkpt lat="45.33683" lon="6.1014">
        <ele>1108.5</ele>
        <time>2016-09-25T15:22:41Z</time>
      </trkpt>
      <trkpt lat="45.33673" lon="6.10138">
        <ele>1109.5</ele>
        <time>2016-09-25T15:22:47Z</time>
      </trkpt>
      <trkpt lat="45.33664" lon="6.10138">
        <ele>1110.4</ele>
        <time>2016-09-25T15:22:53Z</time>
      </trkpt>
      <trkpt lat="45.33654" lon="6.10133">
        <ele>1111.5</ele>
        <time>2016-09-25T15:23:00Z</time>
      </trkpt>
      <trkpt lat="45.33645" lon="6.10128">
        <ele>1112.5</ele>
        <time>2016-09-25T15:23:07Z</time>
      </trkpt>
      <trkpt lat="45.33637" lon="6.10123">
        <ele>1113.4</ele>
        <time>2016-09-25T15:23:13Z</time>
      </trkpt>
      <trkpt lat="45.33629" lon="6.10116">
        <ele>1114.3</ele>
        <time>2016-09-25T15:23:20Z</time>
      </trkpt>
      <trkpt lat="45.3362" lon="6.1011">
        <ele>1115.6</ele>
        <time>2016-09-25T15:23:27Z</time>
      </trkpt>
      <trkpt lat="45.33611" lon="6.10105">
        <ele>1116.8</ele>
        <time>2016-09-25T15:23:33Z</time>
      </trkpt>
      <trkpt lat="45.33602" lon="6.10103">
        <ele>1118</ele>
        <time>2016-09-25T15:23:40Z</time>
      </trkpt>
      <trkpt lat="45.33592" lon="6.10102">
        <ele>1119.1</ele>
        <time>2016-09-25T15:23:47Z</time>
      </trkpt>
      <trkpt lat="45.33583" lon="6.10102">
        <ele>1120.1</ele>
        <time>2016-09-25T15:23:54Z</time>
      </trkpt>
      <trkpt lat="45.33574" lon="6.10101">
        <ele>1121</ele>
        <time>2016-09-25T15:24:01Z</time>
      </trkpt>
      <trkpt lat="45.33564" lon="6.10097">
        <ele>1122.1</ele>
        <time>2016-09-25T15:24:08Z</time>
      </trkpt>
      <trkpt lat="45.33556" lon="6.10089">
        <ele>1123.1</ele>
        <time>2016-09-25T15:24:15Z</time>
      </trkpt>
      <trkpt lat="45.33552" lon="6.10076">
        <ele>1124.3</ele>
        <time>2016-09-25T15:24:24Z</time>
      </trkpt>
      <trkpt lat="45.33546" lon="6.10065">
        <ele>1125.3</ele>
        <time>2016-09-25T15:24:31Z</time>
      </trkpt>
      <trkpt lat="45.33538" lon="6.10057">
        <ele>1125.9</ele>
        <time>2016-09-25T15:24:36Z</time>
      </trkpt>
      <trkpt lat="45.33531" lon="6.10049">
        <ele>1126.8</ele>
        <time>2016-09-25T15:24:42Z</time>
      </trkpt>
      <trkpt lat="45.33521" lon="6.10046">
        <ele>1127.8</ele>
        <time>2016-09-25T15:24:49Z</time>
      </trkpt>
      <trkpt lat="45.33512" lon="6.10041">
        <ele>1128.9</ele>
        <time>2016-09-25T15:24:57Z</time>
      </trkpt>
      <trkpt lat="45.33504" lon="6.10033">
        <ele>1129.8</ele>
        <time>2016-09-25T15:25:04Z</time>
      </trkpt>
      <trkpt lat="45.335" lon="6.10021">
        <ele>1131</ele>
        <time>2016-09-25T15:25:11Z</time>
      </trkpt>
      <trkpt lat="45.33496" lon="6.10008">
        <ele>1132.2</ele>
        <time>2016-09-25T15:25:19Z</time>
      </trkpt>
      <trkpt lat="45.33489" lon="6.1">
        <ele>1132.8</ele>
        <time>2016-09-25T15:25:24Z</time>
      </trkpt>
      <trkpt lat="45.33479" lon="6.09993">
        <ele>1133.6</ele>
        <time>2016-09-25T15:25:30Z</time>
      </trkpt>
      <trkpt lat="45.33471" lon="6.09987">
        <ele>1134.4</ele>
        <time>2016-09-25T15:25:36Z</time>
      </trkpt>
      <trkpt lat="45.33461" lon="6.09984">
        <ele>1135.2</ele>
        <time>2016-09-25T15:25:42Z</time>
      </trkpt>
      <trkpt lat="45.33452" lon="6.09984">
        <ele>1135.9</ele>
        <time>2016-09-25T15:25:48Z</time>
      </trkpt>
      <trkpt lat="45.33443" lon="6.09981">
        <ele>1136.8</ele>
        <time>2016-09-25T15:25:55Z</time>
      </trkpt>
      <trkpt lat="45.33435" lon="6.09972">
        <ele>1137.8</ele>
        <time>2016-09-25T15:26:02Z</time>
      </trkpt>
      <trkpt lat="45.33427" lon="6.09967">
        <ele>1139.1</ele>
        <time>2016-09-25T15:26:10Z</time>
      </trkpt>
      <trkpt lat="45.33417" lon="6.09966">
        <ele>1140.5</ele>
        <time>2016-09-25T15:26:18Z</time>
      </trkpt>
      <trkpt lat="45.33406" lon="6.09968">
        <ele>1141.1</ele>
        <time>2016-09-25T15:26:23Z</time>
      </trkpt>
      <trkpt lat="45.33397" lon="6.09972">
        <ele>1141.8</ele>
        <time>2016-09-25T15:26:28Z</time>
      </trkpt>
      <trkpt lat="45.33389" lon="6.09966">
        <ele>1143</ele>
        <time>2016-09-25T15:26:36Z</time>
      </trkpt>
      <trkpt lat="45.33381" lon="6.09958">
        <ele>1143.9</ele>
        <time>2016-09-25T15:26:42Z</time>
      </trkpt>
      <trkpt lat="45.33372" lon="6.09952">
        <ele>1144.9</ele>
        <time>2016-09-25T15:26:49Z</time>
      </trkpt>
      <trkpt lat="45.33363" lon="6.09951">
        <ele>1146.3</ele>
        <time>2016-09-25T15:26:56Z</time>
      </trkpt>
      <trkpt lat="45.33353" lon="6.09949">
        <ele>1147.2</ele>
        <time>2016-09-25T15:27:03Z</time>
      </trkpt>
      <trkpt lat="45.33343" lon="6.09947">
        <ele>1148</ele>
        <time>2016-09-25T15:27:10Z</time>
      </trkpt>
      <trkpt lat="45.33333" lon="6.09946">
        <ele>1149.1</ele>
        <time>2016-09-25T15:27:18Z</time>
      </trkpt>
      <trkpt lat="45.33324" lon="6.09941">
        <ele>1150.1</ele>
        <time>2016-09-25T15:27:26Z</time>
      </trkpt>
      <trkpt lat="45.33314" lon="6.0994">
        <ele>1150.9</ele>
        <time>2016-09-25T15:27:33Z</time>
      </trkpt>
      <trkpt lat="45.33305" lon="6.09942">
        <ele>1151.7</ele>
        <time>2016-09-25T15:27:39Z</time>
      </trkpt>
      <trkpt lat="45.33296" lon="6.09937">
        <ele>1152.6</ele>
        <time>2016-09-25T15:27:46Z</time>
      </trkpt>
      <trkpt lat="45.33287" lon="6.09937">
        <ele>1153.6</ele>
        <time>2016-09-25T15:27:52Z</time>
      </trkpt>
      <trkpt lat="45.33278" lon="6.09938">
        <ele>1154.5</ele>
        <time>2016-09-25T15:27:58Z</time>
      </trkpt>
      <trkpt lat="45.33269" lon="6.09943">
        <ele>1155.4</ele>
        <time>2016-09-25T15:28:04Z</time>
      </trkpt>
      <trkpt lat="45.33259" lon="6.09945">
        <ele>1156.2</ele>
        <time>2016-09-25T15:28:10Z</time>
      </trkpt>
      <trkpt lat="45.3325" lon="6.09945">
        <ele>1157</ele>
        <time>2016-09-25T15:28:16Z</time>
      </trkpt>
      <trkpt lat="45.3324" lon="6.09945">
        <ele>1157.9</ele>
        <time>2016-09-25T15:28:22Z</time>
      </trkpt>
      <trkpt lat="45.33231" lon="6.09942">
        <ele>1158.8</ele>
        <time>2016-09-25T15:28:28Z</time>
      </trkpt>
      <trkpt lat="45.33221" lon="6.09938">
        <ele>1159.7</ele>
        <time>2016-09-25T15:28:34Z</time>
      </trkpt>
      <trkpt lat="45.33211" lon="6.09936">
        <ele>1160.6</ele>
        <time>2016-09-25T15:28:40Z</time>
      </trkpt>
      <trkpt lat="45.332" lon="6.09934">
        <ele>1161.6</ele>
        <time>2016-09-25T15:28:46Z</time>
      </trkpt>
      <trkpt lat="45.3319" lon="6.09932">
        <ele>1162.6</ele>
        <time>2016-09-25T15:28:52Z</time>
      </trkpt>
      <trkpt lat="45.3318" lon="6.0993">
        <ele>1163.5</ele>
        <time>2016-09-25T15:28:58Z</time>
      </trkpt>
      <trkpt lat="45.3317" lon="6.09927">
        <ele>1164.2</ele>
        <time>2016-09-25T15:29:04Z</time>
      </trkpt>
      <trkpt lat="45.33161" lon="6.09924">
        <ele>1165.2</ele>
        <time>2016-09-25T15:29:10Z</time>
      </trkpt>
      <trkpt lat="45.33152" lon="6.09926">
        <ele>1166</ele>
        <time>2016-09-25T15:29:16Z</time>
      </trkpt>
      <trkpt lat="45.33143" lon="6.09924">
        <ele>1167</ele>
        <time>2016-09-25T15:29:23Z</time>
      </trkpt>
      <trkpt lat="45.33133" lon="6.09926">
        <ele>1167.6</ele>
        <time>2016-09-25T15:29:29Z</time>
      </trkpt>
      <trkpt lat="45.33124" lon="6.09927">
        <ele>1168.3</ele>
        <time>2016-09-25T15:29:35Z</time>
      </trkpt>
      <trkpt lat="45.33114" lon="6.09927">
        <ele>1169.5</ele>
        <time>2016-09-25T15:29:43Z</time>
      </trkpt>
      <trkpt lat="45.33104" lon="6.09929">
        <ele>1170.6</ele>
        <time>2016-09-25T15:29:50Z</time>
      </trkpt>
      <trkpt lat="45.33094" lon="6.09932">
        <ele>1171.7</ele>
        <time>2016-09-25T15:29:57Z</time>
      </trkpt>
      <trkpt lat="45.33084" lon="6.09933">
        <ele>1172.5</ele>
        <time>2016-09-25T15:30:03Z</time>
      </trkpt>
      <trkpt lat="45.33075" lon="6.09933">
        <ele>1173.5</ele>
        <time>2016-09-25T15:30:10Z</time>
      </trkpt>
      <trkpt lat="45.33065" lon="6.09933">
        <ele>1174.6</ele>
        <time>2016-09-25T15:30:18Z</time>
      </trkpt>
      <trkpt lat="45.33056" lon="6.09933">
        <ele>1175.7</ele>
        <time>2016-09-25T15:30:25Z</time>
      </trkpt>
      <trkpt lat="45.33046" lon="6.09929">
        <ele>1176.8</ele>
        <time>2016-09-25T15:30:33Z</time>
      </trkpt>
      <trkpt lat="45.33038" lon="6.09923">
        <ele>1177.8</ele>
        <time>2016-09-25T15:30:40Z</time>
      </trkpt>
      <trkpt lat="45.33028" lon="6.09921">
        <ele>1178.8</ele>
        <time>2016-09-25T15:30:47Z</time>
      </trkpt>
      <trkpt lat="45.33019" lon="6.0992">
        <ele>1179.9</ele>
        <time>2016-09-25T15:30:54Z</time>
      </trkpt>
      <trkpt lat="45.33009" lon="6.09921">
        <ele>1180.8</ele>
        <time>2016-09-25T15:31:01Z</time>
      </trkpt>
      <trkpt lat="45.33" lon="6.09921">
        <ele>1183.1</ele>
        <time>2016-09-25T15:31:08Z</time>
      </trkpt>
      <trkpt lat="45.3299" lon="6.09924">
        <ele>1183.8</ele>
        <time>2016-09-25T15:31:15Z</time>
      </trkpt>
      <trkpt lat="45.32984" lon="6.09933">
        <ele>1184.2</ele>
        <time>2016-09-25T15:31:22Z</time>
      </trkpt>
      <trkpt lat="45.32991" lon="6.09943">
        <ele>1184.9</ele>
        <time>2016-09-25T15:31:30Z</time>
      </trkpt>
      <trkpt lat="45.33001" lon="6.09941">
        <ele>1186.1</ele>
        <time>2016-09-25T15:31:39Z</time>
      </trkpt>
      <trkpt lat="45.3301" lon="6.09943">
        <ele>1187.3</ele>
        <time>2016-09-25T15:31:48Z</time>
      </trkpt>
      <trkpt lat="45.33019" lon="6.09948">
        <ele>1188.6</ele>
        <time>2016-09-25T15:31:57Z</time>
      </trkpt>
      <trkpt lat="45.33028" lon="6.09953">
        <ele>1189.8</ele>
        <time>2016-09-25T15:32:06Z</time>
      </trkpt>
      <trkpt lat="45.33037" lon="6.09961">
        <ele>1191.1</ele>
        <time>2016-09-25T15:32:15Z</time>
      </trkpt>
      <trkpt lat="45.33045" lon="6.09968">
        <ele>1192</ele>
        <time>2016-09-25T15:32:22Z</time>
      </trkpt>
      <trkpt lat="45.33054" lon="6.09975">
        <ele>1193.1</ele>
        <time>2016-09-25T15:32:29Z</time>
      </trkpt>
      <trkpt lat="45.33063" lon="6.09979">
        <ele>1194.9</ele>
        <time>2016-09-25T15:32:40Z</time>
      </trkpt>
      <trkpt lat="45.33072" lon="6.09984">
        <ele>1196.2</ele>
        <time>2016-09-25T15:32:49Z</time>
      </trkpt>
      <trkpt lat="45.3308" lon="6.09991">
        <ele>1197.8</ele>
        <time>2016-09-25T15:32:58Z</time>
      </trkpt>
      <trkpt lat="45.33088" lon="6.09999">
        <ele>1199</ele>
        <time>2016-09-25T15:33:05Z</time>
      </trkpt>
      <trkpt lat="45.33097" lon="6.10006">
        <ele>1200.1</ele>
        <time>2016-09-25T15:33:10Z</time>
      </trkpt>
      <trkpt lat="45.33106" lon="6.10013">
        <ele>1201.6</ele>
        <time>2016-09-25T15:33:17Z</time>
      </trkpt>
      <trkpt lat="45.33113" lon="6.10023">
        <ele>1203.8</ele>
        <time>2016-09-25T15:33:27Z</time>
      </trkpt>
      <trkpt lat="45.33122" lon="6.10029">
        <ele>1205.4</ele>
        <time>2016-09-25T15:33:35Z</time>
      </trkpt>
      <trkpt lat="45.33131" lon="6.10033">
        <ele>1207.3</ele>
        <time>2016-09-25T15:33:45Z</time>
      </trkpt>
      <trkpt lat="45.33139" lon="6.10039">
        <ele>1209.1</ele>
        <time>2016-09-25T15:33:54Z</time>
      </trkpt>
      <trkpt lat="45.33147" lon="6.10046">
        <ele>1210.9</ele>
        <time>2016-09-25T15:34:04Z</time>
      </trkpt>
      <trkpt lat="45.33156" lon="6.10053">
        <ele>1212.1</ele>
        <time>2016-09-25T15:34:11Z</time>
      </trkpt>
      <trkpt lat="45.33164" lon="6.10061">
        <ele>1213.2</ele>
        <time>2016-09-25T15:34:18Z</time>
      </trkpt>
      <trkpt lat="45.33173" lon="6.10069">
        <ele>1214.7</ele>
        <time>2016-09-25T15:34:27Z</time>
      </trkpt>
      <trkpt lat="45.3318" lon="6.10078">
        <ele>1216.5</ele>
        <time>2016-09-25T15:34:37Z</time>
      </trkpt>
      <trkpt lat="45.33186" lon="6.10087">
        <ele>1217.7</ele>
        <time>2016-09-25T15:34:44Z</time>
      </trkpt>
      <trkpt lat="45.33193" lon="6.10096">
        <ele>1218.5</ele>
        <time>2016-09-25T15:34:49Z</time>
      </trkpt>
      <trkpt lat="45.33202" lon="6.10101">
        <ele>1219.4</ele>
        <time>2016-09-25T15:34:56Z</time>
      </trkpt>
      <trkpt lat="45.33212" lon="6.10105">
        <ele>1221.1</ele>
        <time>2016-09-25T15:35:08Z</time>
      </trkpt>
      <trkpt lat="45.33217" lon="6.10116">
        <ele>1222.2</ele>
        <time>2016-09-25T15:35:16Z</time>
      </trkpt>
      <trkpt lat="45.33225" lon="6.10125">
        <ele>1223.2</ele>
        <time>2016-09-25T15:35:23Z</time>
      </trkpt>
      <trkpt lat="45.33234" lon="6.10131">
        <ele>1224.2</ele>
        <time>2016-09-25T15:35:30Z</time>
      </trkpt>
      <trkpt lat="45.33241" lon="6.10138">
        <ele>1225.1</ele>
        <time>2016-09-25T15:35:37Z</time>
      </trkpt>
      <trkpt lat="45.3325" lon="6.10145">
        <ele>1226.1</ele>
        <time>2016-09-25T15:35:45Z</time>
      </trkpt>
      <trkpt lat="45.33258" lon="6.10151">
        <ele>1227.4</ele>
        <time>2016-09-25T15:35:53Z</time>
      </trkpt>
      <trkpt lat="45.33267" lon="6.10158">
        <ele>1228.6</ele>
        <time>2016-09-25T15:36:00Z</time>
      </trkpt>
      <trkpt lat="45.33276" lon="6.10162">
        <ele>1230.3</ele>
        <time>2016-09-25T15:36:10Z</time>
      </trkpt>
      <trkpt lat="45.33284" lon="6.10168">
        <ele>1231.3</ele>
        <time>2016-09-25T15:36:16Z</time>
      </trkpt>
      <trkpt lat="45.33292" lon="6.10175">
        <ele>1232.2</ele>
        <time>2016-09-25T15:36:22Z</time>
      </trkpt>
      <trkpt lat="45.333" lon="6.10183">
        <ele>1233.6</ele>
        <time>2016-09-25T15:36:30Z</time>
      </trkpt>
      <trkpt lat="45.33309" lon="6.1019">
        <ele>1236.1</ele>
        <time>2016-09-25T15:36:43Z</time>
      </trkpt>
      <trkpt lat="45.33316" lon="6.10197">
        <ele>1237.5</ele>
        <time>2016-09-25T15:36:52Z</time>
      </trkpt>
      <trkpt lat="45.33326" lon="6.10202">
        <ele>1239</ele>
        <time>2016-09-25T15:37:01Z</time>
      </trkpt>
      <trkpt lat="45.33335" lon="6.10209">
        <ele>1240.5</ele>
        <time>2016-09-25T15:37:11Z</time>
      </trkpt>
      <trkpt lat="45.33344" lon="6.10215">
        <ele>1241.6</ele>
        <time>2016-09-25T15:37:17Z</time>
      </trkpt>
      <trkpt lat="45.33352" lon="6.10225">
        <ele>1242.7</ele>
        <time>2016-09-25T15:37:23Z</time>
      </trkpt>
      <trkpt lat="45.33359" lon="6.10233">
        <ele>1243.7</ele>
        <time>2016-09-25T15:37:30Z</time>
      </trkpt>
      <trkpt lat="45.33364" lon="6.10245">
        <ele>1244.6</ele>
        <time>2016-09-25T15:37:37Z</time>
      </trkpt>
      <trkpt lat="45.33369" lon="6.10256">
        <ele>1245.5</ele>
        <time>2016-09-25T15:37:44Z</time>
      </trkpt>
      <trkpt lat="45.33374" lon="6.10267">
        <ele>1246.3</ele>
        <time>2016-09-25T15:37:51Z</time>
      </trkpt>
      <trkpt lat="45.3338" lon="6.10279">
        <ele>1247.1</ele>
        <time>2016-09-25T15:37:58Z</time>
      </trkpt>
      <trkpt lat="45.33389" lon="6.10286">
        <ele>1247.7</ele>
        <time>2016-09-25T15:38:05Z</time>
      </trkpt>
      <trkpt lat="45.33395" lon="6.10296">
        <ele>1248.6</ele>
        <time>2016-09-25T15:38:12Z</time>
      </trkpt>
      <trkpt lat="45.33403" lon="6.10304">
        <ele>1249.8</ele>
        <time>2016-09-25T15:38:19Z</time>
      </trkpt>
      <trkpt lat="45.3341" lon="6.10314">
        <ele>1251.1</ele>
        <time>2016-09-25T15:38:27Z</time>
      </trkpt>
      <trkpt lat="45.33415" lon="6.10325">
        <ele>1252.9</ele>
        <time>2016-09-25T15:38:36Z</time>
      </trkpt>
      <trkpt lat="45.33416" lon="6.10338">
        <ele>1255.1</ele>
        <time>2016-09-25T15:38:45Z</time>
      </trkpt>
      <trkpt lat="45.33418" lon="6.10351">
        <ele>1256.8</ele>
        <time>2016-09-25T15:38:52Z</time>
      </trkpt>
      <trkpt lat="45.33422" lon="6.10364">
        <ele>1258.6</ele>
        <time>2016-09-25T15:39:00Z</time>
      </trkpt>
      <trkpt lat="45.33429" lon="6.10371">
        <ele>1260.1</ele>
        <time>2016-09-25T15:39:06Z</time>
      </trkpt>
      <trkpt lat="45.33435" lon="6.10382">
        <ele>1261.7</ele>
        <time>2016-09-25T15:39:13Z</time>
      </trkpt>
      <trkpt lat="45.33444" lon="6.10388">
        <ele>1262.9</ele>
        <time>2016-09-25T15:39:19Z</time>
      </trkpt>
      <trkpt lat="45.33453" lon="6.10394">
        <ele>1264.5</ele>
        <time>2016-09-25T15:39:27Z</time>
      </trkpt>
      <trkpt lat="45.33461" lon="6.104">
        <ele>1265.5</ele>
        <time>2016-09-25T15:39:33Z</time>
      </trkpt>
      <trkpt lat="45.33469" lon="6.10408">
        <ele>1267.5</ele>
        <time>2016-09-25T15:40:02Z</time>
      </trkpt>
      <trkpt lat="45.33478" lon="6.10413">
        <ele>1268.3</ele>
        <time>2016-09-25T15:40:11Z</time>
      </trkpt>
      <trkpt lat="45.33485" lon="6.10422">
        <ele>1269.4</ele>
        <time>2016-09-25T15:40:19Z</time>
      </trkpt>
      <trkpt lat="45.33491" lon="6.10433">
        <ele>1270.9</ele>
        <time>2016-09-25T15:40:29Z</time>
      </trkpt>
      <trkpt lat="45.33493" lon="6.10446">
        <ele>1273</ele>
        <time>2016-09-25T15:40:39Z</time>
      </trkpt>
      <trkpt lat="45.33499" lon="6.10458">
        <ele>1274</ele>
        <time>2016-09-25T15:40:46Z</time>
      </trkpt>
      <trkpt lat="45.33508" lon="6.10462">
        <ele>1275</ele>
        <time>2016-09-25T15:40:54Z</time>
      </trkpt>
      <trkpt lat="45.33518" lon="6.10464">
        <ele>1276.4</ele>
        <time>2016-09-25T15:41:03Z</time>
      </trkpt>
      <trkpt lat="45.33527" lon="6.10465">
        <ele>1277.5</ele>
        <time>2016-09-25T15:41:10Z</time>
      </trkpt>
      <trkpt lat="45.33535" lon="6.10461">
        <ele>1278.8</ele>
        <time>2016-09-25T15:41:17Z</time>
      </trkpt>
      <trkpt lat="45.33544" lon="6.1046">
        <ele>1280.4</ele>
        <time>2016-09-25T15:41:25Z</time>
      </trkpt>
      <trkpt lat="45.33554" lon="6.10463">
        <ele>1282</ele>
        <time>2016-09-25T15:41:33Z</time>
      </trkpt>
      <trkpt lat="45.33562" lon="6.10472">
        <ele>1283.6</ele>
        <time>2016-09-25T15:41:42Z</time>
      </trkpt>
      <trkpt lat="45.3357" lon="6.10479">
        <ele>1284.6</ele>
        <time>2016-09-25T15:41:49Z</time>
      </trkpt>
      <trkpt lat="45.33578" lon="6.10486">
        <ele>1285.8</ele>
        <time>2016-09-25T15:41:57Z</time>
      </trkpt>
      <trkpt lat="45.33587" lon="6.1049">
        <ele>1287.1</ele>
        <time>2016-09-25T15:42:05Z</time>
      </trkpt>
      <trkpt lat="45.33595" lon="6.10496">
        <ele>1288.4</ele>
        <time>2016-09-25T15:42:13Z</time>
      </trkpt>
      <trkpt lat="45.33605" lon="6.10502">
        <ele>1289.3</ele>
        <time>2016-09-25T15:42:19Z</time>
      </trkpt>
      <trkpt lat="45.33613" lon="6.1051">
        <ele>1289.9</ele>
        <time>2016-09-25T15:42:24Z</time>
      </trkpt>
      <trkpt lat="45.33621" lon="6.10521">
        <ele>1290.4</ele>
        <time>2016-09-25T15:42:29Z</time>
      </trkpt>
      <trkpt lat="45.33629" lon="6.10527">
        <ele>1291.2</ele>
        <time>2016-09-25T15:42:35Z</time>
      </trkpt>
      <trkpt lat="45.33637" lon="6.10533">
        <ele>1292.3</ele>
        <time>2016-09-25T15:42:42Z</time>
      </trkpt>
      <trkpt lat="45.33647" lon="6.10536">
        <ele>1293.1</ele>
        <time>2016-09-25T15:42:51Z</time>
      </trkpt>
      <trkpt lat="45.33655" lon="6.10541">
        <ele>1293.7</ele>
        <time>2016-09-25T15:42:57Z</time>
      </trkpt>
      <trkpt lat="45.33665" lon="6.10546">
        <ele>1294.3</ele>
        <time>2016-09-25T15:43:03Z</time>
      </trkpt>
      <trkpt lat="45.33673" lon="6.10555">
        <ele>1295</ele>
        <time>2016-09-25T15:43:09Z</time>
      </trkpt>
      <trkpt lat="45.3368" lon="6.10564">
        <ele>1295.5</ele>
        <time>2016-09-25T15:43:13Z</time>
      </trkpt>
      <trkpt lat="45.33687" lon="6.10574">
        <ele>1296.5</ele>
        <time>2016-09-25T15:43:20Z</time>
      </trkpt>
      <trkpt lat="45.33692" lon="6.10585">
        <ele>1297.8</ele>
        <time>2016-09-25T15:43:29Z</time>
      </trkpt>
      <trkpt lat="45.337" lon="6.10593">
        <ele>1298.7</ele>
        <time>2016-09-25T15:43:36Z</time>
      </trkpt>
      <trkpt lat="45.33711" lon="6.10599">
        <ele>1299.8</ele>
        <time>2016-09-25T15:43:42Z</time>
      </trkpt>
      <trkpt lat="45.33718" lon="6.10608">
        <ele>1301.2</ele>
        <time>2016-09-25T15:43:50Z</time>
      </trkpt>
      <trkpt lat="45.33724" lon="6.1062">
        <ele>1303.1</ele>
        <time>2016-09-25T15:43:59Z</time>
      </trkpt>
      <trkpt lat="45.33731" lon="6.10628">
        <ele>1304.3</ele>
        <time>2016-09-25T15:44:06Z</time>
      </trkpt>
      <trkpt lat="45.3374" lon="6.10635">
        <ele>1306</ele>
        <time>2016-09-25T15:44:15Z</time>
      </trkpt>
      <trkpt lat="45.33749" lon="6.10637">
        <ele>1307.5</ele>
        <time>2016-09-25T15:44:23Z</time>
      </trkpt>
      <trkpt lat="45.33758" lon="6.1064">
        <ele>1309.3</ele>
        <time>2016-09-25T15:44:32Z</time>
      </trkpt>
      <trkpt lat="45.33767" lon="6.10644">
        <ele>1310.4</ele>
        <time>2016-09-25T15:44:38Z</time>
      </trkpt>
      <trkpt lat="45.33777" lon="6.10645">
        <ele>1311.9</ele>
        <time>2016-09-25T15:44:47Z</time>
      </trkpt>
      <trkpt lat="45.33786" lon="6.10646">
        <ele>1312.9</ele>
        <time>2016-09-25T15:44:54Z</time>
      </trkpt>
      <trkpt lat="45.33795" lon="6.10649">
        <ele>1314</ele>
        <time>2016-09-25T15:45:01Z</time>
      </trkpt>
      <trkpt lat="45.33804" lon="6.10651">
        <ele>1315.1</ele>
        <time>2016-09-25T15:45:08Z</time>
      </trkpt>
      <trkpt lat="45.33814" lon="6.10654">
        <ele>1316.1</ele>
        <time>2016-09-25T15:45:15Z</time>
      </trkpt>
      <trkpt lat="45.33824" lon="6.10657">
        <ele>1317.4</ele>
        <time>2016-09-25T15:45:24Z</time>
      </trkpt>
      <trkpt lat="45.33833" lon="6.1066">
        <ele>1318.5</ele>
        <time>2016-09-25T15:45:32Z</time>
      </trkpt>
      <trkpt lat="45.33842" lon="6.10662">
        <ele>1320</ele>
        <time>2016-09-25T15:45:41Z</time>
      </trkpt>
      <trkpt lat="45.33851" lon="6.10666">
        <ele>1321.7</ele>
        <time>2016-09-25T15:45:50Z</time>
      </trkpt>
      <trkpt lat="45.3386" lon="6.10672">
        <ele>1323.4</ele>
        <time>2016-09-25T15:45:59Z</time>
      </trkpt>
      <trkpt lat="45.3387" lon="6.10677">
        <ele>1324.7</ele>
        <time>2016-09-25T15:46:06Z</time>
      </trkpt>
      <trkpt lat="45.33879" lon="6.10682">
        <ele>1326</ele>
        <time>2016-09-25T15:46:14Z</time>
      </trkpt>
      <trkpt lat="45.33888" lon="6.10685">
        <ele>1327.4</ele>
        <time>2016-09-25T15:46:22Z</time>
      </trkpt>
      <trkpt lat="45.33898" lon="6.10687">
        <ele>1329.3</ele>
        <time>2016-09-25T15:46:31Z</time>
      </trkpt>
      <trkpt lat="45.33908" lon="6.10689">
        <ele>1331.2</ele>
        <time>2016-09-25T15:46:40Z</time>
      </trkpt>
      <trkpt lat="45.33917" lon="6.10692">
        <ele>1333.2</ele>
        <time>2016-09-25T15:46:48Z</time>
      </trkpt>
      <trkpt lat="45.33925" lon="6.10699">
        <ele>1334.9</ele>
        <time>2016-09-25T15:46:55Z</time>
      </trkpt>
      <trkpt lat="45.33933" lon="6.10707">
        <ele>1335.6</ele>
        <time>2016-09-25T15:47:01Z</time>
      </trkpt>
      <trkpt lat="45.3394" lon="6.10716">
        <ele>1335.8</ele>
        <time>2016-09-25T15:47:05Z</time>
      </trkpt>
      <trkpt lat="45.3395" lon="6.10724">
        <ele>1335.7</ele>
        <time>2016-09-25T15:47:08Z</time>
      </trkpt>
      <trkpt lat="45.33958" lon="6.1073">
        <ele>1335.1</ele>
        <time>2016-09-25T15:47:16Z</time>
      </trkpt>
      <trkpt lat="45.33961" lon="6.10742">
        <ele>1334.6</ele>
        <time>2016-09-25T15:47:28Z</time>
      </trkpt>
      <trkpt lat="45.3397" lon="6.10738">
        <ele>1333.2</ele>
        <time>2016-09-25T15:53:14Z</time>
      </trkpt>
      <trkpt lat="45.3398" lon="6.10741">
        <ele>1332</ele>
        <time>2016-09-25T15:53:26Z</time>
      </trkpt>
      <trkpt lat="45.3399" lon="6.10747">
        <ele>1331.4</ele>
        <time>2016-09-25T15:53:29Z</time>
      </trkpt>
      <trkpt lat="45.33998" lon="6.10756">
        <ele>1330.6</ele>
        <time>2016-09-25T15:53:32Z</time>
      </trkpt>
      <trkpt lat="45.34003" lon="6.10768">
        <ele>1329.4</ele>
        <time>2016-09-25T15:53:37Z</time>
      </trkpt>
      <trkpt lat="45.34004" lon="6.10783">
        <ele>1328.3</ele>
        <time>2016-09-25T15:53:40Z</time>
      </trkpt>
      <trkpt lat="45.34002" lon="6.10798">
        <ele>1326.7</ele>
        <time>2016-09-25T15:53:44Z</time>
      </trkpt>
      <trkpt lat="45.33994" lon="6.10808">
        <ele>1325.2</ele>
        <time>2016-09-25T15:53:47Z</time>
      </trkpt>
      <trkpt lat="45.33985" lon="6.10823">
        <ele>1323.7</ele>
        <time>2016-09-25T15:53:50Z</time>
      </trkpt>
      <trkpt lat="45.33987" lon="6.10837">
        <ele>1321.9</ele>
        <time>2016-09-25T15:53:55Z</time>
      </trkpt>
      <trkpt lat="45.33997" lon="6.10832">
        <ele>1316</ele>
        <time>2016-09-25T15:54:11Z</time>
      </trkpt>
      <trkpt lat="45.34007" lon="6.10826">
        <ele>1315</ele>
        <time>2016-09-25T15:54:14Z</time>
      </trkpt>
      <trkpt lat="45.34016" lon="6.10822">
        <ele>1314.2</ele>
        <time>2016-09-25T15:54:16Z</time>
      </trkpt>
      <trkpt lat="45.34029" lon="6.10814">
        <ele>1313.2</ele>
        <time>2016-09-25T15:54:19Z</time>
      </trkpt>
      <trkpt lat="45.3404" lon="6.10804">
        <ele>1312.1</ele>
        <time>2016-09-25T15:54:22Z</time>
      </trkpt>
      <trkpt lat="45.34048" lon="6.10792">
        <ele>1311.2</ele>
        <time>2016-09-25T15:54:24Z</time>
      </trkpt>
      <trkpt lat="45.34054" lon="6.10782">
        <ele>1310</ele>
        <time>2016-09-25T15:54:26Z</time>
      </trkpt>
      <trkpt lat="45.34063" lon="6.1077">
        <ele>1308.6</ele>
        <time>2016-09-25T15:54:28Z</time>
      </trkpt>
      <trkpt lat="45.34074" lon="6.10763">
        <ele>1307.1</ele>
        <time>2016-09-25T15:54:30Z</time>
      </trkpt>
      <trkpt lat="45.34086" lon="6.10757">
        <ele>1305.6</ele>
        <time>2016-09-25T15:54:32Z</time>
      </trkpt>
      <trkpt lat="45.34098" lon="6.10756">
        <ele>1303.8</ele>
        <time>2016-09-25T15:54:34Z</time>
      </trkpt>
      <trkpt lat="45.34111" lon="6.10756">
        <ele>1301.8</ele>
        <time>2016-09-25T15:54:36Z</time>
      </trkpt>
      <trkpt lat="45.34122" lon="6.10756">
        <ele>1300.1</ele>
        <time>2016-09-25T15:54:38Z</time>
      </trkpt>
      <trkpt lat="45.34139" lon="6.10752">
        <ele>1298.5</ele>
        <time>2016-09-25T15:54:40Z</time>
      </trkpt>
      <trkpt lat="45.3415" lon="6.10747">
        <ele>1296.8</ele>
        <time>2016-09-25T15:54:42Z</time>
      </trkpt>
      <trkpt lat="45.34162" lon="6.1074">
        <ele>1295.3</ele>
        <time>2016-09-25T15:54:44Z</time>
      </trkpt>
      <trkpt lat="45.34173" lon="6.10734">
        <ele>1293.2</ele>
        <time>2016-09-25T15:54:47Z</time>
      </trkpt>
      <trkpt lat="45.34185" lon="6.10731">
        <ele>1290.7</ele>
        <time>2016-09-25T15:54:50Z</time>
      </trkpt>
      <trkpt lat="45.34194" lon="6.10731">
        <ele>1289</ele>
        <time>2016-09-25T15:54:52Z</time>
      </trkpt>
      <trkpt lat="45.34205" lon="6.10728">
        <ele>1287.1</ele>
        <time>2016-09-25T15:54:54Z</time>
      </trkpt>
      <trkpt lat="45.34217" lon="6.10727">
        <ele>1284.3</ele>
        <time>2016-09-25T15:54:57Z</time>
      </trkpt>
      <trkpt lat="45.34226" lon="6.10734">
        <ele>1279.8</ele>
        <time>2016-09-25T15:55:03Z</time>
      </trkpt>
      <trkpt lat="45.34236" lon="6.10736">
        <ele>1276.6</ele>
        <time>2016-09-25T15:55:08Z</time>
      </trkpt>
      <trkpt lat="45.34247" lon="6.10738">
        <ele>1272.8</ele>
        <time>2016-09-25T15:55:14Z</time>
      </trkpt>
      <trkpt lat="45.34257" lon="6.10737">
        <ele>1270.3</ele>
        <time>2016-09-25T15:55:18Z</time>
      </trkpt>
      <trkpt lat="45.34266" lon="6.10732">
        <ele>1266.5</ele>
        <time>2016-09-25T15:55:24Z</time>
      </trkpt>
      <trkpt lat="45.34275" lon="6.10728">
        <ele>1262.7</ele>
        <time>2016-09-25T15:55:29Z</time>
      </trkpt>
      <trkpt lat="45.34286" lon="6.10721">
        <ele>1258.1</ele>
        <time>2016-09-25T15:55:36Z</time>
      </trkpt>
      <trkpt lat="45.34291" lon="6.10707">
        <ele>1255.1</ele>
        <time>2016-09-25T15:55:40Z</time>
      </trkpt>
      <trkpt lat="45.34297" lon="6.10696">
        <ele>1252.8</ele>
        <time>2016-09-25T15:55:43Z</time>
      </trkpt>
      <trkpt lat="45.34307" lon="6.10698">
        <ele>1251.2</ele>
        <time>2016-09-25T15:55:45Z</time>
      </trkpt>
      <trkpt lat="45.34316" lon="6.10691">
        <ele>1245.8</ele>
        <time>2016-09-25T15:55:53Z</time>
      </trkpt>
      <trkpt lat="45.34325" lon="6.10687">
        <ele>1242.9</ele>
        <time>2016-09-25T15:55:57Z</time>
      </trkpt>
      <trkpt lat="45.34337" lon="6.10686">
        <ele>1240.7</ele>
        <time>2016-09-25T15:56:00Z</time>
      </trkpt>
      <trkpt lat="45.34349" lon="6.10683">
        <ele>1238.7</ele>
        <time>2016-09-25T15:56:03Z</time>
      </trkpt>
      <trkpt lat="45.34359" lon="6.10678">
        <ele>1236.5</ele>
        <time>2016-09-25T15:56:06Z</time>
      </trkpt>
      <trkpt lat="45.34369" lon="6.1068">
        <ele>1234.3</ele>
        <time>2016-09-25T15:56:09Z</time>
      </trkpt>
      <trkpt lat="45.34378" lon="6.10688">
        <ele>1231.8</ele>
        <time>2016-09-25T15:56:12Z</time>
      </trkpt>
      <trkpt lat="45.34388" lon="6.10693">
        <ele>1229.5</ele>
        <time>2016-09-25T15:56:15Z</time>
      </trkpt>
      <trkpt lat="45.34399" lon="6.10688">
        <ele>1225.9</ele>
        <time>2016-09-25T15:56:20Z</time>
      </trkpt>
      <trkpt lat="45.3441" lon="6.10682">
        <ele>1223.8</ele>
        <time>2016-09-25T15:56:23Z</time>
      </trkpt>
      <trkpt lat="45.34421" lon="6.1068">
        <ele>1221.8</ele>
        <time>2016-09-25T15:56:26Z</time>
      </trkpt>
      <trkpt lat="45.34431" lon="6.10677">
        <ele>1220.2</ele>
        <time>2016-09-25T15:56:28Z</time>
      </trkpt>
      <trkpt lat="45.34441" lon="6.10675">
        <ele>1218</ele>
        <time>2016-09-25T15:56:31Z</time>
      </trkpt>
      <trkpt lat="45.3445" lon="6.10672">
        <ele>1216.2</ele>
        <time>2016-09-25T15:56:34Z</time>
      </trkpt>
      <trkpt lat="45.34459" lon="6.1067">
        <ele>1214.6</ele>
        <time>2016-09-25T15:56:37Z</time>
      </trkpt>
      <trkpt lat="45.34468" lon="6.10674">
        <ele>1212.3</ele>
        <time>2016-09-25T15:56:41Z</time>
      </trkpt>
      <trkpt lat="45.34477" lon="6.10677">
        <ele>1210.5</ele>
        <time>2016-09-25T15:56:45Z</time>
      </trkpt>
      <trkpt lat="45.34487" lon="6.10675">
        <ele>1208.4</ele>
        <time>2016-09-25T15:56:50Z</time>
      </trkpt>
      <trkpt lat="45.34498" lon="6.10675">
        <ele>1205.4</ele>
        <time>2016-09-25T15:56:55Z</time>
      </trkpt>
      <trkpt lat="45.34507" lon="6.10675">
        <ele>1203.6</ele>
        <time>2016-09-25T15:56:58Z</time>
      </trkpt>
      <trkpt lat="45.34518" lon="6.10673">
        <ele>1200.7</ele>
        <time>2016-09-25T15:57:02Z</time>
      </trkpt>
      <trkpt lat="45.3453" lon="6.10666">
        <ele>1197.4</ele>
        <time>2016-09-25T15:57:06Z</time>
      </trkpt>
      <trkpt lat="45.3454" lon="6.10667">
        <ele>1194.6</ele>
        <time>2016-09-25T15:57:09Z</time>
      </trkpt>
      <trkpt lat="45.3455" lon="6.1067">
        <ele>1191.4</ele>
        <time>2016-09-25T15:57:12Z</time>
      </trkpt>
      <trkpt lat="45.3456" lon="6.10671">
        <ele>1186.6</ele>
        <time>2016-09-25T15:57:17Z</time>
      </trkpt>
      <trkpt lat="45.34569" lon="6.10665">
        <ele>1181.3</ele>
        <time>2016-09-25T15:57:23Z</time>
      </trkpt>
      <trkpt lat="45.34577" lon="6.10654">
        <ele>1177.2</ele>
        <time>2016-09-25T15:57:28Z</time>
      </trkpt>
      <trkpt lat="45.34586" lon="6.10647">
        <ele>1174.3</ele>
        <time>2016-09-25T15:57:31Z</time>
      </trkpt>
      <trkpt lat="45.34595" lon="6.10643">
        <ele>1172.3</ele>
        <time>2016-09-25T15:57:33Z</time>
      </trkpt>
      <trkpt lat="45.34604" lon="6.10639">
        <ele>1169.3</ele>
        <time>2016-09-25T15:57:36Z</time>
      </trkpt>
      <trkpt lat="45.34613" lon="6.10633">
        <ele>1165.4</ele>
        <time>2016-09-25T15:57:40Z</time>
      </trkpt>
      <trkpt lat="45.34624" lon="6.10628">
        <ele>1159.5</ele>
        <time>2016-09-25T15:57:46Z</time>
      </trkpt>
      <trkpt lat="45.34631" lon="6.10618">
        <ele>1156.4</ele>
        <time>2016-09-25T15:57:49Z</time>
      </trkpt>
      <trkpt lat="45.34638" lon="6.10602">
        <ele>1153.4</ele>
        <time>2016-09-25T15:57:52Z</time>
      </trkpt>
      <trkpt lat="45.34648" lon="6.10596">
        <ele>1151.4</ele>
        <time>2016-09-25T15:57:54Z</time>
      </trkpt>
      <trkpt lat="45.3466" lon="6.10595">
        <ele>1148.5</ele>
        <time>2016-09-25T15:57:57Z</time>
      </trkpt>
      <trkpt lat="45.34669" lon="6.10596">
        <ele>1145.8</ele>
        <time>2016-09-25T15:58:00Z</time>
      </trkpt>
      <trkpt lat="45.34681" lon="6.10592">
        <ele>1143.3</ele>
        <time>2016-09-25T15:58:03Z</time>
      </trkpt>
      <trkpt lat="45.34692" lon="6.10588">
        <ele>1141</ele>
        <time>2016-09-25T15:58:06Z</time>
      </trkpt>
      <trkpt lat="45.34701" lon="6.10585">
        <ele>1138.5</ele>
        <time>2016-09-25T15:58:09Z</time>
      </trkpt>
      <trkpt lat="45.34712" lon="6.10583">
        <ele>1135.3</ele>
        <time>2016-09-25T15:58:13Z</time>
      </trkpt>
      <trkpt lat="45.34719" lon="6.10574">
        <ele>1131.8</ele>
        <time>2016-09-25T15:58:17Z</time>
      </trkpt>
      <trkpt lat="45.34725" lon="6.10564">
        <ele>1129.1</ele>
        <time>2016-09-25T15:58:20Z</time>
      </trkpt>
      <trkpt lat="45.34736" lon="6.10555">
        <ele>1125</ele>
        <time>2016-09-25T15:58:24Z</time>
      </trkpt>
      <trkpt lat="45.34747" lon="6.10548">
        <ele>1121.9</ele>
        <time>2016-09-25T15:58:27Z</time>
      </trkpt>
      <trkpt lat="45.34756" lon="6.10543">
        <ele>1118</ele>
        <time>2016-09-25T15:58:30Z</time>
      </trkpt>
      <trkpt lat="45.34766" lon="6.10539">
        <ele>1114.8</ele>
        <time>2016-09-25T15:58:33Z</time>
      </trkpt>
      <trkpt lat="45.34774" lon="6.10531">
        <ele>1110.5</ele>
        <time>2016-09-25T15:58:37Z</time>
      </trkpt>
      <trkpt lat="45.3478" lon="6.10519">
        <ele>1105.4</ele>
        <time>2016-09-25T15:58:42Z</time>
      </trkpt>
      <trkpt lat="45.34778" lon="6.10504">
        <ele>1099.5</ele>
        <time>2016-09-25T15:58:48Z</time>
      </trkpt>
      <trkpt lat="45.3478" lon="6.1049">
        <ele>1095.2</ele>
        <time>2016-09-25T15:58:52Z</time>
      </trkpt>
      <trkpt lat="45.34783" lon="6.10477">
        <ele>1091.7</ele>
        <time>2016-09-25T15:58:55Z</time>
      </trkpt>
      <trkpt lat="45.34787" lon="6.10465">
        <ele>1087.9</ele>
        <time>2016-09-25T15:58:58Z</time>
      </trkpt>
      <trkpt lat="45.34795" lon="6.10457">
        <ele>1083.4</ele>
        <time>2016-09-25T15:59:02Z</time>
      </trkpt>
      <trkpt lat="45.34803" lon="6.10448">
        <ele>1078.8</ele>
        <time>2016-09-25T15:59:06Z</time>
      </trkpt>
      <trkpt lat="45.34812" lon="6.10439">
        <ele>1074.5</ele>
        <time>2016-09-25T15:59:10Z</time>
      </trkpt>
      <trkpt lat="45.34821" lon="6.10429">
        <ele>1071</ele>
        <time>2016-09-25T15:59:13Z</time>
      </trkpt>
      <trkpt lat="45.34829" lon="6.10418">
        <ele>1067.2</ele>
        <time>2016-09-25T15:59:16Z</time>
      </trkpt>
      <trkpt lat="45.3484" lon="6.10413">
        <ele>1063.8</ele>
        <time>2016-09-25T15:59:19Z</time>
      </trkpt>
      <trkpt lat="45.34849" lon="6.10404">
        <ele>1058.7</ele>
        <time>2016-09-25T15:59:24Z</time>
      </trkpt>
      <trkpt lat="45.34859" lon="6.10396">
        <ele>1055.6</ele>
        <time>2016-09-25T15:59:27Z</time>
      </trkpt>
      <trkpt lat="45.34867" lon="6.10386">
        <ele>1052.2</ele>
        <time>2016-09-25T15:59:30Z</time>
      </trkpt>
      <trkpt lat="45.34878" lon="6.10384">
        <ele>1049</ele>
        <time>2016-09-25T15:59:33Z</time>
      </trkpt>
      <trkpt lat="45.34888" lon="6.10378">
        <ele>1045.8</ele>
        <time>2016-09-25T15:59:36Z</time>
      </trkpt>
      <trkpt lat="45.34895" lon="6.10369">
        <ele>1043</ele>
        <time>2016-09-25T15:59:39Z</time>
      </trkpt>
      <trkpt lat="45.34904" lon="6.10368">
        <ele>1037.5</ele>
        <time>2016-09-25T15:59:47Z</time>
      </trkpt>
      <trkpt lat="45.34915" lon="6.10368">
        <ele>1035.1</ele>
        <time>2016-09-25T15:59:52Z</time>
      </trkpt>
      <trkpt lat="45.34925" lon="6.10364">
        <ele>1032.5</ele>
        <time>2016-09-25T15:59:58Z</time>
      </trkpt>
      <trkpt lat="45.34931" lon="6.10354">
        <ele>1030.4</ele>
        <time>2016-09-25T16:00:03Z</time>
      </trkpt>
      <trkpt lat="45.34941" lon="6.10351">
        <ele>1028.2</ele>
        <time>2016-09-25T16:00:08Z</time>
      </trkpt>
      <trkpt lat="45.34946" lon="6.1034">
        <ele>1025.3</ele>
        <time>2016-09-25T16:00:13Z</time>
      </trkpt>
      <trkpt lat="45.34954" lon="6.10327">
        <ele>1022.5</ele>
        <time>2016-09-25T16:00:17Z</time>
      </trkpt>
      <trkpt lat="45.3496" lon="6.10312">
        <ele>1018.2</ele>
        <time>2016-09-25T16:00:22Z</time>
      </trkpt>
      <trkpt lat="45.34971" lon="6.10304">
        <ele>1014.3</ele>
        <time>2016-09-25T16:00:26Z</time>
      </trkpt>
      <trkpt lat="45.34979" lon="6.10291">
        <ele>1011.2</ele>
        <time>2016-09-25T16:00:29Z</time>
      </trkpt>
      <trkpt lat="45.34987" lon="6.10281">
        <ele>1007.5</ele>
        <time>2016-09-25T16:00:33Z</time>
      </trkpt>
      <trkpt lat="45.34992" lon="6.10269">
        <ele>1003.6</ele>
        <time>2016-09-25T16:00:37Z</time>
      </trkpt>
      <trkpt lat="45.35001" lon="6.10264">
        <ele>999.6</ele>
        <time>2016-09-25T16:00:41Z</time>
      </trkpt>
      <trkpt lat="45.3501" lon="6.10263">
        <ele>995.3</ele>
        <time>2016-09-25T16:00:45Z</time>
      </trkpt>
      <trkpt lat="45.3502" lon="6.10255">
        <ele>992</ele>
        <time>2016-09-25T16:00:48Z</time>
      </trkpt>
      <trkpt lat="45.3503" lon="6.1025">
        <ele>988.6</ele>
        <time>2016-09-25T16:00:51Z</time>
      </trkpt>
      <trkpt lat="45.3504" lon="6.10246">
        <ele>985.2</ele>
        <time>2016-09-25T16:00:54Z</time>
      </trkpt>
      <trkpt lat="45.35049" lon="6.1024">
        <ele>982</ele>
        <time>2016-09-25T16:00:57Z</time>
      </trkpt>
      <trkpt lat="45.35058" lon="6.10239">
        <ele>979.2</ele>
        <time>2016-09-25T16:01:00Z</time>
      </trkpt>
      <trkpt lat="45.35068" lon="6.10237">
        <ele>976.2</ele>
        <time>2016-09-25T16:01:03Z</time>
      </trkpt>
      <trkpt lat="45.3508" lon="6.10238">
        <ele>973.3</ele>
        <time>2016-09-25T16:01:06Z</time>
      </trkpt>
      <trkpt lat="45.35088" lon="6.10233">
        <ele>968.3</ele>
        <time>2016-09-25T16:01:11Z</time>
      </trkpt>
      <trkpt lat="45.35092" lon="6.10221">
        <ele>963.6</ele>
        <time>2016-09-25T16:01:16Z</time>
      </trkpt>
      <trkpt lat="45.35093" lon="6.10207">
        <ele>959.2</ele>
        <time>2016-09-25T16:01:20Z</time>
      </trkpt>
      <trkpt lat="45.35088" lon="6.10195">
        <ele>954.4</ele>
        <time>2016-09-25T16:01:25Z</time>
      </trkpt>
      <trkpt lat="45.35084" lon="6.10182">
        <ele>949.5</ele>
        <time>2016-09-25T16:01:31Z</time>
      </trkpt>
      <trkpt lat="45.35093" lon="6.10179">
        <ele>934.4</ele>
        <time>2016-09-25T16:02:23Z</time>
      </trkpt>
      <trkpt lat="45.35102" lon="6.1018">
        <ele>933.2</ele>
        <time>2016-09-25T16:02:29Z</time>
      </trkpt>
      <trkpt lat="45.35113" lon="6.10183">
        <ele>931.6</ele>
        <time>2016-09-25T16:02:35Z</time>
      </trkpt>
      <trkpt lat="45.35123" lon="6.10183">
        <ele>929.3</ele>
        <time>2016-09-25T16:02:39Z</time>
      </trkpt>
      <trkpt lat="45.35135" lon="6.10179">
        <ele>926.5</ele>
        <time>2016-09-25T16:02:43Z</time>
      </trkpt>
      <trkpt lat="45.35143" lon="6.10171">
        <ele>924.1</ele>
        <time>2016-09-25T16:02:46Z</time>
      </trkpt>
      <trkpt lat="45.35152" lon="6.10168">
        <ele>921.4</ele>
        <time>2016-09-25T16:02:49Z</time>
      </trkpt>
      <trkpt lat="45.35163" lon="6.10169">
        <ele>918.4</ele>
        <time>2016-09-25T16:02:52Z</time>
      </trkpt>
      <trkpt lat="45.35173" lon="6.10164">
        <ele>915.3</ele>
        <time>2016-09-25T16:02:55Z</time>
      </trkpt>
      <trkpt lat="45.35182" lon="6.10172">
        <ele>911.3</ele>
        <time>2016-09-25T16:02:59Z</time>
      </trkpt>
      <trkpt lat="45.35188" lon="6.10184">
        <ele>907.6</ele>
        <time>2016-09-25T16:03:03Z</time>
      </trkpt>
      <trkpt lat="45.35192" lon="6.10195">
        <ele>903.5</ele>
        <time>2016-09-25T16:03:07Z</time>
      </trkpt>
      <trkpt lat="45.35195" lon="6.10209">
        <ele>899.9</ele>
        <time>2016-09-25T16:03:11Z</time>
      </trkpt>
      <trkpt lat="45.35196" lon="6.10222">
        <ele>888.2</ele>
        <time>2016-09-25T16:03:33Z</time>
      </trkpt>
      <trkpt lat="45.35196" lon="6.10235">
        <ele>882.1</ele>
        <time>2016-09-25T16:04:01Z</time>
      </trkpt>
      <trkpt lat="45.35206" lon="6.10233">
        <ele>878.5</ele>
        <time>2016-09-25T16:04:11Z</time>
      </trkpt>
      <trkpt lat="45.35215" lon="6.10226">
        <ele>875</ele>
        <time>2016-09-25T16:04:18Z</time>
      </trkpt>
      <trkpt lat="45.35224" lon="6.10219">
        <ele>872.6</ele>
        <time>2016-09-25T16:04:22Z</time>
      </trkpt>
      <trkpt lat="45.35234" lon="6.10214">
        <ele>869</ele>
        <time>2016-09-25T16:04:27Z</time>
      </trkpt>
      <trkpt lat="45.35242" lon="6.10207">
        <ele>866.2</ele>
        <time>2016-09-25T16:04:31Z</time>
      </trkpt>
      <trkpt lat="45.3525" lon="6.10197">
        <ele>862.9</ele>
        <time>2016-09-25T16:04:36Z</time>
      </trkpt>
      <trkpt lat="45.35251" lon="6.10182">
        <ele>859.7</ele>
        <time>2016-09-25T16:04:40Z</time>
      </trkpt>
      <trkpt lat="45.35254" lon="6.10168">
        <ele>855.9</ele>
        <time>2016-09-25T16:04:46Z</time>
      </trkpt>
      <trkpt lat="45.3526" lon="6.10155">
        <ele>852.6</ele>
        <time>2016-09-25T16:04:51Z</time>
      </trkpt>
      <trkpt lat="45.35268" lon="6.10148">
        <ele>849.4</ele>
        <time>2016-09-25T16:04:57Z</time>
      </trkpt>
      <trkpt lat="45.35265" lon="6.1016">
        <ele>842.7</ele>
        <time>2016-09-25T16:05:30Z</time>
      </trkpt>
      <trkpt lat="45.35262" lon="6.10172">
        <ele>841.5</ele>
        <time>2016-09-25T16:05:50Z</time>
      </trkpt>
      <trkpt lat="45.35268" lon="6.10185">
        <ele>839.3</ele>
        <time>2016-09-25T16:05:56Z</time>
      </trkpt>
      <trkpt lat="45.35277" lon="6.10197">
        <ele>838</ele>
        <time>2016-09-25T16:05:59Z</time>
      </trkpt>
      <trkpt lat="45.35284" lon="6.10206">
        <ele>836.5</ele>
        <time>2016-09-25T16:06:02Z</time>
      </trkpt>
      <trkpt lat="45.35293" lon="6.1021">
        <ele>831.9</ele>
        <time>2016-09-25T16:06:09Z</time>
      </trkpt>
      <trkpt lat="45.35302" lon="6.10205">
        <ele>828.9</ele>
        <time>2016-09-25T16:06:13Z</time>
      </trkpt>
      <trkpt lat="45.35311" lon="6.10199">
        <ele>825.5</ele>
        <time>2016-09-25T16:06:17Z</time>
      </trkpt>
      <trkpt lat="45.3532" lon="6.10189">
        <ele>822.1</ele>
        <time>2016-09-25T16:06:21Z</time>
      </trkpt>
      <trkpt lat="45.35323" lon="6.10175">
        <ele>818.3</ele>
        <time>2016-09-25T16:06:26Z</time>
      </trkpt>
      <trkpt lat="45.35326" lon="6.10162">
        <ele>816.2</ele>
        <time>2016-09-25T16:06:29Z</time>
      </trkpt>
      <trkpt lat="45.35329" lon="6.10147">
        <ele>813.6</ele>
        <time>2016-09-25T16:06:33Z</time>
      </trkpt>
      <trkpt lat="45.35328" lon="6.10134">
        <ele>811.1</ele>
        <time>2016-09-25T16:06:37Z</time>
      </trkpt>
      <trkpt lat="45.35337" lon="6.10128">
        <ele>804.9</ele>
        <time>2016-09-25T16:06:46Z</time>
      </trkpt>
      <trkpt lat="45.35347" lon="6.10133">
        <ele>801.9</ele>
        <time>2016-09-25T16:06:51Z</time>
      </trkpt>
      <trkpt lat="45.35354" lon="6.10143">
        <ele>796.7</ele>
        <time>2016-09-25T16:06:59Z</time>
      </trkpt>
      <trkpt lat="45.35362" lon="6.10153">
        <ele>794.4</ele>
        <time>2016-09-25T16:07:02Z</time>
      </trkpt>
      <trkpt lat="45.35373" lon="6.10156">
        <ele>791.1</ele>
        <time>2016-09-25T16:07:06Z</time>
      </trkpt>
      <trkpt lat="45.35381" lon="6.10148">
        <ele>787.8</ele>
        <time>2016-09-25T16:07:10Z</time>
      </trkpt>
      <trkpt lat="45.35389" lon="6.10138">
        <ele>784.2</ele>
        <time>2016-09-25T16:07:14Z</time>
      </trkpt>
      <trkpt lat="45.35393" lon="6.10126">
        <ele>780.6</ele>
        <time>2016-09-25T16:07:18Z</time>
      </trkpt>
      <trkpt lat="45.3539" lon="6.10112">
        <ele>777.1</ele>
        <time>2016-09-25T16:07:22Z</time>
      </trkpt>
      <trkpt lat="45.35386" lon="6.10099">
        <ele>773.8</ele>
        <time>2016-09-25T16:07:26Z</time>
      </trkpt>
      <trkpt lat="45.35396" lon="6.10104">
        <ele>762.7</ele>
        <time>2016-09-25T16:07:44Z</time>
      </trkpt>
      <trkpt lat="45.35404" lon="6.10112">
        <ele>761.8</ele>
        <time>2016-09-25T16:07:47Z</time>
      </trkpt>
      <trkpt lat="45.35414" lon="6.10124">
        <ele>761</ele>
        <time>2016-09-25T16:07:50Z</time>
      </trkpt>
      <trkpt lat="45.35422" lon="6.10133">
        <ele>760.3</ele>
        <time>2016-09-25T16:07:52Z</time>
      </trkpt>
      <trkpt lat="45.35432" lon="6.10142">
        <ele>759.7</ele>
        <time>2016-09-25T16:07:54Z</time>
      </trkpt>
      <trkpt lat="45.35444" lon="6.10151">
        <ele>759.1</ele>
        <time>2016-09-25T16:07:56Z</time>
      </trkpt>
      <trkpt lat="45.35457" lon="6.10153">
        <ele>758.6</ele>
        <time>2016-09-25T16:07:58Z</time>
      </trkpt>
      <trkpt lat="45.3547" lon="6.10147">
        <ele>757.9</ele>
        <time>2016-09-25T16:08:00Z</time>
      </trkpt>
      <trkpt lat="45.35483" lon="6.10137">
        <ele>757.3</ele>
        <time>2016-09-25T16:08:02Z</time>
      </trkpt>
      <trkpt lat="45.35495" lon="6.10123">
        <ele>756.5</ele>
        <time>2016-09-25T16:08:04Z</time>
      </trkpt>
      <trkpt lat="45.35511" lon="6.10109">
        <ele>755.7</ele>
        <time>2016-09-25T16:08:06Z</time>
      </trkpt>
      <trkpt lat="45.3552" lon="6.10104">
        <ele>755.2</ele>
        <time>2016-09-25T16:08:07Z</time>
      </trkpt>
      <trkpt lat="45.35528" lon="6.10099">
        <ele>754.7</ele>
        <time>2016-09-25T16:08:08Z</time>
      </trkpt>
      <trkpt lat="45.35538" lon="6.10093">
        <ele>754.3</ele>
        <time>2016-09-25T16:08:09Z</time>
      </trkpt>
      <trkpt lat="45.35547" lon="6.10088">
        <ele>753.8</ele>
        <time>2016-09-25T16:08:10Z</time>
      </trkpt>
      <trkpt lat="45.35556" lon="6.10082">
        <ele>753.4</ele>
        <time>2016-09-25T16:08:11Z</time>
      </trkpt>
      <trkpt lat="45.35565" lon="6.10076">
        <ele>752.9</ele>
        <time>2016-09-25T16:08:12Z</time>
      </trkpt>
      <trkpt lat="45.35574" lon="6.10069">
        <ele>752.4</ele>
        <time>2016-09-25T16:08:13Z</time>
      </trkpt>
      <trkpt lat="45.35584" lon="6.10064">
        <ele>752</ele>
        <time>2016-09-25T16:08:14Z</time>
      </trkpt>
      <trkpt lat="45.35593" lon="6.10058">
        <ele>751.5</ele>
        <time>2016-09-25T16:08:15Z</time>
      </trkpt>
      <trkpt lat="45.35601" lon="6.10051">
        <ele>751.1</ele>
        <time>2016-09-25T16:08:16Z</time>
      </trkpt>
      <trkpt lat="45.35609" lon="6.10043">
        <ele>750.6</ele>
        <time>2016-09-25T16:08:17Z</time>
      </trkpt>
      <trkpt lat="45.35617" lon="6.10036">
        <ele>750.2</ele>
        <time>2016-09-25T16:08:18Z</time>
      </trkpt>
      <trkpt lat="45.35624" lon="6.1003">
        <ele>749.8</ele>
        <time>2016-09-25T16:08:19Z</time>
      </trkpt>
      <trkpt lat="45.3564" lon="6.10019">
        <ele>749.1</ele>
        <time>2016-09-25T16:08:21Z</time>
      </trkpt>
      <trkpt lat="45.35655" lon="6.10013">
        <ele>748.4</ele>
        <time>2016-09-25T16:08:23Z</time>
      </trkpt>
      <trkpt lat="45.35669" lon="6.10004">
        <ele>747.8</ele>
        <time>2016-09-25T16:08:25Z</time>
      </trkpt>
      <trkpt lat="45.35681" lon="6.09992">
        <ele>747.2</ele>
        <time>2016-09-25T16:08:27Z</time>
      </trkpt>
      <trkpt lat="45.35695" lon="6.09984">
        <ele>746.6</ele>
        <time>2016-09-25T16:08:29Z</time>
      </trkpt>
      <trkpt lat="45.35707" lon="6.09978">
        <ele>745.9</ele>
        <time>2016-09-25T16:08:31Z</time>
      </trkpt>
      <trkpt lat="45.35716" lon="6.09972">
        <ele>744.8</ele>
        <time>2016-09-25T16:08:35Z</time>
      </trkpt>
      <trkpt lat="45.3572" lon="6.09958">
        <ele>741.5</ele>
        <time>2016-09-25T16:09:03Z</time>
      </trkpt>
      <trkpt lat="45.35731" lon="6.0995">
        <ele>741.3</ele>
        <time>2016-09-25T16:09:07Z</time>
      </trkpt>
      <trkpt lat="45.35742" lon="6.09942">
        <ele>741.2</ele>
        <time>2016-09-25T16:09:10Z</time>
      </trkpt>
      <trkpt lat="45.35751" lon="6.09939">
        <ele>741.2</ele>
        <time>2016-09-25T16:09:12Z</time>
      </trkpt>
      <trkpt lat="45.35762" lon="6.09936">
        <ele>741.2</ele>
        <time>2016-09-25T16:09:14Z</time>
      </trkpt>
      <trkpt lat="45.35772" lon="6.09935">
        <ele>741.2</ele>
        <time>2016-09-25T16:09:16Z</time>
      </trkpt>
      <trkpt lat="45.35782" lon="6.09936">
        <ele>741.1</ele>
        <time>2016-09-25T16:09:18Z</time>
      </trkpt>
      <trkpt lat="45.35792" lon="6.09941">
        <ele>741.1</ele>
        <time>2016-09-25T16:09:20Z</time>
      </trkpt>
      <trkpt lat="45.35802" lon="6.09946">
        <ele>741.1</ele>
        <time>2016-09-25T16:09:22Z</time>
      </trkpt>
      <trkpt lat="45.35813" lon="6.09952">
        <ele>741.1</ele>
        <time>2016-09-25T16:09:24Z</time>
      </trkpt>
      <trkpt lat="45.35824" lon="6.09958">
        <ele>741.1</ele>
        <time>2016-09-25T16:09:26Z</time>
      </trkpt>
      <trkpt lat="45.35834" lon="6.09963">
        <ele>741.1</ele>
        <time>2016-09-25T16:09:28Z</time>
      </trkpt>
      <trkpt lat="45.35845" lon="6.09964">
        <ele>741.1</ele>
        <time>2016-09-25T16:09:30Z</time>
      </trkpt>
      <trkpt lat="45.35855" lon="6.09964">
        <ele>741.1</ele>
        <time>2016-09-25T16:09:32Z</time>
      </trkpt>
      <trkpt lat="45.35865" lon="6.09962">
        <ele>741</ele>
        <time>2016-09-25T16:09:34Z</time>
      </trkpt>
      <trkpt lat="45.35875" lon="6.09962">
        <ele>740.9</ele>
        <time>2016-09-25T16:09:36Z</time>
      </trkpt>
      <trkpt lat="45.35883" lon="6.09973">
        <ele>740.8</ele>
        <time>2016-09-25T16:09:39Z</time>
      </trkpt>
      <trkpt lat="45.35881" lon="6.09978">
        <ele>741.8</ele>
        <time>2016-09-25T16:09:49Z</time>
      </trkpt>
    </trkseg>
  </trk>
</gpx>